<?xml version="1.0" encoding="UTF-8" standalone="no" ?>
<gpx xmlns="http://www.topografix.com/GPX/1/1" xmlns:xsi="http://www.w3.org/2001/XMLSchema-instance" xsi:schemaLocation="http://www.topografix.com/GPX/1/1 http://www.topografix.com/GPX/1/1/gpx.xsd" version="1.1" creator="VisuGPX - https://www.visugpx.com">
  <metadata>
    <name>BAU REDON</name>
    <desc><![CDATA[Parcours facile,sans difficulté,un peu long! (20km)]]></desc>
  </metadata>
  <trk>
    <name><![CDATA[BAU REDON_1]]></name>
    <trkseg>
      <trkpt lat="43.18396" lon="5.59913">
        <ele>97</ele>
        <time>2019-11-20T08:17:34Z</time>
      </trkpt>
      <trkpt lat="43.18401" lon="5.59914">
        <ele>93</ele>
        <time>2019-11-20T08:17:38Z</time>
      </trkpt>
      <trkpt lat="43.18406" lon="5.59912">
        <ele>92</ele>
        <time>2019-11-20T08:17:46Z</time>
      </trkpt>
      <trkpt lat="43.18408" lon="5.59905">
        <ele>92</ele>
        <time>2019-11-20T08:17:52Z</time>
      </trkpt>
      <trkpt lat="43.18403" lon="5.599">
        <ele>91</ele>
        <time>2019-11-20T08:18:00Z</time>
      </trkpt>
      <trkpt lat="43.18398" lon="5.59897">
        <ele>91</ele>
        <time>2019-11-20T08:18:06Z</time>
      </trkpt>
      <trkpt lat="43.18393" lon="5.59897">
        <ele>92</ele>
        <time>2019-11-20T08:18:12Z</time>
      </trkpt>
      <trkpt lat="43.18388" lon="5.59893">
        <ele>91</ele>
        <time>2019-11-20T08:18:18Z</time>
      </trkpt>
      <trkpt lat="43.18381" lon="5.5989">
        <ele>93</ele>
        <time>2019-11-20T08:18:24Z</time>
      </trkpt>
      <trkpt lat="43.18375" lon="5.59887">
        <ele>92</ele>
        <time>2019-11-20T08:18:30Z</time>
      </trkpt>
      <trkpt lat="43.18369" lon="5.59883">
        <ele>93</ele>
        <time>2019-11-20T08:18:36Z</time>
      </trkpt>
      <trkpt lat="43.18365" lon="5.59879">
        <ele>94</ele>
        <time>2019-11-20T08:18:40Z</time>
      </trkpt>
      <trkpt lat="43.1836" lon="5.59877">
        <ele>95</ele>
        <time>2019-11-20T08:18:44Z</time>
      </trkpt>
      <trkpt lat="43.18355" lon="5.59878">
        <ele>98</ele>
        <time>2019-11-20T08:18:48Z</time>
      </trkpt>
      <trkpt lat="43.1835" lon="5.59878">
        <ele>98</ele>
        <time>2019-11-20T08:18:52Z</time>
      </trkpt>
      <trkpt lat="43.18345" lon="5.59874">
        <ele>99</ele>
        <time>2019-11-20T08:18:58Z</time>
      </trkpt>
      <trkpt lat="43.18341" lon="5.59869">
        <ele>99</ele>
        <time>2019-11-20T08:19:04Z</time>
      </trkpt>
      <trkpt lat="43.18336" lon="5.59864">
        <ele>98</ele>
        <time>2019-11-20T08:19:10Z</time>
      </trkpt>
      <trkpt lat="43.18333" lon="5.59858">
        <ele>96</ele>
        <time>2019-11-20T08:19:14Z</time>
      </trkpt>
      <trkpt lat="43.18331" lon="5.59853">
        <ele>98</ele>
        <time>2019-11-20T08:19:18Z</time>
      </trkpt>
      <trkpt lat="43.18329" lon="5.59846">
        <ele>98</ele>
        <time>2019-11-20T08:19:22Z</time>
      </trkpt>
      <trkpt lat="43.18327" lon="5.59839">
        <ele>96</ele>
        <time>2019-11-20T08:19:28Z</time>
      </trkpt>
      <trkpt lat="43.18324" lon="5.59832">
        <ele>95</ele>
        <time>2019-11-20T08:19:34Z</time>
      </trkpt>
      <trkpt lat="43.1832" lon="5.59827">
        <ele>95</ele>
        <time>2019-11-20T08:19:40Z</time>
      </trkpt>
      <trkpt lat="43.18316" lon="5.5982">
        <ele>95</ele>
        <time>2019-11-20T08:19:46Z</time>
      </trkpt>
      <trkpt lat="43.18314" lon="5.59813">
        <ele>94</ele>
        <time>2019-11-20T08:19:52Z</time>
      </trkpt>
      <trkpt lat="43.18312" lon="5.59806">
        <ele>94</ele>
        <time>2019-11-20T08:19:58Z</time>
      </trkpt>
      <trkpt lat="43.18309" lon="5.59798">
        <ele>99</ele>
        <time>2019-11-20T08:20:04Z</time>
      </trkpt>
      <trkpt lat="43.18306" lon="5.59792">
        <ele>99</ele>
        <time>2019-11-20T08:20:08Z</time>
      </trkpt>
      <trkpt lat="43.18308" lon="5.59784">
        <ele>97</ele>
        <time>2019-11-20T08:20:14Z</time>
      </trkpt>
      <trkpt lat="43.18311" lon="5.59776">
        <ele>97</ele>
        <time>2019-11-20T08:20:20Z</time>
      </trkpt>
      <trkpt lat="43.18313" lon="5.5977">
        <ele>97</ele>
        <time>2019-11-20T08:20:24Z</time>
      </trkpt>
      <trkpt lat="43.18317" lon="5.59766">
        <ele>97</ele>
        <time>2019-11-20T08:20:28Z</time>
      </trkpt>
      <trkpt lat="43.18321" lon="5.59763">
        <ele>99</ele>
        <time>2019-11-20T08:20:32Z</time>
      </trkpt>
      <trkpt lat="43.18327" lon="5.59764">
        <ele>97</ele>
        <time>2019-11-20T08:20:40Z</time>
      </trkpt>
      <trkpt lat="43.18333" lon="5.59762">
        <ele>96</ele>
        <time>2019-11-20T08:20:46Z</time>
      </trkpt>
      <trkpt lat="43.18338" lon="5.59761">
        <ele>96</ele>
        <time>2019-11-20T08:20:50Z</time>
      </trkpt>
      <trkpt lat="43.18342" lon="5.5976">
        <ele>95</ele>
        <time>2019-11-20T08:20:54Z</time>
      </trkpt>
      <trkpt lat="43.18348" lon="5.5976">
        <ele>94</ele>
        <time>2019-11-20T08:21:00Z</time>
      </trkpt>
      <trkpt lat="43.18353" lon="5.59761">
        <ele>94</ele>
        <time>2019-11-20T08:21:06Z</time>
      </trkpt>
      <trkpt lat="43.18359" lon="5.5976">
        <ele>95</ele>
        <time>2019-11-20T08:21:12Z</time>
      </trkpt>
      <trkpt lat="43.18364" lon="5.59759">
        <ele>97</ele>
        <time>2019-11-20T08:21:16Z</time>
      </trkpt>
      <trkpt lat="43.18371" lon="5.5976">
        <ele>98</ele>
        <time>2019-11-20T08:21:22Z</time>
      </trkpt>
      <trkpt lat="43.18376" lon="5.5976">
        <ele>100</ele>
        <time>2019-11-20T08:21:26Z</time>
      </trkpt>
      <trkpt lat="43.18381" lon="5.59759">
        <ele>102</ele>
        <time>2019-11-20T08:21:30Z</time>
      </trkpt>
      <trkpt lat="43.18388" lon="5.5976">
        <ele>100</ele>
        <time>2019-11-20T08:21:36Z</time>
      </trkpt>
      <trkpt lat="43.18392" lon="5.5976">
        <ele>100</ele>
        <time>2019-11-20T08:21:40Z</time>
      </trkpt>
      <trkpt lat="43.18397" lon="5.59759">
        <ele>101</ele>
        <time>2019-11-20T08:21:44Z</time>
      </trkpt>
      <trkpt lat="43.18402" lon="5.59756">
        <ele>101</ele>
        <time>2019-11-20T08:21:48Z</time>
      </trkpt>
      <trkpt lat="43.18405" lon="5.59751">
        <ele>99</ele>
        <time>2019-11-20T08:21:54Z</time>
      </trkpt>
      <trkpt lat="43.18406" lon="5.59744">
        <ele>98</ele>
        <time>2019-11-20T08:22:00Z</time>
      </trkpt>
      <trkpt lat="43.18407" lon="5.59737">
        <ele>98</ele>
        <time>2019-11-20T08:22:06Z</time>
      </trkpt>
      <trkpt lat="43.18407" lon="5.59729">
        <ele>98</ele>
        <time>2019-11-20T08:22:12Z</time>
      </trkpt>
      <trkpt lat="43.18407" lon="5.59723">
        <ele>97</ele>
        <time>2019-11-20T08:22:16Z</time>
      </trkpt>
      <trkpt lat="43.18408" lon="5.59716">
        <ele>97</ele>
        <time>2019-11-20T08:22:20Z</time>
      </trkpt>
      <trkpt lat="43.1841" lon="5.59708">
        <ele>97</ele>
        <time>2019-11-20T08:22:26Z</time>
      </trkpt>
      <trkpt lat="43.18411" lon="5.59702">
        <ele>97</ele>
        <time>2019-11-20T08:22:30Z</time>
      </trkpt>
      <trkpt lat="43.18413" lon="5.59696">
        <ele>96</ele>
        <time>2019-11-20T08:22:34Z</time>
      </trkpt>
      <trkpt lat="43.18416" lon="5.59689">
        <ele>94</ele>
        <time>2019-11-20T08:22:40Z</time>
      </trkpt>
      <trkpt lat="43.18419" lon="5.59684">
        <ele>94</ele>
        <time>2019-11-20T08:22:44Z</time>
      </trkpt>
      <trkpt lat="43.18422" lon="5.5968">
        <ele>95</ele>
        <time>2019-11-20T08:22:48Z</time>
      </trkpt>
      <trkpt lat="43.18426" lon="5.59676">
        <ele>95</ele>
        <time>2019-11-20T08:22:52Z</time>
      </trkpt>
      <trkpt lat="43.18429" lon="5.59671">
        <ele>96</ele>
        <time>2019-11-20T08:22:56Z</time>
      </trkpt>
      <trkpt lat="43.18435" lon="5.59667">
        <ele>95</ele>
        <time>2019-11-20T08:23:02Z</time>
      </trkpt>
      <trkpt lat="43.18439" lon="5.59664">
        <ele>95</ele>
        <time>2019-11-20T08:23:06Z</time>
      </trkpt>
      <trkpt lat="43.18444" lon="5.59661">
        <ele>94</ele>
        <time>2019-11-20T08:23:12Z</time>
      </trkpt>
      <trkpt lat="43.1845" lon="5.59657">
        <ele>93</ele>
        <time>2019-11-20T08:23:18Z</time>
      </trkpt>
      <trkpt lat="43.18454" lon="5.59653">
        <ele>94</ele>
        <time>2019-11-20T08:23:22Z</time>
      </trkpt>
      <trkpt lat="43.1846" lon="5.59649">
        <ele>93</ele>
        <time>2019-11-20T08:23:28Z</time>
      </trkpt>
      <trkpt lat="43.18465" lon="5.59646">
        <ele>92</ele>
        <time>2019-11-20T08:23:34Z</time>
      </trkpt>
      <trkpt lat="43.18469" lon="5.59643">
        <ele>92</ele>
        <time>2019-11-20T08:23:38Z</time>
      </trkpt>
      <trkpt lat="43.18473" lon="5.59639">
        <ele>93</ele>
        <time>2019-11-20T08:23:42Z</time>
      </trkpt>
      <trkpt lat="43.18478" lon="5.59634">
        <ele>92</ele>
        <time>2019-11-20T08:23:48Z</time>
      </trkpt>
      <trkpt lat="43.18481" lon="5.59629">
        <ele>93</ele>
        <time>2019-11-20T08:23:52Z</time>
      </trkpt>
      <trkpt lat="43.18485" lon="5.59622">
        <ele>93</ele>
        <time>2019-11-20T08:23:58Z</time>
      </trkpt>
      <trkpt lat="43.18489" lon="5.59615">
        <ele>93</ele>
        <time>2019-11-20T08:24:04Z</time>
      </trkpt>
      <trkpt lat="43.18494" lon="5.59608">
        <ele>94</ele>
        <time>2019-11-20T08:24:10Z</time>
      </trkpt>
      <trkpt lat="43.18498" lon="5.59604">
        <ele>93</ele>
        <time>2019-11-20T08:24:16Z</time>
      </trkpt>
      <trkpt lat="43.18501" lon="5.59598">
        <ele>93</ele>
        <time>2019-11-20T08:24:22Z</time>
      </trkpt>
      <trkpt lat="43.18506" lon="5.59593">
        <ele>92</ele>
        <time>2019-11-20T08:24:28Z</time>
      </trkpt>
      <trkpt lat="43.1851" lon="5.59588">
        <ele>94</ele>
        <time>2019-11-20T08:24:32Z</time>
      </trkpt>
      <trkpt lat="43.18513" lon="5.59582">
        <ele>93</ele>
        <time>2019-11-20T08:24:42Z</time>
      </trkpt>
      <trkpt lat="43.18516" lon="5.59576">
        <ele>93</ele>
        <time>2019-11-20T08:24:48Z</time>
      </trkpt>
      <trkpt lat="43.18523" lon="5.59571">
        <ele>91</ele>
        <time>2019-11-20T08:24:54Z</time>
      </trkpt>
      <trkpt lat="43.18527" lon="5.59568">
        <ele>89</ele>
        <time>2019-11-20T08:24:56Z</time>
      </trkpt>
      <trkpt lat="43.18534" lon="5.59563">
        <ele>90</ele>
        <time>2019-11-20T08:25:00Z</time>
      </trkpt>
      <trkpt lat="43.1854" lon="5.59558">
        <ele>92</ele>
        <time>2019-11-20T08:25:04Z</time>
      </trkpt>
      <trkpt lat="43.18544" lon="5.59553">
        <ele>92</ele>
        <time>2019-11-20T08:25:08Z</time>
      </trkpt>
      <trkpt lat="43.18547" lon="5.59548">
        <ele>92</ele>
        <time>2019-11-20T08:25:12Z</time>
      </trkpt>
      <trkpt lat="43.18553" lon="5.59542">
        <ele>92</ele>
        <time>2019-11-20T08:25:18Z</time>
      </trkpt>
      <trkpt lat="43.18558" lon="5.59538">
        <ele>92</ele>
        <time>2019-11-20T08:25:22Z</time>
      </trkpt>
      <trkpt lat="43.18562" lon="5.59535">
        <ele>93</ele>
        <time>2019-11-20T08:25:26Z</time>
      </trkpt>
      <trkpt lat="43.18567" lon="5.59532">
        <ele>94</ele>
        <time>2019-11-20T08:25:30Z</time>
      </trkpt>
      <trkpt lat="43.18572" lon="5.59528">
        <ele>93</ele>
        <time>2019-11-20T08:25:34Z</time>
      </trkpt>
      <trkpt lat="43.18577" lon="5.59526">
        <ele>91</ele>
        <time>2019-11-20T08:25:40Z</time>
      </trkpt>
      <trkpt lat="43.18581" lon="5.59524">
        <ele>92</ele>
        <time>2019-11-20T08:25:46Z</time>
      </trkpt>
      <trkpt lat="43.18587" lon="5.5952">
        <ele>91</ele>
        <time>2019-11-20T08:25:52Z</time>
      </trkpt>
      <trkpt lat="43.18593" lon="5.59518">
        <ele>90</ele>
        <time>2019-11-20T08:26:00Z</time>
      </trkpt>
      <trkpt lat="43.18598" lon="5.59516">
        <ele>88</ele>
        <time>2019-11-20T08:26:06Z</time>
      </trkpt>
      <trkpt lat="43.18602" lon="5.59513">
        <ele>89</ele>
        <time>2019-11-20T08:26:12Z</time>
      </trkpt>
      <trkpt lat="43.18607" lon="5.59511">
        <ele>89</ele>
        <time>2019-11-20T08:26:18Z</time>
      </trkpt>
      <trkpt lat="43.18613" lon="5.59509">
        <ele>88</ele>
        <time>2019-11-20T08:26:24Z</time>
      </trkpt>
      <trkpt lat="43.18619" lon="5.59505">
        <ele>90</ele>
        <time>2019-11-20T08:26:30Z</time>
      </trkpt>
      <trkpt lat="43.18625" lon="5.59502">
        <ele>90</ele>
        <time>2019-11-20T08:26:36Z</time>
      </trkpt>
      <trkpt lat="43.18631" lon="5.59497">
        <ele>93</ele>
        <time>2019-11-20T08:26:42Z</time>
      </trkpt>
      <trkpt lat="43.18637" lon="5.59494">
        <ele>92</ele>
        <time>2019-11-20T08:26:48Z</time>
      </trkpt>
      <trkpt lat="43.18642" lon="5.5949">
        <ele>91</ele>
        <time>2019-11-20T08:26:54Z</time>
      </trkpt>
      <trkpt lat="43.18648" lon="5.59486">
        <ele>91</ele>
        <time>2019-11-20T08:27:00Z</time>
      </trkpt>
      <trkpt lat="43.18652" lon="5.59482">
        <ele>91</ele>
        <time>2019-11-20T08:27:06Z</time>
      </trkpt>
      <trkpt lat="43.18656" lon="5.59478">
        <ele>91</ele>
        <time>2019-11-20T08:27:10Z</time>
      </trkpt>
      <trkpt lat="43.18659" lon="5.59474">
        <ele>92</ele>
        <time>2019-11-20T08:27:14Z</time>
      </trkpt>
      <trkpt lat="43.18663" lon="5.59468">
        <ele>92</ele>
        <time>2019-11-20T08:27:20Z</time>
      </trkpt>
      <trkpt lat="43.18665" lon="5.5946">
        <ele>91</ele>
        <time>2019-11-20T08:27:26Z</time>
      </trkpt>
      <trkpt lat="43.18666" lon="5.59451">
        <ele>91</ele>
        <time>2019-11-20T08:27:32Z</time>
      </trkpt>
      <trkpt lat="43.18668" lon="5.59444">
        <ele>90</ele>
        <time>2019-11-20T08:27:38Z</time>
      </trkpt>
      <trkpt lat="43.18666" lon="5.59437">
        <ele>93</ele>
        <time>2019-11-20T08:27:42Z</time>
      </trkpt>
      <trkpt lat="43.18664" lon="5.59429">
        <ele>92</ele>
        <time>2019-11-20T08:27:46Z</time>
      </trkpt>
      <trkpt lat="43.18664" lon="5.59421">
        <ele>94</ele>
        <time>2019-11-20T08:27:54Z</time>
      </trkpt>
      <trkpt lat="43.18665" lon="5.59414">
        <ele>96</ele>
        <time>2019-11-20T08:28:00Z</time>
      </trkpt>
      <trkpt lat="43.18666" lon="5.59407">
        <ele>91</ele>
        <time>2019-11-20T08:28:08Z</time>
      </trkpt>
      <trkpt lat="43.18669" lon="5.59402">
        <ele>90</ele>
        <time>2019-11-20T08:28:14Z</time>
      </trkpt>
      <trkpt lat="43.18674" lon="5.59396">
        <ele>87</ele>
        <time>2019-11-20T08:28:20Z</time>
      </trkpt>
      <trkpt lat="43.18678" lon="5.59391">
        <ele>91</ele>
        <time>2019-11-20T08:28:24Z</time>
      </trkpt>
      <trkpt lat="43.18682" lon="5.59386">
        <ele>91</ele>
        <time>2019-11-20T08:28:28Z</time>
      </trkpt>
      <trkpt lat="43.18688" lon="5.59378">
        <ele>95</ele>
        <time>2019-11-20T08:28:32Z</time>
      </trkpt>
      <trkpt lat="43.18694" lon="5.59371">
        <ele>98</ele>
        <time>2019-11-20T08:28:36Z</time>
      </trkpt>
      <trkpt lat="43.18699" lon="5.59364">
        <ele>99</ele>
        <time>2019-11-20T08:28:40Z</time>
      </trkpt>
      <trkpt lat="43.18703" lon="5.59358">
        <ele>100</ele>
        <time>2019-11-20T08:28:44Z</time>
      </trkpt>
      <trkpt lat="43.18708" lon="5.59355">
        <ele>98</ele>
        <time>2019-11-20T08:28:48Z</time>
      </trkpt>
      <trkpt lat="43.18712" lon="5.59352">
        <ele>96</ele>
        <time>2019-11-20T08:28:54Z</time>
      </trkpt>
      <trkpt lat="43.18716" lon="5.5935">
        <ele>97</ele>
        <time>2019-11-20T08:28:58Z</time>
      </trkpt>
      <trkpt lat="43.18721" lon="5.59347">
        <ele>99</ele>
        <time>2019-11-20T08:29:02Z</time>
      </trkpt>
      <trkpt lat="43.18725" lon="5.59343">
        <ele>100</ele>
        <time>2019-11-20T08:29:06Z</time>
      </trkpt>
      <trkpt lat="43.18729" lon="5.59339">
        <ele>100</ele>
        <time>2019-11-20T08:29:10Z</time>
      </trkpt>
      <trkpt lat="43.18734" lon="5.59333">
        <ele>96</ele>
        <time>2019-11-20T08:29:16Z</time>
      </trkpt>
      <trkpt lat="43.18736" lon="5.59327">
        <ele>97</ele>
        <time>2019-11-20T08:29:20Z</time>
      </trkpt>
      <trkpt lat="43.18739" lon="5.59319">
        <ele>98</ele>
        <time>2019-11-20T08:29:26Z</time>
      </trkpt>
      <trkpt lat="43.1874" lon="5.59311">
        <ele>98</ele>
        <time>2019-11-20T08:29:30Z</time>
      </trkpt>
      <trkpt lat="43.18742" lon="5.59305">
        <ele>100</ele>
        <time>2019-11-20T08:29:34Z</time>
      </trkpt>
      <trkpt lat="43.18745" lon="5.593">
        <ele>98</ele>
        <time>2019-11-20T08:29:40Z</time>
      </trkpt>
      <trkpt lat="43.18747" lon="5.59294">
        <ele>100</ele>
        <time>2019-11-20T08:29:44Z</time>
      </trkpt>
      <trkpt lat="43.18751" lon="5.59288">
        <ele>101</ele>
        <time>2019-11-20T08:29:50Z</time>
      </trkpt>
      <trkpt lat="43.18755" lon="5.59282">
        <ele>99</ele>
        <time>2019-11-20T08:29:58Z</time>
      </trkpt>
      <trkpt lat="43.18758" lon="5.59275">
        <ele>101</ele>
        <time>2019-11-20T08:30:04Z</time>
      </trkpt>
      <trkpt lat="43.18762" lon="5.59269">
        <ele>103</ele>
        <time>2019-11-20T08:30:08Z</time>
      </trkpt>
      <trkpt lat="43.18767" lon="5.59263">
        <ele>104</ele>
        <time>2019-11-20T08:30:12Z</time>
      </trkpt>
      <trkpt lat="43.18773" lon="5.59258">
        <ele>105</ele>
        <time>2019-11-20T08:30:18Z</time>
      </trkpt>
      <trkpt lat="43.18777" lon="5.59253">
        <ele>107</ele>
        <time>2019-11-20T08:30:22Z</time>
      </trkpt>
      <trkpt lat="43.18782" lon="5.59249">
        <ele>108</ele>
        <time>2019-11-20T08:30:26Z</time>
      </trkpt>
      <trkpt lat="43.18787" lon="5.59247">
        <ele>107</ele>
        <time>2019-11-20T08:30:30Z</time>
      </trkpt>
      <trkpt lat="43.18794" lon="5.59248">
        <ele>107</ele>
        <time>2019-11-20T08:30:40Z</time>
      </trkpt>
      <trkpt lat="43.18799" lon="5.59244">
        <ele>108</ele>
        <time>2019-11-20T08:30:44Z</time>
      </trkpt>
      <trkpt lat="43.18804" lon="5.59242">
        <ele>110</ele>
        <time>2019-11-20T08:30:48Z</time>
      </trkpt>
      <trkpt lat="43.1881" lon="5.59239">
        <ele>113</ele>
        <time>2019-11-20T08:30:54Z</time>
      </trkpt>
      <trkpt lat="43.18815" lon="5.59236">
        <ele>111</ele>
        <time>2019-11-20T08:31:02Z</time>
      </trkpt>
      <trkpt lat="43.1882" lon="5.59235">
        <ele>104</ele>
        <time>2019-11-20T08:31:08Z</time>
      </trkpt>
      <trkpt lat="43.18824" lon="5.59233">
        <ele>101</ele>
        <time>2019-11-20T08:31:12Z</time>
      </trkpt>
      <trkpt lat="43.18829" lon="5.59231">
        <ele>101</ele>
        <time>2019-11-20T08:31:16Z</time>
      </trkpt>
      <trkpt lat="43.18834" lon="5.59229">
        <ele>98</ele>
        <time>2019-11-20T08:31:22Z</time>
      </trkpt>
      <trkpt lat="43.18838" lon="5.59226">
        <ele>100</ele>
        <time>2019-11-20T08:31:26Z</time>
      </trkpt>
      <trkpt lat="43.18844" lon="5.59221">
        <ele>99</ele>
        <time>2019-11-20T08:31:32Z</time>
      </trkpt>
      <trkpt lat="43.18848" lon="5.59217">
        <ele>101</ele>
        <time>2019-11-20T08:31:36Z</time>
      </trkpt>
      <trkpt lat="43.18853" lon="5.59214">
        <ele>98</ele>
        <time>2019-11-20T08:31:42Z</time>
      </trkpt>
      <trkpt lat="43.18858" lon="5.59213">
        <ele>98</ele>
        <time>2019-11-20T08:31:46Z</time>
      </trkpt>
      <trkpt lat="43.18863" lon="5.5921">
        <ele>99</ele>
        <time>2019-11-20T08:31:50Z</time>
      </trkpt>
      <trkpt lat="43.18868" lon="5.59206">
        <ele>101</ele>
        <time>2019-11-20T08:31:54Z</time>
      </trkpt>
      <trkpt lat="43.18873" lon="5.59199">
        <ele>106</ele>
        <time>2019-11-20T08:31:58Z</time>
      </trkpt>
      <trkpt lat="43.18877" lon="5.59194">
        <ele>106</ele>
        <time>2019-11-20T08:32:02Z</time>
      </trkpt>
      <trkpt lat="43.18881" lon="5.59188">
        <ele>107</ele>
        <time>2019-11-20T08:32:08Z</time>
      </trkpt>
      <trkpt lat="43.18884" lon="5.59184">
        <ele>104</ele>
        <time>2019-11-20T08:32:12Z</time>
      </trkpt>
      <trkpt lat="43.18888" lon="5.59176">
        <ele>107</ele>
        <time>2019-11-20T08:32:18Z</time>
      </trkpt>
      <trkpt lat="43.18893" lon="5.59167">
        <ele>112</ele>
        <time>2019-11-20T08:32:22Z</time>
      </trkpt>
      <trkpt lat="43.18896" lon="5.59163">
        <ele>112</ele>
        <time>2019-11-20T08:32:26Z</time>
      </trkpt>
      <trkpt lat="43.189" lon="5.59158">
        <ele>111</ele>
        <time>2019-11-20T08:32:32Z</time>
      </trkpt>
      <trkpt lat="43.18904" lon="5.59153">
        <ele>110</ele>
        <time>2019-11-20T08:32:36Z</time>
      </trkpt>
      <trkpt lat="43.18908" lon="5.59146">
        <ele>113</ele>
        <time>2019-11-20T08:32:40Z</time>
      </trkpt>
      <trkpt lat="43.18913" lon="5.59141">
        <ele>111</ele>
        <time>2019-11-20T08:32:46Z</time>
      </trkpt>
      <trkpt lat="43.18917" lon="5.59137">
        <ele>112</ele>
        <time>2019-11-20T08:32:50Z</time>
      </trkpt>
      <trkpt lat="43.18919" lon="5.59131">
        <ele>115</ele>
        <time>2019-11-20T08:32:54Z</time>
      </trkpt>
      <trkpt lat="43.18924" lon="5.59128">
        <ele>111</ele>
        <time>2019-11-20T08:33:02Z</time>
      </trkpt>
      <trkpt lat="43.18927" lon="5.59123">
        <ele>114</ele>
        <time>2019-11-20T08:33:08Z</time>
      </trkpt>
      <trkpt lat="43.18929" lon="5.59116">
        <ele>115</ele>
        <time>2019-11-20T08:33:14Z</time>
      </trkpt>
      <trkpt lat="43.18931" lon="5.59107">
        <ele>114</ele>
        <time>2019-11-20T08:33:24Z</time>
      </trkpt>
      <trkpt lat="43.18933" lon="5.59102">
        <ele>114</ele>
        <time>2019-11-20T08:33:28Z</time>
      </trkpt>
      <trkpt lat="43.18935" lon="5.59096">
        <ele>116</ele>
        <time>2019-11-20T08:33:32Z</time>
      </trkpt>
      <trkpt lat="43.18937" lon="5.59088">
        <ele>114</ele>
        <time>2019-11-20T08:33:38Z</time>
      </trkpt>
      <trkpt lat="43.18941" lon="5.5908">
        <ele>113</ele>
        <time>2019-11-20T08:33:46Z</time>
      </trkpt>
      <trkpt lat="43.18944" lon="5.59071">
        <ele>112</ele>
        <time>2019-11-20T08:33:50Z</time>
      </trkpt>
      <trkpt lat="43.18947" lon="5.59065">
        <ele>110</ele>
        <time>2019-11-20T08:33:54Z</time>
      </trkpt>
      <trkpt lat="43.18949" lon="5.59059">
        <ele>112</ele>
        <time>2019-11-20T08:33:58Z</time>
      </trkpt>
      <trkpt lat="43.18952" lon="5.59051">
        <ele>116</ele>
        <time>2019-11-20T08:34:04Z</time>
      </trkpt>
      <trkpt lat="43.18954" lon="5.59045">
        <ele>115</ele>
        <time>2019-11-20T08:34:10Z</time>
      </trkpt>
      <trkpt lat="43.18962" lon="5.59042">
        <ele>114</ele>
        <time>2019-11-20T08:34:16Z</time>
      </trkpt>
      <trkpt lat="43.18968" lon="5.59039">
        <ele>113</ele>
        <time>2019-11-20T08:34:20Z</time>
      </trkpt>
      <trkpt lat="43.18976" lon="5.59035">
        <ele>115</ele>
        <time>2019-11-20T08:34:24Z</time>
      </trkpt>
      <trkpt lat="43.18982" lon="5.59028">
        <ele>116</ele>
        <time>2019-11-20T08:34:28Z</time>
      </trkpt>
      <trkpt lat="43.18987" lon="5.59023">
        <ele>119</ele>
        <time>2019-11-20T08:34:32Z</time>
      </trkpt>
      <trkpt lat="43.18992" lon="5.5902">
        <ele>120</ele>
        <time>2019-11-20T08:34:36Z</time>
      </trkpt>
      <trkpt lat="43.18995" lon="5.59014">
        <ele>121</ele>
        <time>2019-11-20T08:34:42Z</time>
      </trkpt>
      <trkpt lat="43.19" lon="5.59015">
        <ele>123</ele>
        <time>2019-11-20T08:34:50Z</time>
      </trkpt>
      <trkpt lat="43.19006" lon="5.59015">
        <ele>123</ele>
        <time>2019-11-20T08:34:54Z</time>
      </trkpt>
      <trkpt lat="43.19012" lon="5.59014">
        <ele>121</ele>
        <time>2019-11-20T08:35:00Z</time>
      </trkpt>
      <trkpt lat="43.19017" lon="5.59014">
        <ele>119</ele>
        <time>2019-11-20T08:35:06Z</time>
      </trkpt>
      <trkpt lat="43.19021" lon="5.59019">
        <ele>116</ele>
        <time>2019-11-20T08:35:18Z</time>
      </trkpt>
      <trkpt lat="43.19026" lon="5.59019">
        <ele>115</ele>
        <time>2019-11-20T08:35:24Z</time>
      </trkpt>
      <trkpt lat="43.19032" lon="5.59018">
        <ele>114</ele>
        <time>2019-11-20T08:35:30Z</time>
      </trkpt>
      <trkpt lat="43.19037" lon="5.59015">
        <ele>111</ele>
        <time>2019-11-20T08:35:36Z</time>
      </trkpt>
      <trkpt lat="43.19041" lon="5.5901">
        <ele>109</ele>
        <time>2019-11-20T08:35:42Z</time>
      </trkpt>
      <trkpt lat="43.19046" lon="5.59001">
        <ele>111</ele>
        <time>2019-11-20T08:35:48Z</time>
      </trkpt>
      <trkpt lat="43.19049" lon="5.58993">
        <ele>113</ele>
        <time>2019-11-20T08:35:52Z</time>
      </trkpt>
      <trkpt lat="43.19053" lon="5.58985">
        <ele>115</ele>
        <time>2019-11-20T08:35:56Z</time>
      </trkpt>
      <trkpt lat="43.19056" lon="5.58977">
        <ele>116</ele>
        <time>2019-11-20T08:36:02Z</time>
      </trkpt>
      <trkpt lat="43.1906" lon="5.5897">
        <ele>115</ele>
        <time>2019-11-20T08:36:10Z</time>
      </trkpt>
      <trkpt lat="43.19064" lon="5.58966">
        <ele>115</ele>
        <time>2019-11-20T08:36:14Z</time>
      </trkpt>
      <trkpt lat="43.19068" lon="5.58963">
        <ele>118</ele>
        <time>2019-11-20T08:36:18Z</time>
      </trkpt>
      <trkpt lat="43.19073" lon="5.5896">
        <ele>117</ele>
        <time>2019-11-20T08:36:22Z</time>
      </trkpt>
      <trkpt lat="43.19078" lon="5.58959">
        <ele>118</ele>
        <time>2019-11-20T08:36:28Z</time>
      </trkpt>
      <trkpt lat="43.19082" lon="5.58955">
        <ele>119</ele>
        <time>2019-11-20T08:36:34Z</time>
      </trkpt>
      <trkpt lat="43.19087" lon="5.58951">
        <ele>119</ele>
        <time>2019-11-20T08:36:42Z</time>
      </trkpt>
      <trkpt lat="43.19092" lon="5.5895">
        <ele>122</ele>
        <time>2019-11-20T08:36:50Z</time>
      </trkpt>
      <trkpt lat="43.19098" lon="5.58948">
        <ele>121</ele>
        <time>2019-11-20T08:36:54Z</time>
      </trkpt>
      <trkpt lat="43.19103" lon="5.58945">
        <ele>119</ele>
        <time>2019-11-20T08:36:58Z</time>
      </trkpt>
      <trkpt lat="43.19107" lon="5.5894">
        <ele>118</ele>
        <time>2019-11-20T08:37:02Z</time>
      </trkpt>
      <trkpt lat="43.19111" lon="5.58937">
        <ele>115</ele>
        <time>2019-11-20T08:37:04Z</time>
      </trkpt>
      <trkpt lat="43.1912" lon="5.58934">
        <ele>118</ele>
        <time>2019-11-20T08:37:08Z</time>
      </trkpt>
      <trkpt lat="43.19125" lon="5.58933">
        <ele>118</ele>
        <time>2019-11-20T08:37:12Z</time>
      </trkpt>
      <trkpt lat="43.1913" lon="5.58937">
        <ele>115</ele>
        <time>2019-11-20T08:37:20Z</time>
      </trkpt>
      <trkpt lat="43.19135" lon="5.58938">
        <ele>117</ele>
        <time>2019-11-20T08:37:24Z</time>
      </trkpt>
      <trkpt lat="43.19141" lon="5.58941">
        <ele>118</ele>
        <time>2019-11-20T08:37:28Z</time>
      </trkpt>
      <trkpt lat="43.19147" lon="5.58944">
        <ele>121</ele>
        <time>2019-11-20T08:37:34Z</time>
      </trkpt>
      <trkpt lat="43.19152" lon="5.58944">
        <ele>119</ele>
        <time>2019-11-20T08:37:38Z</time>
      </trkpt>
      <trkpt lat="43.19158" lon="5.5894">
        <ele>117</ele>
        <time>2019-11-20T08:37:42Z</time>
      </trkpt>
      <trkpt lat="43.19163" lon="5.58938">
        <ele>116</ele>
        <time>2019-11-20T08:37:46Z</time>
      </trkpt>
      <trkpt lat="43.19167" lon="5.58933">
        <ele>116</ele>
        <time>2019-11-20T08:37:52Z</time>
      </trkpt>
      <trkpt lat="43.19172" lon="5.58929">
        <ele>115</ele>
        <time>2019-11-20T08:37:58Z</time>
      </trkpt>
      <trkpt lat="43.19175" lon="5.58923">
        <ele>115</ele>
        <time>2019-11-20T08:38:04Z</time>
      </trkpt>
      <trkpt lat="43.19178" lon="5.58916">
        <ele>117</ele>
        <time>2019-11-20T08:38:08Z</time>
      </trkpt>
      <trkpt lat="43.1918" lon="5.58908">
        <ele>117</ele>
        <time>2019-11-20T08:38:14Z</time>
      </trkpt>
      <trkpt lat="43.19183" lon="5.589">
        <ele>126</ele>
        <time>2019-11-20T08:38:18Z</time>
      </trkpt>
      <trkpt lat="43.19186" lon="5.58893">
        <ele>127</ele>
        <time>2019-11-20T08:38:22Z</time>
      </trkpt>
      <trkpt lat="43.19188" lon="5.58886">
        <ele>128</ele>
        <time>2019-11-20T08:38:26Z</time>
      </trkpt>
      <trkpt lat="43.19187" lon="5.58879">
        <ele>123</ele>
        <time>2019-11-20T08:38:32Z</time>
      </trkpt>
      <trkpt lat="43.19188" lon="5.5887">
        <ele>122</ele>
        <time>2019-11-20T08:38:38Z</time>
      </trkpt>
      <trkpt lat="43.19188" lon="5.58862">
        <ele>121</ele>
        <time>2019-11-20T08:38:46Z</time>
      </trkpt>
      <trkpt lat="43.19184" lon="5.58857">
        <ele>117</ele>
        <time>2019-11-20T08:38:54Z</time>
      </trkpt>
      <trkpt lat="43.19185" lon="5.5885">
        <ele>114</ele>
        <time>2019-11-20T08:39:04Z</time>
      </trkpt>
      <trkpt lat="43.1919" lon="5.58846">
        <ele>117</ele>
        <time>2019-11-20T08:39:08Z</time>
      </trkpt>
      <trkpt lat="43.19194" lon="5.58842">
        <ele>117</ele>
        <time>2019-11-20T08:39:12Z</time>
      </trkpt>
      <trkpt lat="43.19197" lon="5.58836">
        <ele>115</ele>
        <time>2019-11-20T08:39:18Z</time>
      </trkpt>
      <trkpt lat="43.19199" lon="5.5883">
        <ele>114</ele>
        <time>2019-11-20T08:39:24Z</time>
      </trkpt>
      <trkpt lat="43.19201" lon="5.58821">
        <ele>112</ele>
        <time>2019-11-20T08:39:30Z</time>
      </trkpt>
      <trkpt lat="43.19203" lon="5.58814">
        <ele>115</ele>
        <time>2019-11-20T08:39:34Z</time>
      </trkpt>
      <trkpt lat="43.19205" lon="5.58807">
        <ele>121</ele>
        <time>2019-11-20T08:39:36Z</time>
      </trkpt>
      <trkpt lat="43.19207" lon="5.58798">
        <ele>122</ele>
        <time>2019-11-20T08:39:40Z</time>
      </trkpt>
      <trkpt lat="43.19208" lon="5.5879">
        <ele>122</ele>
        <time>2019-11-20T08:39:44Z</time>
      </trkpt>
      <trkpt lat="43.19208" lon="5.58783">
        <ele>121</ele>
        <time>2019-11-20T08:39:48Z</time>
      </trkpt>
      <trkpt lat="43.19207" lon="5.58775">
        <ele>118</ele>
        <time>2019-11-20T08:39:54Z</time>
      </trkpt>
      <trkpt lat="43.19207" lon="5.58768">
        <ele>116</ele>
        <time>2019-11-20T08:40:00Z</time>
      </trkpt>
      <trkpt lat="43.19206" lon="5.58762">
        <ele>115</ele>
        <time>2019-11-20T08:40:06Z</time>
      </trkpt>
      <trkpt lat="43.19206" lon="5.58754">
        <ele>110</ele>
        <time>2019-11-20T08:40:14Z</time>
      </trkpt>
      <trkpt lat="43.19209" lon="5.58748">
        <ele>109</ele>
        <time>2019-11-20T08:40:22Z</time>
      </trkpt>
      <trkpt lat="43.19215" lon="5.58742">
        <ele>118</ele>
        <time>2019-11-20T08:40:28Z</time>
      </trkpt>
      <trkpt lat="43.1922" lon="5.58734">
        <ele>120</ele>
        <time>2019-11-20T08:40:32Z</time>
      </trkpt>
      <trkpt lat="43.19223" lon="5.58729">
        <ele>120</ele>
        <time>2019-11-20T08:40:36Z</time>
      </trkpt>
      <trkpt lat="43.19228" lon="5.58726">
        <ele>120</ele>
        <time>2019-11-20T08:40:42Z</time>
      </trkpt>
      <trkpt lat="43.19233" lon="5.58723">
        <ele>122</ele>
        <time>2019-11-20T08:40:46Z</time>
      </trkpt>
      <trkpt lat="43.19239" lon="5.5872">
        <ele>124</ele>
        <time>2019-11-20T08:40:50Z</time>
      </trkpt>
      <trkpt lat="43.19244" lon="5.5872">
        <ele>125</ele>
        <time>2019-11-20T08:40:56Z</time>
      </trkpt>
      <trkpt lat="43.19249" lon="5.58718">
        <ele>125</ele>
        <time>2019-11-20T08:41:00Z</time>
      </trkpt>
      <trkpt lat="43.19254" lon="5.58716">
        <ele>125</ele>
        <time>2019-11-20T08:41:04Z</time>
      </trkpt>
      <trkpt lat="43.1926" lon="5.58712">
        <ele>128</ele>
        <time>2019-11-20T08:41:08Z</time>
      </trkpt>
      <trkpt lat="43.19265" lon="5.5871">
        <ele>127</ele>
        <time>2019-11-20T08:41:12Z</time>
      </trkpt>
      <trkpt lat="43.1927" lon="5.58707">
        <ele>126</ele>
        <time>2019-11-20T08:41:16Z</time>
      </trkpt>
      <trkpt lat="43.19274" lon="5.58702">
        <ele>131</ele>
        <time>2019-11-20T08:41:20Z</time>
      </trkpt>
      <trkpt lat="43.19279" lon="5.58697">
        <ele>132</ele>
        <time>2019-11-20T08:41:26Z</time>
      </trkpt>
      <trkpt lat="43.19284" lon="5.58694">
        <ele>132</ele>
        <time>2019-11-20T08:41:32Z</time>
      </trkpt>
      <trkpt lat="43.19288" lon="5.58688">
        <ele>130</ele>
        <time>2019-11-20T08:41:38Z</time>
      </trkpt>
      <trkpt lat="43.19292" lon="5.58683">
        <ele>127</ele>
        <time>2019-11-20T08:41:46Z</time>
      </trkpt>
      <trkpt lat="43.19295" lon="5.58677">
        <ele>128</ele>
        <time>2019-11-20T08:41:50Z</time>
      </trkpt>
      <trkpt lat="43.19298" lon="5.5867">
        <ele>129</ele>
        <time>2019-11-20T08:41:56Z</time>
      </trkpt>
      <trkpt lat="43.19299" lon="5.58664">
        <ele>133</ele>
        <time>2019-11-20T08:42:02Z</time>
      </trkpt>
      <trkpt lat="43.19301" lon="5.58656">
        <ele>133</ele>
        <time>2019-11-20T08:42:10Z</time>
      </trkpt>
      <trkpt lat="43.19304" lon="5.58649">
        <ele>131</ele>
        <time>2019-11-20T08:42:16Z</time>
      </trkpt>
      <trkpt lat="43.19308" lon="5.58641">
        <ele>129</ele>
        <time>2019-11-20T08:42:22Z</time>
      </trkpt>
      <trkpt lat="43.1931" lon="5.58635">
        <ele>131</ele>
        <time>2019-11-20T08:42:26Z</time>
      </trkpt>
      <trkpt lat="43.19314" lon="5.58629">
        <ele>130</ele>
        <time>2019-11-20T08:42:32Z</time>
      </trkpt>
      <trkpt lat="43.19318" lon="5.58624">
        <ele>130</ele>
        <time>2019-11-20T08:42:42Z</time>
      </trkpt>
      <trkpt lat="43.19319" lon="5.58617">
        <ele>134</ele>
        <time>2019-11-20T08:42:52Z</time>
      </trkpt>
      <trkpt lat="43.1932" lon="5.58609">
        <ele>131</ele>
        <time>2019-11-20T08:43:00Z</time>
      </trkpt>
      <trkpt lat="43.19324" lon="5.58602">
        <ele>135</ele>
        <time>2019-11-20T08:43:04Z</time>
      </trkpt>
      <trkpt lat="43.19325" lon="5.58594">
        <ele>136</ele>
        <time>2019-11-20T08:43:10Z</time>
      </trkpt>
      <trkpt lat="43.19329" lon="5.58589">
        <ele>136</ele>
        <time>2019-11-20T08:43:16Z</time>
      </trkpt>
      <trkpt lat="43.19329" lon="5.58583">
        <ele>137</ele>
        <time>2019-11-20T08:43:34Z</time>
      </trkpt>
      <trkpt lat="43.19329" lon="5.58576">
        <ele>132</ele>
        <time>2019-11-20T08:43:42Z</time>
      </trkpt>
      <trkpt lat="43.19329" lon="5.58569">
        <ele>130</ele>
        <time>2019-11-20T08:43:50Z</time>
      </trkpt>
      <trkpt lat="43.19326" lon="5.58563">
        <ele>132</ele>
        <time>2019-11-20T08:43:58Z</time>
      </trkpt>
      <trkpt lat="43.1933" lon="5.58558">
        <ele>139</ele>
        <time>2019-11-20T08:44:28Z</time>
      </trkpt>
      <trkpt lat="43.19334" lon="5.58554">
        <ele>137</ele>
        <time>2019-11-20T08:45:32Z</time>
      </trkpt>
      <trkpt lat="43.19337" lon="5.5855">
        <ele>140</ele>
        <time>2019-11-20T08:46:52Z</time>
      </trkpt>
      <trkpt lat="43.19336" lon="5.58543">
        <ele>139</ele>
        <time>2019-11-20T08:47:04Z</time>
      </trkpt>
      <trkpt lat="43.19336" lon="5.58537">
        <ele>141</ele>
        <time>2019-11-20T08:47:10Z</time>
      </trkpt>
      <trkpt lat="43.19335" lon="5.5853">
        <ele>140</ele>
        <time>2019-11-20T08:47:16Z</time>
      </trkpt>
      <trkpt lat="43.19335" lon="5.58523">
        <ele>141</ele>
        <time>2019-11-20T08:47:22Z</time>
      </trkpt>
      <trkpt lat="43.19332" lon="5.58516">
        <ele>141</ele>
        <time>2019-11-20T08:47:28Z</time>
      </trkpt>
      <trkpt lat="43.19329" lon="5.58508">
        <ele>140</ele>
        <time>2019-11-20T08:47:34Z</time>
      </trkpt>
      <trkpt lat="43.19325" lon="5.58501">
        <ele>138</ele>
        <time>2019-11-20T08:47:40Z</time>
      </trkpt>
      <trkpt lat="43.19321" lon="5.58495">
        <ele>144</ele>
        <time>2019-11-20T08:47:46Z</time>
      </trkpt>
      <trkpt lat="43.19317" lon="5.5849">
        <ele>144</ele>
        <time>2019-11-20T08:47:50Z</time>
      </trkpt>
      <trkpt lat="43.19315" lon="5.58484">
        <ele>146</ele>
        <time>2019-11-20T08:47:54Z</time>
      </trkpt>
      <trkpt lat="43.19312" lon="5.58478">
        <ele>146</ele>
        <time>2019-11-20T08:47:58Z</time>
      </trkpt>
      <trkpt lat="43.19309" lon="5.5847">
        <ele>147</ele>
        <time>2019-11-20T08:48:04Z</time>
      </trkpt>
      <trkpt lat="43.19304" lon="5.58464">
        <ele>147</ele>
        <time>2019-11-20T08:48:10Z</time>
      </trkpt>
      <trkpt lat="43.193" lon="5.58458">
        <ele>145</ele>
        <time>2019-11-20T08:48:16Z</time>
      </trkpt>
      <trkpt lat="43.19297" lon="5.5845">
        <ele>145</ele>
        <time>2019-11-20T08:48:22Z</time>
      </trkpt>
      <trkpt lat="43.19293" lon="5.58445">
        <ele>147</ele>
        <time>2019-11-20T08:48:26Z</time>
      </trkpt>
      <trkpt lat="43.19288" lon="5.58443">
        <ele>141</ele>
        <time>2019-11-20T08:48:30Z</time>
      </trkpt>
      <trkpt lat="43.19284" lon="5.5844">
        <ele>142</ele>
        <time>2019-11-20T08:48:34Z</time>
      </trkpt>
      <trkpt lat="43.19279" lon="5.58437">
        <ele>141</ele>
        <time>2019-11-20T08:48:38Z</time>
      </trkpt>
      <trkpt lat="43.19276" lon="5.5843">
        <ele>141</ele>
        <time>2019-11-20T08:48:44Z</time>
      </trkpt>
      <trkpt lat="43.19276" lon="5.58424">
        <ele>139</ele>
        <time>2019-11-20T08:48:48Z</time>
      </trkpt>
      <trkpt lat="43.19274" lon="5.58418">
        <ele>134</ele>
        <time>2019-11-20T08:48:52Z</time>
      </trkpt>
      <trkpt lat="43.19272" lon="5.58412">
        <ele>131</ele>
        <time>2019-11-20T08:48:58Z</time>
      </trkpt>
      <trkpt lat="43.19273" lon="5.58404">
        <ele>130</ele>
        <time>2019-11-20T08:49:04Z</time>
      </trkpt>
      <trkpt lat="43.19273" lon="5.58396">
        <ele>132</ele>
        <time>2019-11-20T08:49:08Z</time>
      </trkpt>
      <trkpt lat="43.19273" lon="5.58389">
        <ele>133</ele>
        <time>2019-11-20T08:49:12Z</time>
      </trkpt>
      <trkpt lat="43.19273" lon="5.5838">
        <ele>132</ele>
        <time>2019-11-20T08:49:18Z</time>
      </trkpt>
      <trkpt lat="43.19273" lon="5.58373">
        <ele>131</ele>
        <time>2019-11-20T08:49:24Z</time>
      </trkpt>
      <trkpt lat="43.19274" lon="5.58365">
        <ele>134</ele>
        <time>2019-11-20T08:49:28Z</time>
      </trkpt>
      <trkpt lat="43.19275" lon="5.58358">
        <ele>135</ele>
        <time>2019-11-20T08:49:32Z</time>
      </trkpt>
      <trkpt lat="43.19275" lon="5.5835">
        <ele>135</ele>
        <time>2019-11-20T08:49:36Z</time>
      </trkpt>
      <trkpt lat="43.19276" lon="5.58342">
        <ele>137</ele>
        <time>2019-11-20T08:49:40Z</time>
      </trkpt>
      <trkpt lat="43.19277" lon="5.58335">
        <ele>139</ele>
        <time>2019-11-20T08:49:44Z</time>
      </trkpt>
      <trkpt lat="43.19277" lon="5.58328">
        <ele>138</ele>
        <time>2019-11-20T08:49:48Z</time>
      </trkpt>
      <trkpt lat="43.19275" lon="5.58321">
        <ele>139</ele>
        <time>2019-11-20T08:49:54Z</time>
      </trkpt>
      <trkpt lat="43.19271" lon="5.58315">
        <ele>139</ele>
        <time>2019-11-20T08:50:00Z</time>
      </trkpt>
      <trkpt lat="43.1927" lon="5.58308">
        <ele>138</ele>
        <time>2019-11-20T08:50:06Z</time>
      </trkpt>
      <trkpt lat="43.19272" lon="5.58303">
        <ele>136</ele>
        <time>2019-11-20T08:50:10Z</time>
      </trkpt>
      <trkpt lat="43.19275" lon="5.58297">
        <ele>137</ele>
        <time>2019-11-20T08:50:14Z</time>
      </trkpt>
      <trkpt lat="43.19277" lon="5.58291">
        <ele>138</ele>
        <time>2019-11-20T08:50:18Z</time>
      </trkpt>
      <trkpt lat="43.1928" lon="5.58284">
        <ele>137</ele>
        <time>2019-11-20T08:50:24Z</time>
      </trkpt>
      <trkpt lat="43.19285" lon="5.58278">
        <ele>136</ele>
        <time>2019-11-20T08:50:30Z</time>
      </trkpt>
      <trkpt lat="43.1929" lon="5.58272">
        <ele>137</ele>
        <time>2019-11-20T08:50:36Z</time>
      </trkpt>
      <trkpt lat="43.19293" lon="5.58268">
        <ele>137</ele>
        <time>2019-11-20T08:50:40Z</time>
      </trkpt>
      <trkpt lat="43.19298" lon="5.58263">
        <ele>136</ele>
        <time>2019-11-20T08:50:46Z</time>
      </trkpt>
      <trkpt lat="43.19301" lon="5.58257">
        <ele>138</ele>
        <time>2019-11-20T08:50:50Z</time>
      </trkpt>
      <trkpt lat="43.19304" lon="5.58252">
        <ele>141</ele>
        <time>2019-11-20T08:50:54Z</time>
      </trkpt>
      <trkpt lat="43.19307" lon="5.58246">
        <ele>142</ele>
        <time>2019-11-20T08:50:58Z</time>
      </trkpt>
      <trkpt lat="43.1931" lon="5.5824">
        <ele>143</ele>
        <time>2019-11-20T08:51:02Z</time>
      </trkpt>
      <trkpt lat="43.19312" lon="5.58232">
        <ele>141</ele>
        <time>2019-11-20T08:51:08Z</time>
      </trkpt>
      <trkpt lat="43.19313" lon="5.58225">
        <ele>141</ele>
        <time>2019-11-20T08:51:14Z</time>
      </trkpt>
      <trkpt lat="43.19314" lon="5.58219">
        <ele>142</ele>
        <time>2019-11-20T08:51:18Z</time>
      </trkpt>
      <trkpt lat="43.19316" lon="5.58213">
        <ele>141</ele>
        <time>2019-11-20T08:51:22Z</time>
      </trkpt>
      <trkpt lat="43.19316" lon="5.58206">
        <ele>140</ele>
        <time>2019-11-20T08:51:28Z</time>
      </trkpt>
      <trkpt lat="43.19315" lon="5.58197">
        <ele>140</ele>
        <time>2019-11-20T08:51:34Z</time>
      </trkpt>
      <trkpt lat="43.19315" lon="5.58191">
        <ele>141</ele>
        <time>2019-11-20T08:51:38Z</time>
      </trkpt>
      <trkpt lat="43.19316" lon="5.58184">
        <ele>140</ele>
        <time>2019-11-20T08:51:42Z</time>
      </trkpt>
      <trkpt lat="43.19315" lon="5.58178">
        <ele>144</ele>
        <time>2019-11-20T08:51:46Z</time>
      </trkpt>
      <trkpt lat="43.19312" lon="5.58173">
        <ele>144</ele>
        <time>2019-11-20T08:51:50Z</time>
      </trkpt>
      <trkpt lat="43.19308" lon="5.58169">
        <ele>147</ele>
        <time>2019-11-20T08:51:54Z</time>
      </trkpt>
      <trkpt lat="43.19307" lon="5.58161">
        <ele>147</ele>
        <time>2019-11-20T08:52:00Z</time>
      </trkpt>
      <trkpt lat="43.19303" lon="5.58155">
        <ele>146</ele>
        <time>2019-11-20T08:52:06Z</time>
      </trkpt>
      <trkpt lat="43.19299" lon="5.58151">
        <ele>144</ele>
        <time>2019-11-20T08:52:14Z</time>
      </trkpt>
      <trkpt lat="43.19295" lon="5.58148">
        <ele>146</ele>
        <time>2019-11-20T08:52:20Z</time>
      </trkpt>
      <trkpt lat="43.1929" lon="5.58143">
        <ele>144</ele>
        <time>2019-11-20T08:52:28Z</time>
      </trkpt>
      <trkpt lat="43.19288" lon="5.58135">
        <ele>144</ele>
        <time>2019-11-20T08:52:34Z</time>
      </trkpt>
      <trkpt lat="43.19287" lon="5.58126">
        <ele>144</ele>
        <time>2019-11-20T08:52:40Z</time>
      </trkpt>
      <trkpt lat="43.19287" lon="5.5812">
        <ele>144</ele>
        <time>2019-11-20T08:52:44Z</time>
      </trkpt>
      <trkpt lat="43.19288" lon="5.58112">
        <ele>143</ele>
        <time>2019-11-20T08:52:50Z</time>
      </trkpt>
      <trkpt lat="43.19289" lon="5.58105">
        <ele>144</ele>
        <time>2019-11-20T08:52:56Z</time>
      </trkpt>
      <trkpt lat="43.19291" lon="5.58098">
        <ele>145</ele>
        <time>2019-11-20T08:53:02Z</time>
      </trkpt>
      <trkpt lat="43.19291" lon="5.58091">
        <ele>145</ele>
        <time>2019-11-20T08:53:08Z</time>
      </trkpt>
      <trkpt lat="43.1929" lon="5.58082">
        <ele>148</ele>
        <time>2019-11-20T08:53:14Z</time>
      </trkpt>
      <trkpt lat="43.19291" lon="5.58074">
        <ele>143</ele>
        <time>2019-11-20T08:53:20Z</time>
      </trkpt>
      <trkpt lat="43.19289" lon="5.58068">
        <ele>143</ele>
        <time>2019-11-20T08:53:28Z</time>
      </trkpt>
      <trkpt lat="43.19285" lon="5.58063">
        <ele>148</ele>
        <time>2019-11-20T08:53:32Z</time>
      </trkpt>
      <trkpt lat="43.19281" lon="5.58057">
        <ele>150</ele>
        <time>2019-11-20T08:53:36Z</time>
      </trkpt>
      <trkpt lat="43.19279" lon="5.58051">
        <ele>150</ele>
        <time>2019-11-20T08:53:40Z</time>
      </trkpt>
      <trkpt lat="43.19278" lon="5.58042">
        <ele>149</ele>
        <time>2019-11-20T08:53:46Z</time>
      </trkpt>
      <trkpt lat="43.19278" lon="5.58035">
        <ele>149</ele>
        <time>2019-11-20T08:53:52Z</time>
      </trkpt>
      <trkpt lat="43.1928" lon="5.58029">
        <ele>148</ele>
        <time>2019-11-20T08:53:58Z</time>
      </trkpt>
      <trkpt lat="43.19283" lon="5.58023">
        <ele>148</ele>
        <time>2019-11-20T08:54:04Z</time>
      </trkpt>
      <trkpt lat="43.19288" lon="5.58019">
        <ele>148</ele>
        <time>2019-11-20T08:54:10Z</time>
      </trkpt>
      <trkpt lat="43.19293" lon="5.58018">
        <ele>149</ele>
        <time>2019-11-20T08:54:16Z</time>
      </trkpt>
      <trkpt lat="43.19298" lon="5.58016">
        <ele>151</ele>
        <time>2019-11-20T08:54:22Z</time>
      </trkpt>
      <trkpt lat="43.19303" lon="5.58013">
        <ele>151</ele>
        <time>2019-11-20T08:54:32Z</time>
      </trkpt>
      <trkpt lat="43.19309" lon="5.5801">
        <ele>151</ele>
        <time>2019-11-20T08:54:38Z</time>
      </trkpt>
      <trkpt lat="43.19314" lon="5.58004">
        <ele>152</ele>
        <time>2019-11-20T08:54:44Z</time>
      </trkpt>
      <trkpt lat="43.19317" lon="5.57999">
        <ele>153</ele>
        <time>2019-11-20T08:54:48Z</time>
      </trkpt>
      <trkpt lat="43.19319" lon="5.57993">
        <ele>153</ele>
        <time>2019-11-20T08:54:54Z</time>
      </trkpt>
      <trkpt lat="43.19318" lon="5.57987">
        <ele>153</ele>
        <time>2019-11-20T08:55:02Z</time>
      </trkpt>
      <trkpt lat="43.19321" lon="5.57981">
        <ele>155</ele>
        <time>2019-11-20T08:55:06Z</time>
      </trkpt>
      <trkpt lat="43.19324" lon="5.57976">
        <ele>153</ele>
        <time>2019-11-20T08:55:14Z</time>
      </trkpt>
      <trkpt lat="43.19327" lon="5.57969">
        <ele>154</ele>
        <time>2019-11-20T08:55:20Z</time>
      </trkpt>
      <trkpt lat="43.19328" lon="5.57962">
        <ele>156</ele>
        <time>2019-11-20T08:55:26Z</time>
      </trkpt>
      <trkpt lat="43.1933" lon="5.57954">
        <ele>155</ele>
        <time>2019-11-20T08:55:32Z</time>
      </trkpt>
      <trkpt lat="43.19331" lon="5.57946">
        <ele>155</ele>
        <time>2019-11-20T08:55:38Z</time>
      </trkpt>
      <trkpt lat="43.19331" lon="5.57938">
        <ele>155</ele>
        <time>2019-11-20T08:55:44Z</time>
      </trkpt>
      <trkpt lat="43.19331" lon="5.5793">
        <ele>155</ele>
        <time>2019-11-20T08:55:50Z</time>
      </trkpt>
      <trkpt lat="43.19331" lon="5.57921">
        <ele>157</ele>
        <time>2019-11-20T08:55:56Z</time>
      </trkpt>
      <trkpt lat="43.1933" lon="5.57914">
        <ele>157</ele>
        <time>2019-11-20T08:56:02Z</time>
      </trkpt>
      <trkpt lat="43.1933" lon="5.57906">
        <ele>158</ele>
        <time>2019-11-20T08:56:08Z</time>
      </trkpt>
      <trkpt lat="43.1933" lon="5.579">
        <ele>159</ele>
        <time>2019-11-20T08:56:14Z</time>
      </trkpt>
      <trkpt lat="43.19329" lon="5.57893">
        <ele>159</ele>
        <time>2019-11-20T08:56:20Z</time>
      </trkpt>
      <trkpt lat="43.19328" lon="5.57885">
        <ele>158</ele>
        <time>2019-11-20T08:56:28Z</time>
      </trkpt>
      <trkpt lat="43.19327" lon="5.57878">
        <ele>157</ele>
        <time>2019-11-20T08:56:34Z</time>
      </trkpt>
      <trkpt lat="43.19327" lon="5.57869">
        <ele>158</ele>
        <time>2019-11-20T08:56:40Z</time>
      </trkpt>
      <trkpt lat="43.19328" lon="5.5786">
        <ele>162</ele>
        <time>2019-11-20T08:56:46Z</time>
      </trkpt>
      <trkpt lat="43.19328" lon="5.57853">
        <ele>161</ele>
        <time>2019-11-20T08:56:52Z</time>
      </trkpt>
      <trkpt lat="43.19329" lon="5.57846">
        <ele>160</ele>
        <time>2019-11-20T08:57:00Z</time>
      </trkpt>
      <trkpt lat="43.19332" lon="5.57839">
        <ele>161</ele>
        <time>2019-11-20T08:57:06Z</time>
      </trkpt>
      <trkpt lat="43.19333" lon="5.57831">
        <ele>160</ele>
        <time>2019-11-20T08:57:14Z</time>
      </trkpt>
      <trkpt lat="43.19333" lon="5.57823">
        <ele>161</ele>
        <time>2019-11-20T08:57:20Z</time>
      </trkpt>
      <trkpt lat="43.19334" lon="5.57815">
        <ele>161</ele>
        <time>2019-11-20T08:57:26Z</time>
      </trkpt>
      <trkpt lat="43.19335" lon="5.57808">
        <ele>160</ele>
        <time>2019-11-20T08:57:32Z</time>
      </trkpt>
      <trkpt lat="43.19336" lon="5.57801">
        <ele>160</ele>
        <time>2019-11-20T08:57:38Z</time>
      </trkpt>
      <trkpt lat="43.19338" lon="5.57793">
        <ele>162</ele>
        <time>2019-11-20T08:57:44Z</time>
      </trkpt>
      <trkpt lat="43.1934" lon="5.57786">
        <ele>164</ele>
        <time>2019-11-20T08:57:48Z</time>
      </trkpt>
      <trkpt lat="43.19341" lon="5.57777">
        <ele>164</ele>
        <time>2019-11-20T08:57:54Z</time>
      </trkpt>
      <trkpt lat="43.19343" lon="5.5777">
        <ele>164</ele>
        <time>2019-11-20T08:58:00Z</time>
      </trkpt>
      <trkpt lat="43.19345" lon="5.57765">
        <ele>165</ele>
        <time>2019-11-20T08:58:06Z</time>
      </trkpt>
      <trkpt lat="43.19348" lon="5.57757">
        <ele>167</ele>
        <time>2019-11-20T08:58:12Z</time>
      </trkpt>
      <trkpt lat="43.19351" lon="5.5775">
        <ele>165</ele>
        <time>2019-11-20T08:58:18Z</time>
      </trkpt>
      <trkpt lat="43.19353" lon="5.57745">
        <ele>168</ele>
        <time>2019-11-20T08:58:22Z</time>
      </trkpt>
      <trkpt lat="43.19357" lon="5.57738">
        <ele>168</ele>
        <time>2019-11-20T08:58:28Z</time>
      </trkpt>
      <trkpt lat="43.19361" lon="5.57732">
        <ele>170</ele>
        <time>2019-11-20T08:58:34Z</time>
      </trkpt>
      <trkpt lat="43.19364" lon="5.57727">
        <ele>171</ele>
        <time>2019-11-20T08:58:38Z</time>
      </trkpt>
      <trkpt lat="43.19367" lon="5.5772">
        <ele>171</ele>
        <time>2019-11-20T08:58:44Z</time>
      </trkpt>
      <trkpt lat="43.1937" lon="5.57715">
        <ele>169</ele>
        <time>2019-11-20T08:58:48Z</time>
      </trkpt>
      <trkpt lat="43.19373" lon="5.57706">
        <ele>173</ele>
        <time>2019-11-20T08:58:54Z</time>
      </trkpt>
      <trkpt lat="43.19375" lon="5.577">
        <ele>174</ele>
        <time>2019-11-20T08:58:58Z</time>
      </trkpt>
      <trkpt lat="43.19377" lon="5.57694">
        <ele>171</ele>
        <time>2019-11-20T08:59:18Z</time>
      </trkpt>
      <trkpt lat="43.19381" lon="5.57688">
        <ele>171</ele>
        <time>2019-11-20T09:03:34Z</time>
      </trkpt>
      <trkpt lat="43.19385" lon="5.57683">
        <ele>170</ele>
        <time>2019-11-20T09:03:42Z</time>
      </trkpt>
      <trkpt lat="43.19387" lon="5.57675">
        <ele>167</ele>
        <time>2019-11-20T09:03:48Z</time>
      </trkpt>
      <trkpt lat="43.19387" lon="5.57667">
        <ele>167</ele>
        <time>2019-11-20T09:03:54Z</time>
      </trkpt>
      <trkpt lat="43.19388" lon="5.5766">
        <ele>169</ele>
        <time>2019-11-20T09:03:58Z</time>
      </trkpt>
      <trkpt lat="43.19391" lon="5.57653">
        <ele>170</ele>
        <time>2019-11-20T09:04:04Z</time>
      </trkpt>
      <trkpt lat="43.19393" lon="5.57647">
        <ele>169</ele>
        <time>2019-11-20T09:04:10Z</time>
      </trkpt>
      <trkpt lat="43.19397" lon="5.57639">
        <ele>171</ele>
        <time>2019-11-20T09:04:18Z</time>
      </trkpt>
      <trkpt lat="43.19398" lon="5.57633">
        <ele>174</ele>
        <time>2019-11-20T09:04:22Z</time>
      </trkpt>
      <trkpt lat="43.19403" lon="5.57629">
        <ele>173</ele>
        <time>2019-11-20T09:04:30Z</time>
      </trkpt>
      <trkpt lat="43.19408" lon="5.57627">
        <ele>177</ele>
        <time>2019-11-20T09:04:36Z</time>
      </trkpt>
      <trkpt lat="43.19414" lon="5.57628">
        <ele>177</ele>
        <time>2019-11-20T09:04:40Z</time>
      </trkpt>
      <trkpt lat="43.19418" lon="5.57628">
        <ele>176</ele>
        <time>2019-11-20T09:04:44Z</time>
      </trkpt>
      <trkpt lat="43.19423" lon="5.57626">
        <ele>176</ele>
        <time>2019-11-20T09:04:50Z</time>
      </trkpt>
      <trkpt lat="43.19428" lon="5.57623">
        <ele>176</ele>
        <time>2019-11-20T09:04:58Z</time>
      </trkpt>
      <trkpt lat="43.19433" lon="5.5762">
        <ele>179</ele>
        <time>2019-11-20T09:05:02Z</time>
      </trkpt>
      <trkpt lat="43.19437" lon="5.57617">
        <ele>179</ele>
        <time>2019-11-20T09:05:06Z</time>
      </trkpt>
      <trkpt lat="43.19442" lon="5.57617">
        <ele>176</ele>
        <time>2019-11-20T09:05:12Z</time>
      </trkpt>
      <trkpt lat="43.19445" lon="5.57613">
        <ele>176</ele>
        <time>2019-11-20T09:05:18Z</time>
      </trkpt>
      <trkpt lat="43.1945" lon="5.57608">
        <ele>173</ele>
        <time>2019-11-20T09:05:24Z</time>
      </trkpt>
      <trkpt lat="43.19455" lon="5.57605">
        <ele>174</ele>
        <time>2019-11-20T09:05:30Z</time>
      </trkpt>
      <trkpt lat="43.1946" lon="5.576">
        <ele>172</ele>
        <time>2019-11-20T09:05:36Z</time>
      </trkpt>
      <trkpt lat="43.19464" lon="5.57594">
        <ele>172</ele>
        <time>2019-11-20T09:05:44Z</time>
      </trkpt>
      <trkpt lat="43.19468" lon="5.57588">
        <ele>172</ele>
        <time>2019-11-20T09:05:50Z</time>
      </trkpt>
      <trkpt lat="43.19471" lon="5.57581">
        <ele>175</ele>
        <time>2019-11-20T09:05:56Z</time>
      </trkpt>
      <trkpt lat="43.19477" lon="5.57578">
        <ele>176</ele>
        <time>2019-11-20T09:06:00Z</time>
      </trkpt>
      <trkpt lat="43.19481" lon="5.57575">
        <ele>177</ele>
        <time>2019-11-20T09:06:06Z</time>
      </trkpt>
      <trkpt lat="43.19486" lon="5.57571">
        <ele>179</ele>
        <time>2019-11-20T09:06:12Z</time>
      </trkpt>
      <trkpt lat="43.19491" lon="5.57567">
        <ele>178</ele>
        <time>2019-11-20T09:06:18Z</time>
      </trkpt>
      <trkpt lat="43.19493" lon="5.57562">
        <ele>178</ele>
        <time>2019-11-20T09:06:22Z</time>
      </trkpt>
      <trkpt lat="43.19496" lon="5.57557">
        <ele>178</ele>
        <time>2019-11-20T09:06:26Z</time>
      </trkpt>
      <trkpt lat="43.195" lon="5.57553">
        <ele>178</ele>
        <time>2019-11-20T09:06:30Z</time>
      </trkpt>
      <trkpt lat="43.19504" lon="5.57548">
        <ele>181</ele>
        <time>2019-11-20T09:06:34Z</time>
      </trkpt>
      <trkpt lat="43.19509" lon="5.57543">
        <ele>180</ele>
        <time>2019-11-20T09:06:40Z</time>
      </trkpt>
      <trkpt lat="43.19514" lon="5.57539">
        <ele>178</ele>
        <time>2019-11-20T09:06:46Z</time>
      </trkpt>
      <trkpt lat="43.19518" lon="5.57533">
        <ele>179</ele>
        <time>2019-11-20T09:06:52Z</time>
      </trkpt>
      <trkpt lat="43.19521" lon="5.57527">
        <ele>179</ele>
        <time>2019-11-20T09:06:56Z</time>
      </trkpt>
      <trkpt lat="43.19526" lon="5.57525">
        <ele>177</ele>
        <time>2019-11-20T09:07:04Z</time>
      </trkpt>
      <trkpt lat="43.19532" lon="5.57528">
        <ele>177</ele>
        <time>2019-11-20T09:07:10Z</time>
      </trkpt>
      <trkpt lat="43.19537" lon="5.57523">
        <ele>178</ele>
        <time>2019-11-20T09:07:16Z</time>
      </trkpt>
      <trkpt lat="43.19539" lon="5.57516">
        <ele>178</ele>
        <time>2019-11-20T09:07:20Z</time>
      </trkpt>
      <trkpt lat="43.19542" lon="5.5751">
        <ele>178</ele>
        <time>2019-11-20T09:07:24Z</time>
      </trkpt>
      <trkpt lat="43.19545" lon="5.57503">
        <ele>181</ele>
        <time>2019-11-20T09:07:30Z</time>
      </trkpt>
      <trkpt lat="43.19548" lon="5.57496">
        <ele>180</ele>
        <time>2019-11-20T09:07:34Z</time>
      </trkpt>
      <trkpt lat="43.19553" lon="5.57493">
        <ele>180</ele>
        <time>2019-11-20T09:07:40Z</time>
      </trkpt>
      <trkpt lat="43.19559" lon="5.57491">
        <ele>181</ele>
        <time>2019-11-20T09:07:48Z</time>
      </trkpt>
      <trkpt lat="43.19565" lon="5.57487">
        <ele>180</ele>
        <time>2019-11-20T09:07:54Z</time>
      </trkpt>
      <trkpt lat="43.19569" lon="5.57482">
        <ele>182</ele>
        <time>2019-11-20T09:08:00Z</time>
      </trkpt>
      <trkpt lat="43.19574" lon="5.57478">
        <ele>184</ele>
        <time>2019-11-20T09:08:06Z</time>
      </trkpt>
      <trkpt lat="43.19579" lon="5.57477">
        <ele>184</ele>
        <time>2019-11-20T09:08:10Z</time>
      </trkpt>
      <trkpt lat="43.19585" lon="5.57476">
        <ele>183</ele>
        <time>2019-11-20T09:08:16Z</time>
      </trkpt>
      <trkpt lat="43.1959" lon="5.57474">
        <ele>182</ele>
        <time>2019-11-20T09:08:22Z</time>
      </trkpt>
      <trkpt lat="43.19594" lon="5.57466">
        <ele>185</ele>
        <time>2019-11-20T09:08:28Z</time>
      </trkpt>
      <trkpt lat="43.19597" lon="5.5746">
        <ele>185</ele>
        <time>2019-11-20T09:08:32Z</time>
      </trkpt>
      <trkpt lat="43.196" lon="5.57456">
        <ele>186</ele>
        <time>2019-11-20T09:08:36Z</time>
      </trkpt>
      <trkpt lat="43.19604" lon="5.57449">
        <ele>189</ele>
        <time>2019-11-20T09:08:42Z</time>
      </trkpt>
      <trkpt lat="43.19605" lon="5.57441">
        <ele>190</ele>
        <time>2019-11-20T09:08:48Z</time>
      </trkpt>
      <trkpt lat="43.1961" lon="5.57437">
        <ele>191</ele>
        <time>2019-11-20T09:08:56Z</time>
      </trkpt>
      <trkpt lat="43.19613" lon="5.5743">
        <ele>187</ele>
        <time>2019-11-20T09:09:02Z</time>
      </trkpt>
      <trkpt lat="43.19615" lon="5.57424">
        <ele>190</ele>
        <time>2019-11-20T09:09:08Z</time>
      </trkpt>
      <trkpt lat="43.19619" lon="5.5742">
        <ele>187</ele>
        <time>2019-11-20T09:09:14Z</time>
      </trkpt>
      <trkpt lat="43.19622" lon="5.57415">
        <ele>184</ele>
        <time>2019-11-20T09:09:22Z</time>
      </trkpt>
      <trkpt lat="43.19625" lon="5.57409">
        <ele>185</ele>
        <time>2019-11-20T09:09:28Z</time>
      </trkpt>
      <trkpt lat="43.19629" lon="5.57405">
        <ele>189</ele>
        <time>2019-11-20T09:09:32Z</time>
      </trkpt>
      <trkpt lat="43.19635" lon="5.57401">
        <ele>189</ele>
        <time>2019-11-20T09:09:38Z</time>
      </trkpt>
      <trkpt lat="43.19638" lon="5.57395">
        <ele>190</ele>
        <time>2019-11-20T09:09:44Z</time>
      </trkpt>
      <trkpt lat="43.1964" lon="5.57387">
        <ele>191</ele>
        <time>2019-11-20T09:09:50Z</time>
      </trkpt>
      <trkpt lat="43.1964" lon="5.57379">
        <ele>193</ele>
        <time>2019-11-20T09:09:56Z</time>
      </trkpt>
      <trkpt lat="43.19639" lon="5.57372">
        <ele>192</ele>
        <time>2019-11-20T09:10:00Z</time>
      </trkpt>
      <trkpt lat="43.19637" lon="5.57366">
        <ele>192</ele>
        <time>2019-11-20T09:10:04Z</time>
      </trkpt>
      <trkpt lat="43.19636" lon="5.57359">
        <ele>193</ele>
        <time>2019-11-20T09:10:08Z</time>
      </trkpt>
      <trkpt lat="43.19636" lon="5.57351">
        <ele>191</ele>
        <time>2019-11-20T09:10:14Z</time>
      </trkpt>
      <trkpt lat="43.19638" lon="5.57344">
        <ele>190</ele>
        <time>2019-11-20T09:10:22Z</time>
      </trkpt>
      <trkpt lat="43.19637" lon="5.57337">
        <ele>185</ele>
        <time>2019-11-20T09:10:28Z</time>
      </trkpt>
      <trkpt lat="43.1964" lon="5.57332">
        <ele>185</ele>
        <time>2019-11-20T09:10:34Z</time>
      </trkpt>
      <trkpt lat="43.19645" lon="5.57328">
        <ele>186</ele>
        <time>2019-11-20T09:10:40Z</time>
      </trkpt>
      <trkpt lat="43.1965" lon="5.57326">
        <ele>189</ele>
        <time>2019-11-20T09:10:46Z</time>
      </trkpt>
      <trkpt lat="43.19655" lon="5.57327">
        <ele>187</ele>
        <time>2019-11-20T09:10:50Z</time>
      </trkpt>
      <trkpt lat="43.19659" lon="5.57328">
        <ele>189</ele>
        <time>2019-11-20T09:10:54Z</time>
      </trkpt>
      <trkpt lat="43.19661" lon="5.57322">
        <ele>190</ele>
        <time>2019-11-20T09:10:58Z</time>
      </trkpt>
      <trkpt lat="43.19664" lon="5.57314">
        <ele>189</ele>
        <time>2019-11-20T09:11:04Z</time>
      </trkpt>
      <trkpt lat="43.19666" lon="5.57308">
        <ele>189</ele>
        <time>2019-11-20T09:11:08Z</time>
      </trkpt>
      <trkpt lat="43.19667" lon="5.57302">
        <ele>191</ele>
        <time>2019-11-20T09:11:12Z</time>
      </trkpt>
      <trkpt lat="43.1967" lon="5.57296">
        <ele>192</ele>
        <time>2019-11-20T09:11:18Z</time>
      </trkpt>
      <trkpt lat="43.19673" lon="5.5729">
        <ele>193</ele>
        <time>2019-11-20T09:11:24Z</time>
      </trkpt>
      <trkpt lat="43.19677" lon="5.57284">
        <ele>195</ele>
        <time>2019-11-20T09:11:30Z</time>
      </trkpt>
      <trkpt lat="43.19678" lon="5.57277">
        <ele>196</ele>
        <time>2019-11-20T09:11:34Z</time>
      </trkpt>
      <trkpt lat="43.19679" lon="5.57269">
        <ele>197</ele>
        <time>2019-11-20T09:11:40Z</time>
      </trkpt>
      <trkpt lat="43.19679" lon="5.57262">
        <ele>198</ele>
        <time>2019-11-20T09:11:44Z</time>
      </trkpt>
      <trkpt lat="43.1968" lon="5.57255">
        <ele>195</ele>
        <time>2019-11-20T09:11:52Z</time>
      </trkpt>
      <trkpt lat="43.1968" lon="5.57239">
        <ele>193</ele>
        <time>2019-11-20T09:12:08Z</time>
      </trkpt>
      <trkpt lat="43.1968" lon="5.57231">
        <ele>191</ele>
        <time>2019-11-20T09:12:11Z</time>
      </trkpt>
      <trkpt lat="43.19679" lon="5.57221">
        <ele>193</ele>
        <time>2019-11-20T09:12:15Z</time>
      </trkpt>
      <trkpt lat="43.19678" lon="5.57212">
        <ele>193</ele>
        <time>2019-11-20T09:12:19Z</time>
      </trkpt>
      <trkpt lat="43.19679" lon="5.57204">
        <ele>196</ele>
        <time>2019-11-20T09:12:25Z</time>
      </trkpt>
      <trkpt lat="43.19682" lon="5.57198">
        <ele>199</ele>
        <time>2019-11-20T09:12:31Z</time>
      </trkpt>
      <trkpt lat="43.19684" lon="5.57192">
        <ele>200</ele>
        <time>2019-11-20T09:12:35Z</time>
      </trkpt>
      <trkpt lat="43.19689" lon="5.57187">
        <ele>201</ele>
        <time>2019-11-20T09:12:41Z</time>
      </trkpt>
      <trkpt lat="43.19694" lon="5.57186">
        <ele>198</ele>
        <time>2019-11-20T09:12:47Z</time>
      </trkpt>
      <trkpt lat="43.19699" lon="5.57183">
        <ele>197</ele>
        <time>2019-11-20T09:12:55Z</time>
      </trkpt>
      <trkpt lat="43.19704" lon="5.57181">
        <ele>198</ele>
        <time>2019-11-20T09:13:01Z</time>
      </trkpt>
      <trkpt lat="43.1971" lon="5.57179">
        <ele>200</ele>
        <time>2019-11-20T09:13:09Z</time>
      </trkpt>
      <trkpt lat="43.19715" lon="5.57179">
        <ele>199</ele>
        <time>2019-11-20T09:13:15Z</time>
      </trkpt>
      <trkpt lat="43.1972" lon="5.5718">
        <ele>201</ele>
        <time>2019-11-20T09:13:21Z</time>
      </trkpt>
      <trkpt lat="43.19725" lon="5.57181">
        <ele>202</ele>
        <time>2019-11-20T09:13:25Z</time>
      </trkpt>
      <trkpt lat="43.19731" lon="5.57183">
        <ele>203</ele>
        <time>2019-11-20T09:13:31Z</time>
      </trkpt>
      <trkpt lat="43.19736" lon="5.57184">
        <ele>203</ele>
        <time>2019-11-20T09:13:35Z</time>
      </trkpt>
      <trkpt lat="43.19741" lon="5.57187">
        <ele>203</ele>
        <time>2019-11-20T09:13:41Z</time>
      </trkpt>
      <trkpt lat="43.19747" lon="5.57189">
        <ele>207</ele>
        <time>2019-11-20T09:13:47Z</time>
      </trkpt>
      <trkpt lat="43.19752" lon="5.57191">
        <ele>208</ele>
        <time>2019-11-20T09:13:53Z</time>
      </trkpt>
      <trkpt lat="43.19758" lon="5.57191">
        <ele>206</ele>
        <time>2019-11-20T09:13:59Z</time>
      </trkpt>
      <trkpt lat="43.19763" lon="5.57192">
        <ele>202</ele>
        <time>2019-11-20T09:14:07Z</time>
      </trkpt>
      <trkpt lat="43.19769" lon="5.5719">
        <ele>201</ele>
        <time>2019-11-20T09:14:13Z</time>
      </trkpt>
      <trkpt lat="43.19773" lon="5.57189">
        <ele>201</ele>
        <time>2019-11-20T09:14:19Z</time>
      </trkpt>
      <trkpt lat="43.19778" lon="5.57186">
        <ele>202</ele>
        <time>2019-11-20T09:14:25Z</time>
      </trkpt>
      <trkpt lat="43.19783" lon="5.57182">
        <ele>202</ele>
        <time>2019-11-20T09:14:31Z</time>
      </trkpt>
      <trkpt lat="43.19788" lon="5.5718">
        <ele>200</ele>
        <time>2019-11-20T09:14:39Z</time>
      </trkpt>
      <trkpt lat="43.19792" lon="5.57186">
        <ele>200</ele>
        <time>2019-11-20T09:14:47Z</time>
      </trkpt>
      <trkpt lat="43.19787" lon="5.5719">
        <ele>201</ele>
        <time>2019-11-20T09:14:55Z</time>
      </trkpt>
      <trkpt lat="43.19783" lon="5.57192">
        <ele>201</ele>
        <time>2019-11-20T09:15:01Z</time>
      </trkpt>
      <trkpt lat="43.19778" lon="5.57192">
        <ele>202</ele>
        <time>2019-11-20T09:15:07Z</time>
      </trkpt>
      <trkpt lat="43.19773" lon="5.57193">
        <ele>200</ele>
        <time>2019-11-20T09:15:13Z</time>
      </trkpt>
      <trkpt lat="43.19768" lon="5.57195">
        <ele>198</ele>
        <time>2019-11-20T09:15:19Z</time>
      </trkpt>
      <trkpt lat="43.19763" lon="5.57197">
        <ele>197</ele>
        <time>2019-11-20T09:15:27Z</time>
      </trkpt>
      <trkpt lat="43.19758" lon="5.57198">
        <ele>197</ele>
        <time>2019-11-20T09:15:33Z</time>
      </trkpt>
      <trkpt lat="43.19752" lon="5.572">
        <ele>196</ele>
        <time>2019-11-20T09:15:39Z</time>
      </trkpt>
      <trkpt lat="43.19746" lon="5.57201">
        <ele>196</ele>
        <time>2019-11-20T09:15:45Z</time>
      </trkpt>
      <trkpt lat="43.1974" lon="5.57203">
        <ele>197</ele>
        <time>2019-11-20T09:15:51Z</time>
      </trkpt>
      <trkpt lat="43.19734" lon="5.57206">
        <ele>200</ele>
        <time>2019-11-20T09:15:57Z</time>
      </trkpt>
      <trkpt lat="43.19729" lon="5.57206">
        <ele>204</ele>
        <time>2019-11-20T09:16:23Z</time>
      </trkpt>
      <trkpt lat="43.19724" lon="5.57204">
        <ele>205</ele>
        <time>2019-11-20T09:16:31Z</time>
      </trkpt>
      <trkpt lat="43.19718" lon="5.57203">
        <ele>206</ele>
        <time>2019-11-20T09:16:37Z</time>
      </trkpt>
      <trkpt lat="43.19714" lon="5.57206">
        <ele>206</ele>
        <time>2019-11-20T09:16:41Z</time>
      </trkpt>
      <trkpt lat="43.19709" lon="5.57211">
        <ele>208</ele>
        <time>2019-11-20T09:16:47Z</time>
      </trkpt>
      <trkpt lat="43.19707" lon="5.57217">
        <ele>207</ele>
        <time>2019-11-20T09:16:53Z</time>
      </trkpt>
      <trkpt lat="43.19706" lon="5.57225">
        <ele>208</ele>
        <time>2019-11-20T09:16:59Z</time>
      </trkpt>
      <trkpt lat="43.19705" lon="5.57233">
        <ele>209</ele>
        <time>2019-11-20T09:17:05Z</time>
      </trkpt>
      <trkpt lat="43.19704" lon="5.5724">
        <ele>208</ele>
        <time>2019-11-20T09:17:11Z</time>
      </trkpt>
      <trkpt lat="43.19705" lon="5.57248">
        <ele>209</ele>
        <time>2019-11-20T09:17:17Z</time>
      </trkpt>
      <trkpt lat="43.19707" lon="5.57255">
        <ele>209</ele>
        <time>2019-11-20T09:17:23Z</time>
      </trkpt>
      <trkpt lat="43.19707" lon="5.57262">
        <ele>211</ele>
        <time>2019-11-20T09:17:29Z</time>
      </trkpt>
      <trkpt lat="43.19706" lon="5.57268">
        <ele>210</ele>
        <time>2019-11-20T09:17:37Z</time>
      </trkpt>
      <trkpt lat="43.19706" lon="5.57276">
        <ele>211</ele>
        <time>2019-11-20T09:17:45Z</time>
      </trkpt>
      <trkpt lat="43.19707" lon="5.57284">
        <ele>212</ele>
        <time>2019-11-20T09:17:51Z</time>
      </trkpt>
      <trkpt lat="43.19708" lon="5.57292">
        <ele>214</ele>
        <time>2019-11-20T09:17:57Z</time>
      </trkpt>
      <trkpt lat="43.19708" lon="5.573">
        <ele>214</ele>
        <time>2019-11-20T09:18:03Z</time>
      </trkpt>
      <trkpt lat="43.19707" lon="5.57307">
        <ele>216</ele>
        <time>2019-11-20T09:18:09Z</time>
      </trkpt>
      <trkpt lat="43.19706" lon="5.57314">
        <ele>215</ele>
        <time>2019-11-20T09:18:15Z</time>
      </trkpt>
      <trkpt lat="43.19705" lon="5.57322">
        <ele>215</ele>
        <time>2019-11-20T09:18:21Z</time>
      </trkpt>
      <trkpt lat="43.19704" lon="5.57329">
        <ele>215</ele>
        <time>2019-11-20T09:18:27Z</time>
      </trkpt>
      <trkpt lat="43.19702" lon="5.57337">
        <ele>215</ele>
        <time>2019-11-20T09:18:33Z</time>
      </trkpt>
      <trkpt lat="43.197" lon="5.57345">
        <ele>214</ele>
        <time>2019-11-20T09:18:39Z</time>
      </trkpt>
      <trkpt lat="43.19699" lon="5.57352">
        <ele>215</ele>
        <time>2019-11-20T09:18:45Z</time>
      </trkpt>
      <trkpt lat="43.19699" lon="5.57361">
        <ele>216</ele>
        <time>2019-11-20T09:18:51Z</time>
      </trkpt>
      <trkpt lat="43.19698" lon="5.57369">
        <ele>217</ele>
        <time>2019-11-20T09:18:57Z</time>
      </trkpt>
      <trkpt lat="43.19698" lon="5.57376">
        <ele>217</ele>
        <time>2019-11-20T09:19:03Z</time>
      </trkpt>
      <trkpt lat="43.19697" lon="5.57384">
        <ele>217</ele>
        <time>2019-11-20T09:19:09Z</time>
      </trkpt>
      <trkpt lat="43.19696" lon="5.57393">
        <ele>218</ele>
        <time>2019-11-20T09:19:15Z</time>
      </trkpt>
      <trkpt lat="43.19694" lon="5.57401">
        <ele>219</ele>
        <time>2019-11-20T09:19:21Z</time>
      </trkpt>
      <trkpt lat="43.19691" lon="5.57407">
        <ele>220</ele>
        <time>2019-11-20T09:19:27Z</time>
      </trkpt>
      <trkpt lat="43.19688" lon="5.57414">
        <ele>221</ele>
        <time>2019-11-20T09:19:33Z</time>
      </trkpt>
      <trkpt lat="43.19685" lon="5.57421">
        <ele>221</ele>
        <time>2019-11-20T09:19:39Z</time>
      </trkpt>
      <trkpt lat="43.19682" lon="5.57429">
        <ele>220</ele>
        <time>2019-11-20T09:19:45Z</time>
      </trkpt>
      <trkpt lat="43.19678" lon="5.57436">
        <ele>221</ele>
        <time>2019-11-20T09:19:51Z</time>
      </trkpt>
      <trkpt lat="43.19676" lon="5.57441">
        <ele>221</ele>
        <time>2019-11-20T09:19:55Z</time>
      </trkpt>
      <trkpt lat="43.19672" lon="5.57448">
        <ele>221</ele>
        <time>2019-11-20T09:20:01Z</time>
      </trkpt>
      <trkpt lat="43.19671" lon="5.57455">
        <ele>220</ele>
        <time>2019-11-20T09:20:05Z</time>
      </trkpt>
      <trkpt lat="43.19668" lon="5.5746">
        <ele>220</ele>
        <time>2019-11-20T09:20:09Z</time>
      </trkpt>
      <trkpt lat="43.19666" lon="5.57466">
        <ele>220</ele>
        <time>2019-11-20T09:20:13Z</time>
      </trkpt>
      <trkpt lat="43.19662" lon="5.57474">
        <ele>219</ele>
        <time>2019-11-20T09:20:19Z</time>
      </trkpt>
      <trkpt lat="43.1966" lon="5.5748">
        <ele>219</ele>
        <time>2019-11-20T09:20:23Z</time>
      </trkpt>
      <trkpt lat="43.19657" lon="5.57485">
        <ele>219</ele>
        <time>2019-11-20T09:20:27Z</time>
      </trkpt>
      <trkpt lat="43.19654" lon="5.57491">
        <ele>220</ele>
        <time>2019-11-20T09:20:33Z</time>
      </trkpt>
      <trkpt lat="43.1965" lon="5.57499">
        <ele>220</ele>
        <time>2019-11-20T09:20:39Z</time>
      </trkpt>
      <trkpt lat="43.19647" lon="5.57504">
        <ele>220</ele>
        <time>2019-11-20T09:20:43Z</time>
      </trkpt>
      <trkpt lat="43.19642" lon="5.57511">
        <ele>220</ele>
        <time>2019-11-20T09:20:49Z</time>
      </trkpt>
      <trkpt lat="43.1964" lon="5.57516">
        <ele>220</ele>
        <time>2019-11-20T09:20:53Z</time>
      </trkpt>
      <trkpt lat="43.19637" lon="5.57521">
        <ele>221</ele>
        <time>2019-11-20T09:20:57Z</time>
      </trkpt>
      <trkpt lat="43.19634" lon="5.57526">
        <ele>222</ele>
        <time>2019-11-20T09:21:01Z</time>
      </trkpt>
      <trkpt lat="43.19631" lon="5.57531">
        <ele>223</ele>
        <time>2019-11-20T09:21:05Z</time>
      </trkpt>
      <trkpt lat="43.19628" lon="5.57536">
        <ele>224</ele>
        <time>2019-11-20T09:21:09Z</time>
      </trkpt>
      <trkpt lat="43.19625" lon="5.57541">
        <ele>223</ele>
        <time>2019-11-20T09:21:13Z</time>
      </trkpt>
      <trkpt lat="43.19622" lon="5.57546">
        <ele>223</ele>
        <time>2019-11-20T09:21:17Z</time>
      </trkpt>
      <trkpt lat="43.19619" lon="5.5755">
        <ele>223</ele>
        <time>2019-11-20T09:21:21Z</time>
      </trkpt>
      <trkpt lat="43.19615" lon="5.57555">
        <ele>224</ele>
        <time>2019-11-20T09:21:25Z</time>
      </trkpt>
      <trkpt lat="43.19612" lon="5.57561">
        <ele>224</ele>
        <time>2019-11-20T09:21:31Z</time>
      </trkpt>
      <trkpt lat="43.19609" lon="5.57569">
        <ele>223</ele>
        <time>2019-11-20T09:21:37Z</time>
      </trkpt>
      <trkpt lat="43.19606" lon="5.57573">
        <ele>223</ele>
        <time>2019-11-20T09:21:41Z</time>
      </trkpt>
      <trkpt lat="43.19602" lon="5.57578">
        <ele>222</ele>
        <time>2019-11-20T09:21:45Z</time>
      </trkpt>
      <trkpt lat="43.19598" lon="5.57583">
        <ele>221</ele>
        <time>2019-11-20T09:21:49Z</time>
      </trkpt>
      <trkpt lat="43.19595" lon="5.57587">
        <ele>220</ele>
        <time>2019-11-20T09:21:53Z</time>
      </trkpt>
      <trkpt lat="43.19592" lon="5.57592">
        <ele>220</ele>
        <time>2019-11-20T09:21:57Z</time>
      </trkpt>
      <trkpt lat="43.19589" lon="5.57598">
        <ele>220</ele>
        <time>2019-11-20T09:22:01Z</time>
      </trkpt>
      <trkpt lat="43.19586" lon="5.57602">
        <ele>220</ele>
        <time>2019-11-20T09:22:05Z</time>
      </trkpt>
      <trkpt lat="43.19581" lon="5.57609">
        <ele>220</ele>
        <time>2019-11-20T09:22:11Z</time>
      </trkpt>
      <trkpt lat="43.19577" lon="5.57615">
        <ele>220</ele>
        <time>2019-11-20T09:22:17Z</time>
      </trkpt>
      <trkpt lat="43.19574" lon="5.5762">
        <ele>220</ele>
        <time>2019-11-20T09:22:21Z</time>
      </trkpt>
      <trkpt lat="43.1957" lon="5.57624">
        <ele>220</ele>
        <time>2019-11-20T09:22:25Z</time>
      </trkpt>
      <trkpt lat="43.19566" lon="5.57628">
        <ele>220</ele>
        <time>2019-11-20T09:22:29Z</time>
      </trkpt>
      <trkpt lat="43.19563" lon="5.57633">
        <ele>220</ele>
        <time>2019-11-20T09:22:33Z</time>
      </trkpt>
      <trkpt lat="43.1956" lon="5.57638">
        <ele>221</ele>
        <time>2019-11-20T09:22:37Z</time>
      </trkpt>
      <trkpt lat="43.19557" lon="5.57643">
        <ele>220</ele>
        <time>2019-11-20T09:22:41Z</time>
      </trkpt>
      <trkpt lat="43.19552" lon="5.57649">
        <ele>220</ele>
        <time>2019-11-20T09:22:47Z</time>
      </trkpt>
      <trkpt lat="43.19549" lon="5.57654">
        <ele>219</ele>
        <time>2019-11-20T09:22:51Z</time>
      </trkpt>
      <trkpt lat="43.19546" lon="5.57659">
        <ele>219</ele>
        <time>2019-11-20T09:22:55Z</time>
      </trkpt>
      <trkpt lat="43.19543" lon="5.57664">
        <ele>219</ele>
        <time>2019-11-20T09:22:59Z</time>
      </trkpt>
      <trkpt lat="43.19538" lon="5.5767">
        <ele>218</ele>
        <time>2019-11-20T09:23:05Z</time>
      </trkpt>
      <trkpt lat="43.19534" lon="5.57674">
        <ele>219</ele>
        <time>2019-11-20T09:23:09Z</time>
      </trkpt>
      <trkpt lat="43.19531" lon="5.57679">
        <ele>219</ele>
        <time>2019-11-20T09:23:13Z</time>
      </trkpt>
      <trkpt lat="43.19527" lon="5.57683">
        <ele>219</ele>
        <time>2019-11-20T09:23:17Z</time>
      </trkpt>
      <trkpt lat="43.19523" lon="5.57688">
        <ele>218</ele>
        <time>2019-11-20T09:23:21Z</time>
      </trkpt>
      <trkpt lat="43.1952" lon="5.57692">
        <ele>218</ele>
        <time>2019-11-20T09:23:25Z</time>
      </trkpt>
      <trkpt lat="43.19518" lon="5.57698">
        <ele>218</ele>
        <time>2019-11-20T09:23:29Z</time>
      </trkpt>
      <trkpt lat="43.19518" lon="5.57704">
        <ele>218</ele>
        <time>2019-11-20T09:23:33Z</time>
      </trkpt>
      <trkpt lat="43.19519" lon="5.57712">
        <ele>218</ele>
        <time>2019-11-20T09:23:55Z</time>
      </trkpt>
      <trkpt lat="43.19522" lon="5.5772">
        <ele>219</ele>
        <time>2019-11-20T09:24:01Z</time>
      </trkpt>
      <trkpt lat="43.19528" lon="5.57725">
        <ele>218</ele>
        <time>2019-11-20T09:24:07Z</time>
      </trkpt>
      <trkpt lat="43.19533" lon="5.57729">
        <ele>218</ele>
        <time>2019-11-20T09:24:13Z</time>
      </trkpt>
      <trkpt lat="43.19537" lon="5.57734">
        <ele>216</ele>
        <time>2019-11-20T09:24:19Z</time>
      </trkpt>
      <trkpt lat="43.19541" lon="5.57737">
        <ele>215</ele>
        <time>2019-11-20T09:24:25Z</time>
      </trkpt>
      <trkpt lat="43.19547" lon="5.57741">
        <ele>214</ele>
        <time>2019-11-20T09:24:31Z</time>
      </trkpt>
      <trkpt lat="43.19551" lon="5.57744">
        <ele>212</ele>
        <time>2019-11-20T09:24:37Z</time>
      </trkpt>
      <trkpt lat="43.19555" lon="5.57751">
        <ele>211</ele>
        <time>2019-11-20T09:24:43Z</time>
      </trkpt>
      <trkpt lat="43.19559" lon="5.57757">
        <ele>211</ele>
        <time>2019-11-20T09:24:47Z</time>
      </trkpt>
      <trkpt lat="43.19562" lon="5.57763">
        <ele>212</ele>
        <time>2019-11-20T09:24:51Z</time>
      </trkpt>
      <trkpt lat="43.19563" lon="5.5777">
        <ele>212</ele>
        <time>2019-11-20T09:24:55Z</time>
      </trkpt>
      <trkpt lat="43.19564" lon="5.57778">
        <ele>212</ele>
        <time>2019-11-20T09:25:01Z</time>
      </trkpt>
      <trkpt lat="43.19563" lon="5.57787">
        <ele>212</ele>
        <time>2019-11-20T09:25:07Z</time>
      </trkpt>
      <trkpt lat="43.19563" lon="5.57794">
        <ele>212</ele>
        <time>2019-11-20T09:25:11Z</time>
      </trkpt>
      <trkpt lat="43.19562" lon="5.578">
        <ele>212</ele>
        <time>2019-11-20T09:25:15Z</time>
      </trkpt>
      <trkpt lat="43.19561" lon="5.57808">
        <ele>212</ele>
        <time>2019-11-20T09:25:21Z</time>
      </trkpt>
      <trkpt lat="43.19558" lon="5.57815">
        <ele>211</ele>
        <time>2019-11-20T09:25:27Z</time>
      </trkpt>
      <trkpt lat="43.19556" lon="5.57822">
        <ele>210</ele>
        <time>2019-11-20T09:25:33Z</time>
      </trkpt>
      <trkpt lat="43.19554" lon="5.57827">
        <ele>210</ele>
        <time>2019-11-20T09:25:37Z</time>
      </trkpt>
      <trkpt lat="43.19552" lon="5.57833">
        <ele>209</ele>
        <time>2019-11-20T09:25:41Z</time>
      </trkpt>
      <trkpt lat="43.1955" lon="5.5784">
        <ele>206</ele>
        <time>2019-11-20T09:25:47Z</time>
      </trkpt>
      <trkpt lat="43.1955" lon="5.57849">
        <ele>206</ele>
        <time>2019-11-20T09:25:53Z</time>
      </trkpt>
      <trkpt lat="43.19551" lon="5.57856">
        <ele>206</ele>
        <time>2019-11-20T09:25:57Z</time>
      </trkpt>
      <trkpt lat="43.1955" lon="5.57862">
        <ele>206</ele>
        <time>2019-11-20T09:26:01Z</time>
      </trkpt>
      <trkpt lat="43.19552" lon="5.5787">
        <ele>207</ele>
        <time>2019-11-20T09:26:07Z</time>
      </trkpt>
      <trkpt lat="43.19556" lon="5.57875">
        <ele>206</ele>
        <time>2019-11-20T09:26:13Z</time>
      </trkpt>
      <trkpt lat="43.1956" lon="5.57879">
        <ele>207</ele>
        <time>2019-11-20T09:26:21Z</time>
      </trkpt>
      <trkpt lat="43.19565" lon="5.57881">
        <ele>206</ele>
        <time>2019-11-20T09:26:29Z</time>
      </trkpt>
      <trkpt lat="43.1957" lon="5.57881">
        <ele>206</ele>
        <time>2019-11-20T09:26:35Z</time>
      </trkpt>
      <trkpt lat="43.19575" lon="5.57881">
        <ele>206</ele>
        <time>2019-11-20T09:26:41Z</time>
      </trkpt>
      <trkpt lat="43.19581" lon="5.57881">
        <ele>206</ele>
        <time>2019-11-20T09:26:49Z</time>
      </trkpt>
      <trkpt lat="43.19585" lon="5.57879">
        <ele>205</ele>
        <time>2019-11-20T09:26:55Z</time>
      </trkpt>
      <trkpt lat="43.1959" lon="5.57877">
        <ele>206</ele>
        <time>2019-11-20T09:27:05Z</time>
      </trkpt>
      <trkpt lat="43.19594" lon="5.57871">
        <ele>207</ele>
        <time>2019-11-20T09:27:13Z</time>
      </trkpt>
      <trkpt lat="43.19599" lon="5.57865">
        <ele>208</ele>
        <time>2019-11-20T09:27:19Z</time>
      </trkpt>
      <trkpt lat="43.19603" lon="5.57861">
        <ele>208</ele>
        <time>2019-11-20T09:27:25Z</time>
      </trkpt>
      <trkpt lat="43.19608" lon="5.57858">
        <ele>207</ele>
        <time>2019-11-20T09:27:33Z</time>
      </trkpt>
      <trkpt lat="43.19613" lon="5.57852">
        <ele>206</ele>
        <time>2019-11-20T09:27:39Z</time>
      </trkpt>
      <trkpt lat="43.19616" lon="5.57848">
        <ele>206</ele>
        <time>2019-11-20T09:27:43Z</time>
      </trkpt>
      <trkpt lat="43.19623" lon="5.57844">
        <ele>206</ele>
        <time>2019-11-20T09:27:49Z</time>
      </trkpt>
      <trkpt lat="43.19628" lon="5.5784">
        <ele>205</ele>
        <time>2019-11-20T09:27:55Z</time>
      </trkpt>
      <trkpt lat="43.19633" lon="5.57836">
        <ele>204</ele>
        <time>2019-11-20T09:28:01Z</time>
      </trkpt>
      <trkpt lat="43.19637" lon="5.5783">
        <ele>205</ele>
        <time>2019-11-20T09:28:05Z</time>
      </trkpt>
      <trkpt lat="43.19639" lon="5.57825">
        <ele>205</ele>
        <time>2019-11-20T09:28:09Z</time>
      </trkpt>
      <trkpt lat="43.19643" lon="5.57821">
        <ele>205</ele>
        <time>2019-11-20T09:28:13Z</time>
      </trkpt>
      <trkpt lat="43.19648" lon="5.57814">
        <ele>207</ele>
        <time>2019-11-20T09:28:19Z</time>
      </trkpt>
      <trkpt lat="43.19653" lon="5.57812">
        <ele>208</ele>
        <time>2019-11-20T09:28:27Z</time>
      </trkpt>
      <trkpt lat="43.19658" lon="5.57818">
        <ele>205</ele>
        <time>2019-11-20T09:28:33Z</time>
      </trkpt>
      <trkpt lat="43.19661" lon="5.57826">
        <ele>207</ele>
        <time>2019-11-20T09:28:39Z</time>
      </trkpt>
      <trkpt lat="43.19661" lon="5.57833">
        <ele>206</ele>
        <time>2019-11-20T09:28:43Z</time>
      </trkpt>
      <trkpt lat="43.19663" lon="5.5784">
        <ele>207</ele>
        <time>2019-11-20T09:28:47Z</time>
      </trkpt>
      <trkpt lat="43.19665" lon="5.57847">
        <ele>208</ele>
        <time>2019-11-20T09:28:53Z</time>
      </trkpt>
      <trkpt lat="43.19665" lon="5.57855">
        <ele>208</ele>
        <time>2019-11-20T09:28:59Z</time>
      </trkpt>
      <trkpt lat="43.19667" lon="5.57864">
        <ele>208</ele>
        <time>2019-11-20T09:29:05Z</time>
      </trkpt>
      <trkpt lat="43.19668" lon="5.57871">
        <ele>206</ele>
        <time>2019-11-20T09:29:09Z</time>
      </trkpt>
      <trkpt lat="43.1967" lon="5.57878">
        <ele>209</ele>
        <time>2019-11-20T09:29:13Z</time>
      </trkpt>
      <trkpt lat="43.19671" lon="5.57884">
        <ele>209</ele>
        <time>2019-11-20T09:29:17Z</time>
      </trkpt>
      <trkpt lat="43.19673" lon="5.57892">
        <ele>209</ele>
        <time>2019-11-20T09:29:23Z</time>
      </trkpt>
      <trkpt lat="43.19677" lon="5.579">
        <ele>212</ele>
        <time>2019-11-20T09:29:29Z</time>
      </trkpt>
      <trkpt lat="43.1968" lon="5.57905">
        <ele>213</ele>
        <time>2019-11-20T09:29:33Z</time>
      </trkpt>
      <trkpt lat="43.19684" lon="5.57911">
        <ele>213</ele>
        <time>2019-11-20T09:29:37Z</time>
      </trkpt>
      <trkpt lat="43.19688" lon="5.57915">
        <ele>213</ele>
        <time>2019-11-20T09:29:41Z</time>
      </trkpt>
      <trkpt lat="43.19692" lon="5.57921">
        <ele>212</ele>
        <time>2019-11-20T09:29:47Z</time>
      </trkpt>
      <trkpt lat="43.19696" lon="5.57925">
        <ele>212</ele>
        <time>2019-11-20T09:29:51Z</time>
      </trkpt>
      <trkpt lat="43.197" lon="5.57928">
        <ele>212</ele>
        <time>2019-11-20T09:29:55Z</time>
      </trkpt>
      <trkpt lat="43.19705" lon="5.5793">
        <ele>211</ele>
        <time>2019-11-20T09:29:59Z</time>
      </trkpt>
      <trkpt lat="43.19711" lon="5.57931">
        <ele>211</ele>
        <time>2019-11-20T09:30:05Z</time>
      </trkpt>
      <trkpt lat="43.19717" lon="5.57928">
        <ele>209</ele>
        <time>2019-11-20T09:30:11Z</time>
      </trkpt>
      <trkpt lat="43.19722" lon="5.57922">
        <ele>209</ele>
        <time>2019-11-20T09:30:17Z</time>
      </trkpt>
      <trkpt lat="43.19726" lon="5.57918">
        <ele>209</ele>
        <time>2019-11-20T09:30:21Z</time>
      </trkpt>
      <trkpt lat="43.19731" lon="5.57912">
        <ele>208</ele>
        <time>2019-11-20T09:30:27Z</time>
      </trkpt>
      <trkpt lat="43.19736" lon="5.57907">
        <ele>207</ele>
        <time>2019-11-20T09:30:33Z</time>
      </trkpt>
      <trkpt lat="43.19741" lon="5.57902">
        <ele>207</ele>
        <time>2019-11-20T09:30:39Z</time>
      </trkpt>
      <trkpt lat="43.19745" lon="5.57899">
        <ele>207</ele>
        <time>2019-11-20T09:30:43Z</time>
      </trkpt>
      <trkpt lat="43.19749" lon="5.57895">
        <ele>206</ele>
        <time>2019-11-20T09:30:47Z</time>
      </trkpt>
      <trkpt lat="43.19754" lon="5.57889">
        <ele>206</ele>
        <time>2019-11-20T09:30:53Z</time>
      </trkpt>
      <trkpt lat="43.19759" lon="5.57883">
        <ele>206</ele>
        <time>2019-11-20T09:30:59Z</time>
      </trkpt>
      <trkpt lat="43.19763" lon="5.57877">
        <ele>205</ele>
        <time>2019-11-20T09:31:05Z</time>
      </trkpt>
      <trkpt lat="43.19768" lon="5.57872">
        <ele>207</ele>
        <time>2019-11-20T09:31:11Z</time>
      </trkpt>
      <trkpt lat="43.19772" lon="5.57866">
        <ele>206</ele>
        <time>2019-11-20T09:31:17Z</time>
      </trkpt>
      <trkpt lat="43.19777" lon="5.5786">
        <ele>206</ele>
        <time>2019-11-20T09:31:23Z</time>
      </trkpt>
      <trkpt lat="43.19783" lon="5.57856">
        <ele>206</ele>
        <time>2019-11-20T09:31:29Z</time>
      </trkpt>
      <trkpt lat="43.19789" lon="5.57854">
        <ele>206</ele>
        <time>2019-11-20T09:31:35Z</time>
      </trkpt>
      <trkpt lat="43.19796" lon="5.57851">
        <ele>206</ele>
        <time>2019-11-20T09:31:41Z</time>
      </trkpt>
      <trkpt lat="43.198" lon="5.57849">
        <ele>206</ele>
        <time>2019-11-20T09:31:45Z</time>
      </trkpt>
      <trkpt lat="43.19804" lon="5.57845">
        <ele>208</ele>
        <time>2019-11-20T09:31:49Z</time>
      </trkpt>
      <trkpt lat="43.19807" lon="5.57841">
        <ele>208</ele>
        <time>2019-11-20T09:31:53Z</time>
      </trkpt>
      <trkpt lat="43.19812" lon="5.57836">
        <ele>206</ele>
        <time>2019-11-20T09:31:59Z</time>
      </trkpt>
      <trkpt lat="43.19817" lon="5.5783">
        <ele>206</ele>
        <time>2019-11-20T09:32:05Z</time>
      </trkpt>
      <trkpt lat="43.1982" lon="5.57826">
        <ele>206</ele>
        <time>2019-11-20T09:32:09Z</time>
      </trkpt>
      <trkpt lat="43.19825" lon="5.57819">
        <ele>206</ele>
        <time>2019-11-20T09:32:15Z</time>
      </trkpt>
      <trkpt lat="43.19828" lon="5.57812">
        <ele>205</ele>
        <time>2019-11-20T09:32:21Z</time>
      </trkpt>
      <trkpt lat="43.19831" lon="5.57806">
        <ele>205</ele>
        <time>2019-11-20T09:32:27Z</time>
      </trkpt>
      <trkpt lat="43.19833" lon="5.57799">
        <ele>205</ele>
        <time>2019-11-20T09:32:33Z</time>
      </trkpt>
      <trkpt lat="43.19836" lon="5.57791">
        <ele>205</ele>
        <time>2019-11-20T09:32:39Z</time>
      </trkpt>
      <trkpt lat="43.19839" lon="5.57784">
        <ele>204</ele>
        <time>2019-11-20T09:32:45Z</time>
      </trkpt>
      <trkpt lat="43.19839" lon="5.57778">
        <ele>204</ele>
        <time>2019-11-20T09:32:49Z</time>
      </trkpt>
      <trkpt lat="43.1984" lon="5.57771">
        <ele>204</ele>
        <time>2019-11-20T09:32:53Z</time>
      </trkpt>
      <trkpt lat="43.1984" lon="5.57765">
        <ele>204</ele>
        <time>2019-11-20T09:32:57Z</time>
      </trkpt>
      <trkpt lat="43.19841" lon="5.57759">
        <ele>204</ele>
        <time>2019-11-20T09:33:01Z</time>
      </trkpt>
      <trkpt lat="43.19842" lon="5.57752">
        <ele>206</ele>
        <time>2019-11-20T09:33:05Z</time>
      </trkpt>
      <trkpt lat="43.19842" lon="5.57744">
        <ele>207</ele>
        <time>2019-11-20T09:33:11Z</time>
      </trkpt>
      <trkpt lat="43.19841" lon="5.57737">
        <ele>207</ele>
        <time>2019-11-20T09:33:15Z</time>
      </trkpt>
      <trkpt lat="43.19839" lon="5.57728">
        <ele>206</ele>
        <time>2019-11-20T09:33:21Z</time>
      </trkpt>
      <trkpt lat="43.19837" lon="5.5772">
        <ele>207</ele>
        <time>2019-11-20T09:33:27Z</time>
      </trkpt>
      <trkpt lat="43.19835" lon="5.57712">
        <ele>206</ele>
        <time>2019-11-20T09:33:33Z</time>
      </trkpt>
      <trkpt lat="43.19833" lon="5.57706">
        <ele>206</ele>
        <time>2019-11-20T09:33:37Z</time>
      </trkpt>
      <trkpt lat="43.19832" lon="5.57698">
        <ele>208</ele>
        <time>2019-11-20T09:33:43Z</time>
      </trkpt>
      <trkpt lat="43.19831" lon="5.5769">
        <ele>208</ele>
        <time>2019-11-20T09:33:49Z</time>
      </trkpt>
      <trkpt lat="43.19829" lon="5.57682">
        <ele>209</ele>
        <time>2019-11-20T09:33:55Z</time>
      </trkpt>
      <trkpt lat="43.19828" lon="5.57675">
        <ele>206</ele>
        <time>2019-11-20T09:34:01Z</time>
      </trkpt>
      <trkpt lat="43.19826" lon="5.57667">
        <ele>207</ele>
        <time>2019-11-20T09:34:07Z</time>
      </trkpt>
      <trkpt lat="43.19823" lon="5.5766">
        <ele>205</ele>
        <time>2019-11-20T09:34:13Z</time>
      </trkpt>
      <trkpt lat="43.19821" lon="5.57652">
        <ele>207</ele>
        <time>2019-11-20T09:34:19Z</time>
      </trkpt>
      <trkpt lat="43.19819" lon="5.57645">
        <ele>205</ele>
        <time>2019-11-20T09:34:25Z</time>
      </trkpt>
      <trkpt lat="43.19817" lon="5.57637">
        <ele>204</ele>
        <time>2019-11-20T09:34:31Z</time>
      </trkpt>
      <trkpt lat="43.19819" lon="5.57629">
        <ele>202</ele>
        <time>2019-11-20T09:34:37Z</time>
      </trkpt>
      <trkpt lat="43.19824" lon="5.57624">
        <ele>203</ele>
        <time>2019-11-20T09:34:43Z</time>
      </trkpt>
      <trkpt lat="43.1983" lon="5.57626">
        <ele>204</ele>
        <time>2019-11-20T09:34:51Z</time>
      </trkpt>
      <trkpt lat="43.19834" lon="5.57631">
        <ele>205</ele>
        <time>2019-11-20T09:34:57Z</time>
      </trkpt>
      <trkpt lat="43.19839" lon="5.57637">
        <ele>206</ele>
        <time>2019-11-20T09:35:03Z</time>
      </trkpt>
      <trkpt lat="43.19843" lon="5.5764">
        <ele>207</ele>
        <time>2019-11-20T09:35:07Z</time>
      </trkpt>
      <trkpt lat="43.19849" lon="5.57644">
        <ele>209</ele>
        <time>2019-11-20T09:35:13Z</time>
      </trkpt>
      <trkpt lat="43.19855" lon="5.5765">
        <ele>209</ele>
        <time>2019-11-20T09:35:19Z</time>
      </trkpt>
      <trkpt lat="43.1986" lon="5.57655">
        <ele>208</ele>
        <time>2019-11-20T09:35:25Z</time>
      </trkpt>
      <trkpt lat="43.19864" lon="5.5766">
        <ele>207</ele>
        <time>2019-11-20T09:35:31Z</time>
      </trkpt>
      <trkpt lat="43.1987" lon="5.57664">
        <ele>208</ele>
        <time>2019-11-20T09:35:37Z</time>
      </trkpt>
      <trkpt lat="43.19876" lon="5.57667">
        <ele>206</ele>
        <time>2019-11-20T09:35:43Z</time>
      </trkpt>
      <trkpt lat="43.1988" lon="5.57669">
        <ele>207</ele>
        <time>2019-11-20T09:35:49Z</time>
      </trkpt>
      <trkpt lat="43.19884" lon="5.57672">
        <ele>207</ele>
        <time>2019-11-20T09:35:59Z</time>
      </trkpt>
      <trkpt lat="43.1988" lon="5.57674">
        <ele>207</ele>
        <time>2019-11-20T09:37:11Z</time>
      </trkpt>
      <trkpt lat="43.19885" lon="5.57674">
        <ele>209</ele>
        <time>2019-11-20T09:37:55Z</time>
      </trkpt>
      <trkpt lat="43.1989" lon="5.57673">
        <ele>209</ele>
        <time>2019-11-20T09:38:01Z</time>
      </trkpt>
      <trkpt lat="43.19895" lon="5.57672">
        <ele>206</ele>
        <time>2019-11-20T09:38:05Z</time>
      </trkpt>
      <trkpt lat="43.199" lon="5.5767">
        <ele>206</ele>
        <time>2019-11-20T09:38:09Z</time>
      </trkpt>
      <trkpt lat="43.19906" lon="5.57667">
        <ele>207</ele>
        <time>2019-11-20T09:38:15Z</time>
      </trkpt>
      <trkpt lat="43.19911" lon="5.57662">
        <ele>206</ele>
        <time>2019-11-20T09:38:21Z</time>
      </trkpt>
      <trkpt lat="43.19916" lon="5.57659">
        <ele>205</ele>
        <time>2019-11-20T09:38:27Z</time>
      </trkpt>
      <trkpt lat="43.19921" lon="5.57654">
        <ele>204</ele>
        <time>2019-11-20T09:38:33Z</time>
      </trkpt>
      <trkpt lat="43.19925" lon="5.5765">
        <ele>203</ele>
        <time>2019-11-20T09:38:37Z</time>
      </trkpt>
      <trkpt lat="43.1993" lon="5.57646">
        <ele>204</ele>
        <time>2019-11-20T09:38:43Z</time>
      </trkpt>
      <trkpt lat="43.19935" lon="5.57639">
        <ele>204</ele>
        <time>2019-11-20T09:38:49Z</time>
      </trkpt>
      <trkpt lat="43.19939" lon="5.57635">
        <ele>204</ele>
        <time>2019-11-20T09:38:53Z</time>
      </trkpt>
      <trkpt lat="43.19943" lon="5.57629">
        <ele>203</ele>
        <time>2019-11-20T09:38:59Z</time>
      </trkpt>
      <trkpt lat="43.19947" lon="5.57624">
        <ele>203</ele>
        <time>2019-11-20T09:39:05Z</time>
      </trkpt>
      <trkpt lat="43.19951" lon="5.57617">
        <ele>204</ele>
        <time>2019-11-20T09:39:11Z</time>
      </trkpt>
      <trkpt lat="43.19956" lon="5.57613">
        <ele>205</ele>
        <time>2019-11-20T09:39:15Z</time>
      </trkpt>
      <trkpt lat="43.1996" lon="5.57609">
        <ele>204</ele>
        <time>2019-11-20T09:39:19Z</time>
      </trkpt>
      <trkpt lat="43.19964" lon="5.57604">
        <ele>204</ele>
        <time>2019-11-20T09:39:25Z</time>
      </trkpt>
      <trkpt lat="43.19969" lon="5.57597">
        <ele>205</ele>
        <time>2019-11-20T09:39:31Z</time>
      </trkpt>
      <trkpt lat="43.19972" lon="5.57592">
        <ele>205</ele>
        <time>2019-11-20T09:39:35Z</time>
      </trkpt>
      <trkpt lat="43.19975" lon="5.57585">
        <ele>205</ele>
        <time>2019-11-20T09:39:41Z</time>
      </trkpt>
      <trkpt lat="43.19977" lon="5.5758">
        <ele>207</ele>
        <time>2019-11-20T09:39:45Z</time>
      </trkpt>
      <trkpt lat="43.19982" lon="5.57573">
        <ele>207</ele>
        <time>2019-11-20T09:39:51Z</time>
      </trkpt>
      <trkpt lat="43.19987" lon="5.57568">
        <ele>206</ele>
        <time>2019-11-20T09:39:57Z</time>
      </trkpt>
      <trkpt lat="43.19992" lon="5.57571">
        <ele>205</ele>
        <time>2019-11-20T09:40:03Z</time>
      </trkpt>
      <trkpt lat="43.19992" lon="5.57578">
        <ele>206</ele>
        <time>2019-11-20T09:40:09Z</time>
      </trkpt>
      <trkpt lat="43.19992" lon="5.57586">
        <ele>206</ele>
        <time>2019-11-20T09:40:15Z</time>
      </trkpt>
      <trkpt lat="43.19991" lon="5.57593">
        <ele>207</ele>
        <time>2019-11-20T09:40:19Z</time>
      </trkpt>
      <trkpt lat="43.19991" lon="5.576">
        <ele>206</ele>
        <time>2019-11-20T09:40:23Z</time>
      </trkpt>
      <trkpt lat="43.1999" lon="5.57606">
        <ele>205</ele>
        <time>2019-11-20T09:40:27Z</time>
      </trkpt>
      <trkpt lat="43.19989" lon="5.57614">
        <ele>206</ele>
        <time>2019-11-20T09:40:33Z</time>
      </trkpt>
      <trkpt lat="43.19988" lon="5.57622">
        <ele>205</ele>
        <time>2019-11-20T09:40:39Z</time>
      </trkpt>
      <trkpt lat="43.19986" lon="5.57628">
        <ele>204</ele>
        <time>2019-11-20T09:40:43Z</time>
      </trkpt>
      <trkpt lat="43.19985" lon="5.57636">
        <ele>204</ele>
        <time>2019-11-20T09:40:49Z</time>
      </trkpt>
      <trkpt lat="43.19985" lon="5.57643">
        <ele>205</ele>
        <time>2019-11-20T09:40:53Z</time>
      </trkpt>
      <trkpt lat="43.19985" lon="5.5765">
        <ele>205</ele>
        <time>2019-11-20T09:40:57Z</time>
      </trkpt>
      <trkpt lat="43.19984" lon="5.57659">
        <ele>204</ele>
        <time>2019-11-20T09:41:03Z</time>
      </trkpt>
      <trkpt lat="43.19984" lon="5.57665">
        <ele>205</ele>
        <time>2019-11-20T09:41:07Z</time>
      </trkpt>
      <trkpt lat="43.19983" lon="5.57673">
        <ele>206</ele>
        <time>2019-11-20T09:41:13Z</time>
      </trkpt>
      <trkpt lat="43.19982" lon="5.57681">
        <ele>204</ele>
        <time>2019-11-20T09:41:19Z</time>
      </trkpt>
      <trkpt lat="43.1998" lon="5.5769">
        <ele>205</ele>
        <time>2019-11-20T09:41:25Z</time>
      </trkpt>
      <trkpt lat="43.19979" lon="5.57696">
        <ele>206</ele>
        <time>2019-11-20T09:41:29Z</time>
      </trkpt>
      <trkpt lat="43.19977" lon="5.57705">
        <ele>206</ele>
        <time>2019-11-20T09:41:35Z</time>
      </trkpt>
      <trkpt lat="43.19976" lon="5.57714">
        <ele>207</ele>
        <time>2019-11-20T09:41:41Z</time>
      </trkpt>
      <trkpt lat="43.19974" lon="5.57722">
        <ele>207</ele>
        <time>2019-11-20T09:41:47Z</time>
      </trkpt>
      <trkpt lat="43.19973" lon="5.57729">
        <ele>208</ele>
        <time>2019-11-20T09:41:51Z</time>
      </trkpt>
      <trkpt lat="43.1997" lon="5.57737">
        <ele>207</ele>
        <time>2019-11-20T09:41:57Z</time>
      </trkpt>
      <trkpt lat="43.19968" lon="5.57745">
        <ele>207</ele>
        <time>2019-11-20T09:42:03Z</time>
      </trkpt>
      <trkpt lat="43.19966" lon="5.57753">
        <ele>205</ele>
        <time>2019-11-20T09:42:09Z</time>
      </trkpt>
      <trkpt lat="43.19964" lon="5.57759">
        <ele>207</ele>
        <time>2019-11-20T09:42:13Z</time>
      </trkpt>
      <trkpt lat="43.19963" lon="5.57767">
        <ele>206</ele>
        <time>2019-11-20T09:42:19Z</time>
      </trkpt>
      <trkpt lat="43.19962" lon="5.57774">
        <ele>205</ele>
        <time>2019-11-20T09:42:25Z</time>
      </trkpt>
      <trkpt lat="43.1996" lon="5.57782">
        <ele>205</ele>
        <time>2019-11-20T09:42:31Z</time>
      </trkpt>
      <trkpt lat="43.19957" lon="5.57788">
        <ele>206</ele>
        <time>2019-11-20T09:42:35Z</time>
      </trkpt>
      <trkpt lat="43.19956" lon="5.57794">
        <ele>206</ele>
        <time>2019-11-20T09:42:39Z</time>
      </trkpt>
      <trkpt lat="43.19956" lon="5.57801">
        <ele>207</ele>
        <time>2019-11-20T09:42:43Z</time>
      </trkpt>
      <trkpt lat="43.19956" lon="5.57809">
        <ele>208</ele>
        <time>2019-11-20T09:42:49Z</time>
      </trkpt>
      <trkpt lat="43.19958" lon="5.57818">
        <ele>208</ele>
        <time>2019-11-20T09:42:55Z</time>
      </trkpt>
      <trkpt lat="43.19963" lon="5.57824">
        <ele>207</ele>
        <time>2019-11-20T09:43:01Z</time>
      </trkpt>
      <trkpt lat="43.19967" lon="5.57827">
        <ele>207</ele>
        <time>2019-11-20T09:43:07Z</time>
      </trkpt>
      <trkpt lat="43.19972" lon="5.57828">
        <ele>206</ele>
        <time>2019-11-20T09:43:13Z</time>
      </trkpt>
      <trkpt lat="43.19978" lon="5.57828">
        <ele>206</ele>
        <time>2019-11-20T09:43:19Z</time>
      </trkpt>
      <trkpt lat="43.19985" lon="5.57827">
        <ele>208</ele>
        <time>2019-11-20T09:43:25Z</time>
      </trkpt>
      <trkpt lat="43.19991" lon="5.57825">
        <ele>206</ele>
        <time>2019-11-20T09:43:31Z</time>
      </trkpt>
      <trkpt lat="43.19997" lon="5.57824">
        <ele>207</ele>
        <time>2019-11-20T09:43:37Z</time>
      </trkpt>
      <trkpt lat="43.20003" lon="5.57821">
        <ele>207</ele>
        <time>2019-11-20T09:43:43Z</time>
      </trkpt>
      <trkpt lat="43.20008" lon="5.57817">
        <ele>207</ele>
        <time>2019-11-20T09:43:49Z</time>
      </trkpt>
      <trkpt lat="43.20013" lon="5.57813">
        <ele>208</ele>
        <time>2019-11-20T09:43:55Z</time>
      </trkpt>
      <trkpt lat="43.20019" lon="5.57809">
        <ele>209</ele>
        <time>2019-11-20T09:44:01Z</time>
      </trkpt>
      <trkpt lat="43.20023" lon="5.57807">
        <ele>210</ele>
        <time>2019-11-20T09:44:05Z</time>
      </trkpt>
      <trkpt lat="43.20027" lon="5.57804">
        <ele>209</ele>
        <time>2019-11-20T09:44:09Z</time>
      </trkpt>
      <trkpt lat="43.20033" lon="5.578">
        <ele>209</ele>
        <time>2019-11-20T09:44:15Z</time>
      </trkpt>
      <trkpt lat="43.20038" lon="5.57796">
        <ele>208</ele>
        <time>2019-11-20T09:44:21Z</time>
      </trkpt>
      <trkpt lat="43.20043" lon="5.57791">
        <ele>208</ele>
        <time>2019-11-20T09:44:27Z</time>
      </trkpt>
      <trkpt lat="43.20048" lon="5.57785">
        <ele>209</ele>
        <time>2019-11-20T09:44:33Z</time>
      </trkpt>
      <trkpt lat="43.20053" lon="5.5778">
        <ele>208</ele>
        <time>2019-11-20T09:44:39Z</time>
      </trkpt>
      <trkpt lat="43.20058" lon="5.57774">
        <ele>209</ele>
        <time>2019-11-20T09:44:45Z</time>
      </trkpt>
      <trkpt lat="43.20062" lon="5.5777">
        <ele>210</ele>
        <time>2019-11-20T09:44:49Z</time>
      </trkpt>
      <trkpt lat="43.20067" lon="5.57765">
        <ele>210</ele>
        <time>2019-11-20T09:44:55Z</time>
      </trkpt>
      <trkpt lat="43.20072" lon="5.5776">
        <ele>209</ele>
        <time>2019-11-20T09:45:01Z</time>
      </trkpt>
      <trkpt lat="43.20076" lon="5.57754">
        <ele>209</ele>
        <time>2019-11-20T09:45:07Z</time>
      </trkpt>
      <trkpt lat="43.20082" lon="5.5775">
        <ele>208</ele>
        <time>2019-11-20T09:45:13Z</time>
      </trkpt>
      <trkpt lat="43.20086" lon="5.57748">
        <ele>208</ele>
        <time>2019-11-20T09:45:17Z</time>
      </trkpt>
      <trkpt lat="43.2009" lon="5.57744">
        <ele>208</ele>
        <time>2019-11-20T09:45:21Z</time>
      </trkpt>
      <trkpt lat="43.20093" lon="5.57739">
        <ele>209</ele>
        <time>2019-11-20T09:45:25Z</time>
      </trkpt>
      <trkpt lat="43.20098" lon="5.57733">
        <ele>208</ele>
        <time>2019-11-20T09:45:31Z</time>
      </trkpt>
      <trkpt lat="43.20102" lon="5.57729">
        <ele>208</ele>
        <time>2019-11-20T09:45:35Z</time>
      </trkpt>
      <trkpt lat="43.20105" lon="5.57725">
        <ele>209</ele>
        <time>2019-11-20T09:45:39Z</time>
      </trkpt>
      <trkpt lat="43.20109" lon="5.57721">
        <ele>209</ele>
        <time>2019-11-20T09:45:43Z</time>
      </trkpt>
      <trkpt lat="43.20113" lon="5.57716">
        <ele>208</ele>
        <time>2019-11-20T09:45:49Z</time>
      </trkpt>
      <trkpt lat="43.20118" lon="5.57711">
        <ele>207</ele>
        <time>2019-11-20T09:45:55Z</time>
      </trkpt>
      <trkpt lat="43.20122" lon="5.57705">
        <ele>208</ele>
        <time>2019-11-20T09:46:01Z</time>
      </trkpt>
      <trkpt lat="43.20126" lon="5.57701">
        <ele>207</ele>
        <time>2019-11-20T09:46:05Z</time>
      </trkpt>
      <trkpt lat="43.2013" lon="5.57696">
        <ele>208</ele>
        <time>2019-11-20T09:46:09Z</time>
      </trkpt>
      <trkpt lat="43.20134" lon="5.57689">
        <ele>207</ele>
        <time>2019-11-20T09:46:15Z</time>
      </trkpt>
      <trkpt lat="43.20137" lon="5.57682">
        <ele>206</ele>
        <time>2019-11-20T09:46:21Z</time>
      </trkpt>
      <trkpt lat="43.20139" lon="5.57673">
        <ele>205</ele>
        <time>2019-11-20T09:46:27Z</time>
      </trkpt>
      <trkpt lat="43.20142" lon="5.57666">
        <ele>206</ele>
        <time>2019-11-20T09:46:33Z</time>
      </trkpt>
      <trkpt lat="43.20145" lon="5.5766">
        <ele>206</ele>
        <time>2019-11-20T09:46:37Z</time>
      </trkpt>
      <trkpt lat="43.20149" lon="5.57655">
        <ele>205</ele>
        <time>2019-11-20T09:46:41Z</time>
      </trkpt>
      <trkpt lat="43.20153" lon="5.57651">
        <ele>205</ele>
        <time>2019-11-20T09:46:45Z</time>
      </trkpt>
      <trkpt lat="43.20155" lon="5.57646">
        <ele>205</ele>
        <time>2019-11-20T09:46:49Z</time>
      </trkpt>
      <trkpt lat="43.20159" lon="5.57642">
        <ele>206</ele>
        <time>2019-11-20T09:46:53Z</time>
      </trkpt>
      <trkpt lat="43.20163" lon="5.57635">
        <ele>205</ele>
        <time>2019-11-20T09:46:59Z</time>
      </trkpt>
      <trkpt lat="43.20167" lon="5.5763">
        <ele>206</ele>
        <time>2019-11-20T09:47:03Z</time>
      </trkpt>
      <trkpt lat="43.2017" lon="5.57625">
        <ele>206</ele>
        <time>2019-11-20T09:47:07Z</time>
      </trkpt>
      <trkpt lat="43.20172" lon="5.57619">
        <ele>207</ele>
        <time>2019-11-20T09:47:11Z</time>
      </trkpt>
      <trkpt lat="43.20176" lon="5.57614">
        <ele>208</ele>
        <time>2019-11-20T09:47:15Z</time>
      </trkpt>
      <trkpt lat="43.2018" lon="5.57608">
        <ele>208</ele>
        <time>2019-11-20T09:47:21Z</time>
      </trkpt>
      <trkpt lat="43.20184" lon="5.57604">
        <ele>208</ele>
        <time>2019-11-20T09:47:25Z</time>
      </trkpt>
      <trkpt lat="43.20187" lon="5.57599">
        <ele>208</ele>
        <time>2019-11-20T09:47:29Z</time>
      </trkpt>
      <trkpt lat="43.2019" lon="5.57594">
        <ele>209</ele>
        <time>2019-11-20T09:47:33Z</time>
      </trkpt>
      <trkpt lat="43.20193" lon="5.57585">
        <ele>209</ele>
        <time>2019-11-20T09:47:39Z</time>
      </trkpt>
      <trkpt lat="43.20195" lon="5.5758">
        <ele>209</ele>
        <time>2019-11-20T09:47:43Z</time>
      </trkpt>
      <trkpt lat="43.20197" lon="5.57573">
        <ele>207</ele>
        <time>2019-11-20T09:47:49Z</time>
      </trkpt>
      <trkpt lat="43.202" lon="5.57565">
        <ele>208</ele>
        <time>2019-11-20T09:47:55Z</time>
      </trkpt>
      <trkpt lat="43.20201" lon="5.57558">
        <ele>207</ele>
        <time>2019-11-20T09:47:59Z</time>
      </trkpt>
      <trkpt lat="43.20203" lon="5.57549">
        <ele>206</ele>
        <time>2019-11-20T09:48:05Z</time>
      </trkpt>
      <trkpt lat="43.20206" lon="5.57541">
        <ele>206</ele>
        <time>2019-11-20T09:48:11Z</time>
      </trkpt>
      <trkpt lat="43.20211" lon="5.57536">
        <ele>207</ele>
        <time>2019-11-20T09:48:17Z</time>
      </trkpt>
      <trkpt lat="43.20217" lon="5.57541">
        <ele>204</ele>
        <time>2019-11-20T09:48:23Z</time>
      </trkpt>
      <trkpt lat="43.20218" lon="5.5755">
        <ele>203</ele>
        <time>2019-11-20T09:48:29Z</time>
      </trkpt>
      <trkpt lat="43.20217" lon="5.57557">
        <ele>203</ele>
        <time>2019-11-20T09:48:33Z</time>
      </trkpt>
      <trkpt lat="43.20216" lon="5.57564">
        <ele>204</ele>
        <time>2019-11-20T09:48:37Z</time>
      </trkpt>
      <trkpt lat="43.20216" lon="5.57572">
        <ele>206</ele>
        <time>2019-11-20T09:48:41Z</time>
      </trkpt>
      <trkpt lat="43.20217" lon="5.5758">
        <ele>206</ele>
        <time>2019-11-20T09:48:45Z</time>
      </trkpt>
      <trkpt lat="43.20219" lon="5.57588">
        <ele>205</ele>
        <time>2019-11-20T09:48:51Z</time>
      </trkpt>
      <trkpt lat="43.2022" lon="5.57596">
        <ele>206</ele>
        <time>2019-11-20T09:48:57Z</time>
      </trkpt>
      <trkpt lat="43.20221" lon="5.57604">
        <ele>207</ele>
        <time>2019-11-20T09:49:03Z</time>
      </trkpt>
      <trkpt lat="43.20221" lon="5.57611">
        <ele>207</ele>
        <time>2019-11-20T09:49:07Z</time>
      </trkpt>
      <trkpt lat="43.2022" lon="5.5762">
        <ele>209</ele>
        <time>2019-11-20T09:49:13Z</time>
      </trkpt>
      <trkpt lat="43.2022" lon="5.57627">
        <ele>210</ele>
        <time>2019-11-20T09:49:19Z</time>
      </trkpt>
      <trkpt lat="43.2022" lon="5.57636">
        <ele>210</ele>
        <time>2019-11-20T09:49:25Z</time>
      </trkpt>
      <trkpt lat="43.20219" lon="5.57643">
        <ele>210</ele>
        <time>2019-11-20T09:49:31Z</time>
      </trkpt>
      <trkpt lat="43.20218" lon="5.5765">
        <ele>212</ele>
        <time>2019-11-20T09:49:35Z</time>
      </trkpt>
      <trkpt lat="43.20217" lon="5.57656">
        <ele>211</ele>
        <time>2019-11-20T09:49:39Z</time>
      </trkpt>
      <trkpt lat="43.20216" lon="5.57662">
        <ele>213</ele>
        <time>2019-11-20T09:49:43Z</time>
      </trkpt>
      <trkpt lat="43.20215" lon="5.57669">
        <ele>214</ele>
        <time>2019-11-20T09:49:47Z</time>
      </trkpt>
      <trkpt lat="43.20214" lon="5.57676">
        <ele>213</ele>
        <time>2019-11-20T09:49:53Z</time>
      </trkpt>
      <trkpt lat="43.20214" lon="5.57683">
        <ele>210</ele>
        <time>2019-11-20T09:49:57Z</time>
      </trkpt>
      <trkpt lat="43.20214" lon="5.57691">
        <ele>210</ele>
        <time>2019-11-20T09:50:03Z</time>
      </trkpt>
      <trkpt lat="43.20215" lon="5.57697">
        <ele>209</ele>
        <time>2019-11-20T09:50:07Z</time>
      </trkpt>
      <trkpt lat="43.20214" lon="5.57706">
        <ele>210</ele>
        <time>2019-11-20T09:50:13Z</time>
      </trkpt>
      <trkpt lat="43.20212" lon="5.57713">
        <ele>211</ele>
        <time>2019-11-20T09:50:19Z</time>
      </trkpt>
      <trkpt lat="43.20211" lon="5.5772">
        <ele>213</ele>
        <time>2019-11-20T09:50:25Z</time>
      </trkpt>
      <trkpt lat="43.20211" lon="5.57728">
        <ele>214</ele>
        <time>2019-11-20T09:50:31Z</time>
      </trkpt>
      <trkpt lat="43.2021" lon="5.57737">
        <ele>213</ele>
        <time>2019-11-20T09:50:37Z</time>
      </trkpt>
      <trkpt lat="43.20211" lon="5.57744">
        <ele>213</ele>
        <time>2019-11-20T09:50:41Z</time>
      </trkpt>
      <trkpt lat="43.2021" lon="5.57752">
        <ele>211</ele>
        <time>2019-11-20T09:50:47Z</time>
      </trkpt>
      <trkpt lat="43.20207" lon="5.57758">
        <ele>213</ele>
        <time>2019-11-20T09:50:53Z</time>
      </trkpt>
      <trkpt lat="43.20205" lon="5.57765">
        <ele>214</ele>
        <time>2019-11-20T09:50:59Z</time>
      </trkpt>
      <trkpt lat="43.20201" lon="5.57772">
        <ele>217</ele>
        <time>2019-11-20T09:51:05Z</time>
      </trkpt>
      <trkpt lat="43.20198" lon="5.57781">
        <ele>216</ele>
        <time>2019-11-20T09:51:11Z</time>
      </trkpt>
      <trkpt lat="43.20195" lon="5.57789">
        <ele>217</ele>
        <time>2019-11-20T09:51:17Z</time>
      </trkpt>
      <trkpt lat="43.20194" lon="5.57796">
        <ele>217</ele>
        <time>2019-11-20T09:51:21Z</time>
      </trkpt>
      <trkpt lat="43.20193" lon="5.57802">
        <ele>215</ele>
        <time>2019-11-20T09:51:25Z</time>
      </trkpt>
      <trkpt lat="43.20191" lon="5.57809">
        <ele>216</ele>
        <time>2019-11-20T09:51:31Z</time>
      </trkpt>
      <trkpt lat="43.20187" lon="5.57816">
        <ele>215</ele>
        <time>2019-11-20T09:51:37Z</time>
      </trkpt>
      <trkpt lat="43.20185" lon="5.57822">
        <ele>215</ele>
        <time>2019-11-20T09:51:41Z</time>
      </trkpt>
      <trkpt lat="43.20184" lon="5.57829">
        <ele>212</ele>
        <time>2019-11-20T09:51:45Z</time>
      </trkpt>
      <trkpt lat="43.20182" lon="5.57834">
        <ele>214</ele>
        <time>2019-11-20T09:51:49Z</time>
      </trkpt>
      <trkpt lat="43.20179" lon="5.5784">
        <ele>214</ele>
        <time>2019-11-20T09:51:55Z</time>
      </trkpt>
      <trkpt lat="43.20176" lon="5.57846">
        <ele>213</ele>
        <time>2019-11-20T09:52:01Z</time>
      </trkpt>
      <trkpt lat="43.20173" lon="5.57853">
        <ele>212</ele>
        <time>2019-11-20T09:52:07Z</time>
      </trkpt>
      <trkpt lat="43.20171" lon="5.5786">
        <ele>214</ele>
        <time>2019-11-20T09:52:11Z</time>
      </trkpt>
      <trkpt lat="43.2017" lon="5.57867">
        <ele>215</ele>
        <time>2019-11-20T09:52:15Z</time>
      </trkpt>
      <trkpt lat="43.20168" lon="5.57875">
        <ele>213</ele>
        <time>2019-11-20T09:52:21Z</time>
      </trkpt>
      <trkpt lat="43.20166" lon="5.57881">
        <ele>214</ele>
        <time>2019-11-20T09:52:25Z</time>
      </trkpt>
      <trkpt lat="43.20164" lon="5.57889">
        <ele>214</ele>
        <time>2019-11-20T09:52:31Z</time>
      </trkpt>
      <trkpt lat="43.20162" lon="5.57897">
        <ele>214</ele>
        <time>2019-11-20T09:52:37Z</time>
      </trkpt>
      <trkpt lat="43.20159" lon="5.57904">
        <ele>213</ele>
        <time>2019-11-20T09:52:43Z</time>
      </trkpt>
      <trkpt lat="43.20157" lon="5.57913">
        <ele>213</ele>
        <time>2019-11-20T09:52:49Z</time>
      </trkpt>
      <trkpt lat="43.20155" lon="5.5792">
        <ele>215</ele>
        <time>2019-11-20T09:52:55Z</time>
      </trkpt>
      <trkpt lat="43.20152" lon="5.57928">
        <ele>216</ele>
        <time>2019-11-20T09:53:01Z</time>
      </trkpt>
      <trkpt lat="43.2015" lon="5.57935">
        <ele>217</ele>
        <time>2019-11-20T09:53:07Z</time>
      </trkpt>
      <trkpt lat="43.20148" lon="5.57943">
        <ele>217</ele>
        <time>2019-11-20T09:53:13Z</time>
      </trkpt>
      <trkpt lat="43.20147" lon="5.57952">
        <ele>216</ele>
        <time>2019-11-20T09:53:19Z</time>
      </trkpt>
      <trkpt lat="43.20148" lon="5.57958">
        <ele>216</ele>
        <time>2019-11-20T09:53:23Z</time>
      </trkpt>
      <trkpt lat="43.20151" lon="5.57964">
        <ele>215</ele>
        <time>2019-11-20T09:53:29Z</time>
      </trkpt>
      <trkpt lat="43.20157" lon="5.57968">
        <ele>213</ele>
        <time>2019-11-20T09:53:37Z</time>
      </trkpt>
      <trkpt lat="43.20162" lon="5.57973">
        <ele>214</ele>
        <time>2019-11-20T09:53:43Z</time>
      </trkpt>
      <trkpt lat="43.20166" lon="5.57976">
        <ele>216</ele>
        <time>2019-11-20T09:53:47Z</time>
      </trkpt>
      <trkpt lat="43.20171" lon="5.57982">
        <ele>216</ele>
        <time>2019-11-20T09:53:53Z</time>
      </trkpt>
      <trkpt lat="43.20176" lon="5.57989">
        <ele>218</ele>
        <time>2019-11-20T09:53:59Z</time>
      </trkpt>
      <trkpt lat="43.20177" lon="5.57995">
        <ele>217</ele>
        <time>2019-11-20T09:54:05Z</time>
      </trkpt>
      <trkpt lat="43.20177" lon="5.58002">
        <ele>217</ele>
        <time>2019-11-20T09:54:11Z</time>
      </trkpt>
      <trkpt lat="43.20178" lon="5.58009">
        <ele>216</ele>
        <time>2019-11-20T09:54:17Z</time>
      </trkpt>
      <trkpt lat="43.20177" lon="5.58017">
        <ele>217</ele>
        <time>2019-11-20T09:54:23Z</time>
      </trkpt>
      <trkpt lat="43.20178" lon="5.58026">
        <ele>217</ele>
        <time>2019-11-20T09:54:29Z</time>
      </trkpt>
      <trkpt lat="43.20179" lon="5.58034">
        <ele>217</ele>
        <time>2019-11-20T09:54:35Z</time>
      </trkpt>
      <trkpt lat="43.20179" lon="5.58043">
        <ele>218</ele>
        <time>2019-11-20T09:54:41Z</time>
      </trkpt>
      <trkpt lat="43.2018" lon="5.58051">
        <ele>217</ele>
        <time>2019-11-20T09:54:47Z</time>
      </trkpt>
      <trkpt lat="43.20181" lon="5.5806">
        <ele>217</ele>
        <time>2019-11-20T09:54:53Z</time>
      </trkpt>
      <trkpt lat="43.20181" lon="5.58068">
        <ele>216</ele>
        <time>2019-11-20T09:54:59Z</time>
      </trkpt>
      <trkpt lat="43.20182" lon="5.58076">
        <ele>216</ele>
        <time>2019-11-20T09:55:05Z</time>
      </trkpt>
      <trkpt lat="43.20183" lon="5.58085">
        <ele>217</ele>
        <time>2019-11-20T09:55:11Z</time>
      </trkpt>
      <trkpt lat="43.20183" lon="5.58091">
        <ele>218</ele>
        <time>2019-11-20T09:55:15Z</time>
      </trkpt>
      <trkpt lat="43.20184" lon="5.581">
        <ele>219</ele>
        <time>2019-11-20T09:55:21Z</time>
      </trkpt>
      <trkpt lat="43.20184" lon="5.58107">
        <ele>219</ele>
        <time>2019-11-20T09:55:27Z</time>
      </trkpt>
      <trkpt lat="43.20186" lon="5.58114">
        <ele>220</ele>
        <time>2019-11-20T09:55:33Z</time>
      </trkpt>
      <trkpt lat="43.20189" lon="5.58119">
        <ele>220</ele>
        <time>2019-11-20T09:55:47Z</time>
      </trkpt>
      <trkpt lat="43.20188" lon="5.58113">
        <ele>219</ele>
        <time>2019-11-20T09:58:03Z</time>
      </trkpt>
      <trkpt lat="43.2019" lon="5.58119">
        <ele>219</ele>
        <time>2019-11-20T10:03:11Z</time>
      </trkpt>
      <trkpt lat="43.20193" lon="5.58124">
        <ele>219</ele>
        <time>2019-11-20T10:03:25Z</time>
      </trkpt>
      <trkpt lat="43.20197" lon="5.58127">
        <ele>216</ele>
        <time>2019-11-20T10:03:33Z</time>
      </trkpt>
      <trkpt lat="43.20199" lon="5.58134">
        <ele>216</ele>
        <time>2019-11-20T10:03:41Z</time>
      </trkpt>
      <trkpt lat="43.20201" lon="5.58141">
        <ele>216</ele>
        <time>2019-11-20T10:03:49Z</time>
      </trkpt>
      <trkpt lat="43.20204" lon="5.58146">
        <ele>215</ele>
        <time>2019-11-20T10:03:55Z</time>
      </trkpt>
      <trkpt lat="43.20207" lon="5.58153">
        <ele>213</ele>
        <time>2019-11-20T10:04:03Z</time>
      </trkpt>
      <trkpt lat="43.2021" lon="5.58159">
        <ele>213</ele>
        <time>2019-11-20T10:04:09Z</time>
      </trkpt>
      <trkpt lat="43.20214" lon="5.58165">
        <ele>214</ele>
        <time>2019-11-20T10:04:15Z</time>
      </trkpt>
      <trkpt lat="43.20217" lon="5.58171">
        <ele>213</ele>
        <time>2019-11-20T10:04:21Z</time>
      </trkpt>
      <trkpt lat="43.20222" lon="5.58175">
        <ele>213</ele>
        <time>2019-11-20T10:04:27Z</time>
      </trkpt>
      <trkpt lat="43.20227" lon="5.58176">
        <ele>212</ele>
        <time>2019-11-20T10:04:33Z</time>
      </trkpt>
      <trkpt lat="43.20233" lon="5.58176">
        <ele>213</ele>
        <time>2019-11-20T10:04:39Z</time>
      </trkpt>
      <trkpt lat="43.20237" lon="5.58173">
        <ele>213</ele>
        <time>2019-11-20T10:04:43Z</time>
      </trkpt>
      <trkpt lat="43.20243" lon="5.58168">
        <ele>215</ele>
        <time>2019-11-20T10:04:49Z</time>
      </trkpt>
      <trkpt lat="43.20247" lon="5.58166">
        <ele>215</ele>
        <time>2019-11-20T10:04:53Z</time>
      </trkpt>
      <trkpt lat="43.20251" lon="5.58171">
        <ele>214</ele>
        <time>2019-11-20T10:04:59Z</time>
      </trkpt>
      <trkpt lat="43.2025" lon="5.58179">
        <ele>214</ele>
        <time>2019-11-20T10:05:05Z</time>
      </trkpt>
      <trkpt lat="43.20247" lon="5.58185">
        <ele>213</ele>
        <time>2019-11-20T10:05:11Z</time>
      </trkpt>
      <trkpt lat="43.20243" lon="5.58189">
        <ele>213</ele>
        <time>2019-11-20T10:05:17Z</time>
      </trkpt>
      <trkpt lat="43.2024" lon="5.58193">
        <ele>214</ele>
        <time>2019-11-20T10:05:23Z</time>
      </trkpt>
      <trkpt lat="43.20235" lon="5.58199">
        <ele>214</ele>
        <time>2019-11-20T10:05:31Z</time>
      </trkpt>
      <trkpt lat="43.20232" lon="5.58204">
        <ele>215</ele>
        <time>2019-11-20T10:05:45Z</time>
      </trkpt>
      <trkpt lat="43.20228" lon="5.58209">
        <ele>214</ele>
        <time>2019-11-20T10:05:51Z</time>
      </trkpt>
      <trkpt lat="43.20224" lon="5.58214">
        <ele>214</ele>
        <time>2019-11-20T10:05:57Z</time>
      </trkpt>
      <trkpt lat="43.20221" lon="5.58219">
        <ele>214</ele>
        <time>2019-11-20T10:06:03Z</time>
      </trkpt>
      <trkpt lat="43.20218" lon="5.58224">
        <ele>213</ele>
        <time>2019-11-20T10:06:07Z</time>
      </trkpt>
      <trkpt lat="43.20215" lon="5.5823">
        <ele>212</ele>
        <time>2019-11-20T10:06:11Z</time>
      </trkpt>
      <trkpt lat="43.20212" lon="5.58236">
        <ele>209</ele>
        <time>2019-11-20T10:06:17Z</time>
      </trkpt>
      <trkpt lat="43.20209" lon="5.58242">
        <ele>207</ele>
        <time>2019-11-20T10:06:23Z</time>
      </trkpt>
      <trkpt lat="43.20205" lon="5.5825">
        <ele>207</ele>
        <time>2019-11-20T10:06:29Z</time>
      </trkpt>
      <trkpt lat="43.20202" lon="5.58256">
        <ele>208</ele>
        <time>2019-11-20T10:06:33Z</time>
      </trkpt>
      <trkpt lat="43.20198" lon="5.58263">
        <ele>208</ele>
        <time>2019-11-20T10:06:39Z</time>
      </trkpt>
      <trkpt lat="43.20195" lon="5.58269">
        <ele>207</ele>
        <time>2019-11-20T10:06:45Z</time>
      </trkpt>
      <trkpt lat="43.20191" lon="5.58274">
        <ele>206</ele>
        <time>2019-11-20T10:06:51Z</time>
      </trkpt>
      <trkpt lat="43.20187" lon="5.58278">
        <ele>207</ele>
        <time>2019-11-20T10:06:57Z</time>
      </trkpt>
      <trkpt lat="43.20182" lon="5.58282">
        <ele>205</ele>
        <time>2019-11-20T10:07:03Z</time>
      </trkpt>
      <trkpt lat="43.20177" lon="5.58286">
        <ele>204</ele>
        <time>2019-11-20T10:07:09Z</time>
      </trkpt>
      <trkpt lat="43.20172" lon="5.58287">
        <ele>204</ele>
        <time>2019-11-20T10:07:15Z</time>
      </trkpt>
      <trkpt lat="43.20166" lon="5.58289">
        <ele>202</ele>
        <time>2019-11-20T10:07:21Z</time>
      </trkpt>
      <trkpt lat="43.2016" lon="5.58289">
        <ele>202</ele>
        <time>2019-11-20T10:07:27Z</time>
      </trkpt>
      <trkpt lat="43.20156" lon="5.5829">
        <ele>201</ele>
        <time>2019-11-20T10:07:31Z</time>
      </trkpt>
      <trkpt lat="43.2015" lon="5.5829">
        <ele>202</ele>
        <time>2019-11-20T10:07:37Z</time>
      </trkpt>
      <trkpt lat="43.20145" lon="5.58292">
        <ele>202</ele>
        <time>2019-11-20T10:07:43Z</time>
      </trkpt>
      <trkpt lat="43.2014" lon="5.58294">
        <ele>201</ele>
        <time>2019-11-20T10:07:51Z</time>
      </trkpt>
      <trkpt lat="43.20134" lon="5.58297">
        <ele>199</ele>
        <time>2019-11-20T10:07:57Z</time>
      </trkpt>
      <trkpt lat="43.20131" lon="5.58301">
        <ele>198</ele>
        <time>2019-11-20T10:08:01Z</time>
      </trkpt>
      <trkpt lat="43.20126" lon="5.58306">
        <ele>199</ele>
        <time>2019-11-20T10:08:07Z</time>
      </trkpt>
      <trkpt lat="43.20123" lon="5.58309">
        <ele>198</ele>
        <time>2019-11-20T10:08:11Z</time>
      </trkpt>
      <trkpt lat="43.20119" lon="5.58312">
        <ele>199</ele>
        <time>2019-11-20T10:08:15Z</time>
      </trkpt>
      <trkpt lat="43.20114" lon="5.58317">
        <ele>197</ele>
        <time>2019-11-20T10:08:19Z</time>
      </trkpt>
      <trkpt lat="43.20111" lon="5.58322">
        <ele>197</ele>
        <time>2019-11-20T10:08:23Z</time>
      </trkpt>
      <trkpt lat="43.20108" lon="5.58328">
        <ele>197</ele>
        <time>2019-11-20T10:08:29Z</time>
      </trkpt>
      <trkpt lat="43.20104" lon="5.58333">
        <ele>196</ele>
        <time>2019-11-20T10:08:35Z</time>
      </trkpt>
      <trkpt lat="43.20102" lon="5.58338">
        <ele>195</ele>
        <time>2019-11-20T10:08:39Z</time>
      </trkpt>
      <trkpt lat="43.20099" lon="5.58344">
        <ele>194</ele>
        <time>2019-11-20T10:08:43Z</time>
      </trkpt>
      <trkpt lat="43.20095" lon="5.58349">
        <ele>192</ele>
        <time>2019-11-20T10:08:49Z</time>
      </trkpt>
      <trkpt lat="43.20092" lon="5.58356">
        <ele>192</ele>
        <time>2019-11-20T10:08:57Z</time>
      </trkpt>
      <trkpt lat="43.20089" lon="5.58361">
        <ele>192</ele>
        <time>2019-11-20T10:09:01Z</time>
      </trkpt>
      <trkpt lat="43.20085" lon="5.58367">
        <ele>190</ele>
        <time>2019-11-20T10:09:07Z</time>
      </trkpt>
      <trkpt lat="43.20082" lon="5.58372">
        <ele>191</ele>
        <time>2019-11-20T10:09:11Z</time>
      </trkpt>
      <trkpt lat="43.20079" lon="5.58379">
        <ele>190</ele>
        <time>2019-11-20T10:09:17Z</time>
      </trkpt>
      <trkpt lat="43.20075" lon="5.58384">
        <ele>190</ele>
        <time>2019-11-20T10:09:23Z</time>
      </trkpt>
      <trkpt lat="43.20074" lon="5.58391">
        <ele>187</ele>
        <time>2019-11-20T10:09:29Z</time>
      </trkpt>
      <trkpt lat="43.20073" lon="5.58398">
        <ele>185</ele>
        <time>2019-11-20T10:09:35Z</time>
      </trkpt>
      <trkpt lat="43.20071" lon="5.58406">
        <ele>184</ele>
        <time>2019-11-20T10:09:41Z</time>
      </trkpt>
      <trkpt lat="43.20071" lon="5.58413">
        <ele>180</ele>
        <time>2019-11-20T10:09:47Z</time>
      </trkpt>
      <trkpt lat="43.20073" lon="5.5842">
        <ele>177</ele>
        <time>2019-11-20T10:09:53Z</time>
      </trkpt>
      <trkpt lat="43.20077" lon="5.58424">
        <ele>177</ele>
        <time>2019-11-20T10:09:59Z</time>
      </trkpt>
      <trkpt lat="43.20081" lon="5.5842">
        <ele>177</ele>
        <time>2019-11-20T10:10:05Z</time>
      </trkpt>
      <trkpt lat="43.20086" lon="5.58414">
        <ele>179</ele>
        <time>2019-11-20T10:10:11Z</time>
      </trkpt>
      <trkpt lat="43.2009" lon="5.58409">
        <ele>180</ele>
        <time>2019-11-20T10:10:17Z</time>
      </trkpt>
      <trkpt lat="43.20095" lon="5.58403">
        <ele>182</ele>
        <time>2019-11-20T10:10:23Z</time>
      </trkpt>
      <trkpt lat="43.20098" lon="5.58398">
        <ele>183</ele>
        <time>2019-11-20T10:10:27Z</time>
      </trkpt>
      <trkpt lat="43.20101" lon="5.58394">
        <ele>184</ele>
        <time>2019-11-20T10:10:31Z</time>
      </trkpt>
      <trkpt lat="43.20105" lon="5.58386">
        <ele>185</ele>
        <time>2019-11-20T10:10:37Z</time>
      </trkpt>
      <trkpt lat="43.2011" lon="5.58383">
        <ele>183</ele>
        <time>2019-11-20T10:10:43Z</time>
      </trkpt>
      <trkpt lat="43.20114" lon="5.58377">
        <ele>183</ele>
        <time>2019-11-20T10:10:49Z</time>
      </trkpt>
      <trkpt lat="43.20119" lon="5.58374">
        <ele>183</ele>
        <time>2019-11-20T10:10:55Z</time>
      </trkpt>
      <trkpt lat="43.20124" lon="5.5837">
        <ele>183</ele>
        <time>2019-11-20T10:11:01Z</time>
      </trkpt>
      <trkpt lat="43.20129" lon="5.58369">
        <ele>184</ele>
        <time>2019-11-20T10:11:05Z</time>
      </trkpt>
      <trkpt lat="43.20134" lon="5.58371">
        <ele>182</ele>
        <time>2019-11-20T10:11:11Z</time>
      </trkpt>
      <trkpt lat="43.20138" lon="5.58377">
        <ele>180</ele>
        <time>2019-11-20T10:11:17Z</time>
      </trkpt>
      <trkpt lat="43.20142" lon="5.58381">
        <ele>178</ele>
        <time>2019-11-20T10:11:23Z</time>
      </trkpt>
      <trkpt lat="43.20145" lon="5.58388">
        <ele>176</ele>
        <time>2019-11-20T10:11:33Z</time>
      </trkpt>
      <trkpt lat="43.20149" lon="5.58396">
        <ele>176</ele>
        <time>2019-11-20T10:11:39Z</time>
      </trkpt>
      <trkpt lat="43.20152" lon="5.58402">
        <ele>176</ele>
        <time>2019-11-20T10:11:43Z</time>
      </trkpt>
      <trkpt lat="43.20155" lon="5.58408">
        <ele>174</ele>
        <time>2019-11-20T10:11:49Z</time>
      </trkpt>
      <trkpt lat="43.20159" lon="5.58413">
        <ele>173</ele>
        <time>2019-11-20T10:11:55Z</time>
      </trkpt>
      <trkpt lat="43.20161" lon="5.58419">
        <ele>171</ele>
        <time>2019-11-20T10:12:01Z</time>
      </trkpt>
      <trkpt lat="43.20164" lon="5.58424">
        <ele>166</ele>
        <time>2019-11-20T10:12:07Z</time>
      </trkpt>
      <trkpt lat="43.20168" lon="5.58429">
        <ele>167</ele>
        <time>2019-11-20T10:12:13Z</time>
      </trkpt>
      <trkpt lat="43.20173" lon="5.58435">
        <ele>167</ele>
        <time>2019-11-20T10:12:19Z</time>
      </trkpt>
      <trkpt lat="43.20178" lon="5.58436">
        <ele>169</ele>
        <time>2019-11-20T10:12:23Z</time>
      </trkpt>
      <trkpt lat="43.20183" lon="5.58437">
        <ele>170</ele>
        <time>2019-11-20T10:12:27Z</time>
      </trkpt>
      <trkpt lat="43.20189" lon="5.58437">
        <ele>171</ele>
        <time>2019-11-20T10:12:31Z</time>
      </trkpt>
      <trkpt lat="43.20194" lon="5.58437">
        <ele>171</ele>
        <time>2019-11-20T10:12:37Z</time>
      </trkpt>
      <trkpt lat="43.202" lon="5.58436">
        <ele>173</ele>
        <time>2019-11-20T10:12:41Z</time>
      </trkpt>
      <trkpt lat="43.20204" lon="5.58434">
        <ele>173</ele>
        <time>2019-11-20T10:12:45Z</time>
      </trkpt>
      <trkpt lat="43.20209" lon="5.58432">
        <ele>172</ele>
        <time>2019-11-20T10:12:51Z</time>
      </trkpt>
      <trkpt lat="43.20216" lon="5.5843">
        <ele>173</ele>
        <time>2019-11-20T10:12:59Z</time>
      </trkpt>
      <trkpt lat="43.20222" lon="5.58429">
        <ele>173</ele>
        <time>2019-11-20T10:13:05Z</time>
      </trkpt>
      <trkpt lat="43.20228" lon="5.58428">
        <ele>173</ele>
        <time>2019-11-20T10:13:11Z</time>
      </trkpt>
      <trkpt lat="43.20233" lon="5.58427">
        <ele>173</ele>
        <time>2019-11-20T10:13:17Z</time>
      </trkpt>
      <trkpt lat="43.20238" lon="5.58424">
        <ele>172</ele>
        <time>2019-11-20T10:13:25Z</time>
      </trkpt>
      <trkpt lat="43.20243" lon="5.58419">
        <ele>173</ele>
        <time>2019-11-20T10:13:31Z</time>
      </trkpt>
      <trkpt lat="43.20248" lon="5.58414">
        <ele>171</ele>
        <time>2019-11-20T10:13:37Z</time>
      </trkpt>
      <trkpt lat="43.20251" lon="5.58409">
        <ele>171</ele>
        <time>2019-11-20T10:13:41Z</time>
      </trkpt>
      <trkpt lat="43.20255" lon="5.58403">
        <ele>172</ele>
        <time>2019-11-20T10:13:45Z</time>
      </trkpt>
      <trkpt lat="43.20257" lon="5.58396">
        <ele>174</ele>
        <time>2019-11-20T10:13:49Z</time>
      </trkpt>
      <trkpt lat="43.2026" lon="5.58389">
        <ele>172</ele>
        <time>2019-11-20T10:13:55Z</time>
      </trkpt>
      <trkpt lat="43.20265" lon="5.5839">
        <ele>167</ele>
        <time>2019-11-20T10:14:07Z</time>
      </trkpt>
      <trkpt lat="43.20269" lon="5.58395">
        <ele>162</ele>
        <time>2019-11-20T10:14:15Z</time>
      </trkpt>
      <trkpt lat="43.20271" lon="5.58403">
        <ele>160</ele>
        <time>2019-11-20T10:14:21Z</time>
      </trkpt>
      <trkpt lat="43.20273" lon="5.58409">
        <ele>161</ele>
        <time>2019-11-20T10:14:25Z</time>
      </trkpt>
      <trkpt lat="43.20278" lon="5.58414">
        <ele>163</ele>
        <time>2019-11-20T10:14:31Z</time>
      </trkpt>
      <trkpt lat="43.20283" lon="5.58415">
        <ele>164</ele>
        <time>2019-11-20T10:14:35Z</time>
      </trkpt>
      <trkpt lat="43.2029" lon="5.58416">
        <ele>166</ele>
        <time>2019-11-20T10:14:39Z</time>
      </trkpt>
      <trkpt lat="43.20295" lon="5.58414">
        <ele>164</ele>
        <time>2019-11-20T10:14:47Z</time>
      </trkpt>
      <trkpt lat="43.20299" lon="5.5841">
        <ele>164</ele>
        <time>2019-11-20T10:14:53Z</time>
      </trkpt>
      <trkpt lat="43.20304" lon="5.58406">
        <ele>165</ele>
        <time>2019-11-20T10:14:59Z</time>
      </trkpt>
      <trkpt lat="43.20307" lon="5.58401">
        <ele>167</ele>
        <time>2019-11-20T10:15:03Z</time>
      </trkpt>
      <trkpt lat="43.20311" lon="5.58394">
        <ele>168</ele>
        <time>2019-11-20T10:15:09Z</time>
      </trkpt>
      <trkpt lat="43.20314" lon="5.58389">
        <ele>169</ele>
        <time>2019-11-20T10:15:13Z</time>
      </trkpt>
      <trkpt lat="43.20317" lon="5.58382">
        <ele>172</ele>
        <time>2019-11-20T10:15:17Z</time>
      </trkpt>
      <trkpt lat="43.20318" lon="5.58375">
        <ele>175</ele>
        <time>2019-11-20T10:15:21Z</time>
      </trkpt>
      <trkpt lat="43.20321" lon="5.58367">
        <ele>177</ele>
        <time>2019-11-20T10:15:27Z</time>
      </trkpt>
      <trkpt lat="43.20324" lon="5.58361">
        <ele>179</ele>
        <time>2019-11-20T10:15:33Z</time>
      </trkpt>
      <trkpt lat="43.20327" lon="5.58353">
        <ele>178</ele>
        <time>2019-11-20T10:15:39Z</time>
      </trkpt>
      <trkpt lat="43.2033" lon="5.58346">
        <ele>178</ele>
        <time>2019-11-20T10:15:45Z</time>
      </trkpt>
      <trkpt lat="43.20333" lon="5.5834">
        <ele>178</ele>
        <time>2019-11-20T10:15:51Z</time>
      </trkpt>
      <trkpt lat="43.20336" lon="5.58332">
        <ele>178</ele>
        <time>2019-11-20T10:15:57Z</time>
      </trkpt>
      <trkpt lat="43.20338" lon="5.58325">
        <ele>178</ele>
        <time>2019-11-20T10:16:03Z</time>
      </trkpt>
      <trkpt lat="43.2034" lon="5.58318">
        <ele>181</ele>
        <time>2019-11-20T10:16:09Z</time>
      </trkpt>
      <trkpt lat="43.20341" lon="5.5831">
        <ele>181</ele>
        <time>2019-11-20T10:16:15Z</time>
      </trkpt>
      <trkpt lat="43.20341" lon="5.58303">
        <ele>181</ele>
        <time>2019-11-20T10:16:21Z</time>
      </trkpt>
      <trkpt lat="43.20341" lon="5.58297">
        <ele>179</ele>
        <time>2019-11-20T10:16:27Z</time>
      </trkpt>
      <trkpt lat="43.2034" lon="5.5829">
        <ele>179</ele>
        <time>2019-11-20T10:16:33Z</time>
      </trkpt>
      <trkpt lat="43.20343" lon="5.58284">
        <ele>180</ele>
        <time>2019-11-20T10:16:39Z</time>
      </trkpt>
      <trkpt lat="43.20349" lon="5.58286">
        <ele>177</ele>
        <time>2019-11-20T10:16:45Z</time>
      </trkpt>
      <trkpt lat="43.20352" lon="5.58294">
        <ele>176</ele>
        <time>2019-11-20T10:16:51Z</time>
      </trkpt>
      <trkpt lat="43.20353" lon="5.583">
        <ele>178</ele>
        <time>2019-11-20T10:16:55Z</time>
      </trkpt>
      <trkpt lat="43.20353" lon="5.58306">
        <ele>178</ele>
        <time>2019-11-20T10:16:59Z</time>
      </trkpt>
      <trkpt lat="43.20354" lon="5.58314">
        <ele>178</ele>
        <time>2019-11-20T10:17:05Z</time>
      </trkpt>
      <trkpt lat="43.20354" lon="5.58321">
        <ele>177</ele>
        <time>2019-11-20T10:17:11Z</time>
      </trkpt>
      <trkpt lat="43.20354" lon="5.5833">
        <ele>176</ele>
        <time>2019-11-20T10:17:17Z</time>
      </trkpt>
      <trkpt lat="43.20354" lon="5.58339">
        <ele>178</ele>
        <time>2019-11-20T10:17:23Z</time>
      </trkpt>
      <trkpt lat="43.20354" lon="5.58345">
        <ele>176</ele>
        <time>2019-11-20T10:17:29Z</time>
      </trkpt>
      <trkpt lat="43.20353" lon="5.58354">
        <ele>176</ele>
        <time>2019-11-20T10:17:35Z</time>
      </trkpt>
      <trkpt lat="43.20354" lon="5.58361">
        <ele>175</ele>
        <time>2019-11-20T10:17:41Z</time>
      </trkpt>
      <trkpt lat="43.20353" lon="5.58369">
        <ele>175</ele>
        <time>2019-11-20T10:17:47Z</time>
      </trkpt>
      <trkpt lat="43.20353" lon="5.58378">
        <ele>175</ele>
        <time>2019-11-20T10:17:53Z</time>
      </trkpt>
      <trkpt lat="43.20358" lon="5.58385">
        <ele>176</ele>
        <time>2019-11-20T10:17:59Z</time>
      </trkpt>
      <trkpt lat="43.20363" lon="5.58389">
        <ele>175</ele>
        <time>2019-11-20T10:18:05Z</time>
      </trkpt>
      <trkpt lat="43.20368" lon="5.58392">
        <ele>175</ele>
        <time>2019-11-20T10:18:11Z</time>
      </trkpt>
      <trkpt lat="43.20374" lon="5.58392">
        <ele>175</ele>
        <time>2019-11-20T10:18:17Z</time>
      </trkpt>
      <trkpt lat="43.2038" lon="5.58391">
        <ele>177</ele>
        <time>2019-11-20T10:18:23Z</time>
      </trkpt>
      <trkpt lat="43.20386" lon="5.58389">
        <ele>178</ele>
        <time>2019-11-20T10:18:29Z</time>
      </trkpt>
      <trkpt lat="43.20391" lon="5.58384">
        <ele>180</ele>
        <time>2019-11-20T10:18:35Z</time>
      </trkpt>
      <trkpt lat="43.20395" lon="5.58379">
        <ele>180</ele>
        <time>2019-11-20T10:18:41Z</time>
      </trkpt>
      <trkpt lat="43.20398" lon="5.58373">
        <ele>180</ele>
        <time>2019-11-20T10:18:49Z</time>
      </trkpt>
      <trkpt lat="43.20401" lon="5.58367">
        <ele>181</ele>
        <time>2019-11-20T10:18:55Z</time>
      </trkpt>
      <trkpt lat="43.20404" lon="5.58361">
        <ele>183</ele>
        <time>2019-11-20T10:19:01Z</time>
      </trkpt>
      <trkpt lat="43.20408" lon="5.58355">
        <ele>185</ele>
        <time>2019-11-20T10:19:07Z</time>
      </trkpt>
      <trkpt lat="43.2041" lon="5.5835">
        <ele>184</ele>
        <time>2019-11-20T10:19:13Z</time>
      </trkpt>
      <trkpt lat="43.20413" lon="5.58343">
        <ele>184</ele>
        <time>2019-11-20T10:19:21Z</time>
      </trkpt>
      <trkpt lat="43.20416" lon="5.58337">
        <ele>185</ele>
        <time>2019-11-20T10:19:27Z</time>
      </trkpt>
      <trkpt lat="43.20419" lon="5.58331">
        <ele>186</ele>
        <time>2019-11-20T10:19:33Z</time>
      </trkpt>
      <trkpt lat="43.20422" lon="5.58325">
        <ele>186</ele>
        <time>2019-11-20T10:19:39Z</time>
      </trkpt>
      <trkpt lat="43.20425" lon="5.58319">
        <ele>186</ele>
        <time>2019-11-20T10:19:45Z</time>
      </trkpt>
      <trkpt lat="43.20431" lon="5.58317">
        <ele>186</ele>
        <time>2019-11-20T10:19:51Z</time>
      </trkpt>
      <trkpt lat="43.20436" lon="5.58322">
        <ele>188</ele>
        <time>2019-11-20T10:19:57Z</time>
      </trkpt>
      <trkpt lat="43.20438" lon="5.5833">
        <ele>190</ele>
        <time>2019-11-20T10:20:03Z</time>
      </trkpt>
      <trkpt lat="43.20437" lon="5.58339">
        <ele>192</ele>
        <time>2019-11-20T10:20:09Z</time>
      </trkpt>
      <trkpt lat="43.20436" lon="5.58348">
        <ele>192</ele>
        <time>2019-11-20T10:20:15Z</time>
      </trkpt>
      <trkpt lat="43.20435" lon="5.58356">
        <ele>191</ele>
        <time>2019-11-20T10:20:21Z</time>
      </trkpt>
      <trkpt lat="43.20433" lon="5.58364">
        <ele>190</ele>
        <time>2019-11-20T10:20:27Z</time>
      </trkpt>
      <trkpt lat="43.20432" lon="5.58372">
        <ele>193</ele>
        <time>2019-11-20T10:20:33Z</time>
      </trkpt>
      <trkpt lat="43.20432" lon="5.58379">
        <ele>195</ele>
        <time>2019-11-20T10:20:39Z</time>
      </trkpt>
      <trkpt lat="43.20432" lon="5.58388">
        <ele>193</ele>
        <time>2019-11-20T10:20:45Z</time>
      </trkpt>
      <trkpt lat="43.20431" lon="5.58396">
        <ele>193</ele>
        <time>2019-11-20T10:20:51Z</time>
      </trkpt>
      <trkpt lat="43.20431" lon="5.58404">
        <ele>194</ele>
        <time>2019-11-20T10:20:57Z</time>
      </trkpt>
      <trkpt lat="43.2043" lon="5.58413">
        <ele>191</ele>
        <time>2019-11-20T10:21:03Z</time>
      </trkpt>
      <trkpt lat="43.20428" lon="5.58422">
        <ele>191</ele>
        <time>2019-11-20T10:21:11Z</time>
      </trkpt>
      <trkpt lat="43.20426" lon="5.58429">
        <ele>192</ele>
        <time>2019-11-20T10:21:15Z</time>
      </trkpt>
      <trkpt lat="43.20425" lon="5.58435">
        <ele>193</ele>
        <time>2019-11-20T10:21:19Z</time>
      </trkpt>
      <trkpt lat="43.20422" lon="5.58443">
        <ele>193</ele>
        <time>2019-11-20T10:21:25Z</time>
      </trkpt>
      <trkpt lat="43.2042" lon="5.58451">
        <ele>193</ele>
        <time>2019-11-20T10:21:31Z</time>
      </trkpt>
      <trkpt lat="43.20418" lon="5.58459">
        <ele>194</ele>
        <time>2019-11-20T10:21:37Z</time>
      </trkpt>
      <trkpt lat="43.20415" lon="5.58466">
        <ele>195</ele>
        <time>2019-11-20T10:21:43Z</time>
      </trkpt>
      <trkpt lat="43.20413" lon="5.58474">
        <ele>195</ele>
        <time>2019-11-20T10:21:49Z</time>
      </trkpt>
      <trkpt lat="43.20411" lon="5.58479">
        <ele>195</ele>
        <time>2019-11-20T10:21:53Z</time>
      </trkpt>
      <trkpt lat="43.20409" lon="5.58488">
        <ele>196</ele>
        <time>2019-11-20T10:21:59Z</time>
      </trkpt>
      <trkpt lat="43.20406" lon="5.58496">
        <ele>196</ele>
        <time>2019-11-20T10:22:05Z</time>
      </trkpt>
      <trkpt lat="43.20403" lon="5.58504">
        <ele>195</ele>
        <time>2019-11-20T10:22:11Z</time>
      </trkpt>
      <trkpt lat="43.20401" lon="5.5851">
        <ele>193</ele>
        <time>2019-11-20T10:22:17Z</time>
      </trkpt>
      <trkpt lat="43.204" lon="5.58518">
        <ele>193</ele>
        <time>2019-11-20T10:22:23Z</time>
      </trkpt>
      <trkpt lat="43.20399" lon="5.58524">
        <ele>191</ele>
        <time>2019-11-20T10:24:43Z</time>
      </trkpt>
      <trkpt lat="43.204" lon="5.58532">
        <ele>188</ele>
        <time>2019-11-20T10:24:51Z</time>
      </trkpt>
      <trkpt lat="43.20402" lon="5.5854">
        <ele>188</ele>
        <time>2019-11-20T10:24:57Z</time>
      </trkpt>
      <trkpt lat="43.20406" lon="5.58546">
        <ele>188</ele>
        <time>2019-11-20T10:25:03Z</time>
      </trkpt>
      <trkpt lat="43.2041" lon="5.58551">
        <ele>189</ele>
        <time>2019-11-20T10:25:09Z</time>
      </trkpt>
      <trkpt lat="43.20414" lon="5.58555">
        <ele>189</ele>
        <time>2019-11-20T10:25:15Z</time>
      </trkpt>
      <trkpt lat="43.20417" lon="5.58561">
        <ele>188</ele>
        <time>2019-11-20T10:25:21Z</time>
      </trkpt>
      <trkpt lat="43.20421" lon="5.58566">
        <ele>187</ele>
        <time>2019-11-20T10:25:27Z</time>
      </trkpt>
      <trkpt lat="43.20426" lon="5.5857">
        <ele>187</ele>
        <time>2019-11-20T10:25:33Z</time>
      </trkpt>
      <trkpt lat="43.20431" lon="5.58575">
        <ele>186</ele>
        <time>2019-11-20T10:25:41Z</time>
      </trkpt>
      <trkpt lat="43.20436" lon="5.58579">
        <ele>186</ele>
        <time>2019-11-20T10:25:47Z</time>
      </trkpt>
      <trkpt lat="43.20441" lon="5.58582">
        <ele>184</ele>
        <time>2019-11-20T10:25:53Z</time>
      </trkpt>
      <trkpt lat="43.20446" lon="5.58587">
        <ele>184</ele>
        <time>2019-11-20T10:25:59Z</time>
      </trkpt>
      <trkpt lat="43.2045" lon="5.58591">
        <ele>183</ele>
        <time>2019-11-20T10:26:05Z</time>
      </trkpt>
      <trkpt lat="43.20455" lon="5.58592">
        <ele>181</ele>
        <time>2019-11-20T10:26:11Z</time>
      </trkpt>
      <trkpt lat="43.2046" lon="5.58595">
        <ele>181</ele>
        <time>2019-11-20T10:26:17Z</time>
      </trkpt>
      <trkpt lat="43.20465" lon="5.58596">
        <ele>182</ele>
        <time>2019-11-20T10:26:23Z</time>
      </trkpt>
      <trkpt lat="43.20471" lon="5.58597">
        <ele>181</ele>
        <time>2019-11-20T10:26:31Z</time>
      </trkpt>
      <trkpt lat="43.20476" lon="5.58598">
        <ele>181</ele>
        <time>2019-11-20T10:26:37Z</time>
      </trkpt>
      <trkpt lat="43.20481" lon="5.586">
        <ele>180</ele>
        <time>2019-11-20T10:26:43Z</time>
      </trkpt>
      <trkpt lat="43.20487" lon="5.58601">
        <ele>180</ele>
        <time>2019-11-20T10:26:49Z</time>
      </trkpt>
      <trkpt lat="43.20492" lon="5.58602">
        <ele>179</ele>
        <time>2019-11-20T10:26:55Z</time>
      </trkpt>
      <trkpt lat="43.20499" lon="5.58601">
        <ele>178</ele>
        <time>2019-11-20T10:27:01Z</time>
      </trkpt>
      <trkpt lat="43.20505" lon="5.586">
        <ele>177</ele>
        <time>2019-11-20T10:27:07Z</time>
      </trkpt>
      <trkpt lat="43.2051" lon="5.58599">
        <ele>178</ele>
        <time>2019-11-20T10:27:13Z</time>
      </trkpt>
      <trkpt lat="43.20516" lon="5.58595">
        <ele>176</ele>
        <time>2019-11-20T10:27:19Z</time>
      </trkpt>
      <trkpt lat="43.2052" lon="5.5859">
        <ele>178</ele>
        <time>2019-11-20T10:27:25Z</time>
      </trkpt>
      <trkpt lat="43.20524" lon="5.58586">
        <ele>179</ele>
        <time>2019-11-20T10:27:29Z</time>
      </trkpt>
      <trkpt lat="43.20528" lon="5.58582">
        <ele>180</ele>
        <time>2019-11-20T10:27:33Z</time>
      </trkpt>
      <trkpt lat="43.20532" lon="5.58576">
        <ele>178</ele>
        <time>2019-11-20T10:27:39Z</time>
      </trkpt>
      <trkpt lat="43.20537" lon="5.58571">
        <ele>176</ele>
        <time>2019-11-20T10:27:45Z</time>
      </trkpt>
      <trkpt lat="43.2054" lon="5.58564">
        <ele>175</ele>
        <time>2019-11-20T10:27:51Z</time>
      </trkpt>
      <trkpt lat="43.20545" lon="5.58558">
        <ele>174</ele>
        <time>2019-11-20T10:27:57Z</time>
      </trkpt>
      <trkpt lat="43.2055" lon="5.58553">
        <ele>174</ele>
        <time>2019-11-20T10:28:03Z</time>
      </trkpt>
      <trkpt lat="43.20554" lon="5.58549">
        <ele>175</ele>
        <time>2019-11-20T10:28:07Z</time>
      </trkpt>
      <trkpt lat="43.20558" lon="5.58544">
        <ele>173</ele>
        <time>2019-11-20T10:28:13Z</time>
      </trkpt>
      <trkpt lat="43.20562" lon="5.58539">
        <ele>172</ele>
        <time>2019-11-20T10:28:19Z</time>
      </trkpt>
      <trkpt lat="43.20565" lon="5.58535">
        <ele>174</ele>
        <time>2019-11-20T10:28:23Z</time>
      </trkpt>
      <trkpt lat="43.20571" lon="5.5853">
        <ele>173</ele>
        <time>2019-11-20T10:28:29Z</time>
      </trkpt>
      <trkpt lat="43.20577" lon="5.58526">
        <ele>173</ele>
        <time>2019-11-20T10:28:35Z</time>
      </trkpt>
      <trkpt lat="43.20582" lon="5.5852">
        <ele>171</ele>
        <time>2019-11-20T10:28:41Z</time>
      </trkpt>
      <trkpt lat="43.20587" lon="5.58514">
        <ele>170</ele>
        <time>2019-11-20T10:28:47Z</time>
      </trkpt>
      <trkpt lat="43.2059" lon="5.5851">
        <ele>170</ele>
        <time>2019-11-20T10:28:51Z</time>
      </trkpt>
      <trkpt lat="43.20595" lon="5.58504">
        <ele>171</ele>
        <time>2019-11-20T10:28:57Z</time>
      </trkpt>
      <trkpt lat="43.20597" lon="5.58498">
        <ele>171</ele>
        <time>2019-11-20T10:29:01Z</time>
      </trkpt>
      <trkpt lat="43.20599" lon="5.58491">
        <ele>171</ele>
        <time>2019-11-20T10:29:05Z</time>
      </trkpt>
      <trkpt lat="43.206" lon="5.58483">
        <ele>170</ele>
        <time>2019-11-20T10:29:11Z</time>
      </trkpt>
      <trkpt lat="43.20601" lon="5.58476">
        <ele>170</ele>
        <time>2019-11-20T10:29:15Z</time>
      </trkpt>
      <trkpt lat="43.20602" lon="5.58468">
        <ele>170</ele>
        <time>2019-11-20T10:29:21Z</time>
      </trkpt>
      <trkpt lat="43.20602" lon="5.58459">
        <ele>169</ele>
        <time>2019-11-20T10:29:27Z</time>
      </trkpt>
      <trkpt lat="43.20603" lon="5.58452">
        <ele>171</ele>
        <time>2019-11-20T10:29:31Z</time>
      </trkpt>
      <trkpt lat="43.20603" lon="5.58443">
        <ele>170</ele>
        <time>2019-11-20T10:29:37Z</time>
      </trkpt>
      <trkpt lat="43.20605" lon="5.58437">
        <ele>171</ele>
        <time>2019-11-20T10:29:41Z</time>
      </trkpt>
      <trkpt lat="43.20607" lon="5.58431">
        <ele>173</ele>
        <time>2019-11-20T10:29:45Z</time>
      </trkpt>
      <trkpt lat="43.20609" lon="5.58425">
        <ele>173</ele>
        <time>2019-11-20T10:29:49Z</time>
      </trkpt>
      <trkpt lat="43.20611" lon="5.5842">
        <ele>173</ele>
        <time>2019-11-20T10:29:53Z</time>
      </trkpt>
      <trkpt lat="43.20616" lon="5.58414">
        <ele>172</ele>
        <time>2019-11-20T10:29:59Z</time>
      </trkpt>
      <trkpt lat="43.20618" lon="5.58405">
        <ele>171</ele>
        <time>2019-11-20T10:30:05Z</time>
      </trkpt>
      <trkpt lat="43.20621" lon="5.58399">
        <ele>170</ele>
        <time>2019-11-20T10:30:09Z</time>
      </trkpt>
      <trkpt lat="43.20624" lon="5.58392">
        <ele>167</ele>
        <time>2019-11-20T10:30:15Z</time>
      </trkpt>
      <trkpt lat="43.20626" lon="5.58385">
        <ele>167</ele>
        <time>2019-11-20T10:30:21Z</time>
      </trkpt>
      <trkpt lat="43.20629" lon="5.58377">
        <ele>168</ele>
        <time>2019-11-20T10:30:27Z</time>
      </trkpt>
      <trkpt lat="43.20633" lon="5.5837">
        <ele>165</ele>
        <time>2019-11-20T10:30:33Z</time>
      </trkpt>
      <trkpt lat="43.20636" lon="5.58366">
        <ele>164</ele>
        <time>2019-11-20T10:30:37Z</time>
      </trkpt>
      <trkpt lat="43.20639" lon="5.58361">
        <ele>163</ele>
        <time>2019-11-20T10:30:41Z</time>
      </trkpt>
      <trkpt lat="43.20643" lon="5.58357">
        <ele>163</ele>
        <time>2019-11-20T10:30:45Z</time>
      </trkpt>
      <trkpt lat="43.20647" lon="5.58351">
        <ele>163</ele>
        <time>2019-11-20T10:30:51Z</time>
      </trkpt>
      <trkpt lat="43.20651" lon="5.58344">
        <ele>165</ele>
        <time>2019-11-20T10:30:57Z</time>
      </trkpt>
      <trkpt lat="43.20654" lon="5.58337">
        <ele>165</ele>
        <time>2019-11-20T10:31:03Z</time>
      </trkpt>
      <trkpt lat="43.20656" lon="5.58331">
        <ele>168</ele>
        <time>2019-11-20T10:31:07Z</time>
      </trkpt>
      <trkpt lat="43.20658" lon="5.58324">
        <ele>167</ele>
        <time>2019-11-20T10:31:11Z</time>
      </trkpt>
      <trkpt lat="43.20661" lon="5.58317">
        <ele>165</ele>
        <time>2019-11-20T10:31:17Z</time>
      </trkpt>
      <trkpt lat="43.20665" lon="5.58313">
        <ele>165</ele>
        <time>2019-11-20T10:31:21Z</time>
      </trkpt>
      <trkpt lat="43.20669" lon="5.5831">
        <ele>165</ele>
        <time>2019-11-20T10:31:25Z</time>
      </trkpt>
      <trkpt lat="43.20673" lon="5.58306">
        <ele>166</ele>
        <time>2019-11-20T10:31:29Z</time>
      </trkpt>
      <trkpt lat="43.20676" lon="5.58301">
        <ele>167</ele>
        <time>2019-11-20T10:31:33Z</time>
      </trkpt>
      <trkpt lat="43.20681" lon="5.58294">
        <ele>166</ele>
        <time>2019-11-20T10:31:39Z</time>
      </trkpt>
      <trkpt lat="43.20684" lon="5.58289">
        <ele>166</ele>
        <time>2019-11-20T10:31:43Z</time>
      </trkpt>
      <trkpt lat="43.20685" lon="5.58283">
        <ele>166</ele>
        <time>2019-11-20T10:31:47Z</time>
      </trkpt>
      <trkpt lat="43.20686" lon="5.58277">
        <ele>166</ele>
        <time>2019-11-20T10:31:51Z</time>
      </trkpt>
      <trkpt lat="43.20688" lon="5.58271">
        <ele>167</ele>
        <time>2019-11-20T10:31:55Z</time>
      </trkpt>
      <trkpt lat="43.20691" lon="5.58262">
        <ele>167</ele>
        <time>2019-11-20T10:32:01Z</time>
      </trkpt>
      <trkpt lat="43.20693" lon="5.58254">
        <ele>168</ele>
        <time>2019-11-20T10:32:07Z</time>
      </trkpt>
      <trkpt lat="43.20696" lon="5.58249">
        <ele>169</ele>
        <time>2019-11-20T10:32:11Z</time>
      </trkpt>
      <trkpt lat="43.207" lon="5.58244">
        <ele>169</ele>
        <time>2019-11-20T10:32:15Z</time>
      </trkpt>
      <trkpt lat="43.20704" lon="5.58239">
        <ele>167</ele>
        <time>2019-11-20T10:32:21Z</time>
      </trkpt>
      <trkpt lat="43.20708" lon="5.58233">
        <ele>165</ele>
        <time>2019-11-20T10:32:27Z</time>
      </trkpt>
      <trkpt lat="43.20712" lon="5.58226">
        <ele>164</ele>
        <time>2019-11-20T10:32:33Z</time>
      </trkpt>
      <trkpt lat="43.20716" lon="5.58219">
        <ele>164</ele>
        <time>2019-11-20T10:32:39Z</time>
      </trkpt>
      <trkpt lat="43.20719" lon="5.58212">
        <ele>164</ele>
        <time>2019-11-20T10:32:45Z</time>
      </trkpt>
      <trkpt lat="43.20722" lon="5.58207">
        <ele>166</ele>
        <time>2019-11-20T10:32:49Z</time>
      </trkpt>
      <trkpt lat="43.20727" lon="5.58201">
        <ele>166</ele>
        <time>2019-11-20T10:32:55Z</time>
      </trkpt>
      <trkpt lat="43.2073" lon="5.58196">
        <ele>166</ele>
        <time>2019-11-20T10:32:59Z</time>
      </trkpt>
      <trkpt lat="43.20733" lon="5.5819">
        <ele>164</ele>
        <time>2019-11-20T10:33:05Z</time>
      </trkpt>
      <trkpt lat="43.20737" lon="5.58182">
        <ele>163</ele>
        <time>2019-11-20T10:33:11Z</time>
      </trkpt>
      <trkpt lat="43.2074" lon="5.58175">
        <ele>162</ele>
        <time>2019-11-20T10:33:17Z</time>
      </trkpt>
      <trkpt lat="43.20741" lon="5.58169">
        <ele>163</ele>
        <time>2019-11-20T10:33:21Z</time>
      </trkpt>
      <trkpt lat="43.20742" lon="5.58162">
        <ele>163</ele>
        <time>2019-11-20T10:33:25Z</time>
      </trkpt>
      <trkpt lat="43.20744" lon="5.58154">
        <ele>161</ele>
        <time>2019-11-20T10:33:31Z</time>
      </trkpt>
      <trkpt lat="43.20745" lon="5.58148">
        <ele>161</ele>
        <time>2019-11-20T10:33:35Z</time>
      </trkpt>
      <trkpt lat="43.20746" lon="5.5814">
        <ele>160</ele>
        <time>2019-11-20T10:33:41Z</time>
      </trkpt>
      <trkpt lat="43.20744" lon="5.58131">
        <ele>161</ele>
        <time>2019-11-20T10:33:47Z</time>
      </trkpt>
      <trkpt lat="43.20744" lon="5.58122">
        <ele>162</ele>
        <time>2019-11-20T10:33:53Z</time>
      </trkpt>
      <trkpt lat="43.20744" lon="5.58114">
        <ele>162</ele>
        <time>2019-11-20T10:33:59Z</time>
      </trkpt>
      <trkpt lat="43.20745" lon="5.58106">
        <ele>162</ele>
        <time>2019-11-20T10:34:05Z</time>
      </trkpt>
      <trkpt lat="43.20747" lon="5.58098">
        <ele>162</ele>
        <time>2019-11-20T10:34:11Z</time>
      </trkpt>
      <trkpt lat="43.20747" lon="5.58091">
        <ele>163</ele>
        <time>2019-11-20T10:34:17Z</time>
      </trkpt>
      <trkpt lat="43.20744" lon="5.58084">
        <ele>165</ele>
        <time>2019-11-20T10:34:25Z</time>
      </trkpt>
      <trkpt lat="43.20742" lon="5.58075">
        <ele>164</ele>
        <time>2019-11-20T10:34:33Z</time>
      </trkpt>
      <trkpt lat="43.20742" lon="5.58069">
        <ele>164</ele>
        <time>2019-11-20T10:34:37Z</time>
      </trkpt>
      <trkpt lat="43.20742" lon="5.58062">
        <ele>164</ele>
        <time>2019-11-20T10:34:41Z</time>
      </trkpt>
      <trkpt lat="43.20742" lon="5.58054">
        <ele>165</ele>
        <time>2019-11-20T10:34:47Z</time>
      </trkpt>
      <trkpt lat="43.20743" lon="5.58048">
        <ele>165</ele>
        <time>2019-11-20T10:34:55Z</time>
      </trkpt>
      <trkpt lat="43.20739" lon="5.58042">
        <ele>165</ele>
        <time>2019-11-20T10:35:05Z</time>
      </trkpt>
      <trkpt lat="43.20736" lon="5.58035">
        <ele>164</ele>
        <time>2019-11-20T10:35:11Z</time>
      </trkpt>
      <trkpt lat="43.20734" lon="5.58028">
        <ele>163</ele>
        <time>2019-11-20T10:35:17Z</time>
      </trkpt>
      <trkpt lat="43.20734" lon="5.5802">
        <ele>165</ele>
        <time>2019-11-20T10:35:23Z</time>
      </trkpt>
      <trkpt lat="43.20735" lon="5.58011">
        <ele>164</ele>
        <time>2019-11-20T10:35:29Z</time>
      </trkpt>
      <trkpt lat="43.20737" lon="5.58003">
        <ele>164</ele>
        <time>2019-11-20T10:35:35Z</time>
      </trkpt>
      <trkpt lat="43.20737" lon="5.57996">
        <ele>166</ele>
        <time>2019-11-20T10:35:39Z</time>
      </trkpt>
      <trkpt lat="43.20738" lon="5.57988">
        <ele>166</ele>
        <time>2019-11-20T10:35:45Z</time>
      </trkpt>
      <trkpt lat="43.20739" lon="5.5798">
        <ele>166</ele>
        <time>2019-11-20T10:35:51Z</time>
      </trkpt>
      <trkpt lat="43.20739" lon="5.57972">
        <ele>165</ele>
        <time>2019-11-20T10:35:57Z</time>
      </trkpt>
      <trkpt lat="43.20739" lon="5.57966">
        <ele>167</ele>
        <time>2019-11-20T10:36:01Z</time>
      </trkpt>
      <trkpt lat="43.2074" lon="5.57957">
        <ele>166</ele>
        <time>2019-11-20T10:36:07Z</time>
      </trkpt>
      <trkpt lat="43.20738" lon="5.57951">
        <ele>167</ele>
        <time>2019-11-20T10:36:11Z</time>
      </trkpt>
      <trkpt lat="43.20735" lon="5.57944">
        <ele>167</ele>
        <time>2019-11-20T10:36:17Z</time>
      </trkpt>
      <trkpt lat="43.20731" lon="5.57937">
        <ele>169</ele>
        <time>2019-11-20T10:36:23Z</time>
      </trkpt>
      <trkpt lat="43.20726" lon="5.57933">
        <ele>170</ele>
        <time>2019-11-20T10:36:29Z</time>
      </trkpt>
      <trkpt lat="43.2072" lon="5.57931">
        <ele>172</ele>
        <time>2019-11-20T10:36:35Z</time>
      </trkpt>
      <trkpt lat="43.20715" lon="5.5793">
        <ele>170</ele>
        <time>2019-11-20T10:36:41Z</time>
      </trkpt>
      <trkpt lat="43.20709" lon="5.57929">
        <ele>170</ele>
        <time>2019-11-20T10:36:47Z</time>
      </trkpt>
      <trkpt lat="43.20704" lon="5.57928">
        <ele>171</ele>
        <time>2019-11-20T10:36:51Z</time>
      </trkpt>
      <trkpt lat="43.20699" lon="5.57927">
        <ele>172</ele>
        <time>2019-11-20T10:36:55Z</time>
      </trkpt>
      <trkpt lat="43.20694" lon="5.57925">
        <ele>173</ele>
        <time>2019-11-20T10:36:59Z</time>
      </trkpt>
      <trkpt lat="43.2069" lon="5.57922">
        <ele>174</ele>
        <time>2019-11-20T10:37:03Z</time>
      </trkpt>
      <trkpt lat="43.20685" lon="5.57918">
        <ele>173</ele>
        <time>2019-11-20T10:37:09Z</time>
      </trkpt>
      <trkpt lat="43.20681" lon="5.57914">
        <ele>172</ele>
        <time>2019-11-20T10:37:13Z</time>
      </trkpt>
      <trkpt lat="43.20677" lon="5.57908">
        <ele>173</ele>
        <time>2019-11-20T10:37:19Z</time>
      </trkpt>
      <trkpt lat="43.20674" lon="5.57903">
        <ele>173</ele>
        <time>2019-11-20T10:37:23Z</time>
      </trkpt>
      <trkpt lat="43.20669" lon="5.57896">
        <ele>173</ele>
        <time>2019-11-20T10:37:29Z</time>
      </trkpt>
      <trkpt lat="43.20666" lon="5.57891">
        <ele>173</ele>
        <time>2019-11-20T10:37:33Z</time>
      </trkpt>
      <trkpt lat="43.20664" lon="5.57885">
        <ele>173</ele>
        <time>2019-11-20T10:37:37Z</time>
      </trkpt>
      <trkpt lat="43.20661" lon="5.57878">
        <ele>174</ele>
        <time>2019-11-20T10:37:43Z</time>
      </trkpt>
      <trkpt lat="43.20658" lon="5.5787">
        <ele>174</ele>
        <time>2019-11-20T10:37:49Z</time>
      </trkpt>
      <trkpt lat="43.20656" lon="5.57864">
        <ele>174</ele>
        <time>2019-11-20T10:37:53Z</time>
      </trkpt>
      <trkpt lat="43.20654" lon="5.57858">
        <ele>174</ele>
        <time>2019-11-20T10:37:57Z</time>
      </trkpt>
      <trkpt lat="43.20651" lon="5.57851">
        <ele>174</ele>
        <time>2019-11-20T10:38:03Z</time>
      </trkpt>
      <trkpt lat="43.20649" lon="5.57846">
        <ele>174</ele>
        <time>2019-11-20T10:38:09Z</time>
      </trkpt>
      <trkpt lat="43.20647" lon="5.57838">
        <ele>173</ele>
        <time>2019-11-20T10:38:15Z</time>
      </trkpt>
      <trkpt lat="43.20646" lon="5.57829">
        <ele>173</ele>
        <time>2019-11-20T10:38:21Z</time>
      </trkpt>
      <trkpt lat="43.20645" lon="5.57823">
        <ele>173</ele>
        <time>2019-11-20T10:38:25Z</time>
      </trkpt>
      <trkpt lat="43.20645" lon="5.57816">
        <ele>173</ele>
        <time>2019-11-20T10:38:29Z</time>
      </trkpt>
      <trkpt lat="43.20645" lon="5.5781">
        <ele>174</ele>
        <time>2019-11-20T10:38:33Z</time>
      </trkpt>
      <trkpt lat="43.20644" lon="5.57804">
        <ele>175</ele>
        <time>2019-11-20T10:38:37Z</time>
      </trkpt>
      <trkpt lat="43.20645" lon="5.57797">
        <ele>176</ele>
        <time>2019-11-20T10:38:41Z</time>
      </trkpt>
      <trkpt lat="43.20646" lon="5.57789">
        <ele>176</ele>
        <time>2019-11-20T10:38:47Z</time>
      </trkpt>
      <trkpt lat="43.20647" lon="5.57781">
        <ele>174</ele>
        <time>2019-11-20T10:38:53Z</time>
      </trkpt>
      <trkpt lat="43.20649" lon="5.57775">
        <ele>175</ele>
        <time>2019-11-20T10:38:57Z</time>
      </trkpt>
      <trkpt lat="43.2065" lon="5.57769">
        <ele>175</ele>
        <time>2019-11-20T10:39:01Z</time>
      </trkpt>
      <trkpt lat="43.20652" lon="5.57763">
        <ele>175</ele>
        <time>2019-11-20T10:39:05Z</time>
      </trkpt>
      <trkpt lat="43.20654" lon="5.57755">
        <ele>175</ele>
        <time>2019-11-20T10:39:11Z</time>
      </trkpt>
      <trkpt lat="43.20656" lon="5.57746">
        <ele>176</ele>
        <time>2019-11-20T10:39:17Z</time>
      </trkpt>
      <trkpt lat="43.20657" lon="5.57737">
        <ele>175</ele>
        <time>2019-11-20T10:39:23Z</time>
      </trkpt>
      <trkpt lat="43.20657" lon="5.57729">
        <ele>175</ele>
        <time>2019-11-20T10:39:29Z</time>
      </trkpt>
      <trkpt lat="43.20656" lon="5.57721">
        <ele>176</ele>
        <time>2019-11-20T10:39:35Z</time>
      </trkpt>
      <trkpt lat="43.20653" lon="5.57713">
        <ele>177</ele>
        <time>2019-11-20T10:39:41Z</time>
      </trkpt>
      <trkpt lat="43.2065" lon="5.57705">
        <ele>179</ele>
        <time>2019-11-20T10:39:47Z</time>
      </trkpt>
      <trkpt lat="43.20647" lon="5.57699">
        <ele>179</ele>
        <time>2019-11-20T10:39:51Z</time>
      </trkpt>
      <trkpt lat="43.20645" lon="5.57694">
        <ele>181</ele>
        <time>2019-11-20T10:39:55Z</time>
      </trkpt>
      <trkpt lat="43.20643" lon="5.57685">
        <ele>180</ele>
        <time>2019-11-20T10:40:01Z</time>
      </trkpt>
      <trkpt lat="43.20643" lon="5.57677">
        <ele>180</ele>
        <time>2019-11-20T10:40:07Z</time>
      </trkpt>
      <trkpt lat="43.20644" lon="5.57668">
        <ele>180</ele>
        <time>2019-11-20T10:40:13Z</time>
      </trkpt>
      <trkpt lat="43.20646" lon="5.57659">
        <ele>180</ele>
        <time>2019-11-20T10:40:19Z</time>
      </trkpt>
      <trkpt lat="43.20647" lon="5.57653">
        <ele>180</ele>
        <time>2019-11-20T10:40:23Z</time>
      </trkpt>
      <trkpt lat="43.2065" lon="5.57645">
        <ele>179</ele>
        <time>2019-11-20T10:40:29Z</time>
      </trkpt>
      <trkpt lat="43.20652" lon="5.57638">
        <ele>179</ele>
        <time>2019-11-20T10:40:35Z</time>
      </trkpt>
      <trkpt lat="43.20656" lon="5.57632">
        <ele>178</ele>
        <time>2019-11-20T10:40:41Z</time>
      </trkpt>
      <trkpt lat="43.20661" lon="5.57626">
        <ele>180</ele>
        <time>2019-11-20T10:40:47Z</time>
      </trkpt>
      <trkpt lat="43.20666" lon="5.5762">
        <ele>179</ele>
        <time>2019-11-20T10:40:53Z</time>
      </trkpt>
      <trkpt lat="43.20669" lon="5.57614">
        <ele>179</ele>
        <time>2019-11-20T10:40:59Z</time>
      </trkpt>
      <trkpt lat="43.20672" lon="5.57607">
        <ele>179</ele>
        <time>2019-11-20T10:41:05Z</time>
      </trkpt>
      <trkpt lat="43.20677" lon="5.57601">
        <ele>180</ele>
        <time>2019-11-20T10:41:11Z</time>
      </trkpt>
      <trkpt lat="43.20681" lon="5.57595">
        <ele>179</ele>
        <time>2019-11-20T10:41:17Z</time>
      </trkpt>
      <trkpt lat="43.20685" lon="5.5759">
        <ele>180</ele>
        <time>2019-11-20T10:41:23Z</time>
      </trkpt>
      <trkpt lat="43.20686" lon="5.57582">
        <ele>180</ele>
        <time>2019-11-20T10:41:35Z</time>
      </trkpt>
      <trkpt lat="43.20691" lon="5.5758">
        <ele>181</ele>
        <time>2019-11-20T10:41:51Z</time>
      </trkpt>
      <trkpt lat="43.20697" lon="5.57578">
        <ele>182</ele>
        <time>2019-11-20T10:41:57Z</time>
      </trkpt>
      <trkpt lat="43.20701" lon="5.57575">
        <ele>183</ele>
        <time>2019-11-20T10:42:03Z</time>
      </trkpt>
      <trkpt lat="43.20707" lon="5.57574">
        <ele>183</ele>
        <time>2019-11-20T10:42:09Z</time>
      </trkpt>
      <trkpt lat="43.20712" lon="5.57572">
        <ele>183</ele>
        <time>2019-11-20T10:42:15Z</time>
      </trkpt>
      <trkpt lat="43.20718" lon="5.57568">
        <ele>184</ele>
        <time>2019-11-20T10:42:21Z</time>
      </trkpt>
      <trkpt lat="43.20723" lon="5.57564">
        <ele>184</ele>
        <time>2019-11-20T10:42:27Z</time>
      </trkpt>
      <trkpt lat="43.20727" lon="5.5756">
        <ele>185</ele>
        <time>2019-11-20T10:42:33Z</time>
      </trkpt>
      <trkpt lat="43.20732" lon="5.57556">
        <ele>186</ele>
        <time>2019-11-20T10:42:39Z</time>
      </trkpt>
      <trkpt lat="43.20736" lon="5.57553">
        <ele>186</ele>
        <time>2019-11-20T10:42:43Z</time>
      </trkpt>
      <trkpt lat="43.20742" lon="5.5755">
        <ele>184</ele>
        <time>2019-11-20T10:42:49Z</time>
      </trkpt>
      <trkpt lat="43.20747" lon="5.57548">
        <ele>185</ele>
        <time>2019-11-20T10:42:55Z</time>
      </trkpt>
      <trkpt lat="43.20752" lon="5.57546">
        <ele>187</ele>
        <time>2019-11-20T10:43:01Z</time>
      </trkpt>
      <trkpt lat="43.20758" lon="5.57543">
        <ele>186</ele>
        <time>2019-11-20T10:43:07Z</time>
      </trkpt>
      <trkpt lat="43.20764" lon="5.57542">
        <ele>186</ele>
        <time>2019-11-20T10:43:13Z</time>
      </trkpt>
      <trkpt lat="43.2077" lon="5.5754">
        <ele>187</ele>
        <time>2019-11-20T10:43:19Z</time>
      </trkpt>
      <trkpt lat="43.20775" lon="5.57538">
        <ele>188</ele>
        <time>2019-11-20T10:43:23Z</time>
      </trkpt>
      <trkpt lat="43.20781" lon="5.57536">
        <ele>188</ele>
        <time>2019-11-20T10:43:29Z</time>
      </trkpt>
      <trkpt lat="43.20787" lon="5.57533">
        <ele>188</ele>
        <time>2019-11-20T10:43:35Z</time>
      </trkpt>
      <trkpt lat="43.20793" lon="5.5753">
        <ele>187</ele>
        <time>2019-11-20T10:43:41Z</time>
      </trkpt>
      <trkpt lat="43.20798" lon="5.57527">
        <ele>189</ele>
        <time>2019-11-20T10:43:47Z</time>
      </trkpt>
      <trkpt lat="43.20804" lon="5.57524">
        <ele>190</ele>
        <time>2019-11-20T10:43:53Z</time>
      </trkpt>
      <trkpt lat="43.20809" lon="5.5752">
        <ele>192</ele>
        <time>2019-11-20T10:43:59Z</time>
      </trkpt>
      <trkpt lat="43.20814" lon="5.57516">
        <ele>191</ele>
        <time>2019-11-20T10:44:05Z</time>
      </trkpt>
      <trkpt lat="43.20819" lon="5.57512">
        <ele>191</ele>
        <time>2019-11-20T10:44:11Z</time>
      </trkpt>
      <trkpt lat="43.20824" lon="5.5751">
        <ele>191</ele>
        <time>2019-11-20T10:44:15Z</time>
      </trkpt>
      <trkpt lat="43.20829" lon="5.57506">
        <ele>190</ele>
        <time>2019-11-20T10:44:21Z</time>
      </trkpt>
      <trkpt lat="43.20832" lon="5.57502">
        <ele>191</ele>
        <time>2019-11-20T10:44:25Z</time>
      </trkpt>
      <trkpt lat="43.20835" lon="5.57497">
        <ele>192</ele>
        <time>2019-11-20T10:44:29Z</time>
      </trkpt>
      <trkpt lat="43.20839" lon="5.5749">
        <ele>193</ele>
        <time>2019-11-20T10:44:35Z</time>
      </trkpt>
      <trkpt lat="43.20841" lon="5.57484">
        <ele>192</ele>
        <time>2019-11-20T10:44:43Z</time>
      </trkpt>
      <trkpt lat="43.20844" lon="5.57479">
        <ele>190</ele>
        <time>2019-11-20T10:44:49Z</time>
      </trkpt>
      <trkpt lat="43.20848" lon="5.57471">
        <ele>191</ele>
        <time>2019-11-20T10:44:55Z</time>
      </trkpt>
      <trkpt lat="43.20852" lon="5.57465">
        <ele>192</ele>
        <time>2019-11-20T10:45:01Z</time>
      </trkpt>
      <trkpt lat="43.20856" lon="5.5746">
        <ele>192</ele>
        <time>2019-11-20T10:45:07Z</time>
      </trkpt>
      <trkpt lat="43.20861" lon="5.57457">
        <ele>192</ele>
        <time>2019-11-20T10:45:13Z</time>
      </trkpt>
      <trkpt lat="43.20868" lon="5.57455">
        <ele>191</ele>
        <time>2019-11-20T10:45:19Z</time>
      </trkpt>
      <trkpt lat="43.20873" lon="5.57454">
        <ele>194</ele>
        <time>2019-11-20T10:45:25Z</time>
      </trkpt>
      <trkpt lat="43.20879" lon="5.57455">
        <ele>196</ele>
        <time>2019-11-20T10:45:31Z</time>
      </trkpt>
      <trkpt lat="43.20885" lon="5.57457">
        <ele>195</ele>
        <time>2019-11-20T10:45:37Z</time>
      </trkpt>
      <trkpt lat="43.20891" lon="5.5746">
        <ele>194</ele>
        <time>2019-11-20T10:45:43Z</time>
      </trkpt>
      <trkpt lat="43.20897" lon="5.57461">
        <ele>195</ele>
        <time>2019-11-20T10:45:49Z</time>
      </trkpt>
      <trkpt lat="43.20902" lon="5.57462">
        <ele>197</ele>
        <time>2019-11-20T10:45:55Z</time>
      </trkpt>
      <trkpt lat="43.20909" lon="5.57461">
        <ele>197</ele>
        <time>2019-11-20T10:46:01Z</time>
      </trkpt>
      <trkpt lat="43.20914" lon="5.57461">
        <ele>196</ele>
        <time>2019-11-20T10:46:07Z</time>
      </trkpt>
      <trkpt lat="43.2092" lon="5.57463">
        <ele>197</ele>
        <time>2019-11-20T10:46:13Z</time>
      </trkpt>
      <trkpt lat="43.20925" lon="5.57464">
        <ele>198</ele>
        <time>2019-11-20T10:46:17Z</time>
      </trkpt>
      <trkpt lat="43.20931" lon="5.57467">
        <ele>197</ele>
        <time>2019-11-20T10:46:23Z</time>
      </trkpt>
      <trkpt lat="43.20934" lon="5.57472">
        <ele>196</ele>
        <time>2019-11-20T10:46:29Z</time>
      </trkpt>
      <trkpt lat="43.20939" lon="5.57479">
        <ele>197</ele>
        <time>2019-11-20T10:46:35Z</time>
      </trkpt>
      <trkpt lat="43.20942" lon="5.57486">
        <ele>197</ele>
        <time>2019-11-20T10:46:41Z</time>
      </trkpt>
      <trkpt lat="43.20943" lon="5.57494">
        <ele>197</ele>
        <time>2019-11-20T10:46:47Z</time>
      </trkpt>
      <trkpt lat="43.20947" lon="5.57501">
        <ele>197</ele>
        <time>2019-11-20T10:46:53Z</time>
      </trkpt>
      <trkpt lat="43.2095" lon="5.57507">
        <ele>198</ele>
        <time>2019-11-20T10:46:59Z</time>
      </trkpt>
      <trkpt lat="43.20956" lon="5.5751">
        <ele>198</ele>
        <time>2019-11-20T10:47:05Z</time>
      </trkpt>
      <trkpt lat="43.20962" lon="5.5751">
        <ele>200</ele>
        <time>2019-11-20T10:47:11Z</time>
      </trkpt>
      <trkpt lat="43.20968" lon="5.57511">
        <ele>200</ele>
        <time>2019-11-20T10:47:17Z</time>
      </trkpt>
      <trkpt lat="43.20975" lon="5.5751">
        <ele>201</ele>
        <time>2019-11-20T10:47:23Z</time>
      </trkpt>
      <trkpt lat="43.20979" lon="5.5751">
        <ele>202</ele>
        <time>2019-11-20T10:47:27Z</time>
      </trkpt>
      <trkpt lat="43.20985" lon="5.57512">
        <ele>202</ele>
        <time>2019-11-20T10:47:33Z</time>
      </trkpt>
      <trkpt lat="43.20991" lon="5.57513">
        <ele>202</ele>
        <time>2019-11-20T10:47:39Z</time>
      </trkpt>
      <trkpt lat="43.20997" lon="5.57514">
        <ele>202</ele>
        <time>2019-11-20T10:47:45Z</time>
      </trkpt>
      <trkpt lat="43.21002" lon="5.57517">
        <ele>202</ele>
        <time>2019-11-20T10:47:51Z</time>
      </trkpt>
      <trkpt lat="43.21008" lon="5.57521">
        <ele>202</ele>
        <time>2019-11-20T10:47:57Z</time>
      </trkpt>
      <trkpt lat="43.21012" lon="5.57526">
        <ele>203</ele>
        <time>2019-11-20T10:48:03Z</time>
      </trkpt>
      <trkpt lat="43.21018" lon="5.57531">
        <ele>204</ele>
        <time>2019-11-20T10:48:09Z</time>
      </trkpt>
      <trkpt lat="43.21022" lon="5.57536">
        <ele>203</ele>
        <time>2019-11-20T10:48:15Z</time>
      </trkpt>
      <trkpt lat="43.21026" lon="5.57541">
        <ele>204</ele>
        <time>2019-11-20T10:48:21Z</time>
      </trkpt>
      <trkpt lat="43.2103" lon="5.57548">
        <ele>206</ele>
        <time>2019-11-20T10:48:27Z</time>
      </trkpt>
      <trkpt lat="43.21034" lon="5.57554">
        <ele>207</ele>
        <time>2019-11-20T10:48:33Z</time>
      </trkpt>
      <trkpt lat="43.21039" lon="5.57561">
        <ele>207</ele>
        <time>2019-11-20T10:48:39Z</time>
      </trkpt>
      <trkpt lat="43.21042" lon="5.57566">
        <ele>206</ele>
        <time>2019-11-20T10:48:43Z</time>
      </trkpt>
      <trkpt lat="43.21046" lon="5.57572">
        <ele>207</ele>
        <time>2019-11-20T10:48:49Z</time>
      </trkpt>
      <trkpt lat="43.21049" lon="5.57579">
        <ele>207</ele>
        <time>2019-11-20T10:48:55Z</time>
      </trkpt>
      <trkpt lat="43.21052" lon="5.57587">
        <ele>207</ele>
        <time>2019-11-20T10:49:01Z</time>
      </trkpt>
      <trkpt lat="43.21052" lon="5.57594">
        <ele>209</ele>
        <time>2019-11-20T10:49:07Z</time>
      </trkpt>
      <trkpt lat="43.21052" lon="5.57603">
        <ele>209</ele>
        <time>2019-11-20T10:49:13Z</time>
      </trkpt>
      <trkpt lat="43.2105" lon="5.57608">
        <ele>208</ele>
        <time>2019-11-20T10:49:17Z</time>
      </trkpt>
      <trkpt lat="43.21047" lon="5.57616">
        <ele>209</ele>
        <time>2019-11-20T10:49:23Z</time>
      </trkpt>
      <trkpt lat="43.21045" lon="5.57621">
        <ele>210</ele>
        <time>2019-11-20T10:49:27Z</time>
      </trkpt>
      <trkpt lat="43.21042" lon="5.57628">
        <ele>210</ele>
        <time>2019-11-20T10:49:33Z</time>
      </trkpt>
      <trkpt lat="43.21041" lon="5.57635">
        <ele>211</ele>
        <time>2019-11-20T10:49:39Z</time>
      </trkpt>
      <trkpt lat="43.21042" lon="5.57643">
        <ele>211</ele>
        <time>2019-11-20T10:49:49Z</time>
      </trkpt>
      <trkpt lat="43.21044" lon="5.57649">
        <ele>211</ele>
        <time>2019-11-20T10:49:55Z</time>
      </trkpt>
      <trkpt lat="43.21047" lon="5.57655">
        <ele>211</ele>
        <time>2019-11-20T10:50:01Z</time>
      </trkpt>
      <trkpt lat="43.21051" lon="5.5766">
        <ele>211</ele>
        <time>2019-11-20T10:50:07Z</time>
      </trkpt>
      <trkpt lat="43.21054" lon="5.57667">
        <ele>212</ele>
        <time>2019-11-20T10:50:13Z</time>
      </trkpt>
      <trkpt lat="43.21057" lon="5.57674">
        <ele>211</ele>
        <time>2019-11-20T10:50:19Z</time>
      </trkpt>
      <trkpt lat="43.21062" lon="5.57677">
        <ele>212</ele>
        <time>2019-11-20T10:50:25Z</time>
      </trkpt>
      <trkpt lat="43.21067" lon="5.57678">
        <ele>216</ele>
        <time>2019-11-20T10:55:03Z</time>
      </trkpt>
      <trkpt lat="43.21072" lon="5.57678">
        <ele>216</ele>
        <time>2019-11-20T10:55:09Z</time>
      </trkpt>
      <trkpt lat="43.21078" lon="5.57676">
        <ele>216</ele>
        <time>2019-11-20T10:55:15Z</time>
      </trkpt>
      <trkpt lat="43.21082" lon="5.57671">
        <ele>216</ele>
        <time>2019-11-20T10:55:21Z</time>
      </trkpt>
      <trkpt lat="43.21086" lon="5.57665">
        <ele>215</ele>
        <time>2019-11-20T10:55:27Z</time>
      </trkpt>
      <trkpt lat="43.2109" lon="5.5766">
        <ele>216</ele>
        <time>2019-11-20T10:55:33Z</time>
      </trkpt>
      <trkpt lat="43.21095" lon="5.57654">
        <ele>216</ele>
        <time>2019-11-20T10:55:39Z</time>
      </trkpt>
      <trkpt lat="43.21099" lon="5.57651">
        <ele>216</ele>
        <time>2019-11-20T10:55:43Z</time>
      </trkpt>
      <trkpt lat="43.21106" lon="5.57649">
        <ele>216</ele>
        <time>2019-11-20T10:55:49Z</time>
      </trkpt>
      <trkpt lat="43.2111" lon="5.57648">
        <ele>216</ele>
        <time>2019-11-20T10:55:53Z</time>
      </trkpt>
      <trkpt lat="43.21115" lon="5.57646">
        <ele>216</ele>
        <time>2019-11-20T10:55:57Z</time>
      </trkpt>
      <trkpt lat="43.21121" lon="5.57646">
        <ele>216</ele>
        <time>2019-11-20T10:56:03Z</time>
      </trkpt>
      <trkpt lat="43.21127" lon="5.57645">
        <ele>217</ele>
        <time>2019-11-20T10:56:09Z</time>
      </trkpt>
      <trkpt lat="43.21134" lon="5.57644">
        <ele>218</ele>
        <time>2019-11-20T10:56:15Z</time>
      </trkpt>
      <trkpt lat="43.2114" lon="5.57642">
        <ele>219</ele>
        <time>2019-11-20T10:56:21Z</time>
      </trkpt>
      <trkpt lat="43.21144" lon="5.57641">
        <ele>220</ele>
        <time>2019-11-20T10:56:25Z</time>
      </trkpt>
      <trkpt lat="43.21151" lon="5.5764">
        <ele>220</ele>
        <time>2019-11-20T10:56:31Z</time>
      </trkpt>
      <trkpt lat="43.21156" lon="5.5764">
        <ele>221</ele>
        <time>2019-11-20T10:56:35Z</time>
      </trkpt>
      <trkpt lat="43.21162" lon="5.57642">
        <ele>221</ele>
        <time>2019-11-20T10:56:41Z</time>
      </trkpt>
      <trkpt lat="43.21168" lon="5.57646">
        <ele>222</ele>
        <time>2019-11-20T10:56:47Z</time>
      </trkpt>
      <trkpt lat="43.21172" lon="5.57652">
        <ele>222</ele>
        <time>2019-11-20T10:56:53Z</time>
      </trkpt>
      <trkpt lat="43.21176" lon="5.57659">
        <ele>223</ele>
        <time>2019-11-20T10:56:59Z</time>
      </trkpt>
      <trkpt lat="43.21179" lon="5.57666">
        <ele>223</ele>
        <time>2019-11-20T10:57:05Z</time>
      </trkpt>
      <trkpt lat="43.21183" lon="5.57672">
        <ele>222</ele>
        <time>2019-11-20T10:57:11Z</time>
      </trkpt>
      <trkpt lat="43.21188" lon="5.57676">
        <ele>223</ele>
        <time>2019-11-20T10:57:17Z</time>
      </trkpt>
      <trkpt lat="43.21193" lon="5.57677">
        <ele>223</ele>
        <time>2019-11-20T10:57:23Z</time>
      </trkpt>
      <trkpt lat="43.21199" lon="5.57676">
        <ele>225</ele>
        <time>2019-11-20T10:57:29Z</time>
      </trkpt>
      <trkpt lat="43.21198" lon="5.57683">
        <ele>226</ele>
        <time>2019-11-20T10:58:15Z</time>
      </trkpt>
      <trkpt lat="43.21198" lon="5.5769">
        <ele>226</ele>
        <time>2019-11-20T10:58:25Z</time>
      </trkpt>
      <trkpt lat="43.21199" lon="5.57696">
        <ele>227</ele>
        <time>2019-11-20T10:58:33Z</time>
      </trkpt>
      <trkpt lat="43.21199" lon="5.57703">
        <ele>228</ele>
        <time>2019-11-20T10:58:43Z</time>
      </trkpt>
      <trkpt lat="43.21197" lon="5.5771">
        <ele>232</ele>
        <time>2019-11-20T10:58:57Z</time>
      </trkpt>
      <trkpt lat="43.21195" lon="5.57715">
        <ele>235</ele>
        <time>2019-11-20T10:59:05Z</time>
      </trkpt>
      <trkpt lat="43.21192" lon="5.57722">
        <ele>236</ele>
        <time>2019-11-20T10:59:13Z</time>
      </trkpt>
      <trkpt lat="43.21189" lon="5.57728">
        <ele>235</ele>
        <time>2019-11-20T10:59:19Z</time>
      </trkpt>
      <trkpt lat="43.21186" lon="5.57735">
        <ele>235</ele>
        <time>2019-11-20T10:59:25Z</time>
      </trkpt>
      <trkpt lat="43.21184" lon="5.57743">
        <ele>236</ele>
        <time>2019-11-20T10:59:33Z</time>
      </trkpt>
      <trkpt lat="43.21188" lon="5.57748">
        <ele>236</ele>
        <time>2019-11-20T11:00:11Z</time>
      </trkpt>
      <trkpt lat="43.21193" lon="5.57748">
        <ele>234</ele>
        <time>2019-11-20T11:00:17Z</time>
      </trkpt>
      <trkpt lat="43.212" lon="5.57747">
        <ele>235</ele>
        <time>2019-11-20T11:00:23Z</time>
      </trkpt>
      <trkpt lat="43.21206" lon="5.57747">
        <ele>235</ele>
        <time>2019-11-20T11:00:29Z</time>
      </trkpt>
      <trkpt lat="43.21212" lon="5.57746">
        <ele>236</ele>
        <time>2019-11-20T11:00:35Z</time>
      </trkpt>
      <trkpt lat="43.21218" lon="5.57746">
        <ele>239</ele>
        <time>2019-11-20T11:00:41Z</time>
      </trkpt>
      <trkpt lat="43.21223" lon="5.57744">
        <ele>239</ele>
        <time>2019-11-20T11:00:45Z</time>
      </trkpt>
      <trkpt lat="43.21227" lon="5.57743">
        <ele>240</ele>
        <time>2019-11-20T11:00:49Z</time>
      </trkpt>
      <trkpt lat="43.21233" lon="5.57741">
        <ele>243</ele>
        <time>2019-11-20T11:00:55Z</time>
      </trkpt>
      <trkpt lat="43.21238" lon="5.57739">
        <ele>247</ele>
        <time>2019-11-20T11:01:01Z</time>
      </trkpt>
      <trkpt lat="43.21243" lon="5.57736">
        <ele>243</ele>
        <time>2019-11-20T11:01:07Z</time>
      </trkpt>
      <trkpt lat="43.21249" lon="5.57733">
        <ele>244</ele>
        <time>2019-11-20T11:01:13Z</time>
      </trkpt>
      <trkpt lat="43.21253" lon="5.57731">
        <ele>243</ele>
        <time>2019-11-20T11:01:17Z</time>
      </trkpt>
      <trkpt lat="43.21258" lon="5.5773">
        <ele>240</ele>
        <time>2019-11-20T11:01:23Z</time>
      </trkpt>
      <trkpt lat="43.21265" lon="5.5773">
        <ele>244</ele>
        <time>2019-11-20T11:01:29Z</time>
      </trkpt>
      <trkpt lat="43.21272" lon="5.57732">
        <ele>245</ele>
        <time>2019-11-20T11:01:35Z</time>
      </trkpt>
      <trkpt lat="43.21276" lon="5.57733">
        <ele>248</ele>
        <time>2019-11-20T11:01:41Z</time>
      </trkpt>
      <trkpt lat="43.21281" lon="5.57735">
        <ele>249</ele>
        <time>2019-11-20T11:01:47Z</time>
      </trkpt>
      <trkpt lat="43.21286" lon="5.57738">
        <ele>250</ele>
        <time>2019-11-20T11:01:55Z</time>
      </trkpt>
      <trkpt lat="43.21291" lon="5.57737">
        <ele>250</ele>
        <time>2019-11-20T11:02:01Z</time>
      </trkpt>
      <trkpt lat="43.21296" lon="5.57737">
        <ele>250</ele>
        <time>2019-11-20T11:02:07Z</time>
      </trkpt>
      <trkpt lat="43.213" lon="5.57734">
        <ele>252</ele>
        <time>2019-11-20T11:02:13Z</time>
      </trkpt>
      <trkpt lat="43.21305" lon="5.57731">
        <ele>254</ele>
        <time>2019-11-20T11:02:21Z</time>
      </trkpt>
      <trkpt lat="43.2131" lon="5.57727">
        <ele>251</ele>
        <time>2019-11-20T11:02:29Z</time>
      </trkpt>
      <trkpt lat="43.21315" lon="5.57723">
        <ele>249</ele>
        <time>2019-11-20T11:02:35Z</time>
      </trkpt>
      <trkpt lat="43.21319" lon="5.5772">
        <ele>251</ele>
        <time>2019-11-20T11:02:41Z</time>
      </trkpt>
      <trkpt lat="43.21325" lon="5.57717">
        <ele>252</ele>
        <time>2019-11-20T11:02:47Z</time>
      </trkpt>
      <trkpt lat="43.2133" lon="5.57716">
        <ele>252</ele>
        <time>2019-11-20T11:02:53Z</time>
      </trkpt>
      <trkpt lat="43.21337" lon="5.57713">
        <ele>255</ele>
        <time>2019-11-20T11:02:59Z</time>
      </trkpt>
      <trkpt lat="43.21342" lon="5.57711">
        <ele>254</ele>
        <time>2019-11-20T11:03:05Z</time>
      </trkpt>
      <trkpt lat="43.21347" lon="5.57708">
        <ele>256</ele>
        <time>2019-11-20T11:03:09Z</time>
      </trkpt>
      <trkpt lat="43.21353" lon="5.57706">
        <ele>260</ele>
        <time>2019-11-20T11:03:15Z</time>
      </trkpt>
      <trkpt lat="43.21357" lon="5.57704">
        <ele>259</ele>
        <time>2019-11-20T11:03:21Z</time>
      </trkpt>
      <trkpt lat="43.21362" lon="5.57701">
        <ele>258</ele>
        <time>2019-11-20T11:03:27Z</time>
      </trkpt>
      <trkpt lat="43.21367" lon="5.57699">
        <ele>258</ele>
        <time>2019-11-20T11:03:33Z</time>
      </trkpt>
      <trkpt lat="43.21373" lon="5.57695">
        <ele>259</ele>
        <time>2019-11-20T11:03:39Z</time>
      </trkpt>
      <trkpt lat="43.21379" lon="5.57692">
        <ele>260</ele>
        <time>2019-11-20T11:03:47Z</time>
      </trkpt>
      <trkpt lat="43.21384" lon="5.57689">
        <ele>259</ele>
        <time>2019-11-20T11:03:53Z</time>
      </trkpt>
      <trkpt lat="43.21389" lon="5.57686">
        <ele>260</ele>
        <time>2019-11-20T11:03:59Z</time>
      </trkpt>
      <trkpt lat="43.21395" lon="5.57682">
        <ele>260</ele>
        <time>2019-11-20T11:04:05Z</time>
      </trkpt>
      <trkpt lat="43.21401" lon="5.57679">
        <ele>259</ele>
        <time>2019-11-20T11:04:11Z</time>
      </trkpt>
      <trkpt lat="43.21407" lon="5.57676">
        <ele>259</ele>
        <time>2019-11-20T11:04:17Z</time>
      </trkpt>
      <trkpt lat="43.21413" lon="5.57672">
        <ele>259</ele>
        <time>2019-11-20T11:04:23Z</time>
      </trkpt>
      <trkpt lat="43.21418" lon="5.57671">
        <ele>258</ele>
        <time>2019-11-20T11:04:29Z</time>
      </trkpt>
      <trkpt lat="43.21423" lon="5.5767">
        <ele>257</ele>
        <time>2019-11-20T11:04:37Z</time>
      </trkpt>
      <trkpt lat="43.21429" lon="5.57667">
        <ele>253</ele>
        <time>2019-11-20T11:04:45Z</time>
      </trkpt>
      <trkpt lat="43.21434" lon="5.57666">
        <ele>251</ele>
        <time>2019-11-20T11:04:51Z</time>
      </trkpt>
      <trkpt lat="43.2144" lon="5.57666">
        <ele>250</ele>
        <time>2019-11-20T11:04:57Z</time>
      </trkpt>
      <trkpt lat="43.21445" lon="5.57666">
        <ele>248</ele>
        <time>2019-11-20T11:05:05Z</time>
      </trkpt>
      <trkpt lat="43.21451" lon="5.57665">
        <ele>248</ele>
        <time>2019-11-20T11:05:11Z</time>
      </trkpt>
      <trkpt lat="43.21457" lon="5.57664">
        <ele>249</ele>
        <time>2019-11-20T11:05:15Z</time>
      </trkpt>
      <trkpt lat="43.21463" lon="5.57662">
        <ele>250</ele>
        <time>2019-11-20T11:05:19Z</time>
      </trkpt>
      <trkpt lat="43.2147" lon="5.57659">
        <ele>252</ele>
        <time>2019-11-20T11:05:23Z</time>
      </trkpt>
      <trkpt lat="43.21474" lon="5.57656">
        <ele>251</ele>
        <time>2019-11-20T11:05:27Z</time>
      </trkpt>
      <trkpt lat="43.21478" lon="5.57652">
        <ele>250</ele>
        <time>2019-11-20T11:05:31Z</time>
      </trkpt>
      <trkpt lat="43.21483" lon="5.57646">
        <ele>250</ele>
        <time>2019-11-20T11:05:37Z</time>
      </trkpt>
      <trkpt lat="43.21487" lon="5.5764">
        <ele>251</ele>
        <time>2019-11-20T11:05:43Z</time>
      </trkpt>
      <trkpt lat="43.21491" lon="5.57636">
        <ele>252</ele>
        <time>2019-11-20T11:05:47Z</time>
      </trkpt>
      <trkpt lat="43.21494" lon="5.57632">
        <ele>253</ele>
        <time>2019-11-20T11:05:51Z</time>
      </trkpt>
      <trkpt lat="43.21499" lon="5.57626">
        <ele>255</ele>
        <time>2019-11-20T11:05:57Z</time>
      </trkpt>
      <trkpt lat="43.21502" lon="5.5762">
        <ele>257</ele>
        <time>2019-11-20T11:06:03Z</time>
      </trkpt>
      <trkpt lat="43.21506" lon="5.57615">
        <ele>257</ele>
        <time>2019-11-20T11:06:09Z</time>
      </trkpt>
      <trkpt lat="43.2151" lon="5.57608">
        <ele>259</ele>
        <time>2019-11-20T11:06:15Z</time>
      </trkpt>
      <trkpt lat="43.21513" lon="5.57602">
        <ele>258</ele>
        <time>2019-11-20T11:06:21Z</time>
      </trkpt>
      <trkpt lat="43.21516" lon="5.57596">
        <ele>257</ele>
        <time>2019-11-20T11:06:27Z</time>
      </trkpt>
      <trkpt lat="43.2152" lon="5.57589">
        <ele>257</ele>
        <time>2019-11-20T11:06:37Z</time>
      </trkpt>
      <trkpt lat="43.21524" lon="5.57582">
        <ele>258</ele>
        <time>2019-11-20T11:06:43Z</time>
      </trkpt>
      <trkpt lat="43.21527" lon="5.57574">
        <ele>258</ele>
        <time>2019-11-20T11:06:49Z</time>
      </trkpt>
      <trkpt lat="43.21529" lon="5.57569">
        <ele>259</ele>
        <time>2019-11-20T11:06:53Z</time>
      </trkpt>
      <trkpt lat="43.21533" lon="5.57564">
        <ele>259</ele>
        <time>2019-11-20T11:06:59Z</time>
      </trkpt>
      <trkpt lat="43.21538" lon="5.57558">
        <ele>260</ele>
        <time>2019-11-20T11:07:05Z</time>
      </trkpt>
      <trkpt lat="43.21543" lon="5.57553">
        <ele>261</ele>
        <time>2019-11-20T11:07:11Z</time>
      </trkpt>
      <trkpt lat="43.21546" lon="5.57547">
        <ele>261</ele>
        <time>2019-11-20T11:07:15Z</time>
      </trkpt>
      <trkpt lat="43.21551" lon="5.57542">
        <ele>260</ele>
        <time>2019-11-20T11:07:21Z</time>
      </trkpt>
      <trkpt lat="43.21556" lon="5.57538">
        <ele>261</ele>
        <time>2019-11-20T11:07:27Z</time>
      </trkpt>
      <trkpt lat="43.2156" lon="5.57534">
        <ele>260</ele>
        <time>2019-11-20T11:07:33Z</time>
      </trkpt>
      <trkpt lat="43.21565" lon="5.5753">
        <ele>261</ele>
        <time>2019-11-20T11:07:39Z</time>
      </trkpt>
      <trkpt lat="43.21569" lon="5.57526">
        <ele>263</ele>
        <time>2019-11-20T11:07:43Z</time>
      </trkpt>
      <trkpt lat="43.21574" lon="5.5752">
        <ele>262</ele>
        <time>2019-11-20T11:07:49Z</time>
      </trkpt>
      <trkpt lat="43.21578" lon="5.57515">
        <ele>263</ele>
        <time>2019-11-20T11:07:55Z</time>
      </trkpt>
      <trkpt lat="43.21582" lon="5.57511">
        <ele>261</ele>
        <time>2019-11-20T11:08:01Z</time>
      </trkpt>
      <trkpt lat="43.21586" lon="5.57506">
        <ele>261</ele>
        <time>2019-11-20T11:08:07Z</time>
      </trkpt>
      <trkpt lat="43.21591" lon="5.57501">
        <ele>261</ele>
        <time>2019-11-20T11:08:13Z</time>
      </trkpt>
      <trkpt lat="43.21594" lon="5.57495">
        <ele>262</ele>
        <time>2019-11-20T11:08:19Z</time>
      </trkpt>
      <trkpt lat="43.21598" lon="5.57491">
        <ele>264</ele>
        <time>2019-11-20T11:08:25Z</time>
      </trkpt>
      <trkpt lat="43.21603" lon="5.57487">
        <ele>264</ele>
        <time>2019-11-20T11:08:31Z</time>
      </trkpt>
      <trkpt lat="43.21607" lon="5.57483">
        <ele>266</ele>
        <time>2019-11-20T11:08:35Z</time>
      </trkpt>
      <trkpt lat="43.2161" lon="5.57478">
        <ele>266</ele>
        <time>2019-11-20T11:08:41Z</time>
      </trkpt>
      <trkpt lat="43.21615" lon="5.57472">
        <ele>268</ele>
        <time>2019-11-20T11:08:47Z</time>
      </trkpt>
      <trkpt lat="43.21619" lon="5.57466">
        <ele>270</ele>
        <time>2019-11-20T11:08:53Z</time>
      </trkpt>
      <trkpt lat="43.21622" lon="5.57458">
        <ele>270</ele>
        <time>2019-11-20T11:08:59Z</time>
      </trkpt>
      <trkpt lat="43.21625" lon="5.57451">
        <ele>270</ele>
        <time>2019-11-20T11:09:07Z</time>
      </trkpt>
      <trkpt lat="43.21628" lon="5.57442">
        <ele>271</ele>
        <time>2019-11-20T11:09:13Z</time>
      </trkpt>
      <trkpt lat="43.21631" lon="5.57435">
        <ele>269</ele>
        <time>2019-11-20T11:09:19Z</time>
      </trkpt>
      <trkpt lat="43.21634" lon="5.57429">
        <ele>269</ele>
        <time>2019-11-20T11:09:25Z</time>
      </trkpt>
      <trkpt lat="43.21636" lon="5.57422">
        <ele>269</ele>
        <time>2019-11-20T11:09:31Z</time>
      </trkpt>
      <trkpt lat="43.21639" lon="5.57414">
        <ele>272</ele>
        <time>2019-11-20T11:09:37Z</time>
      </trkpt>
      <trkpt lat="43.21642" lon="5.57407">
        <ele>271</ele>
        <time>2019-11-20T11:09:43Z</time>
      </trkpt>
      <trkpt lat="43.21645" lon="5.574">
        <ele>273</ele>
        <time>2019-11-20T11:09:49Z</time>
      </trkpt>
      <trkpt lat="43.21647" lon="5.57393">
        <ele>273</ele>
        <time>2019-11-20T11:09:55Z</time>
      </trkpt>
      <trkpt lat="43.21649" lon="5.57385">
        <ele>273</ele>
        <time>2019-11-20T11:10:01Z</time>
      </trkpt>
      <trkpt lat="43.21651" lon="5.57378">
        <ele>270</ele>
        <time>2019-11-20T11:10:07Z</time>
      </trkpt>
      <trkpt lat="43.21654" lon="5.57372">
        <ele>271</ele>
        <time>2019-11-20T11:10:13Z</time>
      </trkpt>
      <trkpt lat="43.21657" lon="5.57365">
        <ele>274</ele>
        <time>2019-11-20T11:10:19Z</time>
      </trkpt>
      <trkpt lat="43.2166" lon="5.57358">
        <ele>273</ele>
        <time>2019-11-20T11:10:25Z</time>
      </trkpt>
      <trkpt lat="43.21663" lon="5.57351">
        <ele>276</ele>
        <time>2019-11-20T11:10:31Z</time>
      </trkpt>
      <trkpt lat="43.21667" lon="5.57344">
        <ele>278</ele>
        <time>2019-11-20T11:10:37Z</time>
      </trkpt>
      <trkpt lat="43.21671" lon="5.57338">
        <ele>279</ele>
        <time>2019-11-20T11:10:43Z</time>
      </trkpt>
      <trkpt lat="43.21674" lon="5.57332">
        <ele>279</ele>
        <time>2019-11-20T11:10:49Z</time>
      </trkpt>
      <trkpt lat="43.21677" lon="5.57326">
        <ele>278</ele>
        <time>2019-11-20T11:10:55Z</time>
      </trkpt>
      <trkpt lat="43.2168" lon="5.57321">
        <ele>280</ele>
        <time>2019-11-20T11:10:59Z</time>
      </trkpt>
      <trkpt lat="43.21682" lon="5.57313">
        <ele>278</ele>
        <time>2019-11-20T11:11:05Z</time>
      </trkpt>
      <trkpt lat="43.21684" lon="5.57307">
        <ele>280</ele>
        <time>2019-11-20T11:11:11Z</time>
      </trkpt>
      <trkpt lat="43.21685" lon="5.57301">
        <ele>280</ele>
        <time>2019-11-20T11:11:15Z</time>
      </trkpt>
      <trkpt lat="43.21688" lon="5.57295">
        <ele>280</ele>
        <time>2019-11-20T11:11:21Z</time>
      </trkpt>
      <trkpt lat="43.21689" lon="5.57288">
        <ele>282</ele>
        <time>2019-11-20T11:11:25Z</time>
      </trkpt>
      <trkpt lat="43.21691" lon="5.57282">
        <ele>281</ele>
        <time>2019-11-20T11:11:31Z</time>
      </trkpt>
      <trkpt lat="43.21693" lon="5.57275">
        <ele>281</ele>
        <time>2019-11-20T11:11:37Z</time>
      </trkpt>
      <trkpt lat="43.21695" lon="5.57268">
        <ele>279</ele>
        <time>2019-11-20T11:11:43Z</time>
      </trkpt>
      <trkpt lat="43.21699" lon="5.57263">
        <ele>280</ele>
        <time>2019-11-20T11:11:49Z</time>
      </trkpt>
      <trkpt lat="43.21702" lon="5.57257">
        <ele>281</ele>
        <time>2019-11-20T11:11:55Z</time>
      </trkpt>
      <trkpt lat="43.21705" lon="5.57251">
        <ele>281</ele>
        <time>2019-11-20T11:12:03Z</time>
      </trkpt>
      <trkpt lat="43.21708" lon="5.57245">
        <ele>279</ele>
        <time>2019-11-20T11:12:09Z</time>
      </trkpt>
      <trkpt lat="43.21712" lon="5.57239">
        <ele>282</ele>
        <time>2019-11-20T11:12:15Z</time>
      </trkpt>
      <trkpt lat="43.21717" lon="5.57234">
        <ele>284</ele>
        <time>2019-11-20T11:12:21Z</time>
      </trkpt>
      <trkpt lat="43.21722" lon="5.5723">
        <ele>285</ele>
        <time>2019-11-20T11:12:27Z</time>
      </trkpt>
      <trkpt lat="43.21727" lon="5.57226">
        <ele>285</ele>
        <time>2019-11-20T11:12:33Z</time>
      </trkpt>
      <trkpt lat="43.21732" lon="5.57221">
        <ele>288</ele>
        <time>2019-11-20T11:12:39Z</time>
      </trkpt>
      <trkpt lat="43.21736" lon="5.57216">
        <ele>286</ele>
        <time>2019-11-20T11:12:47Z</time>
      </trkpt>
      <trkpt lat="43.21741" lon="5.57212">
        <ele>286</ele>
        <time>2019-11-20T11:12:53Z</time>
      </trkpt>
      <trkpt lat="43.21743" lon="5.57207">
        <ele>286</ele>
        <time>2019-11-20T11:12:57Z</time>
      </trkpt>
      <trkpt lat="43.21746" lon="5.57201">
        <ele>287</ele>
        <time>2019-11-20T11:13:01Z</time>
      </trkpt>
      <trkpt lat="43.21749" lon="5.57194">
        <ele>288</ele>
        <time>2019-11-20T11:13:07Z</time>
      </trkpt>
      <trkpt lat="43.21752" lon="5.57187">
        <ele>290</ele>
        <time>2019-11-20T11:13:13Z</time>
      </trkpt>
      <trkpt lat="43.21755" lon="5.5718">
        <ele>292</ele>
        <time>2019-11-20T11:13:19Z</time>
      </trkpt>
      <trkpt lat="43.21758" lon="5.57173">
        <ele>290</ele>
        <time>2019-11-20T11:13:25Z</time>
      </trkpt>
      <trkpt lat="43.21761" lon="5.57166">
        <ele>293</ele>
        <time>2019-11-20T11:13:31Z</time>
      </trkpt>
      <trkpt lat="43.21764" lon="5.5716">
        <ele>294</ele>
        <time>2019-11-20T11:13:37Z</time>
      </trkpt>
      <trkpt lat="43.21768" lon="5.57153">
        <ele>296</ele>
        <time>2019-11-20T11:13:45Z</time>
      </trkpt>
      <trkpt lat="43.2177" lon="5.57147">
        <ele>296</ele>
        <time>2019-11-20T11:13:49Z</time>
      </trkpt>
      <trkpt lat="43.21772" lon="5.57141">
        <ele>297</ele>
        <time>2019-11-20T11:13:55Z</time>
      </trkpt>
      <trkpt lat="43.21775" lon="5.57133">
        <ele>297</ele>
        <time>2019-11-20T11:14:01Z</time>
      </trkpt>
      <trkpt lat="43.21776" lon="5.57127">
        <ele>294</ele>
        <time>2019-11-20T11:14:09Z</time>
      </trkpt>
      <trkpt lat="43.21776" lon="5.57118">
        <ele>295</ele>
        <time>2019-11-20T11:14:17Z</time>
      </trkpt>
      <trkpt lat="43.21774" lon="5.57112">
        <ele>294</ele>
        <time>2019-11-20T11:14:21Z</time>
      </trkpt>
      <trkpt lat="43.21771" lon="5.57107">
        <ele>296</ele>
        <time>2019-11-20T11:14:27Z</time>
      </trkpt>
      <trkpt lat="43.21767" lon="5.57102">
        <ele>297</ele>
        <time>2019-11-20T11:14:31Z</time>
      </trkpt>
      <trkpt lat="43.21762" lon="5.57098">
        <ele>297</ele>
        <time>2019-11-20T11:14:37Z</time>
      </trkpt>
      <trkpt lat="43.21759" lon="5.57092">
        <ele>297</ele>
        <time>2019-11-20T11:14:43Z</time>
      </trkpt>
      <trkpt lat="43.21758" lon="5.57086">
        <ele>299</ele>
        <time>2019-11-20T11:14:49Z</time>
      </trkpt>
      <trkpt lat="43.21756" lon="5.57079">
        <ele>298</ele>
        <time>2019-11-20T11:14:55Z</time>
      </trkpt>
      <trkpt lat="43.21759" lon="5.57073">
        <ele>299</ele>
        <time>2019-11-20T11:15:03Z</time>
      </trkpt>
      <trkpt lat="43.21763" lon="5.57067">
        <ele>298</ele>
        <time>2019-11-20T11:15:11Z</time>
      </trkpt>
      <trkpt lat="43.21768" lon="5.57063">
        <ele>301</ele>
        <time>2019-11-20T11:15:43Z</time>
      </trkpt>
      <trkpt lat="43.21772" lon="5.57059">
        <ele>301</ele>
        <time>2019-11-20T11:15:51Z</time>
      </trkpt>
      <trkpt lat="43.21767" lon="5.57059">
        <ele>299</ele>
        <time>2019-11-20T11:16:23Z</time>
      </trkpt>
      <trkpt lat="43.21771" lon="5.57065">
        <ele>305</ele>
        <time>2019-11-20T11:17:27Z</time>
      </trkpt>
      <trkpt lat="43.21771" lon="5.57058">
        <ele>302</ele>
        <time>2019-11-20T11:17:55Z</time>
      </trkpt>
      <trkpt lat="43.21766" lon="5.5706">
        <ele>296</ele>
        <time>2019-11-20T11:18:09Z</time>
      </trkpt>
      <trkpt lat="43.21764" lon="5.57067">
        <ele>291</ele>
        <time>2019-11-20T11:20:23Z</time>
      </trkpt>
      <trkpt lat="43.21761" lon="5.57072">
        <ele>292</ele>
        <time>2019-11-20T11:20:29Z</time>
      </trkpt>
      <trkpt lat="43.21758" lon="5.57078">
        <ele>292</ele>
        <time>2019-11-20T11:20:35Z</time>
      </trkpt>
      <trkpt lat="43.21753" lon="5.57079">
        <ele>292</ele>
        <time>2019-11-20T11:20:41Z</time>
      </trkpt>
      <trkpt lat="43.21747" lon="5.57077">
        <ele>295</ele>
        <time>2019-11-20T11:20:47Z</time>
      </trkpt>
      <trkpt lat="43.21742" lon="5.57074">
        <ele>298</ele>
        <time>2019-11-20T11:20:51Z</time>
      </trkpt>
      <trkpt lat="43.21736" lon="5.57071">
        <ele>299</ele>
        <time>2019-11-20T11:20:57Z</time>
      </trkpt>
      <trkpt lat="43.21731" lon="5.5707">
        <ele>299</ele>
        <time>2019-11-20T11:21:01Z</time>
      </trkpt>
      <trkpt lat="43.21726" lon="5.57069">
        <ele>298</ele>
        <time>2019-11-20T11:21:05Z</time>
      </trkpt>
      <trkpt lat="43.21721" lon="5.57068">
        <ele>300</ele>
        <time>2019-11-20T11:21:13Z</time>
      </trkpt>
      <trkpt lat="43.21717" lon="5.57064">
        <ele>300</ele>
        <time>2019-11-20T11:21:27Z</time>
      </trkpt>
      <trkpt lat="43.21715" lon="5.57057">
        <ele>301</ele>
        <time>2019-11-20T11:21:47Z</time>
      </trkpt>
      <trkpt lat="43.21712" lon="5.57053">
        <ele>303</ele>
        <time>2019-11-20T11:21:55Z</time>
      </trkpt>
      <trkpt lat="43.21708" lon="5.57049">
        <ele>303</ele>
        <time>2019-11-20T11:22:03Z</time>
      </trkpt>
      <trkpt lat="43.21705" lon="5.57045">
        <ele>302</ele>
        <time>2019-11-20T11:22:11Z</time>
      </trkpt>
      <trkpt lat="43.21701" lon="5.57039">
        <ele>302</ele>
        <time>2019-11-20T11:22:17Z</time>
      </trkpt>
      <trkpt lat="43.21698" lon="5.57036">
        <ele>302</ele>
        <time>2019-11-20T11:22:25Z</time>
      </trkpt>
      <trkpt lat="43.21693" lon="5.57032">
        <ele>306</ele>
        <time>2019-11-20T11:22:35Z</time>
      </trkpt>
      <trkpt lat="43.21691" lon="5.57027">
        <ele>304</ele>
        <time>2019-11-20T11:22:45Z</time>
      </trkpt>
      <trkpt lat="43.2169" lon="5.57021">
        <ele>304</ele>
        <time>2019-11-20T11:22:57Z</time>
      </trkpt>
      <trkpt lat="43.21691" lon="5.57015">
        <ele>305</ele>
        <time>2019-11-20T11:23:03Z</time>
      </trkpt>
      <trkpt lat="43.21689" lon="5.57008">
        <ele>308</ele>
        <time>2019-11-20T11:23:13Z</time>
      </trkpt>
      <trkpt lat="43.21687" lon="5.57002">
        <ele>309</ele>
        <time>2019-11-20T11:23:19Z</time>
      </trkpt>
      <trkpt lat="43.21687" lon="5.56994">
        <ele>309</ele>
        <time>2019-11-20T11:23:27Z</time>
      </trkpt>
      <trkpt lat="43.21685" lon="5.56986">
        <ele>310</ele>
        <time>2019-11-20T11:23:35Z</time>
      </trkpt>
      <trkpt lat="43.21683" lon="5.56979">
        <ele>311</ele>
        <time>2019-11-20T11:23:43Z</time>
      </trkpt>
      <trkpt lat="43.21679" lon="5.56974">
        <ele>315</ele>
        <time>2019-11-20T11:23:51Z</time>
      </trkpt>
      <trkpt lat="43.21674" lon="5.56976">
        <ele>316</ele>
        <time>2019-11-20T11:23:59Z</time>
      </trkpt>
      <trkpt lat="43.2167" lon="5.56973">
        <ele>316</ele>
        <time>2019-11-20T11:24:09Z</time>
      </trkpt>
      <trkpt lat="43.21668" lon="5.56966">
        <ele>317</ele>
        <time>2019-11-20T11:24:17Z</time>
      </trkpt>
      <trkpt lat="43.21665" lon="5.56961">
        <ele>319</ele>
        <time>2019-11-20T11:24:25Z</time>
      </trkpt>
      <trkpt lat="43.21661" lon="5.56959">
        <ele>318</ele>
        <time>2019-11-20T11:24:45Z</time>
      </trkpt>
      <trkpt lat="43.21657" lon="5.56964">
        <ele>319</ele>
        <time>2019-11-20T11:24:53Z</time>
      </trkpt>
      <trkpt lat="43.21653" lon="5.56968">
        <ele>320</ele>
        <time>2019-11-20T11:25:03Z</time>
      </trkpt>
      <trkpt lat="43.2165" lon="5.56973">
        <ele>318</ele>
        <time>2019-11-20T11:25:09Z</time>
      </trkpt>
      <trkpt lat="43.21646" lon="5.56979">
        <ele>320</ele>
        <time>2019-11-20T11:25:19Z</time>
      </trkpt>
      <trkpt lat="43.21644" lon="5.56986">
        <ele>321</ele>
        <time>2019-11-20T11:25:25Z</time>
      </trkpt>
      <trkpt lat="43.21642" lon="5.56993">
        <ele>325</ele>
        <time>2019-11-20T11:25:33Z</time>
      </trkpt>
      <trkpt lat="43.21638" lon="5.56999">
        <ele>325</ele>
        <time>2019-11-20T11:25:41Z</time>
      </trkpt>
      <trkpt lat="43.21635" lon="5.57004">
        <ele>324</ele>
        <time>2019-11-20T11:25:47Z</time>
      </trkpt>
      <trkpt lat="43.21632" lon="5.57011">
        <ele>326</ele>
        <time>2019-11-20T11:25:55Z</time>
      </trkpt>
      <trkpt lat="43.21629" lon="5.57016">
        <ele>326</ele>
        <time>2019-11-20T11:26:01Z</time>
      </trkpt>
      <trkpt lat="43.21623" lon="5.5702">
        <ele>328</ele>
        <time>2019-11-20T11:26:11Z</time>
      </trkpt>
      <trkpt lat="43.21619" lon="5.57023">
        <ele>327</ele>
        <time>2019-11-20T11:26:19Z</time>
      </trkpt>
      <trkpt lat="43.21615" lon="5.57027">
        <ele>327</ele>
        <time>2019-11-20T11:26:29Z</time>
      </trkpt>
      <trkpt lat="43.21611" lon="5.57031">
        <ele>328</ele>
        <time>2019-11-20T11:26:35Z</time>
      </trkpt>
      <trkpt lat="43.21606" lon="5.57034">
        <ele>326</ele>
        <time>2019-11-20T11:26:41Z</time>
      </trkpt>
      <trkpt lat="43.21601" lon="5.57037">
        <ele>328</ele>
        <time>2019-11-20T11:26:51Z</time>
      </trkpt>
      <trkpt lat="43.21597" lon="5.57042">
        <ele>331</ele>
        <time>2019-11-20T11:26:59Z</time>
      </trkpt>
      <trkpt lat="43.21593" lon="5.57046">
        <ele>334</ele>
        <time>2019-11-20T11:27:07Z</time>
      </trkpt>
      <trkpt lat="43.21588" lon="5.57049">
        <ele>335</ele>
        <time>2019-11-20T11:27:15Z</time>
      </trkpt>
      <trkpt lat="43.21583" lon="5.57052">
        <ele>335</ele>
        <time>2019-11-20T11:27:23Z</time>
      </trkpt>
      <trkpt lat="43.21578" lon="5.57057">
        <ele>336</ele>
        <time>2019-11-20T11:27:29Z</time>
      </trkpt>
      <trkpt lat="43.21574" lon="5.5706">
        <ele>337</ele>
        <time>2019-11-20T11:27:35Z</time>
      </trkpt>
      <trkpt lat="43.21569" lon="5.57059">
        <ele>339</ele>
        <time>2019-11-20T11:27:45Z</time>
      </trkpt>
      <trkpt lat="43.21571" lon="5.57052">
        <ele>339</ele>
        <time>2019-11-20T11:28:27Z</time>
      </trkpt>
      <trkpt lat="43.21574" lon="5.57046">
        <ele>339</ele>
        <time>2019-11-20T11:28:37Z</time>
      </trkpt>
      <trkpt lat="43.21576" lon="5.5704">
        <ele>342</ele>
        <time>2019-11-20T11:30:35Z</time>
      </trkpt>
      <trkpt lat="43.21579" lon="5.57034">
        <ele>342</ele>
        <time>2019-11-20T11:30:43Z</time>
      </trkpt>
      <trkpt lat="43.21581" lon="5.57027">
        <ele>341</ele>
        <time>2019-11-20T11:30:51Z</time>
      </trkpt>
      <trkpt lat="43.21584" lon="5.57021">
        <ele>340</ele>
        <time>2019-11-20T11:31:01Z</time>
      </trkpt>
      <trkpt lat="43.21586" lon="5.57015">
        <ele>341</ele>
        <time>2019-11-20T11:31:07Z</time>
      </trkpt>
      <trkpt lat="43.21586" lon="5.57009">
        <ele>340</ele>
        <time>2019-11-20T11:31:13Z</time>
      </trkpt>
      <trkpt lat="43.21588" lon="5.57001">
        <ele>341</ele>
        <time>2019-11-20T11:31:21Z</time>
      </trkpt>
      <trkpt lat="43.21589" lon="5.56995">
        <ele>341</ele>
        <time>2019-11-20T11:31:27Z</time>
      </trkpt>
      <trkpt lat="43.2159" lon="5.56987">
        <ele>342</ele>
        <time>2019-11-20T11:31:33Z</time>
      </trkpt>
      <trkpt lat="43.21591" lon="5.56981">
        <ele>342</ele>
        <time>2019-11-20T11:31:39Z</time>
      </trkpt>
      <trkpt lat="43.21593" lon="5.56974">
        <ele>343</ele>
        <time>2019-11-20T11:31:45Z</time>
      </trkpt>
      <trkpt lat="43.21593" lon="5.56966">
        <ele>343</ele>
        <time>2019-11-20T11:31:53Z</time>
      </trkpt>
      <trkpt lat="43.21593" lon="5.56959">
        <ele>343</ele>
        <time>2019-11-20T11:31:59Z</time>
      </trkpt>
      <trkpt lat="43.21593" lon="5.56952">
        <ele>344</ele>
        <time>2019-11-20T11:32:05Z</time>
      </trkpt>
      <trkpt lat="43.21593" lon="5.56945">
        <ele>344</ele>
        <time>2019-11-20T11:32:11Z</time>
      </trkpt>
      <trkpt lat="43.21592" lon="5.56939">
        <ele>344</ele>
        <time>2019-11-20T11:32:17Z</time>
      </trkpt>
      <trkpt lat="43.21592" lon="5.56931">
        <ele>346</ele>
        <time>2019-11-20T11:32:23Z</time>
      </trkpt>
      <trkpt lat="43.21592" lon="5.56925">
        <ele>346</ele>
        <time>2019-11-20T11:32:29Z</time>
      </trkpt>
      <trkpt lat="43.21591" lon="5.56918">
        <ele>347</ele>
        <time>2019-11-20T11:32:35Z</time>
      </trkpt>
      <trkpt lat="43.2159" lon="5.56911">
        <ele>347</ele>
        <time>2019-11-20T11:32:41Z</time>
      </trkpt>
      <trkpt lat="43.21589" lon="5.56902">
        <ele>347</ele>
        <time>2019-11-20T11:32:47Z</time>
      </trkpt>
      <trkpt lat="43.21586" lon="5.56896">
        <ele>346</ele>
        <time>2019-11-20T11:32:53Z</time>
      </trkpt>
      <trkpt lat="43.21584" lon="5.5689">
        <ele>346</ele>
        <time>2019-11-20T11:32:59Z</time>
      </trkpt>
      <trkpt lat="43.21582" lon="5.56883">
        <ele>348</ele>
        <time>2019-11-20T11:33:05Z</time>
      </trkpt>
      <trkpt lat="43.21579" lon="5.56877">
        <ele>352</ele>
        <time>2019-11-20T11:33:09Z</time>
      </trkpt>
      <trkpt lat="43.21576" lon="5.56871">
        <ele>353</ele>
        <time>2019-11-20T11:33:13Z</time>
      </trkpt>
      <trkpt lat="43.21572" lon="5.56865">
        <ele>353</ele>
        <time>2019-11-20T11:33:17Z</time>
      </trkpt>
      <trkpt lat="43.21568" lon="5.56858">
        <ele>353</ele>
        <time>2019-11-20T11:33:23Z</time>
      </trkpt>
      <trkpt lat="43.21564" lon="5.56851">
        <ele>353</ele>
        <time>2019-11-20T11:33:29Z</time>
      </trkpt>
      <trkpt lat="43.21562" lon="5.56845">
        <ele>353</ele>
        <time>2019-11-20T11:33:35Z</time>
      </trkpt>
      <trkpt lat="43.21558" lon="5.56838">
        <ele>352</ele>
        <time>2019-11-20T11:33:43Z</time>
      </trkpt>
      <trkpt lat="43.21554" lon="5.56833">
        <ele>353</ele>
        <time>2019-11-20T11:33:47Z</time>
      </trkpt>
      <trkpt lat="43.2155" lon="5.56828">
        <ele>353</ele>
        <time>2019-11-20T11:33:51Z</time>
      </trkpt>
      <trkpt lat="43.21548" lon="5.56823">
        <ele>352</ele>
        <time>2019-11-20T11:33:55Z</time>
      </trkpt>
      <trkpt lat="43.21545" lon="5.56818">
        <ele>352</ele>
        <time>2019-11-20T11:33:59Z</time>
      </trkpt>
      <trkpt lat="43.2154" lon="5.56812">
        <ele>353</ele>
        <time>2019-11-20T11:34:05Z</time>
      </trkpt>
      <trkpt lat="43.21536" lon="5.56807">
        <ele>350</ele>
        <time>2019-11-20T11:34:11Z</time>
      </trkpt>
      <trkpt lat="43.2153" lon="5.56801">
        <ele>352</ele>
        <time>2019-11-20T11:34:17Z</time>
      </trkpt>
      <trkpt lat="43.21527" lon="5.56797">
        <ele>352</ele>
        <time>2019-11-20T11:34:21Z</time>
      </trkpt>
      <trkpt lat="43.21524" lon="5.56792">
        <ele>353</ele>
        <time>2019-11-20T11:34:25Z</time>
      </trkpt>
      <trkpt lat="43.2152" lon="5.56788">
        <ele>353</ele>
        <time>2019-11-20T11:34:29Z</time>
      </trkpt>
      <trkpt lat="43.21515" lon="5.56785">
        <ele>354</ele>
        <time>2019-11-20T11:34:33Z</time>
      </trkpt>
      <trkpt lat="43.2151" lon="5.56781">
        <ele>355</ele>
        <time>2019-11-20T11:34:37Z</time>
      </trkpt>
      <trkpt lat="43.21507" lon="5.56777">
        <ele>356</ele>
        <time>2019-11-20T11:34:41Z</time>
      </trkpt>
      <trkpt lat="43.21503" lon="5.56774">
        <ele>356</ele>
        <time>2019-11-20T11:34:45Z</time>
      </trkpt>
      <trkpt lat="43.21499" lon="5.5677">
        <ele>357</ele>
        <time>2019-11-20T11:34:49Z</time>
      </trkpt>
      <trkpt lat="43.21495" lon="5.56767">
        <ele>357</ele>
        <time>2019-11-20T11:34:53Z</time>
      </trkpt>
      <trkpt lat="43.2149" lon="5.56761">
        <ele>360</ele>
        <time>2019-11-20T11:34:59Z</time>
      </trkpt>
      <trkpt lat="43.21486" lon="5.56758">
        <ele>359</ele>
        <time>2019-11-20T11:35:03Z</time>
      </trkpt>
      <trkpt lat="43.21482" lon="5.56754">
        <ele>360</ele>
        <time>2019-11-20T11:35:07Z</time>
      </trkpt>
      <trkpt lat="43.21478" lon="5.56747">
        <ele>360</ele>
        <time>2019-11-20T11:35:13Z</time>
      </trkpt>
      <trkpt lat="43.21474" lon="5.56741">
        <ele>359</ele>
        <time>2019-11-20T11:35:19Z</time>
      </trkpt>
      <trkpt lat="43.21468" lon="5.56737">
        <ele>358</ele>
        <time>2019-11-20T11:35:25Z</time>
      </trkpt>
      <trkpt lat="43.21465" lon="5.5673">
        <ele>358</ele>
        <time>2019-11-20T11:35:31Z</time>
      </trkpt>
      <trkpt lat="43.21462" lon="5.56724">
        <ele>358</ele>
        <time>2019-11-20T11:35:35Z</time>
      </trkpt>
      <trkpt lat="43.21461" lon="5.56716">
        <ele>357</ele>
        <time>2019-11-20T11:35:41Z</time>
      </trkpt>
      <trkpt lat="43.21459" lon="5.5671">
        <ele>358</ele>
        <time>2019-11-20T11:35:45Z</time>
      </trkpt>
      <trkpt lat="43.21456" lon="5.56703">
        <ele>357</ele>
        <time>2019-11-20T11:35:51Z</time>
      </trkpt>
      <trkpt lat="43.21456" lon="5.56693">
        <ele>358</ele>
        <time>2019-11-20T11:35:57Z</time>
      </trkpt>
      <trkpt lat="43.21456" lon="5.56687">
        <ele>357</ele>
        <time>2019-11-20T11:36:01Z</time>
      </trkpt>
      <trkpt lat="43.21456" lon="5.5668">
        <ele>357</ele>
        <time>2019-11-20T11:36:05Z</time>
      </trkpt>
      <trkpt lat="43.21455" lon="5.56671">
        <ele>355</ele>
        <time>2019-11-20T11:36:13Z</time>
      </trkpt>
      <trkpt lat="43.21455" lon="5.56663">
        <ele>356</ele>
        <time>2019-11-20T11:36:17Z</time>
      </trkpt>
      <trkpt lat="43.21456" lon="5.56655">
        <ele>358</ele>
        <time>2019-11-20T11:36:23Z</time>
      </trkpt>
      <trkpt lat="43.21457" lon="5.56646">
        <ele>357</ele>
        <time>2019-11-20T11:36:29Z</time>
      </trkpt>
      <trkpt lat="43.21459" lon="5.56638">
        <ele>358</ele>
        <time>2019-11-20T11:36:37Z</time>
      </trkpt>
      <trkpt lat="43.21459" lon="5.56632">
        <ele>363</ele>
        <time>2019-11-20T11:36:39Z</time>
      </trkpt>
      <trkpt lat="43.2146" lon="5.56624">
        <ele>362</ele>
        <time>2019-11-20T11:36:43Z</time>
      </trkpt>
      <trkpt lat="43.2146" lon="5.56617">
        <ele>361</ele>
        <time>2019-11-20T11:36:47Z</time>
      </trkpt>
      <trkpt lat="43.2146" lon="5.5661">
        <ele>363</ele>
        <time>2019-11-20T11:36:51Z</time>
      </trkpt>
      <trkpt lat="43.21459" lon="5.56601">
        <ele>362</ele>
        <time>2019-11-20T11:36:57Z</time>
      </trkpt>
      <trkpt lat="43.21458" lon="5.56595">
        <ele>362</ele>
        <time>2019-11-20T11:37:01Z</time>
      </trkpt>
      <trkpt lat="43.21456" lon="5.56588">
        <ele>361</ele>
        <time>2019-11-20T11:37:07Z</time>
      </trkpt>
      <trkpt lat="43.21455" lon="5.56581">
        <ele>361</ele>
        <time>2019-11-20T11:37:13Z</time>
      </trkpt>
      <trkpt lat="43.21452" lon="5.56575">
        <ele>361</ele>
        <time>2019-11-20T11:37:19Z</time>
      </trkpt>
      <trkpt lat="43.2145" lon="5.56566">
        <ele>360</ele>
        <time>2019-11-20T11:37:25Z</time>
      </trkpt>
      <trkpt lat="43.21449" lon="5.56559">
        <ele>358</ele>
        <time>2019-11-20T11:37:31Z</time>
      </trkpt>
      <trkpt lat="43.21447" lon="5.56552">
        <ele>358</ele>
        <time>2019-11-20T11:37:37Z</time>
      </trkpt>
      <trkpt lat="43.21444" lon="5.56544">
        <ele>358</ele>
        <time>2019-11-20T11:37:43Z</time>
      </trkpt>
      <trkpt lat="43.21441" lon="5.56535">
        <ele>359</ele>
        <time>2019-11-20T11:37:49Z</time>
      </trkpt>
      <trkpt lat="43.2144" lon="5.56529">
        <ele>357</ele>
        <time>2019-11-20T11:37:55Z</time>
      </trkpt>
      <trkpt lat="43.21438" lon="5.56522">
        <ele>357</ele>
        <time>2019-11-20T11:38:01Z</time>
      </trkpt>
      <trkpt lat="43.21436" lon="5.56514">
        <ele>357</ele>
        <time>2019-11-20T11:38:07Z</time>
      </trkpt>
      <trkpt lat="43.21434" lon="5.56506">
        <ele>357</ele>
        <time>2019-11-20T11:38:11Z</time>
      </trkpt>
      <trkpt lat="43.21433" lon="5.565">
        <ele>358</ele>
        <time>2019-11-20T11:38:15Z</time>
      </trkpt>
      <trkpt lat="43.2143" lon="5.56493">
        <ele>358</ele>
        <time>2019-11-20T11:38:21Z</time>
      </trkpt>
      <trkpt lat="43.21427" lon="5.56485">
        <ele>358</ele>
        <time>2019-11-20T11:38:27Z</time>
      </trkpt>
      <trkpt lat="43.21424" lon="5.56478">
        <ele>359</ele>
        <time>2019-11-20T11:38:33Z</time>
      </trkpt>
      <trkpt lat="43.21421" lon="5.5647">
        <ele>359</ele>
        <time>2019-11-20T11:38:39Z</time>
      </trkpt>
      <trkpt lat="43.21417" lon="5.56465">
        <ele>358</ele>
        <time>2019-11-20T11:38:43Z</time>
      </trkpt>
      <trkpt lat="43.21412" lon="5.56461">
        <ele>358</ele>
        <time>2019-11-20T11:38:47Z</time>
      </trkpt>
      <trkpt lat="43.21408" lon="5.56458">
        <ele>358</ele>
        <time>2019-11-20T11:38:51Z</time>
      </trkpt>
      <trkpt lat="43.21403" lon="5.56456">
        <ele>358</ele>
        <time>2019-11-20T11:38:55Z</time>
      </trkpt>
      <trkpt lat="43.21399" lon="5.56452">
        <ele>358</ele>
        <time>2019-11-20T11:38:59Z</time>
      </trkpt>
      <trkpt lat="43.21396" lon="5.56446">
        <ele>358</ele>
        <time>2019-11-20T11:39:05Z</time>
      </trkpt>
      <trkpt lat="43.21393" lon="5.56438">
        <ele>359</ele>
        <time>2019-11-20T11:39:11Z</time>
      </trkpt>
      <trkpt lat="43.21391" lon="5.5643">
        <ele>359</ele>
        <time>2019-11-20T11:39:17Z</time>
      </trkpt>
      <trkpt lat="43.2139" lon="5.56422">
        <ele>357</ele>
        <time>2019-11-20T11:39:23Z</time>
      </trkpt>
      <trkpt lat="43.21388" lon="5.56414">
        <ele>356</ele>
        <time>2019-11-20T11:39:29Z</time>
      </trkpt>
      <trkpt lat="43.21386" lon="5.56406">
        <ele>357</ele>
        <time>2019-11-20T11:39:35Z</time>
      </trkpt>
      <trkpt lat="43.21384" lon="5.56398">
        <ele>357</ele>
        <time>2019-11-20T11:39:41Z</time>
      </trkpt>
      <trkpt lat="43.21382" lon="5.56391">
        <ele>358</ele>
        <time>2019-11-20T11:39:47Z</time>
      </trkpt>
      <trkpt lat="43.21381" lon="5.56384">
        <ele>357</ele>
        <time>2019-11-20T11:39:53Z</time>
      </trkpt>
      <trkpt lat="43.21381" lon="5.56378">
        <ele>358</ele>
        <time>2019-11-20T11:39:59Z</time>
      </trkpt>
      <trkpt lat="43.2138" lon="5.56371">
        <ele>358</ele>
        <time>2019-11-20T11:40:05Z</time>
      </trkpt>
      <trkpt lat="43.21379" lon="5.56362">
        <ele>357</ele>
        <time>2019-11-20T11:40:11Z</time>
      </trkpt>
      <trkpt lat="43.21378" lon="5.56354">
        <ele>358</ele>
        <time>2019-11-20T11:40:17Z</time>
      </trkpt>
      <trkpt lat="43.21377" lon="5.56345">
        <ele>358</ele>
        <time>2019-11-20T11:40:25Z</time>
      </trkpt>
      <trkpt lat="43.21377" lon="5.56338">
        <ele>356</ele>
        <time>2019-11-20T11:40:29Z</time>
      </trkpt>
      <trkpt lat="43.21376" lon="5.5633">
        <ele>356</ele>
        <time>2019-11-20T11:40:35Z</time>
      </trkpt>
      <trkpt lat="43.21375" lon="5.56322">
        <ele>357</ele>
        <time>2019-11-20T11:40:41Z</time>
      </trkpt>
      <trkpt lat="43.21374" lon="5.56316">
        <ele>356</ele>
        <time>2019-11-20T11:40:47Z</time>
      </trkpt>
      <trkpt lat="43.21373" lon="5.56308">
        <ele>356</ele>
        <time>2019-11-20T11:40:53Z</time>
      </trkpt>
      <trkpt lat="43.21372" lon="5.563">
        <ele>356</ele>
        <time>2019-11-20T11:40:59Z</time>
      </trkpt>
      <trkpt lat="43.21371" lon="5.56292">
        <ele>355</ele>
        <time>2019-11-20T11:41:05Z</time>
      </trkpt>
      <trkpt lat="43.21369" lon="5.56283">
        <ele>355</ele>
        <time>2019-11-20T11:41:11Z</time>
      </trkpt>
      <trkpt lat="43.21369" lon="5.56275">
        <ele>355</ele>
        <time>2019-11-20T11:41:17Z</time>
      </trkpt>
      <trkpt lat="43.21372" lon="5.56269">
        <ele>355</ele>
        <time>2019-11-20T11:41:23Z</time>
      </trkpt>
      <trkpt lat="43.21375" lon="5.56261">
        <ele>356</ele>
        <time>2019-11-20T11:41:29Z</time>
      </trkpt>
      <trkpt lat="43.21376" lon="5.56255">
        <ele>356</ele>
        <time>2019-11-20T11:41:35Z</time>
      </trkpt>
      <trkpt lat="43.21377" lon="5.56248">
        <ele>357</ele>
        <time>2019-11-20T11:41:41Z</time>
      </trkpt>
      <trkpt lat="43.21377" lon="5.56242">
        <ele>357</ele>
        <time>2019-11-20T11:41:47Z</time>
      </trkpt>
      <trkpt lat="43.2138" lon="5.56236">
        <ele>356</ele>
        <time>2019-11-20T11:42:05Z</time>
      </trkpt>
      <trkpt lat="43.21374" lon="5.56234">
        <ele>354</ele>
        <time>2019-11-20T11:42:31Z</time>
      </trkpt>
      <trkpt lat="43.21371" lon="5.56238">
        <ele>353</ele>
        <time>2019-11-20T11:42:47Z</time>
      </trkpt>
      <trkpt lat="43.21368" lon="5.56243">
        <ele>351</ele>
        <time>2019-11-20T11:43:01Z</time>
      </trkpt>
      <trkpt lat="43.21366" lon="5.56248">
        <ele>352</ele>
        <time>2019-11-20T11:43:07Z</time>
      </trkpt>
      <trkpt lat="43.21362" lon="5.56255">
        <ele>353</ele>
        <time>2019-11-20T11:43:13Z</time>
      </trkpt>
      <trkpt lat="43.21357" lon="5.56258">
        <ele>355</ele>
        <time>2019-11-20T11:43:19Z</time>
      </trkpt>
      <trkpt lat="43.21353" lon="5.56261">
        <ele>357</ele>
        <time>2019-11-20T11:43:31Z</time>
      </trkpt>
      <trkpt lat="43.21354" lon="5.56267">
        <ele>350</ele>
        <time>2019-11-20T11:43:49Z</time>
      </trkpt>
      <trkpt lat="43.21351" lon="5.56271">
        <ele>350</ele>
        <time>2019-11-20T11:44:01Z</time>
      </trkpt>
      <trkpt lat="43.21352" lon="5.56277">
        <ele>350</ele>
        <time>2019-11-20T11:44:19Z</time>
      </trkpt>
      <trkpt lat="43.21353" lon="5.56286">
        <ele>349</ele>
        <time>2019-11-20T11:44:31Z</time>
      </trkpt>
      <trkpt lat="43.21354" lon="5.56293">
        <ele>351</ele>
        <time>2019-11-20T11:44:39Z</time>
      </trkpt>
      <trkpt lat="43.21356" lon="5.56299">
        <ele>349</ele>
        <time>2019-11-20T11:44:51Z</time>
      </trkpt>
      <trkpt lat="43.21357" lon="5.56306">
        <ele>350</ele>
        <time>2019-11-20T11:44:59Z</time>
      </trkpt>
      <trkpt lat="43.21361" lon="5.56308">
        <ele>352</ele>
        <time>2019-11-20T11:45:11Z</time>
      </trkpt>
      <trkpt lat="43.21366" lon="5.56307">
        <ele>356</ele>
        <time>2019-11-20T11:45:17Z</time>
      </trkpt>
      <trkpt lat="43.21371" lon="5.56309">
        <ele>357</ele>
        <time>2019-11-20T11:45:31Z</time>
      </trkpt>
      <trkpt lat="43.21366" lon="5.56309">
        <ele>356</ele>
        <time>2019-11-20T11:46:09Z</time>
      </trkpt>
      <trkpt lat="43.21362" lon="5.56315">
        <ele>357</ele>
        <time>2019-11-20T11:46:15Z</time>
      </trkpt>
      <trkpt lat="43.21361" lon="5.56321">
        <ele>359</ele>
        <time>2019-11-20T11:46:21Z</time>
      </trkpt>
      <trkpt lat="43.21358" lon="5.56326">
        <ele>360</ele>
        <time>2019-11-20T11:46:33Z</time>
      </trkpt>
      <trkpt lat="43.21362" lon="5.5633">
        <ele>354</ele>
        <time>2019-11-20T11:47:31Z</time>
      </trkpt>
      <trkpt lat="43.21367" lon="5.56327">
        <ele>354</ele>
        <time>2019-11-20T12:39:57Z</time>
      </trkpt>
      <trkpt lat="43.21367" lon="5.5632">
        <ele>357</ele>
        <time>2019-11-20T12:40:09Z</time>
      </trkpt>
      <trkpt lat="43.21365" lon="5.56311">
        <ele>357</ele>
        <time>2019-11-20T12:40:17Z</time>
      </trkpt>
      <trkpt lat="43.21363" lon="5.56304">
        <ele>355</ele>
        <time>2019-11-20T12:40:25Z</time>
      </trkpt>
      <trkpt lat="43.21359" lon="5.563">
        <ele>354</ele>
        <time>2019-11-20T12:40:33Z</time>
      </trkpt>
      <trkpt lat="43.21354" lon="5.56299">
        <ele>354</ele>
        <time>2019-11-20T12:40:47Z</time>
      </trkpt>
      <trkpt lat="43.2135" lon="5.56303">
        <ele>354</ele>
        <time>2019-11-20T12:40:53Z</time>
      </trkpt>
      <trkpt lat="43.21347" lon="5.56309">
        <ele>353</ele>
        <time>2019-11-20T12:40:57Z</time>
      </trkpt>
      <trkpt lat="43.21343" lon="5.56312">
        <ele>350</ele>
        <time>2019-11-20T12:41:07Z</time>
      </trkpt>
      <trkpt lat="43.21338" lon="5.56309">
        <ele>348</ele>
        <time>2019-11-20T12:41:25Z</time>
      </trkpt>
      <trkpt lat="43.21337" lon="5.56304">
        <ele>351</ele>
        <time>2019-11-20T12:41:57Z</time>
      </trkpt>
      <trkpt lat="43.21335" lon="5.56297">
        <ele>347</ele>
        <time>2019-11-20T12:42:07Z</time>
      </trkpt>
      <trkpt lat="43.21333" lon="5.56291">
        <ele>347</ele>
        <time>2019-11-20T12:42:13Z</time>
      </trkpt>
      <trkpt lat="43.2133" lon="5.56284">
        <ele>349</ele>
        <time>2019-11-20T12:42:19Z</time>
      </trkpt>
      <trkpt lat="43.21328" lon="5.56278">
        <ele>347</ele>
        <time>2019-11-20T12:42:25Z</time>
      </trkpt>
      <trkpt lat="43.21325" lon="5.56271">
        <ele>346</ele>
        <time>2019-11-20T12:42:31Z</time>
      </trkpt>
      <trkpt lat="43.21322" lon="5.56266">
        <ele>346</ele>
        <time>2019-11-20T12:42:37Z</time>
      </trkpt>
      <trkpt lat="43.21319" lon="5.5626">
        <ele>344</ele>
        <time>2019-11-20T12:42:45Z</time>
      </trkpt>
      <trkpt lat="43.21315" lon="5.56256">
        <ele>344</ele>
        <time>2019-11-20T12:42:51Z</time>
      </trkpt>
      <trkpt lat="43.2131" lon="5.56249">
        <ele>346</ele>
        <time>2019-11-20T12:42:57Z</time>
      </trkpt>
      <trkpt lat="43.21306" lon="5.56243">
        <ele>346</ele>
        <time>2019-11-20T12:43:03Z</time>
      </trkpt>
      <trkpt lat="43.21303" lon="5.56239">
        <ele>345</ele>
        <time>2019-11-20T12:43:09Z</time>
      </trkpt>
      <trkpt lat="43.21298" lon="5.56236">
        <ele>347</ele>
        <time>2019-11-20T12:43:15Z</time>
      </trkpt>
      <trkpt lat="43.21294" lon="5.56232">
        <ele>346</ele>
        <time>2019-11-20T12:43:21Z</time>
      </trkpt>
      <trkpt lat="43.2129" lon="5.56228">
        <ele>346</ele>
        <time>2019-11-20T12:43:25Z</time>
      </trkpt>
      <trkpt lat="43.21286" lon="5.56225">
        <ele>346</ele>
        <time>2019-11-20T12:43:29Z</time>
      </trkpt>
      <trkpt lat="43.21281" lon="5.56221">
        <ele>345</ele>
        <time>2019-11-20T12:43:35Z</time>
      </trkpt>
      <trkpt lat="43.21276" lon="5.56218">
        <ele>344</ele>
        <time>2019-11-20T12:43:41Z</time>
      </trkpt>
      <trkpt lat="43.21271" lon="5.56214">
        <ele>343</ele>
        <time>2019-11-20T12:43:47Z</time>
      </trkpt>
      <trkpt lat="43.21267" lon="5.5621">
        <ele>342</ele>
        <time>2019-11-20T12:43:53Z</time>
      </trkpt>
      <trkpt lat="43.21262" lon="5.56209">
        <ele>340</ele>
        <time>2019-11-20T12:44:01Z</time>
      </trkpt>
      <trkpt lat="43.21256" lon="5.56205">
        <ele>339</ele>
        <time>2019-11-20T12:44:07Z</time>
      </trkpt>
      <trkpt lat="43.21251" lon="5.56201">
        <ele>339</ele>
        <time>2019-11-20T12:44:13Z</time>
      </trkpt>
      <trkpt lat="43.21246" lon="5.56198">
        <ele>340</ele>
        <time>2019-11-20T12:44:17Z</time>
      </trkpt>
      <trkpt lat="43.21241" lon="5.56196">
        <ele>339</ele>
        <time>2019-11-20T12:44:23Z</time>
      </trkpt>
      <trkpt lat="43.21237" lon="5.56195">
        <ele>340</ele>
        <time>2019-11-20T12:44:27Z</time>
      </trkpt>
      <trkpt lat="43.21232" lon="5.5619">
        <ele>340</ele>
        <time>2019-11-20T12:44:35Z</time>
      </trkpt>
      <trkpt lat="43.21227" lon="5.56188">
        <ele>342</ele>
        <time>2019-11-20T12:44:39Z</time>
      </trkpt>
      <trkpt lat="43.21222" lon="5.56185">
        <ele>343</ele>
        <time>2019-11-20T12:44:43Z</time>
      </trkpt>
      <trkpt lat="43.21218" lon="5.56181">
        <ele>343</ele>
        <time>2019-11-20T12:44:47Z</time>
      </trkpt>
      <trkpt lat="43.21213" lon="5.56179">
        <ele>343</ele>
        <time>2019-11-20T12:44:51Z</time>
      </trkpt>
      <trkpt lat="43.21209" lon="5.56178">
        <ele>343</ele>
        <time>2019-11-20T12:44:55Z</time>
      </trkpt>
      <trkpt lat="43.21204" lon="5.56178">
        <ele>342</ele>
        <time>2019-11-20T12:45:01Z</time>
      </trkpt>
      <trkpt lat="43.21199" lon="5.56174">
        <ele>341</ele>
        <time>2019-11-20T12:45:07Z</time>
      </trkpt>
      <trkpt lat="43.21195" lon="5.56168">
        <ele>340</ele>
        <time>2019-11-20T12:45:13Z</time>
      </trkpt>
      <trkpt lat="43.21189" lon="5.56165">
        <ele>341</ele>
        <time>2019-11-20T12:45:19Z</time>
      </trkpt>
      <trkpt lat="43.21183" lon="5.56165">
        <ele>344</ele>
        <time>2019-11-20T12:45:25Z</time>
      </trkpt>
      <trkpt lat="43.21177" lon="5.56166">
        <ele>343</ele>
        <time>2019-11-20T12:45:29Z</time>
      </trkpt>
      <trkpt lat="43.21171" lon="5.56165">
        <ele>344</ele>
        <time>2019-11-20T12:45:33Z</time>
      </trkpt>
      <trkpt lat="43.21164" lon="5.56165">
        <ele>343</ele>
        <time>2019-11-20T12:45:41Z</time>
      </trkpt>
      <trkpt lat="43.21156" lon="5.56166">
        <ele>346</ele>
        <time>2019-11-20T12:45:45Z</time>
      </trkpt>
      <trkpt lat="43.21153" lon="5.5617">
        <ele>346</ele>
        <time>2019-11-20T12:45:51Z</time>
      </trkpt>
      <trkpt lat="43.21149" lon="5.56173">
        <ele>347</ele>
        <time>2019-11-20T12:45:57Z</time>
      </trkpt>
      <trkpt lat="43.21144" lon="5.56176">
        <ele>349</ele>
        <time>2019-11-20T12:46:03Z</time>
      </trkpt>
      <trkpt lat="43.2114" lon="5.56181">
        <ele>352</ele>
        <time>2019-11-20T12:46:07Z</time>
      </trkpt>
      <trkpt lat="43.21136" lon="5.56185">
        <ele>353</ele>
        <time>2019-11-20T12:46:10Z</time>
      </trkpt>
      <trkpt lat="43.21131" lon="5.56189">
        <ele>353</ele>
        <time>2019-11-20T12:46:19Z</time>
      </trkpt>
      <trkpt lat="43.21129" lon="5.56195">
        <ele>356</ele>
        <time>2019-11-20T12:46:25Z</time>
      </trkpt>
      <trkpt lat="43.21125" lon="5.56201">
        <ele>359</ele>
        <time>2019-11-20T12:46:31Z</time>
      </trkpt>
      <trkpt lat="43.21122" lon="5.56208">
        <ele>357</ele>
        <time>2019-11-20T12:46:37Z</time>
      </trkpt>
      <trkpt lat="43.21119" lon="5.56214">
        <ele>356</ele>
        <time>2019-11-20T12:46:41Z</time>
      </trkpt>
      <trkpt lat="43.21116" lon="5.56221">
        <ele>355</ele>
        <time>2019-11-20T12:46:47Z</time>
      </trkpt>
      <trkpt lat="43.21115" lon="5.56228">
        <ele>358</ele>
        <time>2019-11-20T12:46:55Z</time>
      </trkpt>
      <trkpt lat="43.21114" lon="5.56235">
        <ele>359</ele>
        <time>2019-11-20T12:47:01Z</time>
      </trkpt>
      <trkpt lat="43.21113" lon="5.56245">
        <ele>358</ele>
        <time>2019-11-20T12:47:07Z</time>
      </trkpt>
      <trkpt lat="43.2111" lon="5.56251">
        <ele>362</ele>
        <time>2019-11-20T12:47:11Z</time>
      </trkpt>
      <trkpt lat="43.21104" lon="5.56256">
        <ele>363</ele>
        <time>2019-11-20T12:47:17Z</time>
      </trkpt>
      <trkpt lat="43.21106" lon="5.56265">
        <ele>358</ele>
        <time>2019-11-20T12:47:25Z</time>
      </trkpt>
      <trkpt lat="43.21106" lon="5.56274">
        <ele>353</ele>
        <time>2019-11-20T12:47:31Z</time>
      </trkpt>
      <trkpt lat="43.21111" lon="5.56275">
        <ele>355</ele>
        <time>2019-11-20T12:47:43Z</time>
      </trkpt>
      <trkpt lat="43.21114" lon="5.5628">
        <ele>356</ele>
        <time>2019-11-20T12:47:47Z</time>
      </trkpt>
      <trkpt lat="43.21118" lon="5.56286">
        <ele>355</ele>
        <time>2019-11-20T12:47:51Z</time>
      </trkpt>
      <trkpt lat="43.21122" lon="5.56291">
        <ele>355</ele>
        <time>2019-11-20T12:47:57Z</time>
      </trkpt>
      <trkpt lat="43.21125" lon="5.56297">
        <ele>356</ele>
        <time>2019-11-20T12:48:03Z</time>
      </trkpt>
      <trkpt lat="43.21128" lon="5.56303">
        <ele>353</ele>
        <time>2019-11-20T12:48:11Z</time>
      </trkpt>
      <trkpt lat="43.2113" lon="5.56309">
        <ele>353</ele>
        <time>2019-11-20T12:48:17Z</time>
      </trkpt>
      <trkpt lat="43.21133" lon="5.56317">
        <ele>354</ele>
        <time>2019-11-20T12:48:23Z</time>
      </trkpt>
      <trkpt lat="43.21134" lon="5.56323">
        <ele>355</ele>
        <time>2019-11-20T12:48:26Z</time>
      </trkpt>
      <trkpt lat="43.21136" lon="5.5633">
        <ele>352</ele>
        <time>2019-11-20T12:48:33Z</time>
      </trkpt>
      <trkpt lat="43.21138" lon="5.56336">
        <ele>352</ele>
        <time>2019-11-20T12:48:37Z</time>
      </trkpt>
      <trkpt lat="43.21138" lon="5.56343">
        <ele>352</ele>
        <time>2019-11-20T12:48:43Z</time>
      </trkpt>
      <trkpt lat="43.21137" lon="5.5635">
        <ele>353</ele>
        <time>2019-11-20T12:48:49Z</time>
      </trkpt>
      <trkpt lat="43.21134" lon="5.56354">
        <ele>352</ele>
        <time>2019-11-20T12:48:55Z</time>
      </trkpt>
      <trkpt lat="43.21133" lon="5.56362">
        <ele>349</ele>
        <time>2019-11-20T12:49:07Z</time>
      </trkpt>
      <trkpt lat="43.21132" lon="5.5637">
        <ele>346</ele>
        <time>2019-11-20T12:49:13Z</time>
      </trkpt>
      <trkpt lat="43.21129" lon="5.5638">
        <ele>346</ele>
        <time>2019-11-20T12:49:17Z</time>
      </trkpt>
      <trkpt lat="43.21126" lon="5.56386">
        <ele>346</ele>
        <time>2019-11-20T12:49:23Z</time>
      </trkpt>
      <trkpt lat="43.21123" lon="5.56392">
        <ele>347</ele>
        <time>2019-11-20T12:49:29Z</time>
      </trkpt>
      <trkpt lat="43.21119" lon="5.56396">
        <ele>350</ele>
        <time>2019-11-20T12:49:39Z</time>
      </trkpt>
      <trkpt lat="43.21116" lon="5.56402">
        <ele>347</ele>
        <time>2019-11-20T12:49:45Z</time>
      </trkpt>
      <trkpt lat="43.21116" lon="5.56411">
        <ele>346</ele>
        <time>2019-11-20T12:49:51Z</time>
      </trkpt>
      <trkpt lat="43.21115" lon="5.56418">
        <ele>347</ele>
        <time>2019-11-20T12:49:55Z</time>
      </trkpt>
      <trkpt lat="43.21114" lon="5.56425">
        <ele>345</ele>
        <time>2019-11-20T12:49:59Z</time>
      </trkpt>
      <trkpt lat="43.21112" lon="5.56432">
        <ele>344</ele>
        <time>2019-11-20T12:50:03Z</time>
      </trkpt>
      <trkpt lat="43.2111" lon="5.56438">
        <ele>346</ele>
        <time>2019-11-20T12:50:07Z</time>
      </trkpt>
      <trkpt lat="43.2111" lon="5.56444">
        <ele>347</ele>
        <time>2019-11-20T12:50:11Z</time>
      </trkpt>
      <trkpt lat="43.21111" lon="5.56451">
        <ele>346</ele>
        <time>2019-11-20T12:50:15Z</time>
      </trkpt>
      <trkpt lat="43.2111" lon="5.56459">
        <ele>346</ele>
        <time>2019-11-20T12:50:23Z</time>
      </trkpt>
      <trkpt lat="43.21106" lon="5.56466">
        <ele>344</ele>
        <time>2019-11-20T12:50:27Z</time>
      </trkpt>
      <trkpt lat="43.21106" lon="5.56472">
        <ele>339</ele>
        <time>2019-11-20T12:50:33Z</time>
      </trkpt>
      <trkpt lat="43.21103" lon="5.56477">
        <ele>333</ele>
        <time>2019-11-20T12:50:39Z</time>
      </trkpt>
      <trkpt lat="43.21097" lon="5.56477">
        <ele>333</ele>
        <time>2019-11-20T12:50:45Z</time>
      </trkpt>
      <trkpt lat="43.21092" lon="5.56475">
        <ele>334</ele>
        <time>2019-11-20T12:50:49Z</time>
      </trkpt>
      <trkpt lat="43.21088" lon="5.56474">
        <ele>335</ele>
        <time>2019-11-20T12:50:51Z</time>
      </trkpt>
      <trkpt lat="43.21083" lon="5.56472">
        <ele>337</ele>
        <time>2019-11-20T12:50:57Z</time>
      </trkpt>
      <trkpt lat="43.21078" lon="5.56469">
        <ele>333</ele>
        <time>2019-11-20T12:51:03Z</time>
      </trkpt>
      <trkpt lat="43.21073" lon="5.56468">
        <ele>330</ele>
        <time>2019-11-20T12:51:09Z</time>
      </trkpt>
      <trkpt lat="43.21066" lon="5.56466">
        <ele>330</ele>
        <time>2019-11-20T12:51:15Z</time>
      </trkpt>
      <trkpt lat="43.2106" lon="5.56465">
        <ele>329</ele>
        <time>2019-11-20T12:51:21Z</time>
      </trkpt>
      <trkpt lat="43.21055" lon="5.56463">
        <ele>328</ele>
        <time>2019-11-20T12:51:25Z</time>
      </trkpt>
      <trkpt lat="43.21051" lon="5.56463">
        <ele>328</ele>
        <time>2019-11-20T12:51:29Z</time>
      </trkpt>
      <trkpt lat="43.21045" lon="5.56462">
        <ele>327</ele>
        <time>2019-11-20T12:51:35Z</time>
      </trkpt>
      <trkpt lat="43.2104" lon="5.56461">
        <ele>320</ele>
        <time>2019-11-20T12:51:45Z</time>
      </trkpt>
      <trkpt lat="43.21035" lon="5.56463">
        <ele>317</ele>
        <time>2019-11-20T12:51:51Z</time>
      </trkpt>
      <trkpt lat="43.2103" lon="5.56467">
        <ele>317</ele>
        <time>2019-11-20T12:51:55Z</time>
      </trkpt>
      <trkpt lat="43.21025" lon="5.56473">
        <ele>317</ele>
        <time>2019-11-20T12:51:59Z</time>
      </trkpt>
      <trkpt lat="43.21022" lon="5.5648">
        <ele>318</ele>
        <time>2019-11-20T12:52:03Z</time>
      </trkpt>
      <trkpt lat="43.2102" lon="5.56486">
        <ele>320</ele>
        <time>2019-11-20T12:52:07Z</time>
      </trkpt>
      <trkpt lat="43.21018" lon="5.56492">
        <ele>314</ele>
        <time>2019-11-20T12:52:11Z</time>
      </trkpt>
      <trkpt lat="43.21015" lon="5.56499">
        <ele>313</ele>
        <time>2019-11-20T12:52:17Z</time>
      </trkpt>
      <trkpt lat="43.21014" lon="5.56505">
        <ele>313</ele>
        <time>2019-11-20T12:52:21Z</time>
      </trkpt>
      <trkpt lat="43.21012" lon="5.56514">
        <ele>312</ele>
        <time>2019-11-20T12:52:27Z</time>
      </trkpt>
      <trkpt lat="43.2101" lon="5.5652">
        <ele>313</ele>
        <time>2019-11-20T12:52:30Z</time>
      </trkpt>
      <trkpt lat="43.21009" lon="5.56527">
        <ele>312</ele>
        <time>2019-11-20T12:52:37Z</time>
      </trkpt>
      <trkpt lat="43.21007" lon="5.56533">
        <ele>312</ele>
        <time>2019-11-20T12:52:40Z</time>
      </trkpt>
      <trkpt lat="43.21006" lon="5.56541">
        <ele>313</ele>
        <time>2019-11-20T12:52:47Z</time>
      </trkpt>
      <trkpt lat="43.21005" lon="5.56548">
        <ele>311</ele>
        <time>2019-11-20T12:52:53Z</time>
      </trkpt>
      <trkpt lat="43.21004" lon="5.56558">
        <ele>311</ele>
        <time>2019-11-20T12:52:59Z</time>
      </trkpt>
      <trkpt lat="43.21004" lon="5.56565">
        <ele>310</ele>
        <time>2019-11-20T12:53:03Z</time>
      </trkpt>
      <trkpt lat="43.21002" lon="5.56572">
        <ele>307</ele>
        <time>2019-11-20T12:53:09Z</time>
      </trkpt>
      <trkpt lat="43.21" lon="5.5658">
        <ele>308</ele>
        <time>2019-11-20T12:53:15Z</time>
      </trkpt>
      <trkpt lat="43.20999" lon="5.56589">
        <ele>306</ele>
        <time>2019-11-20T12:53:21Z</time>
      </trkpt>
      <trkpt lat="43.20999" lon="5.56597">
        <ele>306</ele>
        <time>2019-11-20T12:53:27Z</time>
      </trkpt>
      <trkpt lat="43.20999" lon="5.56605">
        <ele>308</ele>
        <time>2019-11-20T12:53:33Z</time>
      </trkpt>
      <trkpt lat="43.20998" lon="5.56613">
        <ele>305</ele>
        <time>2019-11-20T12:53:39Z</time>
      </trkpt>
      <trkpt lat="43.20998" lon="5.5662">
        <ele>304</ele>
        <time>2019-11-20T12:53:43Z</time>
      </trkpt>
      <trkpt lat="43.20997" lon="5.56626">
        <ele>304</ele>
        <time>2019-11-20T12:53:46Z</time>
      </trkpt>
      <trkpt lat="43.20997" lon="5.56632">
        <ele>306</ele>
        <time>2019-11-20T12:53:51Z</time>
      </trkpt>
      <trkpt lat="43.20996" lon="5.56639">
        <ele>308</ele>
        <time>2019-11-20T12:53:57Z</time>
      </trkpt>
      <trkpt lat="43.20993" lon="5.56644">
        <ele>303</ele>
        <time>2019-11-20T12:54:03Z</time>
      </trkpt>
      <trkpt lat="43.20988" lon="5.56642">
        <ele>300</ele>
        <time>2019-11-20T12:54:07Z</time>
      </trkpt>
      <trkpt lat="43.20983" lon="5.56639">
        <ele>300</ele>
        <time>2019-11-20T12:54:11Z</time>
      </trkpt>
      <trkpt lat="43.20982" lon="5.56631">
        <ele>295</ele>
        <time>2019-11-20T12:54:17Z</time>
      </trkpt>
      <trkpt lat="43.20982" lon="5.56624">
        <ele>295</ele>
        <time>2019-11-20T12:54:21Z</time>
      </trkpt>
      <trkpt lat="43.20984" lon="5.56618">
        <ele>296</ele>
        <time>2019-11-20T12:54:25Z</time>
      </trkpt>
      <trkpt lat="43.20982" lon="5.5661">
        <ele>297</ele>
        <time>2019-11-20T12:54:29Z</time>
      </trkpt>
      <trkpt lat="43.20982" lon="5.56602">
        <ele>298</ele>
        <time>2019-11-20T12:54:33Z</time>
      </trkpt>
      <trkpt lat="43.20982" lon="5.56595">
        <ele>299</ele>
        <time>2019-11-20T12:54:37Z</time>
      </trkpt>
      <trkpt lat="43.20982" lon="5.56588">
        <ele>301</ele>
        <time>2019-11-20T12:54:41Z</time>
      </trkpt>
      <trkpt lat="43.20982" lon="5.56582">
        <ele>302</ele>
        <time>2019-11-20T12:54:45Z</time>
      </trkpt>
      <trkpt lat="43.20981" lon="5.56574">
        <ele>301</ele>
        <time>2019-11-20T12:54:49Z</time>
      </trkpt>
      <trkpt lat="43.20982" lon="5.56567">
        <ele>302</ele>
        <time>2019-11-20T12:54:55Z</time>
      </trkpt>
      <trkpt lat="43.20982" lon="5.56559">
        <ele>301</ele>
        <time>2019-11-20T12:55:01Z</time>
      </trkpt>
      <trkpt lat="43.20981" lon="5.56548">
        <ele>298</ele>
        <time>2019-11-20T12:55:07Z</time>
      </trkpt>
      <trkpt lat="43.2098" lon="5.5654">
        <ele>296</ele>
        <time>2019-11-20T12:55:11Z</time>
      </trkpt>
      <trkpt lat="43.20978" lon="5.56533">
        <ele>295</ele>
        <time>2019-11-20T12:55:17Z</time>
      </trkpt>
      <trkpt lat="43.20975" lon="5.56526">
        <ele>295</ele>
        <time>2019-11-20T12:55:23Z</time>
      </trkpt>
      <trkpt lat="43.20973" lon="5.5652">
        <ele>296</ele>
        <time>2019-11-20T12:55:27Z</time>
      </trkpt>
      <trkpt lat="43.20971" lon="5.56514">
        <ele>294</ele>
        <time>2019-11-20T12:55:33Z</time>
      </trkpt>
      <trkpt lat="43.20969" lon="5.56509">
        <ele>294</ele>
        <time>2019-11-20T12:55:39Z</time>
      </trkpt>
      <trkpt lat="43.20966" lon="5.56503">
        <ele>294</ele>
        <time>2019-11-20T12:55:45Z</time>
      </trkpt>
      <trkpt lat="43.20962" lon="5.56498">
        <ele>296</ele>
        <time>2019-11-20T12:55:49Z</time>
      </trkpt>
      <trkpt lat="43.20959" lon="5.56493">
        <ele>295</ele>
        <time>2019-11-20T12:55:53Z</time>
      </trkpt>
      <trkpt lat="43.20955" lon="5.56485">
        <ele>295</ele>
        <time>2019-11-20T12:55:59Z</time>
      </trkpt>
      <trkpt lat="43.20952" lon="5.56481">
        <ele>296</ele>
        <time>2019-11-20T12:56:03Z</time>
      </trkpt>
      <trkpt lat="43.20948" lon="5.56478">
        <ele>296</ele>
        <time>2019-11-20T12:56:07Z</time>
      </trkpt>
      <trkpt lat="43.20945" lon="5.56471">
        <ele>297</ele>
        <time>2019-11-20T12:56:13Z</time>
      </trkpt>
      <trkpt lat="43.2094" lon="5.56469">
        <ele>298</ele>
        <time>2019-11-20T12:56:17Z</time>
      </trkpt>
      <trkpt lat="43.20935" lon="5.56467">
        <ele>296</ele>
        <time>2019-11-20T12:56:23Z</time>
      </trkpt>
      <trkpt lat="43.2093" lon="5.56466">
        <ele>293</ele>
        <time>2019-11-20T12:56:29Z</time>
      </trkpt>
      <trkpt lat="43.20925" lon="5.56464">
        <ele>293</ele>
        <time>2019-11-20T12:56:35Z</time>
      </trkpt>
      <trkpt lat="43.20919" lon="5.56461">
        <ele>289</ele>
        <time>2019-11-20T12:56:41Z</time>
      </trkpt>
      <trkpt lat="43.20914" lon="5.56457">
        <ele>284</ele>
        <time>2019-11-20T12:56:47Z</time>
      </trkpt>
      <trkpt lat="43.20909" lon="5.56453">
        <ele>288</ele>
        <time>2019-11-20T12:56:53Z</time>
      </trkpt>
      <trkpt lat="43.20904" lon="5.56449">
        <ele>290</ele>
        <time>2019-11-20T12:56:59Z</time>
      </trkpt>
      <trkpt lat="43.20898" lon="5.56446">
        <ele>289</ele>
        <time>2019-11-20T12:57:03Z</time>
      </trkpt>
      <trkpt lat="43.20893" lon="5.56443">
        <ele>291</ele>
        <time>2019-11-20T12:57:07Z</time>
      </trkpt>
      <trkpt lat="43.20888" lon="5.56442">
        <ele>292</ele>
        <time>2019-11-20T12:57:11Z</time>
      </trkpt>
      <trkpt lat="43.20883" lon="5.5644">
        <ele>290</ele>
        <time>2019-11-20T12:57:15Z</time>
      </trkpt>
      <trkpt lat="43.20877" lon="5.56439">
        <ele>289</ele>
        <time>2019-11-20T12:57:19Z</time>
      </trkpt>
      <trkpt lat="43.20872" lon="5.56435">
        <ele>284</ele>
        <time>2019-11-20T12:57:27Z</time>
      </trkpt>
      <trkpt lat="43.20868" lon="5.56433">
        <ele>284</ele>
        <time>2019-11-20T12:57:31Z</time>
      </trkpt>
      <trkpt lat="43.20862" lon="5.56429">
        <ele>284</ele>
        <time>2019-11-20T12:57:37Z</time>
      </trkpt>
      <trkpt lat="43.20858" lon="5.56424">
        <ele>285</ele>
        <time>2019-11-20T12:57:43Z</time>
      </trkpt>
      <trkpt lat="43.20853" lon="5.5642">
        <ele>285</ele>
        <time>2019-11-20T12:57:49Z</time>
      </trkpt>
      <trkpt lat="43.2085" lon="5.56411">
        <ele>284</ele>
        <time>2019-11-20T12:57:55Z</time>
      </trkpt>
      <trkpt lat="43.20847" lon="5.56403">
        <ele>282</ele>
        <time>2019-11-20T12:58:01Z</time>
      </trkpt>
      <trkpt lat="43.20845" lon="5.56397">
        <ele>280</ele>
        <time>2019-11-20T12:58:05Z</time>
      </trkpt>
      <trkpt lat="43.20843" lon="5.5639">
        <ele>279</ele>
        <time>2019-11-20T12:58:09Z</time>
      </trkpt>
      <trkpt lat="43.20841" lon="5.56382">
        <ele>279</ele>
        <time>2019-11-20T12:58:15Z</time>
      </trkpt>
      <trkpt lat="43.2084" lon="5.56374">
        <ele>276</ele>
        <time>2019-11-20T12:58:21Z</time>
      </trkpt>
      <trkpt lat="43.20839" lon="5.56367">
        <ele>277</ele>
        <time>2019-11-20T12:58:25Z</time>
      </trkpt>
      <trkpt lat="43.20837" lon="5.5636">
        <ele>277</ele>
        <time>2019-11-20T12:58:29Z</time>
      </trkpt>
      <trkpt lat="43.20835" lon="5.56354">
        <ele>275</ele>
        <time>2019-11-20T12:58:33Z</time>
      </trkpt>
      <trkpt lat="43.20834" lon="5.56346">
        <ele>276</ele>
        <time>2019-11-20T12:58:37Z</time>
      </trkpt>
      <trkpt lat="43.20832" lon="5.56339">
        <ele>272</ele>
        <time>2019-11-20T12:58:43Z</time>
      </trkpt>
      <trkpt lat="43.20831" lon="5.5633">
        <ele>273</ele>
        <time>2019-11-20T12:58:49Z</time>
      </trkpt>
      <trkpt lat="43.2083" lon="5.56324">
        <ele>269</ele>
        <time>2019-11-20T12:58:53Z</time>
      </trkpt>
      <trkpt lat="43.20829" lon="5.56317">
        <ele>268</ele>
        <time>2019-11-20T12:58:57Z</time>
      </trkpt>
      <trkpt lat="43.20829" lon="5.5631">
        <ele>267</ele>
        <time>2019-11-20T12:59:03Z</time>
      </trkpt>
      <trkpt lat="43.20829" lon="5.56303">
        <ele>267</ele>
        <time>2019-11-20T12:59:07Z</time>
      </trkpt>
      <trkpt lat="43.2083" lon="5.56294">
        <ele>267</ele>
        <time>2019-11-20T12:59:15Z</time>
      </trkpt>
      <trkpt lat="43.20829" lon="5.56288">
        <ele>267</ele>
        <time>2019-11-20T12:59:19Z</time>
      </trkpt>
      <trkpt lat="43.20826" lon="5.56282">
        <ele>268</ele>
        <time>2019-11-20T12:59:23Z</time>
      </trkpt>
      <trkpt lat="43.20822" lon="5.56278">
        <ele>262</ele>
        <time>2019-11-20T12:59:29Z</time>
      </trkpt>
      <trkpt lat="43.20818" lon="5.56272">
        <ele>257</ele>
        <time>2019-11-20T12:59:37Z</time>
      </trkpt>
      <trkpt lat="43.20815" lon="5.56266">
        <ele>257</ele>
        <time>2019-11-20T12:59:43Z</time>
      </trkpt>
      <trkpt lat="43.20811" lon="5.56262">
        <ele>259</ele>
        <time>2019-11-20T12:59:47Z</time>
      </trkpt>
      <trkpt lat="43.20808" lon="5.56256">
        <ele>255</ele>
        <time>2019-11-20T12:59:51Z</time>
      </trkpt>
      <trkpt lat="43.20804" lon="5.56249">
        <ele>256</ele>
        <time>2019-11-20T12:59:57Z</time>
      </trkpt>
      <trkpt lat="43.20801" lon="5.56243">
        <ele>256</ele>
        <time>2019-11-20T13:00:01Z</time>
      </trkpt>
      <trkpt lat="43.20798" lon="5.56235">
        <ele>257</ele>
        <time>2019-11-20T13:00:05Z</time>
      </trkpt>
      <trkpt lat="43.20795" lon="5.56227">
        <ele>255</ele>
        <time>2019-11-20T13:00:09Z</time>
      </trkpt>
      <trkpt lat="43.20796" lon="5.5622">
        <ele>257</ele>
        <time>2019-11-20T13:00:17Z</time>
      </trkpt>
      <trkpt lat="43.20793" lon="5.56213">
        <ele>259</ele>
        <time>2019-11-20T13:00:23Z</time>
      </trkpt>
      <trkpt lat="43.2079" lon="5.56206">
        <ele>261</ele>
        <time>2019-11-20T13:00:27Z</time>
      </trkpt>
      <trkpt lat="43.20786" lon="5.56198">
        <ele>258</ele>
        <time>2019-11-20T13:00:31Z</time>
      </trkpt>
      <trkpt lat="43.20784" lon="5.5619">
        <ele>258</ele>
        <time>2019-11-20T13:00:35Z</time>
      </trkpt>
      <trkpt lat="43.2078" lon="5.56183">
        <ele>258</ele>
        <time>2019-11-20T13:00:39Z</time>
      </trkpt>
      <trkpt lat="43.20777" lon="5.56174">
        <ele>253</ele>
        <time>2019-11-20T13:00:47Z</time>
      </trkpt>
      <trkpt lat="43.20773" lon="5.56168">
        <ele>253</ele>
        <time>2019-11-20T13:00:51Z</time>
      </trkpt>
      <trkpt lat="43.20772" lon="5.56162">
        <ele>249</ele>
        <time>2019-11-20T13:00:57Z</time>
      </trkpt>
      <trkpt lat="43.2077" lon="5.56154">
        <ele>249</ele>
        <time>2019-11-20T13:01:05Z</time>
      </trkpt>
      <trkpt lat="43.20767" lon="5.56148">
        <ele>247</ele>
        <time>2019-11-20T13:01:11Z</time>
      </trkpt>
      <trkpt lat="43.20764" lon="5.56142">
        <ele>246</ele>
        <time>2019-11-20T13:01:15Z</time>
      </trkpt>
      <trkpt lat="43.20763" lon="5.56135">
        <ele>248</ele>
        <time>2019-11-20T13:01:21Z</time>
      </trkpt>
      <trkpt lat="43.2076" lon="5.56128">
        <ele>247</ele>
        <time>2019-11-20T13:01:27Z</time>
      </trkpt>
      <trkpt lat="43.20756" lon="5.56123">
        <ele>248</ele>
        <time>2019-11-20T13:01:31Z</time>
      </trkpt>
      <trkpt lat="43.20752" lon="5.56116">
        <ele>245</ele>
        <time>2019-11-20T13:01:35Z</time>
      </trkpt>
      <trkpt lat="43.20749" lon="5.5611">
        <ele>242</ele>
        <time>2019-11-20T13:01:39Z</time>
      </trkpt>
      <trkpt lat="43.20746" lon="5.56104">
        <ele>241</ele>
        <time>2019-11-20T13:01:43Z</time>
      </trkpt>
      <trkpt lat="43.20741" lon="5.56101">
        <ele>246</ele>
        <time>2019-11-20T13:01:55Z</time>
      </trkpt>
      <trkpt lat="43.20739" lon="5.56095">
        <ele>232</ele>
        <time>2019-11-20T13:02:03Z</time>
      </trkpt>
      <trkpt lat="43.20735" lon="5.56091">
        <ele>247</ele>
        <time>2019-11-20T13:02:13Z</time>
      </trkpt>
      <trkpt lat="43.20731" lon="5.56088">
        <ele>251</ele>
        <time>2019-11-20T13:02:21Z</time>
      </trkpt>
      <trkpt lat="43.20729" lon="5.56081">
        <ele>256</ele>
        <time>2019-11-20T13:02:27Z</time>
      </trkpt>
      <trkpt lat="43.20727" lon="5.56074">
        <ele>256</ele>
        <time>2019-11-20T13:02:33Z</time>
      </trkpt>
      <trkpt lat="43.20727" lon="5.56067">
        <ele>258</ele>
        <time>2019-11-20T13:02:41Z</time>
      </trkpt>
      <trkpt lat="43.20726" lon="5.5606">
        <ele>257</ele>
        <time>2019-11-20T13:02:55Z</time>
      </trkpt>
      <trkpt lat="43.20725" lon="5.56054">
        <ele>256</ele>
        <time>2019-11-20T13:03:01Z</time>
      </trkpt>
      <trkpt lat="43.20722" lon="5.56049">
        <ele>256</ele>
        <time>2019-11-20T13:03:05Z</time>
      </trkpt>
      <trkpt lat="43.20718" lon="5.56043">
        <ele>255</ele>
        <time>2019-11-20T13:03:11Z</time>
      </trkpt>
      <trkpt lat="43.20715" lon="5.56037">
        <ele>254</ele>
        <time>2019-11-20T13:03:21Z</time>
      </trkpt>
      <trkpt lat="43.2071" lon="5.56038">
        <ele>255</ele>
        <time>2019-11-20T13:03:27Z</time>
      </trkpt>
      <trkpt lat="43.20705" lon="5.56034">
        <ele>260</ele>
        <time>2019-11-20T13:03:37Z</time>
      </trkpt>
      <trkpt lat="43.20701" lon="5.56029">
        <ele>263</ele>
        <time>2019-11-20T13:03:41Z</time>
      </trkpt>
      <trkpt lat="43.20698" lon="5.56035">
        <ele>262</ele>
        <time>2019-11-20T13:03:59Z</time>
      </trkpt>
      <trkpt lat="43.20699" lon="5.56043">
        <ele>267</ele>
        <time>2019-11-20T13:04:07Z</time>
      </trkpt>
      <trkpt lat="43.20701" lon="5.56051">
        <ele>271</ele>
        <time>2019-11-20T13:04:13Z</time>
      </trkpt>
      <trkpt lat="43.20702" lon="5.56057">
        <ele>270</ele>
        <time>2019-11-20T13:04:21Z</time>
      </trkpt>
      <trkpt lat="43.20706" lon="5.56061">
        <ele>271</ele>
        <time>2019-11-20T13:04:29Z</time>
      </trkpt>
      <trkpt lat="43.20704" lon="5.56055">
        <ele>272</ele>
        <time>2019-11-20T13:05:03Z</time>
      </trkpt>
      <trkpt lat="43.20702" lon="5.56048">
        <ele>276</ele>
        <time>2019-11-20T13:06:03Z</time>
      </trkpt>
      <trkpt lat="43.20705" lon="5.56054">
        <ele>270</ele>
        <time>2019-11-20T13:06:09Z</time>
      </trkpt>
      <trkpt lat="43.20707" lon="5.56061">
        <ele>271</ele>
        <time>2019-11-20T13:06:17Z</time>
      </trkpt>
      <trkpt lat="43.20708" lon="5.56067">
        <ele>272</ele>
        <time>2019-11-20T13:06:25Z</time>
      </trkpt>
      <trkpt lat="43.20704" lon="5.5607">
        <ele>272</ele>
        <time>2019-11-20T13:06:33Z</time>
      </trkpt>
      <trkpt lat="43.20699" lon="5.56072">
        <ele>273</ele>
        <time>2019-11-20T13:06:39Z</time>
      </trkpt>
      <trkpt lat="43.20693" lon="5.56075">
        <ele>273</ele>
        <time>2019-11-20T13:06:43Z</time>
      </trkpt>
      <trkpt lat="43.20689" lon="5.56079">
        <ele>274</ele>
        <time>2019-11-20T13:06:47Z</time>
      </trkpt>
      <trkpt lat="43.20686" lon="5.56084">
        <ele>275</ele>
        <time>2019-11-20T13:06:51Z</time>
      </trkpt>
      <trkpt lat="43.20684" lon="5.56092">
        <ele>274</ele>
        <time>2019-11-20T13:06:57Z</time>
      </trkpt>
      <trkpt lat="43.20683" lon="5.56101">
        <ele>274</ele>
        <time>2019-11-20T13:07:03Z</time>
      </trkpt>
      <trkpt lat="43.20681" lon="5.5611">
        <ele>275</ele>
        <time>2019-11-20T13:07:09Z</time>
      </trkpt>
      <trkpt lat="43.2068" lon="5.56116">
        <ele>276</ele>
        <time>2019-11-20T13:07:13Z</time>
      </trkpt>
      <trkpt lat="43.20678" lon="5.56125">
        <ele>276</ele>
        <time>2019-11-20T13:07:19Z</time>
      </trkpt>
      <trkpt lat="43.20678" lon="5.56132">
        <ele>279</ele>
        <time>2019-11-20T13:07:23Z</time>
      </trkpt>
      <trkpt lat="43.20676" lon="5.5614">
        <ele>280</ele>
        <time>2019-11-20T13:07:27Z</time>
      </trkpt>
      <trkpt lat="43.20675" lon="5.56149">
        <ele>282</ele>
        <time>2019-11-20T13:07:31Z</time>
      </trkpt>
      <trkpt lat="43.20675" lon="5.56156">
        <ele>280</ele>
        <time>2019-11-20T13:07:37Z</time>
      </trkpt>
      <trkpt lat="43.20673" lon="5.56164">
        <ele>281</ele>
        <time>2019-11-20T13:07:45Z</time>
      </trkpt>
      <trkpt lat="43.2067" lon="5.56171">
        <ele>282</ele>
        <time>2019-11-20T13:07:51Z</time>
      </trkpt>
      <trkpt lat="43.20669" lon="5.56177">
        <ele>282</ele>
        <time>2019-11-20T13:07:55Z</time>
      </trkpt>
      <trkpt lat="43.20669" lon="5.56185">
        <ele>283</ele>
        <time>2019-11-20T13:08:01Z</time>
      </trkpt>
      <trkpt lat="43.20669" lon="5.56192">
        <ele>283</ele>
        <time>2019-11-20T13:08:07Z</time>
      </trkpt>
      <trkpt lat="43.20667" lon="5.562">
        <ele>283</ele>
        <time>2019-11-20T13:08:15Z</time>
      </trkpt>
      <trkpt lat="43.20664" lon="5.56194">
        <ele>279</ele>
        <time>2019-11-20T13:08:23Z</time>
      </trkpt>
      <trkpt lat="43.20662" lon="5.56186">
        <ele>281</ele>
        <time>2019-11-20T13:08:29Z</time>
      </trkpt>
      <trkpt lat="43.20661" lon="5.56178">
        <ele>283</ele>
        <time>2019-11-20T13:08:35Z</time>
      </trkpt>
      <trkpt lat="43.20661" lon="5.56171">
        <ele>280</ele>
        <time>2019-11-20T13:08:51Z</time>
      </trkpt>
      <trkpt lat="43.2066" lon="5.56164">
        <ele>280</ele>
        <time>2019-11-20T13:08:57Z</time>
      </trkpt>
      <trkpt lat="43.20658" lon="5.56157">
        <ele>281</ele>
        <time>2019-11-20T13:09:05Z</time>
      </trkpt>
      <trkpt lat="43.20657" lon="5.56149">
        <ele>283</ele>
        <time>2019-11-20T13:09:13Z</time>
      </trkpt>
      <trkpt lat="43.20656" lon="5.56141">
        <ele>284</ele>
        <time>2019-11-20T13:09:19Z</time>
      </trkpt>
      <trkpt lat="43.20655" lon="5.56133">
        <ele>286</ele>
        <time>2019-11-20T13:09:31Z</time>
      </trkpt>
      <trkpt lat="43.20655" lon="5.56126">
        <ele>289</ele>
        <time>2019-11-20T13:09:37Z</time>
      </trkpt>
      <trkpt lat="43.20654" lon="5.56118">
        <ele>290</ele>
        <time>2019-11-20T13:09:43Z</time>
      </trkpt>
      <trkpt lat="43.20655" lon="5.5611">
        <ele>291</ele>
        <time>2019-11-20T13:09:53Z</time>
      </trkpt>
      <trkpt lat="43.20656" lon="5.56104">
        <ele>292</ele>
        <time>2019-11-20T13:10:01Z</time>
      </trkpt>
      <trkpt lat="43.20655" lon="5.56098">
        <ele>292</ele>
        <time>2019-11-20T13:10:09Z</time>
      </trkpt>
      <trkpt lat="43.20654" lon="5.56091">
        <ele>294</ele>
        <time>2019-11-20T13:10:19Z</time>
      </trkpt>
      <trkpt lat="43.20653" lon="5.56082">
        <ele>294</ele>
        <time>2019-11-20T13:10:31Z</time>
      </trkpt>
      <trkpt lat="43.20653" lon="5.56075">
        <ele>295</ele>
        <time>2019-11-20T13:10:41Z</time>
      </trkpt>
      <trkpt lat="43.2065" lon="5.56069">
        <ele>296</ele>
        <time>2019-11-20T13:10:47Z</time>
      </trkpt>
      <trkpt lat="43.20649" lon="5.56063">
        <ele>296</ele>
        <time>2019-11-20T13:10:55Z</time>
      </trkpt>
      <trkpt lat="43.20649" lon="5.56056">
        <ele>296</ele>
        <time>2019-11-20T13:11:11Z</time>
      </trkpt>
      <trkpt lat="43.20648" lon="5.56048">
        <ele>298</ele>
        <time>2019-11-20T13:11:17Z</time>
      </trkpt>
      <trkpt lat="43.20647" lon="5.56039">
        <ele>300</ele>
        <time>2019-11-20T13:11:23Z</time>
      </trkpt>
      <trkpt lat="43.20646" lon="5.56033">
        <ele>302</ele>
        <time>2019-11-20T13:11:29Z</time>
      </trkpt>
      <trkpt lat="43.20645" lon="5.56025">
        <ele>304</ele>
        <time>2019-11-20T13:11:35Z</time>
      </trkpt>
      <trkpt lat="43.20644" lon="5.56019">
        <ele>303</ele>
        <time>2019-11-20T13:11:47Z</time>
      </trkpt>
      <trkpt lat="43.20642" lon="5.56013">
        <ele>303</ele>
        <time>2019-11-20T13:11:57Z</time>
      </trkpt>
      <trkpt lat="43.20637" lon="5.56005">
        <ele>305</ele>
        <time>2019-11-20T13:12:03Z</time>
      </trkpt>
      <trkpt lat="43.20634" lon="5.55999">
        <ele>307</ele>
        <time>2019-11-20T13:12:09Z</time>
      </trkpt>
      <trkpt lat="43.2063" lon="5.55995">
        <ele>306</ele>
        <time>2019-11-20T13:12:15Z</time>
      </trkpt>
      <trkpt lat="43.20626" lon="5.5599">
        <ele>307</ele>
        <time>2019-11-20T13:12:29Z</time>
      </trkpt>
      <trkpt lat="43.20622" lon="5.55985">
        <ele>310</ele>
        <time>2019-11-20T13:12:35Z</time>
      </trkpt>
      <trkpt lat="43.20618" lon="5.5598">
        <ele>309</ele>
        <time>2019-11-20T13:12:43Z</time>
      </trkpt>
      <trkpt lat="43.20614" lon="5.55975">
        <ele>312</ele>
        <time>2019-11-20T13:12:53Z</time>
      </trkpt>
      <trkpt lat="43.2061" lon="5.55973">
        <ele>312</ele>
        <time>2019-11-20T13:12:59Z</time>
      </trkpt>
      <trkpt lat="43.20605" lon="5.55968">
        <ele>314</ele>
        <time>2019-11-20T13:13:07Z</time>
      </trkpt>
      <trkpt lat="43.206" lon="5.55965">
        <ele>316</ele>
        <time>2019-11-20T13:13:15Z</time>
      </trkpt>
      <trkpt lat="43.20596" lon="5.55961">
        <ele>318</ele>
        <time>2019-11-20T13:13:21Z</time>
      </trkpt>
      <trkpt lat="43.20591" lon="5.55959">
        <ele>319</ele>
        <time>2019-11-20T13:13:29Z</time>
      </trkpt>
      <trkpt lat="43.20586" lon="5.55955">
        <ele>320</ele>
        <time>2019-11-20T13:13:41Z</time>
      </trkpt>
      <trkpt lat="43.20581" lon="5.55952">
        <ele>320</ele>
        <time>2019-11-20T13:13:51Z</time>
      </trkpt>
      <trkpt lat="43.20577" lon="5.55947">
        <ele>321</ele>
        <time>2019-11-20T13:13:57Z</time>
      </trkpt>
      <trkpt lat="43.20573" lon="5.55943">
        <ele>321</ele>
        <time>2019-11-20T13:14:03Z</time>
      </trkpt>
      <trkpt lat="43.20568" lon="5.5594">
        <ele>321</ele>
        <time>2019-11-20T13:14:09Z</time>
      </trkpt>
      <trkpt lat="43.20564" lon="5.55938">
        <ele>324</ele>
        <time>2019-11-20T13:14:15Z</time>
      </trkpt>
      <trkpt lat="43.20559" lon="5.55934">
        <ele>325</ele>
        <time>2019-11-20T13:14:21Z</time>
      </trkpt>
      <trkpt lat="43.20555" lon="5.55931">
        <ele>327</ele>
        <time>2019-11-20T13:14:27Z</time>
      </trkpt>
      <trkpt lat="43.20551" lon="5.55928">
        <ele>328</ele>
        <time>2019-11-20T13:14:33Z</time>
      </trkpt>
      <trkpt lat="43.20546" lon="5.55923">
        <ele>330</ele>
        <time>2019-11-20T13:14:41Z</time>
      </trkpt>
      <trkpt lat="43.20541" lon="5.55917">
        <ele>331</ele>
        <time>2019-11-20T13:14:49Z</time>
      </trkpt>
      <trkpt lat="43.20537" lon="5.55915">
        <ele>331</ele>
        <time>2019-11-20T13:14:55Z</time>
      </trkpt>
      <trkpt lat="43.20531" lon="5.55911">
        <ele>331</ele>
        <time>2019-11-20T13:15:03Z</time>
      </trkpt>
      <trkpt lat="43.20527" lon="5.55907">
        <ele>330</ele>
        <time>2019-11-20T13:15:09Z</time>
      </trkpt>
      <trkpt lat="43.20522" lon="5.55905">
        <ele>330</ele>
        <time>2019-11-20T13:15:15Z</time>
      </trkpt>
      <trkpt lat="43.20518" lon="5.55902">
        <ele>331</ele>
        <time>2019-11-20T13:15:21Z</time>
      </trkpt>
      <trkpt lat="43.20514" lon="5.55899">
        <ele>330</ele>
        <time>2019-11-20T13:15:27Z</time>
      </trkpt>
      <trkpt lat="43.2051" lon="5.55893">
        <ele>328</ele>
        <time>2019-11-20T13:15:33Z</time>
      </trkpt>
      <trkpt lat="43.20506" lon="5.55889">
        <ele>329</ele>
        <time>2019-11-20T13:15:39Z</time>
      </trkpt>
      <trkpt lat="43.20501" lon="5.55885">
        <ele>327</ele>
        <time>2019-11-20T13:15:45Z</time>
      </trkpt>
      <trkpt lat="43.20497" lon="5.55883">
        <ele>329</ele>
        <time>2019-11-20T13:15:51Z</time>
      </trkpt>
      <trkpt lat="43.20492" lon="5.5588">
        <ele>333</ele>
        <time>2019-11-20T13:15:57Z</time>
      </trkpt>
      <trkpt lat="43.20487" lon="5.55876">
        <ele>333</ele>
        <time>2019-11-20T13:16:05Z</time>
      </trkpt>
      <trkpt lat="43.20483" lon="5.55872">
        <ele>336</ele>
        <time>2019-11-20T13:16:13Z</time>
      </trkpt>
      <trkpt lat="43.20479" lon="5.55869">
        <ele>338</ele>
        <time>2019-11-20T13:16:19Z</time>
      </trkpt>
      <trkpt lat="43.20474" lon="5.55865">
        <ele>338</ele>
        <time>2019-11-20T13:16:27Z</time>
      </trkpt>
      <trkpt lat="43.20469" lon="5.55861">
        <ele>339</ele>
        <time>2019-11-20T13:16:35Z</time>
      </trkpt>
      <trkpt lat="43.20467" lon="5.55855">
        <ele>339</ele>
        <time>2019-11-20T13:16:41Z</time>
      </trkpt>
      <trkpt lat="43.20463" lon="5.55849">
        <ele>341</ele>
        <time>2019-11-20T13:16:47Z</time>
      </trkpt>
      <trkpt lat="43.20459" lon="5.55845">
        <ele>340</ele>
        <time>2019-11-20T13:16:55Z</time>
      </trkpt>
      <trkpt lat="43.20457" lon="5.5584">
        <ele>340</ele>
        <time>2019-11-20T13:16:59Z</time>
      </trkpt>
      <trkpt lat="43.20454" lon="5.55835">
        <ele>343</ele>
        <time>2019-11-20T13:17:05Z</time>
      </trkpt>
      <trkpt lat="43.2045" lon="5.55829">
        <ele>344</ele>
        <time>2019-11-20T13:17:13Z</time>
      </trkpt>
      <trkpt lat="43.20447" lon="5.55822">
        <ele>345</ele>
        <time>2019-11-20T13:17:21Z</time>
      </trkpt>
      <trkpt lat="43.20443" lon="5.55815">
        <ele>346</ele>
        <time>2019-11-20T13:17:27Z</time>
      </trkpt>
      <trkpt lat="43.20439" lon="5.55809">
        <ele>345</ele>
        <time>2019-11-20T13:17:33Z</time>
      </trkpt>
      <trkpt lat="43.20435" lon="5.55802">
        <ele>345</ele>
        <time>2019-11-20T13:17:41Z</time>
      </trkpt>
      <trkpt lat="43.2043" lon="5.55795">
        <ele>343</ele>
        <time>2019-11-20T13:17:47Z</time>
      </trkpt>
      <trkpt lat="43.20427" lon="5.55791">
        <ele>344</ele>
        <time>2019-11-20T13:17:51Z</time>
      </trkpt>
      <trkpt lat="43.20423" lon="5.55786">
        <ele>344</ele>
        <time>2019-11-20T13:17:57Z</time>
      </trkpt>
      <trkpt lat="43.2042" lon="5.5578">
        <ele>344</ele>
        <time>2019-11-20T13:18:05Z</time>
      </trkpt>
      <trkpt lat="43.20416" lon="5.55775">
        <ele>346</ele>
        <time>2019-11-20T13:18:13Z</time>
      </trkpt>
      <trkpt lat="43.20411" lon="5.55772">
        <ele>349</ele>
        <time>2019-11-20T13:18:21Z</time>
      </trkpt>
      <trkpt lat="43.20408" lon="5.55767">
        <ele>348</ele>
        <time>2019-11-20T13:18:27Z</time>
      </trkpt>
      <trkpt lat="43.20404" lon="5.55762">
        <ele>349</ele>
        <time>2019-11-20T13:18:33Z</time>
      </trkpt>
      <trkpt lat="43.204" lon="5.55757">
        <ele>350</ele>
        <time>2019-11-20T13:18:39Z</time>
      </trkpt>
      <trkpt lat="43.20396" lon="5.55752">
        <ele>350</ele>
        <time>2019-11-20T13:18:45Z</time>
      </trkpt>
      <trkpt lat="43.20392" lon="5.55745">
        <ele>351</ele>
        <time>2019-11-20T13:18:51Z</time>
      </trkpt>
      <trkpt lat="43.20388" lon="5.55739">
        <ele>351</ele>
        <time>2019-11-20T13:18:57Z</time>
      </trkpt>
      <trkpt lat="43.20383" lon="5.55734">
        <ele>352</ele>
        <time>2019-11-20T13:19:03Z</time>
      </trkpt>
      <trkpt lat="43.20378" lon="5.5573">
        <ele>352</ele>
        <time>2019-11-20T13:19:09Z</time>
      </trkpt>
      <trkpt lat="43.20372" lon="5.55728">
        <ele>352</ele>
        <time>2019-11-20T13:19:15Z</time>
      </trkpt>
      <trkpt lat="43.20367" lon="5.55727">
        <ele>352</ele>
        <time>2019-11-20T13:19:19Z</time>
      </trkpt>
      <trkpt lat="43.20362" lon="5.55725">
        <ele>349</ele>
        <time>2019-11-20T13:19:27Z</time>
      </trkpt>
      <trkpt lat="43.20357" lon="5.55722">
        <ele>350</ele>
        <time>2019-11-20T13:19:33Z</time>
      </trkpt>
      <trkpt lat="43.20351" lon="5.55721">
        <ele>352</ele>
        <time>2019-11-20T13:19:39Z</time>
      </trkpt>
      <trkpt lat="43.20345" lon="5.55722">
        <ele>355</ele>
        <time>2019-11-20T13:19:45Z</time>
      </trkpt>
      <trkpt lat="43.20339" lon="5.5572">
        <ele>358</ele>
        <time>2019-11-20T13:19:51Z</time>
      </trkpt>
      <trkpt lat="43.20334" lon="5.55718">
        <ele>358</ele>
        <time>2019-11-20T13:19:55Z</time>
      </trkpt>
      <trkpt lat="43.20328" lon="5.55717">
        <ele>359</ele>
        <time>2019-11-20T13:19:59Z</time>
      </trkpt>
      <trkpt lat="43.20322" lon="5.55715">
        <ele>356</ele>
        <time>2019-11-20T13:20:05Z</time>
      </trkpt>
      <trkpt lat="43.20317" lon="5.55711">
        <ele>353</ele>
        <time>2019-11-20T13:20:13Z</time>
      </trkpt>
      <trkpt lat="43.20311" lon="5.55708">
        <ele>355</ele>
        <time>2019-11-20T13:20:19Z</time>
      </trkpt>
      <trkpt lat="43.20307" lon="5.55705">
        <ele>351</ele>
        <time>2019-11-20T13:20:27Z</time>
      </trkpt>
      <trkpt lat="43.20303" lon="5.557">
        <ele>350</ele>
        <time>2019-11-20T13:20:33Z</time>
      </trkpt>
      <trkpt lat="43.20299" lon="5.55695">
        <ele>348</ele>
        <time>2019-11-20T13:20:39Z</time>
      </trkpt>
      <trkpt lat="43.20295" lon="5.55691">
        <ele>348</ele>
        <time>2019-11-20T13:20:43Z</time>
      </trkpt>
      <trkpt lat="43.20291" lon="5.55688">
        <ele>348</ele>
        <time>2019-11-20T13:20:47Z</time>
      </trkpt>
      <trkpt lat="43.20286" lon="5.55683">
        <ele>347</ele>
        <time>2019-11-20T13:20:53Z</time>
      </trkpt>
      <trkpt lat="43.20281" lon="5.5568">
        <ele>347</ele>
        <time>2019-11-20T13:20:59Z</time>
      </trkpt>
      <trkpt lat="43.2028" lon="5.55674">
        <ele>353</ele>
        <time>2019-11-20T13:21:27Z</time>
      </trkpt>
      <trkpt lat="43.20278" lon="5.55669">
        <ele>353</ele>
        <time>2019-11-20T13:21:55Z</time>
      </trkpt>
      <trkpt lat="43.20275" lon="5.55662">
        <ele>354</ele>
        <time>2019-11-20T13:22:05Z</time>
      </trkpt>
      <trkpt lat="43.20276" lon="5.55669">
        <ele>350</ele>
        <time>2019-11-20T13:22:17Z</time>
      </trkpt>
      <trkpt lat="43.20271" lon="5.5567">
        <ele>349</ele>
        <time>2019-11-20T13:26:13Z</time>
      </trkpt>
      <trkpt lat="43.20266" lon="5.55666">
        <ele>349</ele>
        <time>2019-11-20T13:26:19Z</time>
      </trkpt>
      <trkpt lat="43.20263" lon="5.55661">
        <ele>348</ele>
        <time>2019-11-20T13:26:23Z</time>
      </trkpt>
      <trkpt lat="43.20261" lon="5.55655">
        <ele>348</ele>
        <time>2019-11-20T13:26:29Z</time>
      </trkpt>
      <trkpt lat="43.20258" lon="5.55649">
        <ele>346</ele>
        <time>2019-11-20T13:26:35Z</time>
      </trkpt>
      <trkpt lat="43.20256" lon="5.55642">
        <ele>345</ele>
        <time>2019-11-20T13:26:41Z</time>
      </trkpt>
      <trkpt lat="43.20254" lon="5.55634">
        <ele>346</ele>
        <time>2019-11-20T13:26:47Z</time>
      </trkpt>
      <trkpt lat="43.20255" lon="5.55627">
        <ele>348</ele>
        <time>2019-11-20T13:26:51Z</time>
      </trkpt>
      <trkpt lat="43.20255" lon="5.55619">
        <ele>349</ele>
        <time>2019-11-20T13:26:55Z</time>
      </trkpt>
      <trkpt lat="43.20255" lon="5.55612">
        <ele>348</ele>
        <time>2019-11-20T13:27:01Z</time>
      </trkpt>
      <trkpt lat="43.20255" lon="5.55604">
        <ele>348</ele>
        <time>2019-11-20T13:27:07Z</time>
      </trkpt>
      <trkpt lat="43.20256" lon="5.55597">
        <ele>349</ele>
        <time>2019-11-20T13:27:11Z</time>
      </trkpt>
      <trkpt lat="43.20255" lon="5.5559">
        <ele>349</ele>
        <time>2019-11-20T13:27:17Z</time>
      </trkpt>
      <trkpt lat="43.20254" lon="5.55582">
        <ele>349</ele>
        <time>2019-11-20T13:27:23Z</time>
      </trkpt>
      <trkpt lat="43.2025" lon="5.55574">
        <ele>346</ele>
        <time>2019-11-20T13:27:27Z</time>
      </trkpt>
      <trkpt lat="43.20248" lon="5.55568">
        <ele>346</ele>
        <time>2019-11-20T13:27:31Z</time>
      </trkpt>
      <trkpt lat="43.20246" lon="5.55562">
        <ele>346</ele>
        <time>2019-11-20T13:27:35Z</time>
      </trkpt>
      <trkpt lat="43.20245" lon="5.55556">
        <ele>346</ele>
        <time>2019-11-20T13:27:39Z</time>
      </trkpt>
      <trkpt lat="43.20242" lon="5.5555">
        <ele>346</ele>
        <time>2019-11-20T13:27:43Z</time>
      </trkpt>
      <trkpt lat="43.20239" lon="5.55544">
        <ele>347</ele>
        <time>2019-11-20T13:27:47Z</time>
      </trkpt>
      <trkpt lat="43.20235" lon="5.55538">
        <ele>346</ele>
        <time>2019-11-20T13:27:53Z</time>
      </trkpt>
      <trkpt lat="43.20229" lon="5.55533">
        <ele>347</ele>
        <time>2019-11-20T13:27:59Z</time>
      </trkpt>
      <trkpt lat="43.20226" lon="5.55529">
        <ele>346</ele>
        <time>2019-11-20T13:28:05Z</time>
      </trkpt>
      <trkpt lat="43.2022" lon="5.55525">
        <ele>350</ele>
        <time>2019-11-20T13:28:11Z</time>
      </trkpt>
      <trkpt lat="43.20216" lon="5.5552">
        <ele>347</ele>
        <time>2019-11-20T13:28:15Z</time>
      </trkpt>
      <trkpt lat="43.20212" lon="5.55514">
        <ele>345</ele>
        <time>2019-11-20T13:28:21Z</time>
      </trkpt>
      <trkpt lat="43.20208" lon="5.5551">
        <ele>347</ele>
        <time>2019-11-20T13:28:25Z</time>
      </trkpt>
      <trkpt lat="43.20204" lon="5.55504">
        <ele>346</ele>
        <time>2019-11-20T13:28:29Z</time>
      </trkpt>
      <trkpt lat="43.20201" lon="5.55498">
        <ele>346</ele>
        <time>2019-11-20T13:28:33Z</time>
      </trkpt>
      <trkpt lat="43.20198" lon="5.55492">
        <ele>348</ele>
        <time>2019-11-20T13:28:37Z</time>
      </trkpt>
      <trkpt lat="43.20195" lon="5.55487">
        <ele>350</ele>
        <time>2019-11-20T13:28:41Z</time>
      </trkpt>
      <trkpt lat="43.20192" lon="5.55481">
        <ele>351</ele>
        <time>2019-11-20T13:28:45Z</time>
      </trkpt>
      <trkpt lat="43.20189" lon="5.55475">
        <ele>350</ele>
        <time>2019-11-20T13:28:51Z</time>
      </trkpt>
      <trkpt lat="43.20185" lon="5.55468">
        <ele>350</ele>
        <time>2019-11-20T13:28:57Z</time>
      </trkpt>
      <trkpt lat="43.20182" lon="5.55462">
        <ele>352</ele>
        <time>2019-11-20T13:29:03Z</time>
      </trkpt>
      <trkpt lat="43.20179" lon="5.55456">
        <ele>351</ele>
        <time>2019-11-20T13:29:09Z</time>
      </trkpt>
      <trkpt lat="43.20177" lon="5.5545">
        <ele>351</ele>
        <time>2019-11-20T13:29:15Z</time>
      </trkpt>
      <trkpt lat="43.20174" lon="5.55442">
        <ele>349</ele>
        <time>2019-11-20T13:29:21Z</time>
      </trkpt>
      <trkpt lat="43.20171" lon="5.55434">
        <ele>349</ele>
        <time>2019-11-20T13:29:27Z</time>
      </trkpt>
      <trkpt lat="43.20168" lon="5.55427">
        <ele>348</ele>
        <time>2019-11-20T13:29:33Z</time>
      </trkpt>
      <trkpt lat="43.20165" lon="5.55422">
        <ele>350</ele>
        <time>2019-11-20T13:29:39Z</time>
      </trkpt>
      <trkpt lat="43.20162" lon="5.55416">
        <ele>350</ele>
        <time>2019-11-20T13:29:45Z</time>
      </trkpt>
      <trkpt lat="43.20157" lon="5.55413">
        <ele>353</ele>
        <time>2019-11-20T13:29:55Z</time>
      </trkpt>
      <trkpt lat="43.20152" lon="5.55414">
        <ele>352</ele>
        <time>2019-11-20T13:32:43Z</time>
      </trkpt>
      <trkpt lat="43.20147" lon="5.55408">
        <ele>348</ele>
        <time>2019-11-20T13:32:47Z</time>
      </trkpt>
      <trkpt lat="43.20143" lon="5.55402">
        <ele>347</ele>
        <time>2019-11-20T13:32:51Z</time>
      </trkpt>
      <trkpt lat="43.2014" lon="5.55397">
        <ele>346</ele>
        <time>2019-11-20T13:32:55Z</time>
      </trkpt>
      <trkpt lat="43.20136" lon="5.55393">
        <ele>346</ele>
        <time>2019-11-20T13:33:01Z</time>
      </trkpt>
      <trkpt lat="43.20132" lon="5.55387">
        <ele>346</ele>
        <time>2019-11-20T13:33:05Z</time>
      </trkpt>
      <trkpt lat="43.20126" lon="5.5539">
        <ele>348</ele>
        <time>2019-11-20T13:33:11Z</time>
      </trkpt>
      <trkpt lat="43.20122" lon="5.55387">
        <ele>346</ele>
        <time>2019-11-20T13:33:17Z</time>
      </trkpt>
      <trkpt lat="43.20116" lon="5.55386">
        <ele>350</ele>
        <time>2019-11-20T13:33:25Z</time>
      </trkpt>
      <trkpt lat="43.2011" lon="5.55385">
        <ele>351</ele>
        <time>2019-11-20T13:33:31Z</time>
      </trkpt>
      <trkpt lat="43.20104" lon="5.55384">
        <ele>352</ele>
        <time>2019-11-20T13:33:37Z</time>
      </trkpt>
      <trkpt lat="43.20099" lon="5.55382">
        <ele>352</ele>
        <time>2019-11-20T13:33:43Z</time>
      </trkpt>
      <trkpt lat="43.20094" lon="5.55378">
        <ele>357</ele>
        <time>2019-11-20T13:33:49Z</time>
      </trkpt>
      <trkpt lat="43.20088" lon="5.55374">
        <ele>358</ele>
        <time>2019-11-20T13:33:55Z</time>
      </trkpt>
      <trkpt lat="43.20083" lon="5.55372">
        <ele>356</ele>
        <time>2019-11-20T13:34:01Z</time>
      </trkpt>
      <trkpt lat="43.20078" lon="5.55371">
        <ele>357</ele>
        <time>2019-11-20T13:34:07Z</time>
      </trkpt>
      <trkpt lat="43.20073" lon="5.5537">
        <ele>357</ele>
        <time>2019-11-20T13:34:13Z</time>
      </trkpt>
      <trkpt lat="43.20068" lon="5.55368">
        <ele>356</ele>
        <time>2019-11-20T13:34:19Z</time>
      </trkpt>
      <trkpt lat="43.20063" lon="5.55368">
        <ele>357</ele>
        <time>2019-11-20T13:34:25Z</time>
      </trkpt>
      <trkpt lat="43.20057" lon="5.55367">
        <ele>357</ele>
        <time>2019-11-20T13:34:31Z</time>
      </trkpt>
      <trkpt lat="43.20053" lon="5.55365">
        <ele>358</ele>
        <time>2019-11-20T13:34:35Z</time>
      </trkpt>
      <trkpt lat="43.20048" lon="5.55363">
        <ele>360</ele>
        <time>2019-11-20T13:34:39Z</time>
      </trkpt>
      <trkpt lat="43.20043" lon="5.55362">
        <ele>360</ele>
        <time>2019-11-20T13:34:45Z</time>
      </trkpt>
      <trkpt lat="43.20038" lon="5.5536">
        <ele>362</ele>
        <time>2019-11-20T13:34:51Z</time>
      </trkpt>
      <trkpt lat="43.20032" lon="5.55359">
        <ele>361</ele>
        <time>2019-11-20T13:34:57Z</time>
      </trkpt>
      <trkpt lat="43.20026" lon="5.55359">
        <ele>363</ele>
        <time>2019-11-20T13:35:03Z</time>
      </trkpt>
      <trkpt lat="43.20019" lon="5.55359">
        <ele>365</ele>
        <time>2019-11-20T13:35:09Z</time>
      </trkpt>
      <trkpt lat="43.20013" lon="5.55359">
        <ele>366</ele>
        <time>2019-11-20T13:35:15Z</time>
      </trkpt>
      <trkpt lat="43.20008" lon="5.5536">
        <ele>367</ele>
        <time>2019-11-20T13:35:19Z</time>
      </trkpt>
      <trkpt lat="43.20003" lon="5.55361">
        <ele>368</ele>
        <time>2019-11-20T13:35:25Z</time>
      </trkpt>
      <trkpt lat="43.19997" lon="5.5536">
        <ele>365</ele>
        <time>2019-11-20T13:35:33Z</time>
      </trkpt>
      <trkpt lat="43.19991" lon="5.55359">
        <ele>365</ele>
        <time>2019-11-20T13:35:39Z</time>
      </trkpt>
      <trkpt lat="43.19987" lon="5.55359">
        <ele>367</ele>
        <time>2019-11-20T13:35:43Z</time>
      </trkpt>
      <trkpt lat="43.1998" lon="5.5536">
        <ele>368</ele>
        <time>2019-11-20T13:35:49Z</time>
      </trkpt>
      <trkpt lat="43.19974" lon="5.55358">
        <ele>369</ele>
        <time>2019-11-20T13:35:55Z</time>
      </trkpt>
      <trkpt lat="43.19969" lon="5.55356">
        <ele>370</ele>
        <time>2019-11-20T13:36:01Z</time>
      </trkpt>
      <trkpt lat="43.19964" lon="5.55355">
        <ele>371</ele>
        <time>2019-11-20T13:36:07Z</time>
      </trkpt>
      <trkpt lat="43.19958" lon="5.55354">
        <ele>371</ele>
        <time>2019-11-20T13:36:13Z</time>
      </trkpt>
      <trkpt lat="43.19951" lon="5.55352">
        <ele>372</ele>
        <time>2019-11-20T13:36:19Z</time>
      </trkpt>
      <trkpt lat="43.19945" lon="5.5535">
        <ele>372</ele>
        <time>2019-11-20T13:36:25Z</time>
      </trkpt>
      <trkpt lat="43.19941" lon="5.55344">
        <ele>370</ele>
        <time>2019-11-20T13:36:31Z</time>
      </trkpt>
      <trkpt lat="43.19938" lon="5.5534">
        <ele>375</ele>
        <time>2019-11-20T13:36:37Z</time>
      </trkpt>
      <trkpt lat="43.19932" lon="5.55341">
        <ele>377</ele>
        <time>2019-11-20T13:37:13Z</time>
      </trkpt>
      <trkpt lat="43.19933" lon="5.55333">
        <ele>374</ele>
        <time>2019-11-20T13:37:31Z</time>
      </trkpt>
      <trkpt lat="43.19933" lon="5.55325">
        <ele>375</ele>
        <time>2019-11-20T13:37:37Z</time>
      </trkpt>
      <trkpt lat="43.19933" lon="5.55318">
        <ele>375</ele>
        <time>2019-11-20T13:37:43Z</time>
      </trkpt>
      <trkpt lat="43.19932" lon="5.55311">
        <ele>374</ele>
        <time>2019-11-20T13:37:49Z</time>
      </trkpt>
      <trkpt lat="43.19932" lon="5.55303">
        <ele>374</ele>
        <time>2019-11-20T13:37:57Z</time>
      </trkpt>
      <trkpt lat="43.19932" lon="5.55296">
        <ele>373</ele>
        <time>2019-11-20T13:38:03Z</time>
      </trkpt>
      <trkpt lat="43.19934" lon="5.5529">
        <ele>373</ele>
        <time>2019-11-20T13:38:11Z</time>
      </trkpt>
      <trkpt lat="43.19938" lon="5.55284">
        <ele>374</ele>
        <time>2019-11-20T13:38:17Z</time>
      </trkpt>
      <trkpt lat="43.1994" lon="5.55278">
        <ele>373</ele>
        <time>2019-11-20T13:38:23Z</time>
      </trkpt>
      <trkpt lat="43.19943" lon="5.55272">
        <ele>372</ele>
        <time>2019-11-20T13:38:29Z</time>
      </trkpt>
      <trkpt lat="43.19946" lon="5.55265">
        <ele>371</ele>
        <time>2019-11-20T13:38:35Z</time>
      </trkpt>
      <trkpt lat="43.19948" lon="5.55259">
        <ele>373</ele>
        <time>2019-11-20T13:38:39Z</time>
      </trkpt>
      <trkpt lat="43.19952" lon="5.55253">
        <ele>374</ele>
        <time>2019-11-20T13:38:45Z</time>
      </trkpt>
      <trkpt lat="43.19954" lon="5.55245">
        <ele>372</ele>
        <time>2019-11-20T13:38:51Z</time>
      </trkpt>
      <trkpt lat="43.19957" lon="5.55238">
        <ele>371</ele>
        <time>2019-11-20T13:38:57Z</time>
      </trkpt>
      <trkpt lat="43.1996" lon="5.55232">
        <ele>370</ele>
        <time>2019-11-20T13:39:03Z</time>
      </trkpt>
      <trkpt lat="43.1996" lon="5.55225">
        <ele>371</ele>
        <time>2019-11-20T13:39:09Z</time>
      </trkpt>
      <trkpt lat="43.1996" lon="5.55219">
        <ele>372</ele>
        <time>2019-11-20T13:39:21Z</time>
      </trkpt>
      <trkpt lat="43.19965" lon="5.55221">
        <ele>377</ele>
        <time>2019-11-20T13:40:55Z</time>
      </trkpt>
      <trkpt lat="43.19963" lon="5.55228">
        <ele>377</ele>
        <time>2019-11-20T13:42:25Z</time>
      </trkpt>
      <trkpt lat="43.19959" lon="5.55231">
        <ele>376</ele>
        <time>2019-11-20T13:44:55Z</time>
      </trkpt>
      <trkpt lat="43.19954" lon="5.55233">
        <ele>376</ele>
        <time>2019-11-20T13:45:53Z</time>
      </trkpt>
      <trkpt lat="43.19949" lon="5.55234">
        <ele>376</ele>
        <time>2019-11-20T13:45:59Z</time>
      </trkpt>
      <trkpt lat="43.19944" lon="5.55232">
        <ele>377</ele>
        <time>2019-11-20T13:46:05Z</time>
      </trkpt>
      <trkpt lat="43.19939" lon="5.55228">
        <ele>375</ele>
        <time>2019-11-20T13:46:11Z</time>
      </trkpt>
      <trkpt lat="43.19934" lon="5.55225">
        <ele>376</ele>
        <time>2019-11-20T13:46:19Z</time>
      </trkpt>
      <trkpt lat="43.19929" lon="5.55224">
        <ele>378</ele>
        <time>2019-11-20T13:46:25Z</time>
      </trkpt>
      <trkpt lat="43.19924" lon="5.55224">
        <ele>377</ele>
        <time>2019-11-20T13:46:31Z</time>
      </trkpt>
      <trkpt lat="43.19918" lon="5.55223">
        <ele>377</ele>
        <time>2019-11-20T13:46:37Z</time>
      </trkpt>
      <trkpt lat="43.19913" lon="5.55225">
        <ele>376</ele>
        <time>2019-11-20T13:46:41Z</time>
      </trkpt>
      <trkpt lat="43.19907" lon="5.55224">
        <ele>375</ele>
        <time>2019-11-20T13:46:47Z</time>
      </trkpt>
      <trkpt lat="43.19902" lon="5.55226">
        <ele>375</ele>
        <time>2019-11-20T13:46:53Z</time>
      </trkpt>
      <trkpt lat="43.19895" lon="5.55223">
        <ele>375</ele>
        <time>2019-11-20T13:47:01Z</time>
      </trkpt>
      <trkpt lat="43.1989" lon="5.55221">
        <ele>376</ele>
        <time>2019-11-20T13:47:07Z</time>
      </trkpt>
      <trkpt lat="43.19885" lon="5.5522">
        <ele>378</ele>
        <time>2019-11-20T13:47:13Z</time>
      </trkpt>
      <trkpt lat="43.1988" lon="5.55221">
        <ele>379</ele>
        <time>2019-11-20T13:47:19Z</time>
      </trkpt>
      <trkpt lat="43.19874" lon="5.55221">
        <ele>381</ele>
        <time>2019-11-20T13:47:27Z</time>
      </trkpt>
      <trkpt lat="43.19868" lon="5.5522">
        <ele>381</ele>
        <time>2019-11-20T13:47:35Z</time>
      </trkpt>
      <trkpt lat="43.19862" lon="5.55221">
        <ele>381</ele>
        <time>2019-11-20T13:47:41Z</time>
      </trkpt>
      <trkpt lat="43.19857" lon="5.55222">
        <ele>379</ele>
        <time>2019-11-20T13:47:47Z</time>
      </trkpt>
      <trkpt lat="43.19852" lon="5.55221">
        <ele>380</ele>
        <time>2019-11-20T13:47:53Z</time>
      </trkpt>
      <trkpt lat="43.19847" lon="5.55219">
        <ele>379</ele>
        <time>2019-11-20T13:48:01Z</time>
      </trkpt>
      <trkpt lat="43.19841" lon="5.55215">
        <ele>376</ele>
        <time>2019-11-20T13:48:07Z</time>
      </trkpt>
      <trkpt lat="43.19837" lon="5.55212">
        <ele>375</ele>
        <time>2019-11-20T13:48:11Z</time>
      </trkpt>
      <trkpt lat="43.19832" lon="5.5521">
        <ele>375</ele>
        <time>2019-11-20T13:48:15Z</time>
      </trkpt>
      <trkpt lat="43.19828" lon="5.55207">
        <ele>376</ele>
        <time>2019-11-20T13:48:19Z</time>
      </trkpt>
      <trkpt lat="43.19823" lon="5.55205">
        <ele>376</ele>
        <time>2019-11-20T13:48:23Z</time>
      </trkpt>
      <trkpt lat="43.19819" lon="5.55202">
        <ele>376</ele>
        <time>2019-11-20T13:48:27Z</time>
      </trkpt>
      <trkpt lat="43.19813" lon="5.552">
        <ele>376</ele>
        <time>2019-11-20T13:48:33Z</time>
      </trkpt>
      <trkpt lat="43.19808" lon="5.55198">
        <ele>375</ele>
        <time>2019-11-20T13:48:39Z</time>
      </trkpt>
      <trkpt lat="43.19804" lon="5.55197">
        <ele>374</ele>
        <time>2019-11-20T13:48:45Z</time>
      </trkpt>
      <trkpt lat="43.19799" lon="5.55194">
        <ele>375</ele>
        <time>2019-11-20T13:48:51Z</time>
      </trkpt>
      <trkpt lat="43.19795" lon="5.55191">
        <ele>375</ele>
        <time>2019-11-20T13:48:57Z</time>
      </trkpt>
      <trkpt lat="43.19791" lon="5.55189">
        <ele>373</ele>
        <time>2019-11-20T13:49:03Z</time>
      </trkpt>
      <trkpt lat="43.19786" lon="5.55192">
        <ele>373</ele>
        <time>2019-11-20T13:49:11Z</time>
      </trkpt>
      <trkpt lat="43.19782" lon="5.55196">
        <ele>373</ele>
        <time>2019-11-20T13:49:17Z</time>
      </trkpt>
      <trkpt lat="43.19777" lon="5.55201">
        <ele>374</ele>
        <time>2019-11-20T13:49:23Z</time>
      </trkpt>
      <trkpt lat="43.19772" lon="5.55204">
        <ele>373</ele>
        <time>2019-11-20T13:49:29Z</time>
      </trkpt>
      <trkpt lat="43.19768" lon="5.55207">
        <ele>372</ele>
        <time>2019-11-20T13:49:35Z</time>
      </trkpt>
      <trkpt lat="43.19763" lon="5.55212">
        <ele>372</ele>
        <time>2019-11-20T13:49:41Z</time>
      </trkpt>
      <trkpt lat="43.19759" lon="5.55216">
        <ele>371</ele>
        <time>2019-11-20T13:49:47Z</time>
      </trkpt>
      <trkpt lat="43.19755" lon="5.5522">
        <ele>370</ele>
        <time>2019-11-20T13:49:53Z</time>
      </trkpt>
      <trkpt lat="43.19751" lon="5.55225">
        <ele>368</ele>
        <time>2019-11-20T13:50:01Z</time>
      </trkpt>
      <trkpt lat="43.19746" lon="5.55227">
        <ele>367</ele>
        <time>2019-11-20T13:50:09Z</time>
      </trkpt>
      <trkpt lat="43.19743" lon="5.55232">
        <ele>366</ele>
        <time>2019-11-20T13:50:15Z</time>
      </trkpt>
      <trkpt lat="43.19738" lon="5.55234">
        <ele>364</ele>
        <time>2019-11-20T13:50:25Z</time>
      </trkpt>
      <trkpt lat="43.19733" lon="5.55234">
        <ele>361</ele>
        <time>2019-11-20T13:50:31Z</time>
      </trkpt>
      <trkpt lat="43.19728" lon="5.55236">
        <ele>359</ele>
        <time>2019-11-20T13:50:37Z</time>
      </trkpt>
      <trkpt lat="43.19725" lon="5.55241">
        <ele>356</ele>
        <time>2019-11-20T13:50:47Z</time>
      </trkpt>
      <trkpt lat="43.19723" lon="5.55247">
        <ele>356</ele>
        <time>2019-11-20T13:50:53Z</time>
      </trkpt>
      <trkpt lat="43.1972" lon="5.55254">
        <ele>356</ele>
        <time>2019-11-20T13:50:57Z</time>
      </trkpt>
      <trkpt lat="43.19715" lon="5.5526">
        <ele>357</ele>
        <time>2019-11-20T13:51:01Z</time>
      </trkpt>
      <trkpt lat="43.19711" lon="5.55263">
        <ele>358</ele>
        <time>2019-11-20T13:51:05Z</time>
      </trkpt>
      <trkpt lat="43.19705" lon="5.55264">
        <ele>358</ele>
        <time>2019-11-20T13:51:11Z</time>
      </trkpt>
      <trkpt lat="43.19709" lon="5.55259">
        <ele>359</ele>
        <time>2019-11-20T13:52:13Z</time>
      </trkpt>
      <trkpt lat="43.19707" lon="5.55265">
        <ele>357</ele>
        <time>2019-11-20T13:53:07Z</time>
      </trkpt>
      <trkpt lat="43.19706" lon="5.55272">
        <ele>357</ele>
        <time>2019-11-20T13:53:13Z</time>
      </trkpt>
      <trkpt lat="43.19707" lon="5.5528">
        <ele>358</ele>
        <time>2019-11-20T13:53:25Z</time>
      </trkpt>
      <trkpt lat="43.19705" lon="5.55287">
        <ele>359</ele>
        <time>2019-11-20T13:53:31Z</time>
      </trkpt>
      <trkpt lat="43.19705" lon="5.55295">
        <ele>362</ele>
        <time>2019-11-20T13:53:37Z</time>
      </trkpt>
      <trkpt lat="43.19704" lon="5.55301">
        <ele>360</ele>
        <time>2019-11-20T13:53:47Z</time>
      </trkpt>
      <trkpt lat="43.19703" lon="5.55308">
        <ele>358</ele>
        <time>2019-11-20T13:53:53Z</time>
      </trkpt>
      <trkpt lat="43.19707" lon="5.55312">
        <ele>357</ele>
        <time>2019-11-20T13:54:15Z</time>
      </trkpt>
      <trkpt lat="43.19709" lon="5.55317">
        <ele>358</ele>
        <time>2019-11-20T13:54:27Z</time>
      </trkpt>
      <trkpt lat="43.1971" lon="5.55324">
        <ele>356</ele>
        <time>2019-11-20T13:54:47Z</time>
      </trkpt>
      <trkpt lat="43.19712" lon="5.55331">
        <ele>356</ele>
        <time>2019-11-20T13:54:53Z</time>
      </trkpt>
      <trkpt lat="43.19714" lon="5.55337">
        <ele>356</ele>
        <time>2019-11-20T13:55:03Z</time>
      </trkpt>
      <trkpt lat="43.19715" lon="5.55343">
        <ele>356</ele>
        <time>2019-11-20T13:55:09Z</time>
      </trkpt>
      <trkpt lat="43.19717" lon="5.55353">
        <ele>359</ele>
        <time>2019-11-20T13:55:15Z</time>
      </trkpt>
      <trkpt lat="43.1972" lon="5.55361">
        <ele>357</ele>
        <time>2019-11-20T13:55:19Z</time>
      </trkpt>
      <trkpt lat="43.19721" lon="5.55368">
        <ele>354</ele>
        <time>2019-11-20T13:55:27Z</time>
      </trkpt>
      <trkpt lat="43.19724" lon="5.55374">
        <ele>357</ele>
        <time>2019-11-20T13:55:31Z</time>
      </trkpt>
      <trkpt lat="43.19727" lon="5.55383">
        <ele>356</ele>
        <time>2019-11-20T13:55:35Z</time>
      </trkpt>
      <trkpt lat="43.19729" lon="5.55389">
        <ele>357</ele>
        <time>2019-11-20T13:55:39Z</time>
      </trkpt>
      <trkpt lat="43.19732" lon="5.55395">
        <ele>357</ele>
        <time>2019-11-20T13:55:43Z</time>
      </trkpt>
      <trkpt lat="43.19734" lon="5.55402">
        <ele>355</ele>
        <time>2019-11-20T13:55:49Z</time>
      </trkpt>
      <trkpt lat="43.19736" lon="5.5541">
        <ele>354</ele>
        <time>2019-11-20T13:55:55Z</time>
      </trkpt>
      <trkpt lat="43.19739" lon="5.55416">
        <ele>354</ele>
        <time>2019-11-20T13:55:59Z</time>
      </trkpt>
      <trkpt lat="43.19741" lon="5.55422">
        <ele>353</ele>
        <time>2019-11-20T13:56:03Z</time>
      </trkpt>
      <trkpt lat="43.19743" lon="5.55431">
        <ele>353</ele>
        <time>2019-11-20T13:56:09Z</time>
      </trkpt>
      <trkpt lat="43.19745" lon="5.55437">
        <ele>351</ele>
        <time>2019-11-20T13:56:15Z</time>
      </trkpt>
      <trkpt lat="43.19748" lon="5.55445">
        <ele>351</ele>
        <time>2019-11-20T13:56:25Z</time>
      </trkpt>
      <trkpt lat="43.1975" lon="5.55453">
        <ele>350</ele>
        <time>2019-11-20T13:56:31Z</time>
      </trkpt>
      <trkpt lat="43.19752" lon="5.55459">
        <ele>349</ele>
        <time>2019-11-20T13:56:35Z</time>
      </trkpt>
      <trkpt lat="43.19753" lon="5.55466">
        <ele>349</ele>
        <time>2019-11-20T13:56:43Z</time>
      </trkpt>
      <trkpt lat="43.19752" lon="5.55472">
        <ele>350</ele>
        <time>2019-11-20T13:56:47Z</time>
      </trkpt>
      <trkpt lat="43.1975" lon="5.55478">
        <ele>351</ele>
        <time>2019-11-20T13:56:53Z</time>
      </trkpt>
      <trkpt lat="43.19748" lon="5.55485">
        <ele>352</ele>
        <time>2019-11-20T13:56:57Z</time>
      </trkpt>
      <trkpt lat="43.19746" lon="5.55491">
        <ele>352</ele>
        <time>2019-11-20T13:57:01Z</time>
      </trkpt>
      <trkpt lat="43.19744" lon="5.55499">
        <ele>353</ele>
        <time>2019-11-20T13:57:07Z</time>
      </trkpt>
      <trkpt lat="43.19744" lon="5.55505">
        <ele>354</ele>
        <time>2019-11-20T13:57:13Z</time>
      </trkpt>
      <trkpt lat="43.19743" lon="5.55513">
        <ele>354</ele>
        <time>2019-11-20T13:57:21Z</time>
      </trkpt>
      <trkpt lat="43.19743" lon="5.55519">
        <ele>355</ele>
        <time>2019-11-20T13:57:27Z</time>
      </trkpt>
      <trkpt lat="43.19741" lon="5.55526">
        <ele>353</ele>
        <time>2019-11-20T13:57:33Z</time>
      </trkpt>
      <trkpt lat="43.19743" lon="5.55532">
        <ele>357</ele>
        <time>2019-11-20T13:57:37Z</time>
      </trkpt>
      <trkpt lat="43.19741" lon="5.55538">
        <ele>355</ele>
        <time>2019-11-20T13:57:47Z</time>
      </trkpt>
      <trkpt lat="43.19738" lon="5.55545">
        <ele>351</ele>
        <time>2019-11-20T13:57:53Z</time>
      </trkpt>
      <trkpt lat="43.19737" lon="5.55552">
        <ele>351</ele>
        <time>2019-11-20T13:58:01Z</time>
      </trkpt>
      <trkpt lat="43.19737" lon="5.5556">
        <ele>352</ele>
        <time>2019-11-20T13:58:07Z</time>
      </trkpt>
      <trkpt lat="43.19737" lon="5.55567">
        <ele>352</ele>
        <time>2019-11-20T13:58:11Z</time>
      </trkpt>
      <trkpt lat="43.19738" lon="5.55574">
        <ele>353</ele>
        <time>2019-11-20T13:58:19Z</time>
      </trkpt>
      <trkpt lat="43.19737" lon="5.55581">
        <ele>353</ele>
        <time>2019-11-20T13:58:25Z</time>
      </trkpt>
      <trkpt lat="43.19738" lon="5.55588">
        <ele>353</ele>
        <time>2019-11-20T13:58:31Z</time>
      </trkpt>
      <trkpt lat="43.1974" lon="5.55596">
        <ele>354</ele>
        <time>2019-11-20T13:58:39Z</time>
      </trkpt>
      <trkpt lat="43.1974" lon="5.55603">
        <ele>355</ele>
        <time>2019-11-20T13:58:43Z</time>
      </trkpt>
      <trkpt lat="43.19739" lon="5.5561">
        <ele>354</ele>
        <time>2019-11-20T13:58:49Z</time>
      </trkpt>
      <trkpt lat="43.19739" lon="5.55617">
        <ele>354</ele>
        <time>2019-11-20T13:59:03Z</time>
      </trkpt>
      <trkpt lat="43.1974" lon="5.55624">
        <ele>355</ele>
        <time>2019-11-20T13:59:09Z</time>
      </trkpt>
      <trkpt lat="43.19743" lon="5.5563">
        <ele>356</ele>
        <time>2019-11-20T13:59:23Z</time>
      </trkpt>
      <trkpt lat="43.19745" lon="5.55638">
        <ele>357</ele>
        <time>2019-11-20T13:59:31Z</time>
      </trkpt>
      <trkpt lat="43.19746" lon="5.55645">
        <ele>357</ele>
        <time>2019-11-20T13:59:37Z</time>
      </trkpt>
      <trkpt lat="43.19746" lon="5.55654">
        <ele>356</ele>
        <time>2019-11-20T13:59:45Z</time>
      </trkpt>
      <trkpt lat="43.19747" lon="5.5566">
        <ele>355</ele>
        <time>2019-11-20T13:59:49Z</time>
      </trkpt>
      <trkpt lat="43.1975" lon="5.55666">
        <ele>357</ele>
        <time>2019-11-20T13:59:53Z</time>
      </trkpt>
      <trkpt lat="43.19754" lon="5.55668">
        <ele>360</ele>
        <time>2019-11-20T13:59:59Z</time>
      </trkpt>
      <trkpt lat="43.19756" lon="5.55674">
        <ele>361</ele>
        <time>2019-11-20T14:00:03Z</time>
      </trkpt>
      <trkpt lat="43.19756" lon="5.55681">
        <ele>362</ele>
        <time>2019-11-20T14:00:07Z</time>
      </trkpt>
      <trkpt lat="43.19759" lon="5.55687">
        <ele>361</ele>
        <time>2019-11-20T14:00:15Z</time>
      </trkpt>
      <trkpt lat="43.19761" lon="5.55694">
        <ele>361</ele>
        <time>2019-11-20T14:00:23Z</time>
      </trkpt>
      <trkpt lat="43.19764" lon="5.557">
        <ele>363</ele>
        <time>2019-11-20T14:00:27Z</time>
      </trkpt>
      <trkpt lat="43.19767" lon="5.55706">
        <ele>366</ele>
        <time>2019-11-20T14:00:31Z</time>
      </trkpt>
      <trkpt lat="43.19768" lon="5.55712">
        <ele>366</ele>
        <time>2019-11-20T14:00:37Z</time>
      </trkpt>
      <trkpt lat="43.19769" lon="5.5572">
        <ele>367</ele>
        <time>2019-11-20T14:00:45Z</time>
      </trkpt>
      <trkpt lat="43.19772" lon="5.55726">
        <ele>367</ele>
        <time>2019-11-20T14:00:51Z</time>
      </trkpt>
      <trkpt lat="43.19774" lon="5.55734">
        <ele>369</ele>
        <time>2019-11-20T14:00:59Z</time>
      </trkpt>
      <trkpt lat="43.19775" lon="5.55742">
        <ele>370</ele>
        <time>2019-11-20T14:01:07Z</time>
      </trkpt>
      <trkpt lat="43.19773" lon="5.5575">
        <ele>367</ele>
        <time>2019-11-20T14:01:15Z</time>
      </trkpt>
      <trkpt lat="43.19772" lon="5.55757">
        <ele>369</ele>
        <time>2019-11-20T14:01:19Z</time>
      </trkpt>
      <trkpt lat="43.19772" lon="5.55764">
        <ele>371</ele>
        <time>2019-11-20T14:01:23Z</time>
      </trkpt>
      <trkpt lat="43.19771" lon="5.55771">
        <ele>373</ele>
        <time>2019-11-20T14:01:33Z</time>
      </trkpt>
      <trkpt lat="43.19771" lon="5.55778">
        <ele>369</ele>
        <time>2019-11-20T14:01:45Z</time>
      </trkpt>
      <trkpt lat="43.19772" lon="5.55785">
        <ele>369</ele>
        <time>2019-11-20T14:01:51Z</time>
      </trkpt>
      <trkpt lat="43.19773" lon="5.55792">
        <ele>369</ele>
        <time>2019-11-20T14:01:57Z</time>
      </trkpt>
      <trkpt lat="43.19772" lon="5.558">
        <ele>368</ele>
        <time>2019-11-20T14:02:05Z</time>
      </trkpt>
      <trkpt lat="43.19772" lon="5.55807">
        <ele>370</ele>
        <time>2019-11-20T14:02:09Z</time>
      </trkpt>
      <trkpt lat="43.19772" lon="5.55816">
        <ele>373</ele>
        <time>2019-11-20T14:02:13Z</time>
      </trkpt>
      <trkpt lat="43.19771" lon="5.55824">
        <ele>372</ele>
        <time>2019-11-20T14:02:19Z</time>
      </trkpt>
      <trkpt lat="43.19771" lon="5.5583">
        <ele>371</ele>
        <time>2019-11-20T14:02:29Z</time>
      </trkpt>
      <trkpt lat="43.19769" lon="5.55839">
        <ele>373</ele>
        <time>2019-11-20T14:02:37Z</time>
      </trkpt>
      <trkpt lat="43.19767" lon="5.55845">
        <ele>374</ele>
        <time>2019-11-20T14:02:39Z</time>
      </trkpt>
      <trkpt lat="43.19765" lon="5.55854">
        <ele>375</ele>
        <time>2019-11-20T14:02:43Z</time>
      </trkpt>
      <trkpt lat="43.19765" lon="5.55863">
        <ele>377</ele>
        <time>2019-11-20T14:02:49Z</time>
      </trkpt>
      <trkpt lat="43.19765" lon="5.5587">
        <ele>377</ele>
        <time>2019-11-20T14:02:55Z</time>
      </trkpt>
      <trkpt lat="43.19765" lon="5.55877">
        <ele>376</ele>
        <time>2019-11-20T14:03:01Z</time>
      </trkpt>
      <trkpt lat="43.19765" lon="5.55885">
        <ele>375</ele>
        <time>2019-11-20T14:03:09Z</time>
      </trkpt>
      <trkpt lat="43.19764" lon="5.55892">
        <ele>377</ele>
        <time>2019-11-20T14:03:15Z</time>
      </trkpt>
      <trkpt lat="43.19759" lon="5.55898">
        <ele>376</ele>
        <time>2019-11-20T14:03:21Z</time>
      </trkpt>
      <trkpt lat="43.19754" lon="5.559">
        <ele>375</ele>
        <time>2019-11-20T14:03:27Z</time>
      </trkpt>
      <trkpt lat="43.19749" lon="5.55903">
        <ele>375</ele>
        <time>2019-11-20T14:03:33Z</time>
      </trkpt>
      <trkpt lat="43.19745" lon="5.55906">
        <ele>376</ele>
        <time>2019-11-20T14:03:45Z</time>
      </trkpt>
      <trkpt lat="43.19745" lon="5.55913">
        <ele>373</ele>
        <time>2019-11-20T14:06:51Z</time>
      </trkpt>
      <trkpt lat="43.19747" lon="5.55918">
        <ele>376</ele>
        <time>2019-11-20T14:07:29Z</time>
      </trkpt>
      <trkpt lat="43.19749" lon="5.55926">
        <ele>376</ele>
        <time>2019-11-20T14:07:35Z</time>
      </trkpt>
      <trkpt lat="43.19751" lon="5.55933">
        <ele>376</ele>
        <time>2019-11-20T14:07:41Z</time>
      </trkpt>
      <trkpt lat="43.19751" lon="5.5594">
        <ele>375</ele>
        <time>2019-11-20T14:07:47Z</time>
      </trkpt>
      <trkpt lat="43.19752" lon="5.55948">
        <ele>374</ele>
        <time>2019-11-20T14:07:55Z</time>
      </trkpt>
      <trkpt lat="43.19754" lon="5.55954">
        <ele>373</ele>
        <time>2019-11-20T14:08:01Z</time>
      </trkpt>
      <trkpt lat="43.19757" lon="5.55961">
        <ele>373</ele>
        <time>2019-11-20T14:08:07Z</time>
      </trkpt>
      <trkpt lat="43.1976" lon="5.55966">
        <ele>372</ele>
        <time>2019-11-20T14:08:13Z</time>
      </trkpt>
      <trkpt lat="43.19763" lon="5.55973">
        <ele>370</ele>
        <time>2019-11-20T14:08:19Z</time>
      </trkpt>
      <trkpt lat="43.19765" lon="5.55981">
        <ele>370</ele>
        <time>2019-11-20T14:08:25Z</time>
      </trkpt>
      <trkpt lat="43.19766" lon="5.55988">
        <ele>370</ele>
        <time>2019-11-20T14:08:31Z</time>
      </trkpt>
      <trkpt lat="43.19768" lon="5.55996">
        <ele>369</ele>
        <time>2019-11-20T14:08:37Z</time>
      </trkpt>
      <trkpt lat="43.19769" lon="5.56004">
        <ele>368</ele>
        <time>2019-11-20T14:08:43Z</time>
      </trkpt>
      <trkpt lat="43.19769" lon="5.56012">
        <ele>367</ele>
        <time>2019-11-20T14:08:49Z</time>
      </trkpt>
      <trkpt lat="43.1977" lon="5.5602">
        <ele>366</ele>
        <time>2019-11-20T14:08:55Z</time>
      </trkpt>
      <trkpt lat="43.19771" lon="5.56027">
        <ele>365</ele>
        <time>2019-11-20T14:09:01Z</time>
      </trkpt>
      <trkpt lat="43.1977" lon="5.56034">
        <ele>365</ele>
        <time>2019-11-20T14:09:07Z</time>
      </trkpt>
      <trkpt lat="43.19771" lon="5.56042">
        <ele>365</ele>
        <time>2019-11-20T14:09:13Z</time>
      </trkpt>
      <trkpt lat="43.19772" lon="5.56049">
        <ele>363</ele>
        <time>2019-11-20T14:09:19Z</time>
      </trkpt>
      <trkpt lat="43.19774" lon="5.56057">
        <ele>362</ele>
        <time>2019-11-20T14:09:25Z</time>
      </trkpt>
      <trkpt lat="43.19776" lon="5.56064">
        <ele>362</ele>
        <time>2019-11-20T14:09:31Z</time>
      </trkpt>
      <trkpt lat="43.19777" lon="5.56072">
        <ele>361</ele>
        <time>2019-11-20T14:09:37Z</time>
      </trkpt>
      <trkpt lat="43.19777" lon="5.56078">
        <ele>360</ele>
        <time>2019-11-20T14:09:43Z</time>
      </trkpt>
      <trkpt lat="43.19777" lon="5.56086">
        <ele>359</ele>
        <time>2019-11-20T14:09:49Z</time>
      </trkpt>
      <trkpt lat="43.19779" lon="5.56094">
        <ele>358</ele>
        <time>2019-11-20T14:09:55Z</time>
      </trkpt>
      <trkpt lat="43.19781" lon="5.56102">
        <ele>358</ele>
        <time>2019-11-20T14:10:01Z</time>
      </trkpt>
      <trkpt lat="43.19781" lon="5.56108">
        <ele>357</ele>
        <time>2019-11-20T14:10:05Z</time>
      </trkpt>
      <trkpt lat="43.19781" lon="5.56116">
        <ele>355</ele>
        <time>2019-11-20T14:10:11Z</time>
      </trkpt>
      <trkpt lat="43.19784" lon="5.56123">
        <ele>355</ele>
        <time>2019-11-20T14:10:17Z</time>
      </trkpt>
      <trkpt lat="43.19785" lon="5.56131">
        <ele>355</ele>
        <time>2019-11-20T14:10:23Z</time>
      </trkpt>
      <trkpt lat="43.19787" lon="5.56138">
        <ele>355</ele>
        <time>2019-11-20T14:10:29Z</time>
      </trkpt>
      <trkpt lat="43.19789" lon="5.56146">
        <ele>354</ele>
        <time>2019-11-20T14:10:35Z</time>
      </trkpt>
      <trkpt lat="43.1979" lon="5.56154">
        <ele>352</ele>
        <time>2019-11-20T14:10:41Z</time>
      </trkpt>
      <trkpt lat="43.1979" lon="5.56163">
        <ele>352</ele>
        <time>2019-11-20T14:10:47Z</time>
      </trkpt>
      <trkpt lat="43.1979" lon="5.56171">
        <ele>352</ele>
        <time>2019-11-20T14:10:53Z</time>
      </trkpt>
      <trkpt lat="43.19788" lon="5.56179">
        <ele>352</ele>
        <time>2019-11-20T14:10:59Z</time>
      </trkpt>
      <trkpt lat="43.19786" lon="5.56185">
        <ele>353</ele>
        <time>2019-11-20T14:11:05Z</time>
      </trkpt>
      <trkpt lat="43.19783" lon="5.5619">
        <ele>352</ele>
        <time>2019-11-20T14:11:11Z</time>
      </trkpt>
      <trkpt lat="43.19779" lon="5.56196">
        <ele>350</ele>
        <time>2019-11-20T14:11:17Z</time>
      </trkpt>
      <trkpt lat="43.19777" lon="5.56203">
        <ele>348</ele>
        <time>2019-11-20T14:11:23Z</time>
      </trkpt>
      <trkpt lat="43.19776" lon="5.56211">
        <ele>346</ele>
        <time>2019-11-20T14:11:29Z</time>
      </trkpt>
      <trkpt lat="43.19779" lon="5.56219">
        <ele>345</ele>
        <time>2019-11-20T14:11:35Z</time>
      </trkpt>
      <trkpt lat="43.19783" lon="5.56223">
        <ele>343</ele>
        <time>2019-11-20T14:11:41Z</time>
      </trkpt>
      <trkpt lat="43.19788" lon="5.56224">
        <ele>343</ele>
        <time>2019-11-20T14:11:47Z</time>
      </trkpt>
      <trkpt lat="43.19793" lon="5.56223">
        <ele>342</ele>
        <time>2019-11-20T14:11:53Z</time>
      </trkpt>
      <trkpt lat="43.19799" lon="5.56223">
        <ele>340</ele>
        <time>2019-11-20T14:11:59Z</time>
      </trkpt>
      <trkpt lat="43.19805" lon="5.56222">
        <ele>342</ele>
        <time>2019-11-20T14:12:05Z</time>
      </trkpt>
      <trkpt lat="43.19811" lon="5.5622">
        <ele>341</ele>
        <time>2019-11-20T14:12:11Z</time>
      </trkpt>
      <trkpt lat="43.19816" lon="5.56218">
        <ele>340</ele>
        <time>2019-11-20T14:12:15Z</time>
      </trkpt>
      <trkpt lat="43.19822" lon="5.56215">
        <ele>340</ele>
        <time>2019-11-20T14:12:21Z</time>
      </trkpt>
      <trkpt lat="43.19823" lon="5.56222">
        <ele>339</ele>
        <time>2019-11-20T14:12:31Z</time>
      </trkpt>
      <trkpt lat="43.1982" lon="5.56226">
        <ele>338</ele>
        <time>2019-11-20T14:12:35Z</time>
      </trkpt>
      <trkpt lat="43.19816" lon="5.56233">
        <ele>338</ele>
        <time>2019-11-20T14:12:41Z</time>
      </trkpt>
      <trkpt lat="43.19812" lon="5.5624">
        <ele>339</ele>
        <time>2019-11-20T14:12:47Z</time>
      </trkpt>
      <trkpt lat="43.19809" lon="5.56246">
        <ele>339</ele>
        <time>2019-11-20T14:12:53Z</time>
      </trkpt>
      <trkpt lat="43.19805" lon="5.56249">
        <ele>337</ele>
        <time>2019-11-20T14:12:59Z</time>
      </trkpt>
      <trkpt lat="43.19802" lon="5.56254">
        <ele>337</ele>
        <time>2019-11-20T14:13:03Z</time>
      </trkpt>
      <trkpt lat="43.19799" lon="5.56259">
        <ele>337</ele>
        <time>2019-11-20T14:13:07Z</time>
      </trkpt>
      <trkpt lat="43.19794" lon="5.56264">
        <ele>337</ele>
        <time>2019-11-20T14:13:13Z</time>
      </trkpt>
      <trkpt lat="43.19789" lon="5.5627">
        <ele>336</ele>
        <time>2019-11-20T14:13:19Z</time>
      </trkpt>
      <trkpt lat="43.19784" lon="5.56275">
        <ele>336</ele>
        <time>2019-11-20T14:13:25Z</time>
      </trkpt>
      <trkpt lat="43.1978" lon="5.56279">
        <ele>336</ele>
        <time>2019-11-20T14:13:31Z</time>
      </trkpt>
      <trkpt lat="43.19775" lon="5.56283">
        <ele>335</ele>
        <time>2019-11-20T14:13:37Z</time>
      </trkpt>
      <trkpt lat="43.1977" lon="5.56287">
        <ele>335</ele>
        <time>2019-11-20T14:13:43Z</time>
      </trkpt>
      <trkpt lat="43.19765" lon="5.56291">
        <ele>334</ele>
        <time>2019-11-20T14:13:49Z</time>
      </trkpt>
      <trkpt lat="43.19762" lon="5.56296">
        <ele>334</ele>
        <time>2019-11-20T14:13:55Z</time>
      </trkpt>
      <trkpt lat="43.19759" lon="5.56304">
        <ele>333</ele>
        <time>2019-11-20T14:14:01Z</time>
      </trkpt>
      <trkpt lat="43.19757" lon="5.56312">
        <ele>333</ele>
        <time>2019-11-20T14:14:07Z</time>
      </trkpt>
      <trkpt lat="43.19756" lon="5.56318">
        <ele>332</ele>
        <time>2019-11-20T14:14:11Z</time>
      </trkpt>
      <trkpt lat="43.19756" lon="5.56327">
        <ele>332</ele>
        <time>2019-11-20T14:14:17Z</time>
      </trkpt>
      <trkpt lat="43.19756" lon="5.56334">
        <ele>331</ele>
        <time>2019-11-20T14:14:23Z</time>
      </trkpt>
      <trkpt lat="43.19756" lon="5.56341">
        <ele>331</ele>
        <time>2019-11-20T14:14:29Z</time>
      </trkpt>
      <trkpt lat="43.19756" lon="5.56349">
        <ele>331</ele>
        <time>2019-11-20T14:14:35Z</time>
      </trkpt>
      <trkpt lat="43.19756" lon="5.56355">
        <ele>330</ele>
        <time>2019-11-20T14:14:41Z</time>
      </trkpt>
      <trkpt lat="43.19756" lon="5.56364">
        <ele>330</ele>
        <time>2019-11-20T14:14:47Z</time>
      </trkpt>
      <trkpt lat="43.19756" lon="5.56372">
        <ele>329</ele>
        <time>2019-11-20T14:14:53Z</time>
      </trkpt>
      <trkpt lat="43.19756" lon="5.56381">
        <ele>329</ele>
        <time>2019-11-20T14:14:59Z</time>
      </trkpt>
      <trkpt lat="43.19756" lon="5.56389">
        <ele>328</ele>
        <time>2019-11-20T14:15:05Z</time>
      </trkpt>
      <trkpt lat="43.19755" lon="5.56397">
        <ele>327</ele>
        <time>2019-11-20T14:15:11Z</time>
      </trkpt>
      <trkpt lat="43.19755" lon="5.56403">
        <ele>327</ele>
        <time>2019-11-20T14:15:15Z</time>
      </trkpt>
      <trkpt lat="43.19756" lon="5.56409">
        <ele>328</ele>
        <time>2019-11-20T14:15:19Z</time>
      </trkpt>
      <trkpt lat="43.19758" lon="5.56415">
        <ele>328</ele>
        <time>2019-11-20T14:15:23Z</time>
      </trkpt>
      <trkpt lat="43.1976" lon="5.56423">
        <ele>327</ele>
        <time>2019-11-20T14:15:29Z</time>
      </trkpt>
      <trkpt lat="43.19762" lon="5.56431">
        <ele>327</ele>
        <time>2019-11-20T14:15:35Z</time>
      </trkpt>
      <trkpt lat="43.19764" lon="5.56439">
        <ele>327</ele>
        <time>2019-11-20T14:15:41Z</time>
      </trkpt>
      <trkpt lat="43.19766" lon="5.56447">
        <ele>325</ele>
        <time>2019-11-20T14:15:47Z</time>
      </trkpt>
      <trkpt lat="43.19769" lon="5.56455">
        <ele>326</ele>
        <time>2019-11-20T14:15:53Z</time>
      </trkpt>
      <trkpt lat="43.19771" lon="5.56461">
        <ele>327</ele>
        <time>2019-11-20T14:15:57Z</time>
      </trkpt>
      <trkpt lat="43.19773" lon="5.56468">
        <ele>326</ele>
        <time>2019-11-20T14:16:03Z</time>
      </trkpt>
      <trkpt lat="43.19776" lon="5.56475">
        <ele>325</ele>
        <time>2019-11-20T14:16:09Z</time>
      </trkpt>
      <trkpt lat="43.19778" lon="5.56483">
        <ele>325</ele>
        <time>2019-11-20T14:16:15Z</time>
      </trkpt>
      <trkpt lat="43.1978" lon="5.56491">
        <ele>324</ele>
        <time>2019-11-20T14:16:21Z</time>
      </trkpt>
      <trkpt lat="43.19781" lon="5.56499">
        <ele>324</ele>
        <time>2019-11-20T14:16:27Z</time>
      </trkpt>
      <trkpt lat="43.19782" lon="5.56505">
        <ele>322</ele>
        <time>2019-11-20T14:16:35Z</time>
      </trkpt>
      <trkpt lat="43.19785" lon="5.56511">
        <ele>322</ele>
        <time>2019-11-20T14:16:41Z</time>
      </trkpt>
      <trkpt lat="43.19787" lon="5.56518">
        <ele>322</ele>
        <time>2019-11-20T14:16:47Z</time>
      </trkpt>
      <trkpt lat="43.1979" lon="5.56525">
        <ele>321</ele>
        <time>2019-11-20T14:16:53Z</time>
      </trkpt>
      <trkpt lat="43.19792" lon="5.56532">
        <ele>321</ele>
        <time>2019-11-20T14:16:59Z</time>
      </trkpt>
      <trkpt lat="43.19795" lon="5.56539">
        <ele>321</ele>
        <time>2019-11-20T14:17:05Z</time>
      </trkpt>
      <trkpt lat="43.19798" lon="5.56546">
        <ele>321</ele>
        <time>2019-11-20T14:17:11Z</time>
      </trkpt>
      <trkpt lat="43.198" lon="5.56552">
        <ele>322</ele>
        <time>2019-11-20T14:17:15Z</time>
      </trkpt>
      <trkpt lat="43.19801" lon="5.56559">
        <ele>321</ele>
        <time>2019-11-20T14:17:21Z</time>
      </trkpt>
      <trkpt lat="43.19803" lon="5.56568">
        <ele>322</ele>
        <time>2019-11-20T14:17:27Z</time>
      </trkpt>
      <trkpt lat="43.19805" lon="5.56576">
        <ele>321</ele>
        <time>2019-11-20T14:17:33Z</time>
      </trkpt>
      <trkpt lat="43.19806" lon="5.56583">
        <ele>321</ele>
        <time>2019-11-20T14:17:39Z</time>
      </trkpt>
      <trkpt lat="43.19807" lon="5.56591">
        <ele>320</ele>
        <time>2019-11-20T14:17:45Z</time>
      </trkpt>
      <trkpt lat="43.19807" lon="5.56598">
        <ele>319</ele>
        <time>2019-11-20T14:17:51Z</time>
      </trkpt>
      <trkpt lat="43.19808" lon="5.56605">
        <ele>319</ele>
        <time>2019-11-20T14:17:57Z</time>
      </trkpt>
      <trkpt lat="43.19808" lon="5.56612">
        <ele>317</ele>
        <time>2019-11-20T14:18:03Z</time>
      </trkpt>
      <trkpt lat="43.19808" lon="5.56621">
        <ele>316</ele>
        <time>2019-11-20T14:18:09Z</time>
      </trkpt>
      <trkpt lat="43.19809" lon="5.56627">
        <ele>316</ele>
        <time>2019-11-20T14:18:15Z</time>
      </trkpt>
      <trkpt lat="43.1981" lon="5.56635">
        <ele>315</ele>
        <time>2019-11-20T14:18:21Z</time>
      </trkpt>
      <trkpt lat="43.19811" lon="5.56642">
        <ele>313</ele>
        <time>2019-11-20T14:18:27Z</time>
      </trkpt>
      <trkpt lat="43.19811" lon="5.56649">
        <ele>312</ele>
        <time>2019-11-20T14:18:33Z</time>
      </trkpt>
      <trkpt lat="43.19811" lon="5.56657">
        <ele>312</ele>
        <time>2019-11-20T14:18:39Z</time>
      </trkpt>
      <trkpt lat="43.19811" lon="5.56664">
        <ele>311</ele>
        <time>2019-11-20T14:18:45Z</time>
      </trkpt>
      <trkpt lat="43.19809" lon="5.56672">
        <ele>310</ele>
        <time>2019-11-20T14:18:51Z</time>
      </trkpt>
      <trkpt lat="43.19807" lon="5.56679">
        <ele>311</ele>
        <time>2019-11-20T14:18:57Z</time>
      </trkpt>
      <trkpt lat="43.19803" lon="5.56685">
        <ele>310</ele>
        <time>2019-11-20T14:19:03Z</time>
      </trkpt>
      <trkpt lat="43.19799" lon="5.5669">
        <ele>309</ele>
        <time>2019-11-20T14:19:09Z</time>
      </trkpt>
      <trkpt lat="43.19795" lon="5.56695">
        <ele>309</ele>
        <time>2019-11-20T14:19:15Z</time>
      </trkpt>
      <trkpt lat="43.19792" lon="5.56699">
        <ele>308</ele>
        <time>2019-11-20T14:19:19Z</time>
      </trkpt>
      <trkpt lat="43.19788" lon="5.56703">
        <ele>308</ele>
        <time>2019-11-20T14:19:23Z</time>
      </trkpt>
      <trkpt lat="43.19784" lon="5.56709">
        <ele>307</ele>
        <time>2019-11-20T14:19:29Z</time>
      </trkpt>
      <trkpt lat="43.19779" lon="5.56713">
        <ele>307</ele>
        <time>2019-11-20T14:19:35Z</time>
      </trkpt>
      <trkpt lat="43.19773" lon="5.56718">
        <ele>307</ele>
        <time>2019-11-20T14:19:41Z</time>
      </trkpt>
      <trkpt lat="43.19769" lon="5.56722">
        <ele>306</ele>
        <time>2019-11-20T14:19:47Z</time>
      </trkpt>
      <trkpt lat="43.19764" lon="5.56725">
        <ele>305</ele>
        <time>2019-11-20T14:19:51Z</time>
      </trkpt>
      <trkpt lat="43.19759" lon="5.56727">
        <ele>303</ele>
        <time>2019-11-20T14:19:57Z</time>
      </trkpt>
      <trkpt lat="43.19755" lon="5.56732">
        <ele>304</ele>
        <time>2019-11-20T14:20:03Z</time>
      </trkpt>
      <trkpt lat="43.19751" lon="5.56735">
        <ele>305</ele>
        <time>2019-11-20T14:20:09Z</time>
      </trkpt>
      <trkpt lat="43.19747" lon="5.56739">
        <ele>304</ele>
        <time>2019-11-20T14:20:15Z</time>
      </trkpt>
      <trkpt lat="43.19743" lon="5.56742">
        <ele>303</ele>
        <time>2019-11-20T14:20:25Z</time>
      </trkpt>
      <trkpt lat="43.19738" lon="5.56747">
        <ele>303</ele>
        <time>2019-11-20T14:20:33Z</time>
      </trkpt>
      <trkpt lat="43.19732" lon="5.56752">
        <ele>304</ele>
        <time>2019-11-20T14:20:39Z</time>
      </trkpt>
      <trkpt lat="43.19729" lon="5.56755">
        <ele>303</ele>
        <time>2019-11-20T14:20:45Z</time>
      </trkpt>
      <trkpt lat="43.19726" lon="5.5676">
        <ele>302</ele>
        <time>2019-11-20T14:21:13Z</time>
      </trkpt>
      <trkpt lat="43.19727" lon="5.56754">
        <ele>302</ele>
        <time>2019-11-20T14:21:47Z</time>
      </trkpt>
      <trkpt lat="43.19723" lon="5.56758">
        <ele>303</ele>
        <time>2019-11-20T14:25:55Z</time>
      </trkpt>
      <trkpt lat="43.19722" lon="5.56764">
        <ele>300</ele>
        <time>2019-11-20T14:26:29Z</time>
      </trkpt>
      <trkpt lat="43.19716" lon="5.56768">
        <ele>301</ele>
        <time>2019-11-20T14:26:37Z</time>
      </trkpt>
      <trkpt lat="43.19712" lon="5.56769">
        <ele>300</ele>
        <time>2019-11-20T14:26:43Z</time>
      </trkpt>
      <trkpt lat="43.19707" lon="5.56773">
        <ele>300</ele>
        <time>2019-11-20T14:26:49Z</time>
      </trkpt>
      <trkpt lat="43.19701" lon="5.56776">
        <ele>300</ele>
        <time>2019-11-20T14:26:55Z</time>
      </trkpt>
      <trkpt lat="43.19696" lon="5.5678">
        <ele>301</ele>
        <time>2019-11-20T14:27:01Z</time>
      </trkpt>
      <trkpt lat="43.19691" lon="5.56781">
        <ele>300</ele>
        <time>2019-11-20T14:27:07Z</time>
      </trkpt>
      <trkpt lat="43.19686" lon="5.56784">
        <ele>299</ele>
        <time>2019-11-20T14:27:13Z</time>
      </trkpt>
      <trkpt lat="43.19682" lon="5.56786">
        <ele>297</ele>
        <time>2019-11-20T14:27:19Z</time>
      </trkpt>
      <trkpt lat="43.19677" lon="5.5679">
        <ele>298</ele>
        <time>2019-11-20T14:27:25Z</time>
      </trkpt>
      <trkpt lat="43.19673" lon="5.56796">
        <ele>297</ele>
        <time>2019-11-20T14:27:31Z</time>
      </trkpt>
      <trkpt lat="43.19671" lon="5.56802">
        <ele>295</ele>
        <time>2019-11-20T14:27:37Z</time>
      </trkpt>
      <trkpt lat="43.1967" lon="5.56809">
        <ele>294</ele>
        <time>2019-11-20T14:27:43Z</time>
      </trkpt>
      <trkpt lat="43.1967" lon="5.56817">
        <ele>293</ele>
        <time>2019-11-20T14:27:51Z</time>
      </trkpt>
      <trkpt lat="43.19669" lon="5.56825">
        <ele>292</ele>
        <time>2019-11-20T14:27:59Z</time>
      </trkpt>
      <trkpt lat="43.19669" lon="5.56833">
        <ele>291</ele>
        <time>2019-11-20T14:28:07Z</time>
      </trkpt>
      <trkpt lat="43.19671" lon="5.5684">
        <ele>291</ele>
        <time>2019-11-20T14:28:13Z</time>
      </trkpt>
      <trkpt lat="43.1967" lon="5.56846">
        <ele>290</ele>
        <time>2019-11-20T14:28:19Z</time>
      </trkpt>
      <trkpt lat="43.19668" lon="5.56852">
        <ele>289</ele>
        <time>2019-11-20T14:28:25Z</time>
      </trkpt>
      <trkpt lat="43.19665" lon="5.56857">
        <ele>288</ele>
        <time>2019-11-20T14:28:31Z</time>
      </trkpt>
      <trkpt lat="43.19662" lon="5.56863">
        <ele>287</ele>
        <time>2019-11-20T14:28:37Z</time>
      </trkpt>
      <trkpt lat="43.19658" lon="5.56869">
        <ele>287</ele>
        <time>2019-11-20T14:28:43Z</time>
      </trkpt>
      <trkpt lat="43.19655" lon="5.56875">
        <ele>286</ele>
        <time>2019-11-20T14:28:49Z</time>
      </trkpt>
      <trkpt lat="43.19652" lon="5.5688">
        <ele>285</ele>
        <time>2019-11-20T14:28:55Z</time>
      </trkpt>
      <trkpt lat="43.19648" lon="5.56886">
        <ele>284</ele>
        <time>2019-11-20T14:29:01Z</time>
      </trkpt>
      <trkpt lat="43.19644" lon="5.56892">
        <ele>283</ele>
        <time>2019-11-20T14:29:07Z</time>
      </trkpt>
      <trkpt lat="43.19642" lon="5.56897">
        <ele>282</ele>
        <time>2019-11-20T14:29:13Z</time>
      </trkpt>
      <trkpt lat="43.19639" lon="5.56904">
        <ele>281</ele>
        <time>2019-11-20T14:29:19Z</time>
      </trkpt>
      <trkpt lat="43.19636" lon="5.56912">
        <ele>282</ele>
        <time>2019-11-20T14:29:25Z</time>
      </trkpt>
      <trkpt lat="43.19632" lon="5.56919">
        <ele>280</ele>
        <time>2019-11-20T14:29:31Z</time>
      </trkpt>
      <trkpt lat="43.19628" lon="5.56926">
        <ele>280</ele>
        <time>2019-11-20T14:29:37Z</time>
      </trkpt>
      <trkpt lat="43.19626" lon="5.56933">
        <ele>279</ele>
        <time>2019-11-20T14:29:43Z</time>
      </trkpt>
      <trkpt lat="43.19623" lon="5.56938">
        <ele>278</ele>
        <time>2019-11-20T14:29:49Z</time>
      </trkpt>
      <trkpt lat="43.1962" lon="5.56945">
        <ele>277</ele>
        <time>2019-11-20T14:29:55Z</time>
      </trkpt>
      <trkpt lat="43.19617" lon="5.56952">
        <ele>277</ele>
        <time>2019-11-20T14:30:01Z</time>
      </trkpt>
      <trkpt lat="43.19615" lon="5.5696">
        <ele>278</ele>
        <time>2019-11-20T14:30:07Z</time>
      </trkpt>
      <trkpt lat="43.19612" lon="5.56968">
        <ele>277</ele>
        <time>2019-11-20T14:30:13Z</time>
      </trkpt>
      <trkpt lat="43.19611" lon="5.56975">
        <ele>277</ele>
        <time>2019-11-20T14:30:19Z</time>
      </trkpt>
      <trkpt lat="43.19609" lon="5.56982">
        <ele>276</ele>
        <time>2019-11-20T14:30:25Z</time>
      </trkpt>
      <trkpt lat="43.19609" lon="5.56989">
        <ele>276</ele>
        <time>2019-11-20T14:30:31Z</time>
      </trkpt>
      <trkpt lat="43.19607" lon="5.56997">
        <ele>275</ele>
        <time>2019-11-20T14:30:37Z</time>
      </trkpt>
      <trkpt lat="43.19604" lon="5.57004">
        <ele>275</ele>
        <time>2019-11-20T14:30:43Z</time>
      </trkpt>
      <trkpt lat="43.19601" lon="5.57013">
        <ele>273</ele>
        <time>2019-11-20T14:30:49Z</time>
      </trkpt>
      <trkpt lat="43.19598" lon="5.57018">
        <ele>273</ele>
        <time>2019-11-20T14:30:53Z</time>
      </trkpt>
      <trkpt lat="43.19595" lon="5.57025">
        <ele>272</ele>
        <time>2019-11-20T14:30:59Z</time>
      </trkpt>
      <trkpt lat="43.19592" lon="5.57032">
        <ele>272</ele>
        <time>2019-11-20T14:31:05Z</time>
      </trkpt>
      <trkpt lat="43.19589" lon="5.57038">
        <ele>272</ele>
        <time>2019-11-20T14:31:11Z</time>
      </trkpt>
      <trkpt lat="43.19587" lon="5.57045">
        <ele>271</ele>
        <time>2019-11-20T14:31:17Z</time>
      </trkpt>
      <trkpt lat="43.19584" lon="5.57052">
        <ele>271</ele>
        <time>2019-11-20T14:31:23Z</time>
      </trkpt>
      <trkpt lat="43.19581" lon="5.57059">
        <ele>271</ele>
        <time>2019-11-20T14:31:29Z</time>
      </trkpt>
      <trkpt lat="43.19579" lon="5.57064">
        <ele>271</ele>
        <time>2019-11-20T14:31:33Z</time>
      </trkpt>
      <trkpt lat="43.19576" lon="5.57071">
        <ele>270</ele>
        <time>2019-11-20T14:31:39Z</time>
      </trkpt>
      <trkpt lat="43.19574" lon="5.57077">
        <ele>271</ele>
        <time>2019-11-20T14:31:43Z</time>
      </trkpt>
      <trkpt lat="43.19571" lon="5.57085">
        <ele>270</ele>
        <time>2019-11-20T14:31:49Z</time>
      </trkpt>
      <trkpt lat="43.19568" lon="5.57092">
        <ele>270</ele>
        <time>2019-11-20T14:31:55Z</time>
      </trkpt>
      <trkpt lat="43.19566" lon="5.571">
        <ele>270</ele>
        <time>2019-11-20T14:32:01Z</time>
      </trkpt>
      <trkpt lat="43.19561" lon="5.57106">
        <ele>269</ele>
        <time>2019-11-20T14:32:07Z</time>
      </trkpt>
      <trkpt lat="43.19558" lon="5.5711">
        <ele>269</ele>
        <time>2019-11-20T14:32:11Z</time>
      </trkpt>
      <trkpt lat="43.19554" lon="5.57117">
        <ele>269</ele>
        <time>2019-11-20T14:32:17Z</time>
      </trkpt>
      <trkpt lat="43.1955" lon="5.57122">
        <ele>267</ele>
        <time>2019-11-20T14:32:23Z</time>
      </trkpt>
      <trkpt lat="43.19545" lon="5.57127">
        <ele>266</ele>
        <time>2019-11-20T14:32:29Z</time>
      </trkpt>
      <trkpt lat="43.19542" lon="5.57133">
        <ele>266</ele>
        <time>2019-11-20T14:32:35Z</time>
      </trkpt>
      <trkpt lat="43.19537" lon="5.57139">
        <ele>266</ele>
        <time>2019-11-20T14:32:41Z</time>
      </trkpt>
      <trkpt lat="43.19533" lon="5.57145">
        <ele>265</ele>
        <time>2019-11-20T14:32:47Z</time>
      </trkpt>
      <trkpt lat="43.19529" lon="5.5715">
        <ele>264</ele>
        <time>2019-11-20T14:32:53Z</time>
      </trkpt>
      <trkpt lat="43.19524" lon="5.57156">
        <ele>264</ele>
        <time>2019-11-20T14:32:59Z</time>
      </trkpt>
      <trkpt lat="43.19521" lon="5.5716">
        <ele>263</ele>
        <time>2019-11-20T14:33:03Z</time>
      </trkpt>
      <trkpt lat="43.19516" lon="5.57166">
        <ele>263</ele>
        <time>2019-11-20T14:33:09Z</time>
      </trkpt>
      <trkpt lat="43.19512" lon="5.57171">
        <ele>263</ele>
        <time>2019-11-20T14:33:15Z</time>
      </trkpt>
      <trkpt lat="43.19507" lon="5.57177">
        <ele>263</ele>
        <time>2019-11-20T14:33:21Z</time>
      </trkpt>
      <trkpt lat="43.19503" lon="5.57181">
        <ele>262</ele>
        <time>2019-11-20T14:33:25Z</time>
      </trkpt>
      <trkpt lat="43.19496" lon="5.57185">
        <ele>262</ele>
        <time>2019-11-20T14:33:31Z</time>
      </trkpt>
      <trkpt lat="43.19492" lon="5.57186">
        <ele>262</ele>
        <time>2019-11-20T14:33:35Z</time>
      </trkpt>
      <trkpt lat="43.19487" lon="5.57187">
        <ele>263</ele>
        <time>2019-11-20T14:33:39Z</time>
      </trkpt>
      <trkpt lat="43.19483" lon="5.57187">
        <ele>263</ele>
        <time>2019-11-20T14:33:43Z</time>
      </trkpt>
      <trkpt lat="43.19477" lon="5.57187">
        <ele>261</ele>
        <time>2019-11-20T14:33:49Z</time>
      </trkpt>
      <trkpt lat="43.19471" lon="5.57188">
        <ele>262</ele>
        <time>2019-11-20T14:33:55Z</time>
      </trkpt>
      <trkpt lat="43.19467" lon="5.57191">
        <ele>261</ele>
        <time>2019-11-20T14:33:59Z</time>
      </trkpt>
      <trkpt lat="43.19462" lon="5.57191">
        <ele>260</ele>
        <time>2019-11-20T14:34:05Z</time>
      </trkpt>
      <trkpt lat="43.19456" lon="5.57194">
        <ele>259</ele>
        <time>2019-11-20T14:34:11Z</time>
      </trkpt>
      <trkpt lat="43.1945" lon="5.57196">
        <ele>258</ele>
        <time>2019-11-20T14:34:17Z</time>
      </trkpt>
      <trkpt lat="43.19444" lon="5.57198">
        <ele>257</ele>
        <time>2019-11-20T14:34:23Z</time>
      </trkpt>
      <trkpt lat="43.19439" lon="5.57199">
        <ele>256</ele>
        <time>2019-11-20T14:34:29Z</time>
      </trkpt>
      <trkpt lat="43.19433" lon="5.57201">
        <ele>257</ele>
        <time>2019-11-20T14:34:35Z</time>
      </trkpt>
      <trkpt lat="43.19426" lon="5.57204">
        <ele>257</ele>
        <time>2019-11-20T14:34:41Z</time>
      </trkpt>
      <trkpt lat="43.1942" lon="5.57206">
        <ele>257</ele>
        <time>2019-11-20T14:34:47Z</time>
      </trkpt>
      <trkpt lat="43.19415" lon="5.57209">
        <ele>254</ele>
        <time>2019-11-20T14:34:53Z</time>
      </trkpt>
      <trkpt lat="43.19411" lon="5.57214">
        <ele>253</ele>
        <time>2019-11-20T14:34:59Z</time>
      </trkpt>
      <trkpt lat="43.19407" lon="5.5722">
        <ele>252</ele>
        <time>2019-11-20T14:35:05Z</time>
      </trkpt>
      <trkpt lat="43.19404" lon="5.57226">
        <ele>252</ele>
        <time>2019-11-20T14:35:11Z</time>
      </trkpt>
      <trkpt lat="43.194" lon="5.57233">
        <ele>251</ele>
        <time>2019-11-20T14:35:17Z</time>
      </trkpt>
      <trkpt lat="43.19396" lon="5.57239">
        <ele>250</ele>
        <time>2019-11-20T14:35:23Z</time>
      </trkpt>
      <trkpt lat="43.19393" lon="5.57247">
        <ele>249</ele>
        <time>2019-11-20T14:35:29Z</time>
      </trkpt>
      <trkpt lat="43.19391" lon="5.57254">
        <ele>249</ele>
        <time>2019-11-20T14:35:35Z</time>
      </trkpt>
      <trkpt lat="43.19388" lon="5.5726">
        <ele>248</ele>
        <time>2019-11-20T14:35:41Z</time>
      </trkpt>
      <trkpt lat="43.19384" lon="5.57266">
        <ele>247</ele>
        <time>2019-11-20T14:35:47Z</time>
      </trkpt>
      <trkpt lat="43.19381" lon="5.57272">
        <ele>248</ele>
        <time>2019-11-20T14:35:53Z</time>
      </trkpt>
      <trkpt lat="43.19376" lon="5.57278">
        <ele>246</ele>
        <time>2019-11-20T14:35:59Z</time>
      </trkpt>
      <trkpt lat="43.19373" lon="5.57284">
        <ele>246</ele>
        <time>2019-11-20T14:36:05Z</time>
      </trkpt>
      <trkpt lat="43.19369" lon="5.5729">
        <ele>245</ele>
        <time>2019-11-20T14:36:11Z</time>
      </trkpt>
      <trkpt lat="43.19365" lon="5.57297">
        <ele>243</ele>
        <time>2019-11-20T14:36:17Z</time>
      </trkpt>
      <trkpt lat="43.19361" lon="5.57304">
        <ele>242</ele>
        <time>2019-11-20T14:36:23Z</time>
      </trkpt>
      <trkpt lat="43.19358" lon="5.57311">
        <ele>243</ele>
        <time>2019-11-20T14:36:29Z</time>
      </trkpt>
      <trkpt lat="43.19354" lon="5.57317">
        <ele>242</ele>
        <time>2019-11-20T14:36:35Z</time>
      </trkpt>
      <trkpt lat="43.19352" lon="5.57325">
        <ele>242</ele>
        <time>2019-11-20T14:36:41Z</time>
      </trkpt>
      <trkpt lat="43.1935" lon="5.57331">
        <ele>241</ele>
        <time>2019-11-20T14:36:45Z</time>
      </trkpt>
      <trkpt lat="43.19347" lon="5.57339">
        <ele>240</ele>
        <time>2019-11-20T14:36:51Z</time>
      </trkpt>
      <trkpt lat="43.19344" lon="5.57346">
        <ele>239</ele>
        <time>2019-11-20T14:36:57Z</time>
      </trkpt>
      <trkpt lat="43.1934" lon="5.57353">
        <ele>239</ele>
        <time>2019-11-20T14:37:03Z</time>
      </trkpt>
      <trkpt lat="43.19336" lon="5.57359">
        <ele>240</ele>
        <time>2019-11-20T14:37:09Z</time>
      </trkpt>
      <trkpt lat="43.19334" lon="5.57366">
        <ele>239</ele>
        <time>2019-11-20T14:37:15Z</time>
      </trkpt>
      <trkpt lat="43.19332" lon="5.57374">
        <ele>238</ele>
        <time>2019-11-20T14:37:21Z</time>
      </trkpt>
      <trkpt lat="43.19332" lon="5.5738">
        <ele>238</ele>
        <time>2019-11-20T14:37:25Z</time>
      </trkpt>
      <trkpt lat="43.19332" lon="5.57388">
        <ele>236</ele>
        <time>2019-11-20T14:37:31Z</time>
      </trkpt>
      <trkpt lat="43.19332" lon="5.57395">
        <ele>235</ele>
        <time>2019-11-20T14:37:37Z</time>
      </trkpt>
      <trkpt lat="43.19333" lon="5.57403">
        <ele>234</ele>
        <time>2019-11-20T14:37:43Z</time>
      </trkpt>
      <trkpt lat="43.19334" lon="5.57412">
        <ele>233</ele>
        <time>2019-11-20T14:37:49Z</time>
      </trkpt>
      <trkpt lat="43.19332" lon="5.5742">
        <ele>233</ele>
        <time>2019-11-20T14:37:55Z</time>
      </trkpt>
      <trkpt lat="43.19332" lon="5.57428">
        <ele>233</ele>
        <time>2019-11-20T14:38:01Z</time>
      </trkpt>
      <trkpt lat="43.19332" lon="5.57435">
        <ele>232</ele>
        <time>2019-11-20T14:38:07Z</time>
      </trkpt>
      <trkpt lat="43.1933" lon="5.57442">
        <ele>232</ele>
        <time>2019-11-20T14:38:13Z</time>
      </trkpt>
      <trkpt lat="43.19328" lon="5.5745">
        <ele>231</ele>
        <time>2019-11-20T14:38:19Z</time>
      </trkpt>
      <trkpt lat="43.19328" lon="5.57458">
        <ele>231</ele>
        <time>2019-11-20T14:38:25Z</time>
      </trkpt>
      <trkpt lat="43.19329" lon="5.57466">
        <ele>230</ele>
        <time>2019-11-20T14:38:31Z</time>
      </trkpt>
      <trkpt lat="43.19332" lon="5.57472">
        <ele>229</ele>
        <time>2019-11-20T14:38:37Z</time>
      </trkpt>
      <trkpt lat="43.19338" lon="5.57474">
        <ele>228</ele>
        <time>2019-11-20T14:38:41Z</time>
      </trkpt>
      <trkpt lat="43.19343" lon="5.57475">
        <ele>227</ele>
        <time>2019-11-20T14:38:45Z</time>
      </trkpt>
      <trkpt lat="43.19349" lon="5.57473">
        <ele>227</ele>
        <time>2019-11-20T14:38:51Z</time>
      </trkpt>
      <trkpt lat="43.19353" lon="5.5747">
        <ele>226</ele>
        <time>2019-11-20T14:38:57Z</time>
      </trkpt>
      <trkpt lat="43.19358" lon="5.57468">
        <ele>225</ele>
        <time>2019-11-20T14:39:03Z</time>
      </trkpt>
      <trkpt lat="43.19363" lon="5.57465">
        <ele>224</ele>
        <time>2019-11-20T14:39:17Z</time>
      </trkpt>
      <trkpt lat="43.19368" lon="5.57461">
        <ele>224</ele>
        <time>2019-11-20T14:39:25Z</time>
      </trkpt>
      <trkpt lat="43.19372" lon="5.57457">
        <ele>224</ele>
        <time>2019-11-20T14:39:35Z</time>
      </trkpt>
      <trkpt lat="43.19375" lon="5.57453">
        <ele>222</ele>
        <time>2019-11-20T14:39:41Z</time>
      </trkpt>
      <trkpt lat="43.19379" lon="5.57448">
        <ele>224</ele>
        <time>2019-11-20T14:39:47Z</time>
      </trkpt>
      <trkpt lat="43.19384" lon="5.57444">
        <ele>225</ele>
        <time>2019-11-20T14:39:53Z</time>
      </trkpt>
      <trkpt lat="43.19389" lon="5.57441">
        <ele>222</ele>
        <time>2019-11-20T14:39:59Z</time>
      </trkpt>
      <trkpt lat="43.19394" lon="5.57436">
        <ele>221</ele>
        <time>2019-11-20T14:40:05Z</time>
      </trkpt>
      <trkpt lat="43.19399" lon="5.57433">
        <ele>220</ele>
        <time>2019-11-20T14:40:11Z</time>
      </trkpt>
      <trkpt lat="43.19404" lon="5.57431">
        <ele>219</ele>
        <time>2019-11-20T14:40:17Z</time>
      </trkpt>
      <trkpt lat="43.1941" lon="5.57429">
        <ele>218</ele>
        <time>2019-11-20T14:40:23Z</time>
      </trkpt>
      <trkpt lat="43.19416" lon="5.57428">
        <ele>218</ele>
        <time>2019-11-20T14:40:29Z</time>
      </trkpt>
      <trkpt lat="43.19421" lon="5.57428">
        <ele>218</ele>
        <time>2019-11-20T14:40:35Z</time>
      </trkpt>
      <trkpt lat="43.19427" lon="5.57428">
        <ele>217</ele>
        <time>2019-11-20T14:40:41Z</time>
      </trkpt>
      <trkpt lat="43.19433" lon="5.5743">
        <ele>214</ele>
        <time>2019-11-20T14:40:47Z</time>
      </trkpt>
      <trkpt lat="43.19438" lon="5.57431">
        <ele>213</ele>
        <time>2019-11-20T14:40:53Z</time>
      </trkpt>
      <trkpt lat="43.19444" lon="5.57431">
        <ele>211</ele>
        <time>2019-11-20T14:41:01Z</time>
      </trkpt>
      <trkpt lat="43.19449" lon="5.5743">
        <ele>211</ele>
        <time>2019-11-20T14:41:07Z</time>
      </trkpt>
      <trkpt lat="43.19454" lon="5.5743">
        <ele>210</ele>
        <time>2019-11-20T14:41:13Z</time>
      </trkpt>
      <trkpt lat="43.1946" lon="5.57429">
        <ele>211</ele>
        <time>2019-11-20T14:41:19Z</time>
      </trkpt>
      <trkpt lat="43.19465" lon="5.57428">
        <ele>210</ele>
        <time>2019-11-20T14:41:25Z</time>
      </trkpt>
      <trkpt lat="43.1947" lon="5.57424">
        <ele>209</ele>
        <time>2019-11-20T14:41:31Z</time>
      </trkpt>
      <trkpt lat="43.19475" lon="5.57422">
        <ele>207</ele>
        <time>2019-11-20T14:41:37Z</time>
      </trkpt>
      <trkpt lat="43.19481" lon="5.57416">
        <ele>208</ele>
        <time>2019-11-20T14:41:43Z</time>
      </trkpt>
      <trkpt lat="43.19487" lon="5.57414">
        <ele>209</ele>
        <time>2019-11-20T14:41:49Z</time>
      </trkpt>
      <trkpt lat="43.19491" lon="5.57411">
        <ele>211</ele>
        <time>2019-11-20T14:41:53Z</time>
      </trkpt>
      <trkpt lat="43.19497" lon="5.57409">
        <ele>209</ele>
        <time>2019-11-20T14:41:59Z</time>
      </trkpt>
      <trkpt lat="43.19502" lon="5.57406">
        <ele>209</ele>
        <time>2019-11-20T14:42:05Z</time>
      </trkpt>
      <trkpt lat="43.19507" lon="5.57401">
        <ele>208</ele>
        <time>2019-11-20T14:42:11Z</time>
      </trkpt>
      <trkpt lat="43.1951" lon="5.57396">
        <ele>209</ele>
        <time>2019-11-20T14:42:17Z</time>
      </trkpt>
      <trkpt lat="43.19515" lon="5.5739">
        <ele>209</ele>
        <time>2019-11-20T14:42:23Z</time>
      </trkpt>
      <trkpt lat="43.1952" lon="5.57384">
        <ele>208</ele>
        <time>2019-11-20T14:42:29Z</time>
      </trkpt>
      <trkpt lat="43.19524" lon="5.5738">
        <ele>208</ele>
        <time>2019-11-20T14:42:33Z</time>
      </trkpt>
      <trkpt lat="43.19527" lon="5.57375">
        <ele>209</ele>
        <time>2019-11-20T14:42:37Z</time>
      </trkpt>
      <trkpt lat="43.19532" lon="5.57369">
        <ele>205</ele>
        <time>2019-11-20T14:42:43Z</time>
      </trkpt>
      <trkpt lat="43.19537" lon="5.57366">
        <ele>204</ele>
        <time>2019-11-20T14:42:49Z</time>
      </trkpt>
      <trkpt lat="43.19543" lon="5.57366">
        <ele>205</ele>
        <time>2019-11-20T14:42:55Z</time>
      </trkpt>
      <trkpt lat="43.19549" lon="5.57369">
        <ele>208</ele>
        <time>2019-11-20T14:43:01Z</time>
      </trkpt>
      <trkpt lat="43.19547" lon="5.57375">
        <ele>206</ele>
        <time>2019-11-20T14:43:31Z</time>
      </trkpt>
      <trkpt lat="43.19542" lon="5.57378">
        <ele>204</ele>
        <time>2019-11-20T14:43:47Z</time>
      </trkpt>
      <trkpt lat="43.19538" lon="5.57382">
        <ele>205</ele>
        <time>2019-11-20T14:43:53Z</time>
      </trkpt>
      <trkpt lat="43.19535" lon="5.57389">
        <ele>204</ele>
        <time>2019-11-20T14:44:01Z</time>
      </trkpt>
      <trkpt lat="43.19534" lon="5.57397">
        <ele>202</ele>
        <time>2019-11-20T14:44:11Z</time>
      </trkpt>
      <trkpt lat="43.19534" lon="5.57404">
        <ele>200</ele>
        <time>2019-11-20T14:44:17Z</time>
      </trkpt>
      <trkpt lat="43.19535" lon="5.57411">
        <ele>201</ele>
        <time>2019-11-20T14:44:21Z</time>
      </trkpt>
      <trkpt lat="43.19535" lon="5.57418">
        <ele>200</ele>
        <time>2019-11-20T14:44:27Z</time>
      </trkpt>
      <trkpt lat="43.19536" lon="5.57426">
        <ele>198</ele>
        <time>2019-11-20T14:44:33Z</time>
      </trkpt>
      <trkpt lat="43.19536" lon="5.57433">
        <ele>195</ele>
        <time>2019-11-20T14:44:39Z</time>
      </trkpt>
      <trkpt lat="43.19535" lon="5.57441">
        <ele>192</ele>
        <time>2019-11-20T14:44:45Z</time>
      </trkpt>
      <trkpt lat="43.19535" lon="5.57449">
        <ele>190</ele>
        <time>2019-11-20T14:44:51Z</time>
      </trkpt>
      <trkpt lat="43.19535" lon="5.57456">
        <ele>187</ele>
        <time>2019-11-20T14:44:57Z</time>
      </trkpt>
      <trkpt lat="43.19536" lon="5.57463">
        <ele>187</ele>
        <time>2019-11-20T14:45:03Z</time>
      </trkpt>
      <trkpt lat="43.19535" lon="5.57469">
        <ele>185</ele>
        <time>2019-11-20T14:45:09Z</time>
      </trkpt>
      <trkpt lat="43.19533" lon="5.57477">
        <ele>183</ele>
        <time>2019-11-20T14:45:17Z</time>
      </trkpt>
      <trkpt lat="43.19532" lon="5.57483">
        <ele>181</ele>
        <time>2019-11-20T14:45:23Z</time>
      </trkpt>
      <trkpt lat="43.19528" lon="5.57491">
        <ele>181</ele>
        <time>2019-11-20T14:45:31Z</time>
      </trkpt>
      <trkpt lat="43.19525" lon="5.57496">
        <ele>180</ele>
        <time>2019-11-20T14:45:35Z</time>
      </trkpt>
      <trkpt lat="43.19521" lon="5.57501">
        <ele>178</ele>
        <time>2019-11-20T14:45:41Z</time>
      </trkpt>
      <trkpt lat="43.19517" lon="5.57505">
        <ele>177</ele>
        <time>2019-11-20T14:45:45Z</time>
      </trkpt>
      <trkpt lat="43.19512" lon="5.57511">
        <ele>177</ele>
        <time>2019-11-20T14:45:51Z</time>
      </trkpt>
      <trkpt lat="43.19508" lon="5.57516">
        <ele>176</ele>
        <time>2019-11-20T14:45:57Z</time>
      </trkpt>
      <trkpt lat="43.19504" lon="5.57522">
        <ele>174</ele>
        <time>2019-11-20T14:46:03Z</time>
      </trkpt>
      <trkpt lat="43.195" lon="5.5753">
        <ele>172</ele>
        <time>2019-11-20T14:46:09Z</time>
      </trkpt>
      <trkpt lat="43.19496" lon="5.57537">
        <ele>173</ele>
        <time>2019-11-20T14:46:15Z</time>
      </trkpt>
      <trkpt lat="43.19494" lon="5.57544">
        <ele>174</ele>
        <time>2019-11-20T14:46:21Z</time>
      </trkpt>
      <trkpt lat="43.19493" lon="5.57551">
        <ele>174</ele>
        <time>2019-11-20T14:46:31Z</time>
      </trkpt>
      <trkpt lat="43.19491" lon="5.57557">
        <ele>175</ele>
        <time>2019-11-20T14:46:43Z</time>
      </trkpt>
      <trkpt lat="43.19487" lon="5.57563">
        <ele>175</ele>
        <time>2019-11-20T14:46:51Z</time>
      </trkpt>
      <trkpt lat="43.19483" lon="5.57568">
        <ele>174</ele>
        <time>2019-11-20T14:47:01Z</time>
      </trkpt>
      <trkpt lat="43.19479" lon="5.57572">
        <ele>173</ele>
        <time>2019-11-20T14:47:09Z</time>
      </trkpt>
      <trkpt lat="43.19474" lon="5.57576">
        <ele>174</ele>
        <time>2019-11-20T14:47:17Z</time>
      </trkpt>
      <trkpt lat="43.1947" lon="5.57581">
        <ele>174</ele>
        <time>2019-11-20T14:47:25Z</time>
      </trkpt>
      <trkpt lat="43.19466" lon="5.57587">
        <ele>173</ele>
        <time>2019-11-20T14:47:33Z</time>
      </trkpt>
      <trkpt lat="43.19463" lon="5.57592">
        <ele>173</ele>
        <time>2019-11-20T14:47:39Z</time>
      </trkpt>
      <trkpt lat="43.19458" lon="5.57598">
        <ele>174</ele>
        <time>2019-11-20T14:47:45Z</time>
      </trkpt>
      <trkpt lat="43.19454" lon="5.57601">
        <ele>172</ele>
        <time>2019-11-20T14:47:51Z</time>
      </trkpt>
      <trkpt lat="43.19449" lon="5.57604">
        <ele>169</ele>
        <time>2019-11-20T14:47:55Z</time>
      </trkpt>
      <trkpt lat="43.19445" lon="5.57608">
        <ele>171</ele>
        <time>2019-11-20T14:48:03Z</time>
      </trkpt>
      <trkpt lat="43.1944" lon="5.57613">
        <ele>171</ele>
        <time>2019-11-20T14:48:07Z</time>
      </trkpt>
      <trkpt lat="43.19436" lon="5.57616">
        <ele>172</ele>
        <time>2019-11-20T14:48:13Z</time>
      </trkpt>
      <trkpt lat="43.1943" lon="5.57618">
        <ele>173</ele>
        <time>2019-11-20T14:48:19Z</time>
      </trkpt>
      <trkpt lat="43.19425" lon="5.5762">
        <ele>174</ele>
        <time>2019-11-20T14:48:27Z</time>
      </trkpt>
      <trkpt lat="43.1942" lon="5.57623">
        <ele>173</ele>
        <time>2019-11-20T14:48:33Z</time>
      </trkpt>
      <trkpt lat="43.19414" lon="5.57625">
        <ele>173</ele>
        <time>2019-11-20T14:48:39Z</time>
      </trkpt>
      <trkpt lat="43.19409" lon="5.57626">
        <ele>172</ele>
        <time>2019-11-20T14:48:43Z</time>
      </trkpt>
      <trkpt lat="43.19403" lon="5.57627">
        <ele>171</ele>
        <time>2019-11-20T14:48:49Z</time>
      </trkpt>
      <trkpt lat="43.19397" lon="5.5763">
        <ele>169</ele>
        <time>2019-11-20T14:48:55Z</time>
      </trkpt>
      <trkpt lat="43.19392" lon="5.57635">
        <ele>166</ele>
        <time>2019-11-20T14:49:01Z</time>
      </trkpt>
      <trkpt lat="43.19388" lon="5.57639">
        <ele>165</ele>
        <time>2019-11-20T14:49:05Z</time>
      </trkpt>
      <trkpt lat="43.19385" lon="5.57646">
        <ele>164</ele>
        <time>2019-11-20T14:49:11Z</time>
      </trkpt>
      <trkpt lat="43.19383" lon="5.57653">
        <ele>164</ele>
        <time>2019-11-20T14:49:17Z</time>
      </trkpt>
      <trkpt lat="43.19382" lon="5.57659">
        <ele>165</ele>
        <time>2019-11-20T14:49:21Z</time>
      </trkpt>
      <trkpt lat="43.19381" lon="5.57668">
        <ele>165</ele>
        <time>2019-11-20T14:49:27Z</time>
      </trkpt>
      <trkpt lat="43.19381" lon="5.57677">
        <ele>165</ele>
        <time>2019-11-20T14:49:33Z</time>
      </trkpt>
      <trkpt lat="43.19379" lon="5.57685">
        <ele>166</ele>
        <time>2019-11-20T14:49:39Z</time>
      </trkpt>
      <trkpt lat="43.19377" lon="5.57691">
        <ele>165</ele>
        <time>2019-11-20T14:49:45Z</time>
      </trkpt>
      <trkpt lat="43.19375" lon="5.57697">
        <ele>163</ele>
        <time>2019-11-20T14:49:49Z</time>
      </trkpt>
      <trkpt lat="43.19372" lon="5.57703">
        <ele>162</ele>
        <time>2019-11-20T14:49:55Z</time>
      </trkpt>
      <trkpt lat="43.19367" lon="5.5771">
        <ele>163</ele>
        <time>2019-11-20T14:50:01Z</time>
      </trkpt>
      <trkpt lat="43.19364" lon="5.57716">
        <ele>163</ele>
        <time>2019-11-20T14:50:07Z</time>
      </trkpt>
      <trkpt lat="43.1936" lon="5.57723">
        <ele>163</ele>
        <time>2019-11-20T14:50:13Z</time>
      </trkpt>
      <trkpt lat="43.19356" lon="5.57727">
        <ele>162</ele>
        <time>2019-11-20T14:50:17Z</time>
      </trkpt>
      <trkpt lat="43.19352" lon="5.57732">
        <ele>160</ele>
        <time>2019-11-20T14:50:23Z</time>
      </trkpt>
      <trkpt lat="43.19348" lon="5.57739">
        <ele>160</ele>
        <time>2019-11-20T14:50:29Z</time>
      </trkpt>
      <trkpt lat="43.19346" lon="5.57747">
        <ele>160</ele>
        <time>2019-11-20T14:50:35Z</time>
      </trkpt>
      <trkpt lat="43.19343" lon="5.57752">
        <ele>159</ele>
        <time>2019-11-20T14:50:39Z</time>
      </trkpt>
      <trkpt lat="43.1934" lon="5.57761">
        <ele>159</ele>
        <time>2019-11-20T14:50:45Z</time>
      </trkpt>
      <trkpt lat="43.19338" lon="5.57767">
        <ele>158</ele>
        <time>2019-11-20T14:50:49Z</time>
      </trkpt>
      <trkpt lat="43.19337" lon="5.57773">
        <ele>159</ele>
        <time>2019-11-20T14:50:53Z</time>
      </trkpt>
      <trkpt lat="43.19337" lon="5.57782">
        <ele>162</ele>
        <time>2019-11-20T14:50:59Z</time>
      </trkpt>
      <trkpt lat="43.19336" lon="5.5779">
        <ele>163</ele>
        <time>2019-11-20T14:51:05Z</time>
      </trkpt>
      <trkpt lat="43.19336" lon="5.57799">
        <ele>166</ele>
        <time>2019-11-20T14:51:11Z</time>
      </trkpt>
      <trkpt lat="43.19336" lon="5.57808">
        <ele>166</ele>
        <time>2019-11-20T14:51:17Z</time>
      </trkpt>
      <trkpt lat="43.19336" lon="5.57817">
        <ele>167</ele>
        <time>2019-11-20T14:51:23Z</time>
      </trkpt>
      <trkpt lat="43.19333" lon="5.57824">
        <ele>164</ele>
        <time>2019-11-20T14:51:29Z</time>
      </trkpt>
      <trkpt lat="43.19331" lon="5.5783">
        <ele>164</ele>
        <time>2019-11-20T14:51:33Z</time>
      </trkpt>
      <trkpt lat="43.1933" lon="5.57837">
        <ele>165</ele>
        <time>2019-11-20T14:51:37Z</time>
      </trkpt>
      <trkpt lat="43.19328" lon="5.57842">
        <ele>163</ele>
        <time>2019-11-20T14:51:41Z</time>
      </trkpt>
      <trkpt lat="43.19326" lon="5.5785">
        <ele>161</ele>
        <time>2019-11-20T14:51:47Z</time>
      </trkpt>
      <trkpt lat="43.19324" lon="5.57855">
        <ele>161</ele>
        <time>2019-11-20T14:51:51Z</time>
      </trkpt>
      <trkpt lat="43.19323" lon="5.57864">
        <ele>163</ele>
        <time>2019-11-20T14:51:57Z</time>
      </trkpt>
      <trkpt lat="43.19324" lon="5.57871">
        <ele>162</ele>
        <time>2019-11-20T14:52:01Z</time>
      </trkpt>
      <trkpt lat="43.19324" lon="5.57879">
        <ele>160</ele>
        <time>2019-11-20T14:52:07Z</time>
      </trkpt>
      <trkpt lat="43.19325" lon="5.57888">
        <ele>159</ele>
        <time>2019-11-20T14:52:13Z</time>
      </trkpt>
      <trkpt lat="43.19324" lon="5.57897">
        <ele>157</ele>
        <time>2019-11-20T14:52:19Z</time>
      </trkpt>
      <trkpt lat="43.19324" lon="5.57904">
        <ele>155</ele>
        <time>2019-11-20T14:52:25Z</time>
      </trkpt>
      <trkpt lat="43.19326" lon="5.57913">
        <ele>156</ele>
        <time>2019-11-20T14:52:31Z</time>
      </trkpt>
      <trkpt lat="43.19326" lon="5.57922">
        <ele>155</ele>
        <time>2019-11-20T14:52:37Z</time>
      </trkpt>
      <trkpt lat="43.19326" lon="5.5793">
        <ele>155</ele>
        <time>2019-11-20T14:52:43Z</time>
      </trkpt>
      <trkpt lat="43.19325" lon="5.57936">
        <ele>156</ele>
        <time>2019-11-20T14:52:47Z</time>
      </trkpt>
      <trkpt lat="43.19323" lon="5.57944">
        <ele>154</ele>
        <time>2019-11-20T14:52:53Z</time>
      </trkpt>
      <trkpt lat="43.19322" lon="5.57952">
        <ele>153</ele>
        <time>2019-11-20T14:52:59Z</time>
      </trkpt>
      <trkpt lat="43.19321" lon="5.57961">
        <ele>152</ele>
        <time>2019-11-20T14:53:05Z</time>
      </trkpt>
      <trkpt lat="43.19319" lon="5.57969">
        <ele>154</ele>
        <time>2019-11-20T14:53:11Z</time>
      </trkpt>
      <trkpt lat="43.19318" lon="5.57977">
        <ele>155</ele>
        <time>2019-11-20T14:53:17Z</time>
      </trkpt>
      <trkpt lat="43.19316" lon="5.57985">
        <ele>153</ele>
        <time>2019-11-20T14:53:23Z</time>
      </trkpt>
      <trkpt lat="43.19317" lon="5.57993">
        <ele>152</ele>
        <time>2019-11-20T14:53:29Z</time>
      </trkpt>
      <trkpt lat="43.19317" lon="5.58">
        <ele>152</ele>
        <time>2019-11-20T14:53:35Z</time>
      </trkpt>
      <trkpt lat="43.19314" lon="5.58006">
        <ele>150</ele>
        <time>2019-11-20T14:53:41Z</time>
      </trkpt>
      <trkpt lat="43.1931" lon="5.58011">
        <ele>152</ele>
        <time>2019-11-20T14:53:47Z</time>
      </trkpt>
      <trkpt lat="43.19305" lon="5.58013">
        <ele>153</ele>
        <time>2019-11-20T14:53:53Z</time>
      </trkpt>
      <trkpt lat="43.19299" lon="5.58014">
        <ele>154</ele>
        <time>2019-11-20T14:53:59Z</time>
      </trkpt>
      <trkpt lat="43.19295" lon="5.58013">
        <ele>153</ele>
        <time>2019-11-20T14:54:03Z</time>
      </trkpt>
      <trkpt lat="43.19288" lon="5.58012">
        <ele>153</ele>
        <time>2019-11-20T14:54:09Z</time>
      </trkpt>
      <trkpt lat="43.19284" lon="5.58013">
        <ele>153</ele>
        <time>2019-11-20T14:54:15Z</time>
      </trkpt>
      <trkpt lat="43.19279" lon="5.58021">
        <ele>149</ele>
        <time>2019-11-20T14:54:21Z</time>
      </trkpt>
      <trkpt lat="43.19276" lon="5.58028">
        <ele>149</ele>
        <time>2019-11-20T14:54:25Z</time>
      </trkpt>
      <trkpt lat="43.19275" lon="5.58034">
        <ele>147</ele>
        <time>2019-11-20T14:54:29Z</time>
      </trkpt>
      <trkpt lat="43.19275" lon="5.58041">
        <ele>148</ele>
        <time>2019-11-20T14:54:33Z</time>
      </trkpt>
      <trkpt lat="43.19277" lon="5.58048">
        <ele>148</ele>
        <time>2019-11-20T14:54:37Z</time>
      </trkpt>
      <trkpt lat="43.19279" lon="5.58054">
        <ele>147</ele>
        <time>2019-11-20T14:54:41Z</time>
      </trkpt>
      <trkpt lat="43.19281" lon="5.5806">
        <ele>147</ele>
        <time>2019-11-20T14:54:45Z</time>
      </trkpt>
      <trkpt lat="43.19283" lon="5.58066">
        <ele>147</ele>
        <time>2019-11-20T14:54:49Z</time>
      </trkpt>
      <trkpt lat="43.19285" lon="5.58071">
        <ele>148</ele>
        <time>2019-11-20T14:54:53Z</time>
      </trkpt>
      <trkpt lat="43.19287" lon="5.58079">
        <ele>147</ele>
        <time>2019-11-20T14:54:59Z</time>
      </trkpt>
      <trkpt lat="43.19288" lon="5.58085">
        <ele>146</ele>
        <time>2019-11-20T14:55:03Z</time>
      </trkpt>
      <trkpt lat="43.19288" lon="5.58094">
        <ele>144</ele>
        <time>2019-11-20T14:55:09Z</time>
      </trkpt>
      <trkpt lat="43.19286" lon="5.58102">
        <ele>144</ele>
        <time>2019-11-20T14:55:15Z</time>
      </trkpt>
      <trkpt lat="43.19285" lon="5.5811">
        <ele>144</ele>
        <time>2019-11-20T14:55:21Z</time>
      </trkpt>
      <trkpt lat="43.19284" lon="5.58117">
        <ele>142</ele>
        <time>2019-11-20T14:55:27Z</time>
      </trkpt>
      <trkpt lat="43.19284" lon="5.58124">
        <ele>141</ele>
        <time>2019-11-20T14:55:33Z</time>
      </trkpt>
      <trkpt lat="43.19282" lon="5.58131">
        <ele>142</ele>
        <time>2019-11-20T14:55:39Z</time>
      </trkpt>
      <trkpt lat="43.19285" lon="5.58137">
        <ele>146</ele>
        <time>2019-11-20T14:55:45Z</time>
      </trkpt>
      <trkpt lat="43.19289" lon="5.58138">
        <ele>144</ele>
        <time>2019-11-20T14:56:53Z</time>
      </trkpt>
      <trkpt lat="43.19293" lon="5.58143">
        <ele>146</ele>
        <time>2019-11-20T14:57:01Z</time>
      </trkpt>
      <trkpt lat="43.19296" lon="5.58147">
        <ele>144</ele>
        <time>2019-11-20T14:57:07Z</time>
      </trkpt>
      <trkpt lat="43.193" lon="5.58154">
        <ele>144</ele>
        <time>2019-11-20T14:57:13Z</time>
      </trkpt>
      <trkpt lat="43.19303" lon="5.58161">
        <ele>142</ele>
        <time>2019-11-20T14:57:19Z</time>
      </trkpt>
      <trkpt lat="43.19306" lon="5.58167">
        <ele>143</ele>
        <time>2019-11-20T14:57:27Z</time>
      </trkpt>
      <trkpt lat="43.19309" lon="5.58173">
        <ele>142</ele>
        <time>2019-11-20T14:57:33Z</time>
      </trkpt>
      <trkpt lat="43.19311" lon="5.5818">
        <ele>143</ele>
        <time>2019-11-20T14:57:39Z</time>
      </trkpt>
      <trkpt lat="43.19312" lon="5.58187">
        <ele>143</ele>
        <time>2019-11-20T14:57:45Z</time>
      </trkpt>
      <trkpt lat="43.19314" lon="5.58194">
        <ele>143</ele>
        <time>2019-11-20T14:57:51Z</time>
      </trkpt>
      <trkpt lat="43.19313" lon="5.582">
        <ele>138</ele>
        <time>2019-11-20T14:57:57Z</time>
      </trkpt>
      <trkpt lat="43.19311" lon="5.58207">
        <ele>137</ele>
        <time>2019-11-20T14:58:05Z</time>
      </trkpt>
      <trkpt lat="43.1931" lon="5.58214">
        <ele>136</ele>
        <time>2019-11-20T14:58:11Z</time>
      </trkpt>
      <trkpt lat="43.1931" lon="5.5822">
        <ele>137</ele>
        <time>2019-11-20T14:58:17Z</time>
      </trkpt>
      <trkpt lat="43.19311" lon="5.58227">
        <ele>138</ele>
        <time>2019-11-20T14:58:23Z</time>
      </trkpt>
      <trkpt lat="43.19311" lon="5.58235">
        <ele>139</ele>
        <time>2019-11-20T14:58:31Z</time>
      </trkpt>
      <trkpt lat="43.19307" lon="5.58241">
        <ele>136</ele>
        <time>2019-11-20T14:58:39Z</time>
      </trkpt>
      <trkpt lat="43.19304" lon="5.58248">
        <ele>136</ele>
        <time>2019-11-20T14:58:45Z</time>
      </trkpt>
      <trkpt lat="43.193" lon="5.58254">
        <ele>135</ele>
        <time>2019-11-20T14:58:51Z</time>
      </trkpt>
      <trkpt lat="43.19296" lon="5.58261">
        <ele>135</ele>
        <time>2019-11-20T14:58:57Z</time>
      </trkpt>
      <trkpt lat="43.19291" lon="5.58265">
        <ele>137</ele>
        <time>2019-11-20T14:59:03Z</time>
      </trkpt>
      <trkpt lat="43.19287" lon="5.58269">
        <ele>138</ele>
        <time>2019-11-20T14:59:09Z</time>
      </trkpt>
      <trkpt lat="43.19283" lon="5.58272">
        <ele>139</ele>
        <time>2019-11-20T14:59:15Z</time>
      </trkpt>
      <trkpt lat="43.19279" lon="5.58277">
        <ele>139</ele>
        <time>2019-11-20T14:59:21Z</time>
      </trkpt>
      <trkpt lat="43.19277" lon="5.58283">
        <ele>138</ele>
        <time>2019-11-20T14:59:25Z</time>
      </trkpt>
      <trkpt lat="43.19275" lon="5.5829">
        <ele>138</ele>
        <time>2019-11-20T14:59:29Z</time>
      </trkpt>
      <trkpt lat="43.19274" lon="5.58296">
        <ele>136</ele>
        <time>2019-11-20T14:59:33Z</time>
      </trkpt>
      <trkpt lat="43.19273" lon="5.58304">
        <ele>135</ele>
        <time>2019-11-20T14:59:39Z</time>
      </trkpt>
      <trkpt lat="43.19274" lon="5.58312">
        <ele>136</ele>
        <time>2019-11-20T14:59:45Z</time>
      </trkpt>
      <trkpt lat="43.19274" lon="5.5832">
        <ele>136</ele>
        <time>2019-11-20T14:59:51Z</time>
      </trkpt>
      <trkpt lat="43.19275" lon="5.58327">
        <ele>136</ele>
        <time>2019-11-20T14:59:55Z</time>
      </trkpt>
      <trkpt lat="43.19276" lon="5.58335">
        <ele>136</ele>
        <time>2019-11-20T15:00:01Z</time>
      </trkpt>
      <trkpt lat="43.19278" lon="5.58344">
        <ele>137</ele>
        <time>2019-11-20T15:00:07Z</time>
      </trkpt>
      <trkpt lat="43.19281" lon="5.5835">
        <ele>140</ele>
        <time>2019-11-20T15:00:13Z</time>
      </trkpt>
      <trkpt lat="43.19282" lon="5.58358">
        <ele>141</ele>
        <time>2019-11-20T15:00:19Z</time>
      </trkpt>
      <trkpt lat="43.19282" lon="5.58364">
        <ele>140</ele>
        <time>2019-11-20T15:00:23Z</time>
      </trkpt>
      <trkpt lat="43.1928" lon="5.58373">
        <ele>138</ele>
        <time>2019-11-20T15:00:29Z</time>
      </trkpt>
      <trkpt lat="43.19277" lon="5.58379">
        <ele>139</ele>
        <time>2019-11-20T15:00:33Z</time>
      </trkpt>
      <trkpt lat="43.19276" lon="5.58387">
        <ele>135</ele>
        <time>2019-11-20T15:00:39Z</time>
      </trkpt>
      <trkpt lat="43.19275" lon="5.58396">
        <ele>135</ele>
        <time>2019-11-20T15:00:45Z</time>
      </trkpt>
      <trkpt lat="43.19274" lon="5.58404">
        <ele>134</ele>
        <time>2019-11-20T15:00:51Z</time>
      </trkpt>
      <trkpt lat="43.19276" lon="5.58413">
        <ele>136</ele>
        <time>2019-11-20T15:00:57Z</time>
      </trkpt>
      <trkpt lat="43.19278" lon="5.58421">
        <ele>135</ele>
        <time>2019-11-20T15:01:03Z</time>
      </trkpt>
      <trkpt lat="43.1928" lon="5.58427">
        <ele>140</ele>
        <time>2019-11-20T15:01:07Z</time>
      </trkpt>
      <trkpt lat="43.19283" lon="5.58431">
        <ele>139</ele>
        <time>2019-11-20T15:01:11Z</time>
      </trkpt>
      <trkpt lat="43.19287" lon="5.58438">
        <ele>140</ele>
        <time>2019-11-20T15:01:15Z</time>
      </trkpt>
      <trkpt lat="43.1929" lon="5.58444">
        <ele>136</ele>
        <time>2019-11-20T15:01:21Z</time>
      </trkpt>
      <trkpt lat="43.19294" lon="5.5845">
        <ele>137</ele>
        <time>2019-11-20T15:01:29Z</time>
      </trkpt>
      <trkpt lat="43.19298" lon="5.58454">
        <ele>139</ele>
        <time>2019-11-20T15:01:35Z</time>
      </trkpt>
      <trkpt lat="43.193" lon="5.58461">
        <ele>138</ele>
        <time>2019-11-20T15:01:41Z</time>
      </trkpt>
      <trkpt lat="43.19304" lon="5.58467">
        <ele>138</ele>
        <time>2019-11-20T15:01:47Z</time>
      </trkpt>
      <trkpt lat="43.19307" lon="5.58475">
        <ele>138</ele>
        <time>2019-11-20T15:01:53Z</time>
      </trkpt>
      <trkpt lat="43.19312" lon="5.58481">
        <ele>137</ele>
        <time>2019-11-20T15:01:57Z</time>
      </trkpt>
      <trkpt lat="43.19315" lon="5.58487">
        <ele>136</ele>
        <time>2019-11-20T15:02:01Z</time>
      </trkpt>
      <trkpt lat="43.19317" lon="5.58493">
        <ele>135</ele>
        <time>2019-11-20T15:02:05Z</time>
      </trkpt>
      <trkpt lat="43.19319" lon="5.58499">
        <ele>136</ele>
        <time>2019-11-20T15:02:09Z</time>
      </trkpt>
      <trkpt lat="43.19321" lon="5.58505">
        <ele>137</ele>
        <time>2019-11-20T15:02:13Z</time>
      </trkpt>
      <trkpt lat="43.19321" lon="5.58512">
        <ele>137</ele>
        <time>2019-11-20T15:02:17Z</time>
      </trkpt>
      <trkpt lat="43.19324" lon="5.58519">
        <ele>137</ele>
        <time>2019-11-20T15:02:21Z</time>
      </trkpt>
      <trkpt lat="43.19325" lon="5.58527">
        <ele>137</ele>
        <time>2019-11-20T15:02:25Z</time>
      </trkpt>
      <trkpt lat="43.19326" lon="5.58534">
        <ele>136</ele>
        <time>2019-11-20T15:02:29Z</time>
      </trkpt>
      <trkpt lat="43.19326" lon="5.58541">
        <ele>136</ele>
        <time>2019-11-20T15:02:33Z</time>
      </trkpt>
      <trkpt lat="43.19326" lon="5.58547">
        <ele>136</ele>
        <time>2019-11-20T15:02:37Z</time>
      </trkpt>
      <trkpt lat="43.19328" lon="5.58553">
        <ele>133</ele>
        <time>2019-11-20T15:02:41Z</time>
      </trkpt>
      <trkpt lat="43.19328" lon="5.58562">
        <ele>134</ele>
        <time>2019-11-20T15:02:47Z</time>
      </trkpt>
      <trkpt lat="43.19327" lon="5.5857">
        <ele>132</ele>
        <time>2019-11-20T15:02:53Z</time>
      </trkpt>
      <trkpt lat="43.19327" lon="5.58579">
        <ele>132</ele>
        <time>2019-11-20T15:02:59Z</time>
      </trkpt>
      <trkpt lat="43.19327" lon="5.58585">
        <ele>131</ele>
        <time>2019-11-20T15:03:03Z</time>
      </trkpt>
      <trkpt lat="43.19325" lon="5.58594">
        <ele>130</ele>
        <time>2019-11-20T15:03:09Z</time>
      </trkpt>
      <trkpt lat="43.19325" lon="5.586">
        <ele>134</ele>
        <time>2019-11-20T15:03:13Z</time>
      </trkpt>
      <trkpt lat="43.19323" lon="5.58607">
        <ele>134</ele>
        <time>2019-11-20T15:03:17Z</time>
      </trkpt>
      <trkpt lat="43.19319" lon="5.58614">
        <ele>131</ele>
        <time>2019-11-20T15:03:23Z</time>
      </trkpt>
      <trkpt lat="43.19314" lon="5.58619">
        <ele>131</ele>
        <time>2019-11-20T15:03:27Z</time>
      </trkpt>
      <trkpt lat="43.19312" lon="5.58625">
        <ele>131</ele>
        <time>2019-11-20T15:03:31Z</time>
      </trkpt>
      <trkpt lat="43.19309" lon="5.58633">
        <ele>131</ele>
        <time>2019-11-20T15:03:37Z</time>
      </trkpt>
      <trkpt lat="43.19309" lon="5.5864">
        <ele>132</ele>
        <time>2019-11-20T15:03:41Z</time>
      </trkpt>
      <trkpt lat="43.19307" lon="5.58646">
        <ele>135</ele>
        <time>2019-11-20T15:03:45Z</time>
      </trkpt>
      <trkpt lat="43.19304" lon="5.58653">
        <ele>131</ele>
        <time>2019-11-20T15:03:53Z</time>
      </trkpt>
      <trkpt lat="43.19302" lon="5.5866">
        <ele>131</ele>
        <time>2019-11-20T15:03:57Z</time>
      </trkpt>
      <trkpt lat="43.19299" lon="5.58665">
        <ele>131</ele>
        <time>2019-11-20T15:04:01Z</time>
      </trkpt>
      <trkpt lat="43.19297" lon="5.58671">
        <ele>129</ele>
        <time>2019-11-20T15:04:05Z</time>
      </trkpt>
      <trkpt lat="43.19293" lon="5.58676">
        <ele>129</ele>
        <time>2019-11-20T15:04:09Z</time>
      </trkpt>
      <trkpt lat="43.19287" lon="5.58681">
        <ele>129</ele>
        <time>2019-11-20T15:04:15Z</time>
      </trkpt>
      <trkpt lat="43.19283" lon="5.58684">
        <ele>126</ele>
        <time>2019-11-20T15:04:21Z</time>
      </trkpt>
      <trkpt lat="43.1928" lon="5.58689">
        <ele>124</ele>
        <time>2019-11-20T15:04:25Z</time>
      </trkpt>
      <trkpt lat="43.19275" lon="5.58694">
        <ele>123</ele>
        <time>2019-11-20T15:04:31Z</time>
      </trkpt>
      <trkpt lat="43.19271" lon="5.58697">
        <ele>124</ele>
        <time>2019-11-20T15:04:37Z</time>
      </trkpt>
      <trkpt lat="43.19266" lon="5.587">
        <ele>123</ele>
        <time>2019-11-20T15:04:41Z</time>
      </trkpt>
      <trkpt lat="43.1926" lon="5.58703">
        <ele>124</ele>
        <time>2019-11-20T15:04:47Z</time>
      </trkpt>
      <trkpt lat="43.19256" lon="5.58704">
        <ele>125</ele>
        <time>2019-11-20T15:04:55Z</time>
      </trkpt>
      <trkpt lat="43.19251" lon="5.58706">
        <ele>126</ele>
        <time>2019-11-20T15:04:59Z</time>
      </trkpt>
      <trkpt lat="43.19245" lon="5.5871">
        <ele>126</ele>
        <time>2019-11-20T15:05:03Z</time>
      </trkpt>
      <trkpt lat="43.1924" lon="5.58713">
        <ele>130</ele>
        <time>2019-11-20T15:05:09Z</time>
      </trkpt>
      <trkpt lat="43.19235" lon="5.58714">
        <ele>129</ele>
        <time>2019-11-20T15:05:13Z</time>
      </trkpt>
      <trkpt lat="43.1923" lon="5.58716">
        <ele>129</ele>
        <time>2019-11-20T15:05:17Z</time>
      </trkpt>
      <trkpt lat="43.19224" lon="5.58718">
        <ele>127</ele>
        <time>2019-11-20T15:05:23Z</time>
      </trkpt>
      <trkpt lat="43.1922" lon="5.58721">
        <ele>125</ele>
        <time>2019-11-20T15:05:27Z</time>
      </trkpt>
      <trkpt lat="43.19215" lon="5.58729">
        <ele>120</ele>
        <time>2019-11-20T15:05:31Z</time>
      </trkpt>
      <trkpt lat="43.19213" lon="5.58735">
        <ele>120</ele>
        <time>2019-11-20T15:05:35Z</time>
      </trkpt>
      <trkpt lat="43.1921" lon="5.58741">
        <ele>122</ele>
        <time>2019-11-20T15:05:39Z</time>
      </trkpt>
      <trkpt lat="43.19208" lon="5.58747">
        <ele>122</ele>
        <time>2019-11-20T15:05:43Z</time>
      </trkpt>
      <trkpt lat="43.19207" lon="5.58755">
        <ele>122</ele>
        <time>2019-11-20T15:05:47Z</time>
      </trkpt>
      <trkpt lat="43.19206" lon="5.58762">
        <ele>120</ele>
        <time>2019-11-20T15:05:51Z</time>
      </trkpt>
      <trkpt lat="43.19206" lon="5.58771">
        <ele>120</ele>
        <time>2019-11-20T15:05:57Z</time>
      </trkpt>
      <trkpt lat="43.19207" lon="5.58777">
        <ele>120</ele>
        <time>2019-11-20T15:06:01Z</time>
      </trkpt>
      <trkpt lat="43.19208" lon="5.58785">
        <ele>118</ele>
        <time>2019-11-20T15:06:07Z</time>
      </trkpt>
      <trkpt lat="43.19207" lon="5.58791">
        <ele>121</ele>
        <time>2019-11-20T15:06:11Z</time>
      </trkpt>
      <trkpt lat="43.19205" lon="5.58798">
        <ele>122</ele>
        <time>2019-11-20T15:06:15Z</time>
      </trkpt>
      <trkpt lat="43.19204" lon="5.58805">
        <ele>123</ele>
        <time>2019-11-20T15:06:19Z</time>
      </trkpt>
      <trkpt lat="43.19203" lon="5.58811">
        <ele>122</ele>
        <time>2019-11-20T15:06:23Z</time>
      </trkpt>
      <trkpt lat="43.19201" lon="5.58817">
        <ele>121</ele>
        <time>2019-11-20T15:06:27Z</time>
      </trkpt>
      <trkpt lat="43.19197" lon="5.58825">
        <ele>122</ele>
        <time>2019-11-20T15:06:33Z</time>
      </trkpt>
      <trkpt lat="43.19192" lon="5.58828">
        <ele>120</ele>
        <time>2019-11-20T15:06:37Z</time>
      </trkpt>
      <trkpt lat="43.19187" lon="5.58832">
        <ele>119</ele>
        <time>2019-11-20T15:06:41Z</time>
      </trkpt>
      <trkpt lat="43.19183" lon="5.58837">
        <ele>119</ele>
        <time>2019-11-20T15:06:47Z</time>
      </trkpt>
      <trkpt lat="43.1918" lon="5.58843">
        <ele>118</ele>
        <time>2019-11-20T15:06:51Z</time>
      </trkpt>
      <trkpt lat="43.19179" lon="5.5885">
        <ele>119</ele>
        <time>2019-11-20T15:06:55Z</time>
      </trkpt>
      <trkpt lat="43.19179" lon="5.58857">
        <ele>119</ele>
        <time>2019-11-20T15:06:59Z</time>
      </trkpt>
      <trkpt lat="43.19181" lon="5.58865">
        <ele>119</ele>
        <time>2019-11-20T15:07:03Z</time>
      </trkpt>
      <trkpt lat="43.19182" lon="5.58871">
        <ele>119</ele>
        <time>2019-11-20T15:07:07Z</time>
      </trkpt>
      <trkpt lat="43.19183" lon="5.58878">
        <ele>119</ele>
        <time>2019-11-20T15:07:11Z</time>
      </trkpt>
      <trkpt lat="43.19184" lon="5.58885">
        <ele>120</ele>
        <time>2019-11-20T15:07:15Z</time>
      </trkpt>
      <trkpt lat="43.19186" lon="5.58891">
        <ele>119</ele>
        <time>2019-11-20T15:07:19Z</time>
      </trkpt>
      <trkpt lat="43.19186" lon="5.58899">
        <ele>119</ele>
        <time>2019-11-20T15:07:25Z</time>
      </trkpt>
      <trkpt lat="43.19182" lon="5.58907">
        <ele>118</ele>
        <time>2019-11-20T15:07:31Z</time>
      </trkpt>
      <trkpt lat="43.19178" lon="5.58914">
        <ele>116</ele>
        <time>2019-11-20T15:07:37Z</time>
      </trkpt>
      <trkpt lat="43.19176" lon="5.5892">
        <ele>117</ele>
        <time>2019-11-20T15:07:41Z</time>
      </trkpt>
      <trkpt lat="43.19173" lon="5.58925">
        <ele>115</ele>
        <time>2019-11-20T15:07:45Z</time>
      </trkpt>
      <trkpt lat="43.19168" lon="5.58931">
        <ele>116</ele>
        <time>2019-11-20T15:07:51Z</time>
      </trkpt>
      <trkpt lat="43.19163" lon="5.58937">
        <ele>116</ele>
        <time>2019-11-20T15:07:57Z</time>
      </trkpt>
      <trkpt lat="43.19159" lon="5.58941">
        <ele>117</ele>
        <time>2019-11-20T15:08:01Z</time>
      </trkpt>
      <trkpt lat="43.19152" lon="5.58942">
        <ele>115</ele>
        <time>2019-11-20T15:08:07Z</time>
      </trkpt>
      <trkpt lat="43.19146" lon="5.58942">
        <ele>116</ele>
        <time>2019-11-20T15:08:13Z</time>
      </trkpt>
      <trkpt lat="43.19141" lon="5.58944">
        <ele>119</ele>
        <time>2019-11-20T15:08:17Z</time>
      </trkpt>
      <trkpt lat="43.19135" lon="5.58943">
        <ele>119</ele>
        <time>2019-11-20T15:08:21Z</time>
      </trkpt>
      <trkpt lat="43.19129" lon="5.58942">
        <ele>121</ele>
        <time>2019-11-20T15:08:25Z</time>
      </trkpt>
      <trkpt lat="43.19124" lon="5.58939">
        <ele>119</ele>
        <time>2019-11-20T15:08:29Z</time>
      </trkpt>
      <trkpt lat="43.19118" lon="5.58937">
        <ele>120</ele>
        <time>2019-11-20T15:08:35Z</time>
      </trkpt>
      <trkpt lat="43.19112" lon="5.58936">
        <ele>118</ele>
        <time>2019-11-20T15:08:41Z</time>
      </trkpt>
      <trkpt lat="43.19107" lon="5.58938">
        <ele>120</ele>
        <time>2019-11-20T15:08:47Z</time>
      </trkpt>
      <trkpt lat="43.19102" lon="5.58939">
        <ele>115</ele>
        <time>2019-11-20T15:08:53Z</time>
      </trkpt>
      <trkpt lat="43.19097" lon="5.58942">
        <ele>116</ele>
        <time>2019-11-20T15:08:59Z</time>
      </trkpt>
      <trkpt lat="43.19091" lon="5.58947">
        <ele>116</ele>
        <time>2019-11-20T15:09:05Z</time>
      </trkpt>
      <trkpt lat="43.19085" lon="5.58951">
        <ele>117</ele>
        <time>2019-11-20T15:09:11Z</time>
      </trkpt>
      <trkpt lat="43.19078" lon="5.58955">
        <ele>116</ele>
        <time>2019-11-20T15:09:17Z</time>
      </trkpt>
      <trkpt lat="43.19072" lon="5.58958">
        <ele>113</ele>
        <time>2019-11-20T15:09:23Z</time>
      </trkpt>
      <trkpt lat="43.19067" lon="5.58961">
        <ele>115</ele>
        <time>2019-11-20T15:09:27Z</time>
      </trkpt>
      <trkpt lat="43.19063" lon="5.58964">
        <ele>114</ele>
        <time>2019-11-20T15:09:31Z</time>
      </trkpt>
      <trkpt lat="43.1906" lon="5.5897">
        <ele>114</ele>
        <time>2019-11-20T15:09:37Z</time>
      </trkpt>
      <trkpt lat="43.19057" lon="5.58976">
        <ele>112</ele>
        <time>2019-11-20T15:09:43Z</time>
      </trkpt>
      <trkpt lat="43.19054" lon="5.5898">
        <ele>111</ele>
        <time>2019-11-20T15:09:47Z</time>
      </trkpt>
      <trkpt lat="43.19049" lon="5.58987">
        <ele>112</ele>
        <time>2019-11-20T15:09:53Z</time>
      </trkpt>
      <trkpt lat="43.19045" lon="5.58991">
        <ele>113</ele>
        <time>2019-11-20T15:09:57Z</time>
      </trkpt>
      <trkpt lat="43.19041" lon="5.58996">
        <ele>114</ele>
        <time>2019-11-20T15:10:01Z</time>
      </trkpt>
      <trkpt lat="43.19038" lon="5.59002">
        <ele>116</ele>
        <time>2019-11-20T15:10:07Z</time>
      </trkpt>
      <trkpt lat="43.19033" lon="5.59008">
        <ele>112</ele>
        <time>2019-11-20T15:10:13Z</time>
      </trkpt>
      <trkpt lat="43.19027" lon="5.59009">
        <ele>115</ele>
        <time>2019-11-20T15:10:19Z</time>
      </trkpt>
      <trkpt lat="43.19022" lon="5.59012">
        <ele>114</ele>
        <time>2019-11-20T15:10:25Z</time>
      </trkpt>
      <trkpt lat="43.19017" lon="5.59014">
        <ele>115</ele>
        <time>2019-11-20T15:10:29Z</time>
      </trkpt>
      <trkpt lat="43.19012" lon="5.59015">
        <ele>114</ele>
        <time>2019-11-20T15:10:35Z</time>
      </trkpt>
      <trkpt lat="43.19007" lon="5.59016">
        <ele>113</ele>
        <time>2019-11-20T15:10:39Z</time>
      </trkpt>
      <trkpt lat="43.19004" lon="5.5902">
        <ele>114</ele>
        <time>2019-11-20T15:10:45Z</time>
      </trkpt>
      <trkpt lat="43.18999" lon="5.59022">
        <ele>111</ele>
        <time>2019-11-20T15:10:49Z</time>
      </trkpt>
      <trkpt lat="43.18993" lon="5.59023">
        <ele>111</ele>
        <time>2019-11-20T15:10:53Z</time>
      </trkpt>
      <trkpt lat="43.18987" lon="5.59025">
        <ele>111</ele>
        <time>2019-11-20T15:10:57Z</time>
      </trkpt>
      <trkpt lat="43.18982" lon="5.59027">
        <ele>113</ele>
        <time>2019-11-20T15:11:01Z</time>
      </trkpt>
      <trkpt lat="43.18976" lon="5.5903">
        <ele>114</ele>
        <time>2019-11-20T15:11:05Z</time>
      </trkpt>
      <trkpt lat="43.18971" lon="5.59033">
        <ele>114</ele>
        <time>2019-11-20T15:11:09Z</time>
      </trkpt>
      <trkpt lat="43.18967" lon="5.59036">
        <ele>114</ele>
        <time>2019-11-20T15:11:13Z</time>
      </trkpt>
      <trkpt lat="43.18962" lon="5.59039">
        <ele>116</ele>
        <time>2019-11-20T15:11:17Z</time>
      </trkpt>
      <trkpt lat="43.18957" lon="5.59044">
        <ele>114</ele>
        <time>2019-11-20T15:11:23Z</time>
      </trkpt>
      <trkpt lat="43.18953" lon="5.59051">
        <ele>111</ele>
        <time>2019-11-20T15:11:29Z</time>
      </trkpt>
      <trkpt lat="43.1895" lon="5.59057">
        <ele>108</ele>
        <time>2019-11-20T15:11:33Z</time>
      </trkpt>
      <trkpt lat="43.18948" lon="5.59063">
        <ele>109</ele>
        <time>2019-11-20T15:11:37Z</time>
      </trkpt>
      <trkpt lat="43.18945" lon="5.5907">
        <ele>109</ele>
        <time>2019-11-20T15:11:41Z</time>
      </trkpt>
      <trkpt lat="43.18943" lon="5.59077">
        <ele>108</ele>
        <time>2019-11-20T15:11:45Z</time>
      </trkpt>
      <trkpt lat="43.18943" lon="5.59084">
        <ele>108</ele>
        <time>2019-11-20T15:11:49Z</time>
      </trkpt>
      <trkpt lat="43.18941" lon="5.59092">
        <ele>111</ele>
        <time>2019-11-20T15:11:55Z</time>
      </trkpt>
      <trkpt lat="43.18937" lon="5.591">
        <ele>113</ele>
        <time>2019-11-20T15:11:59Z</time>
      </trkpt>
      <trkpt lat="43.18934" lon="5.59108">
        <ele>114</ele>
        <time>2019-11-20T15:12:03Z</time>
      </trkpt>
      <trkpt lat="43.18931" lon="5.59115">
        <ele>113</ele>
        <time>2019-11-20T15:12:09Z</time>
      </trkpt>
      <trkpt lat="43.18927" lon="5.59118">
        <ele>110</ele>
        <time>2019-11-20T15:12:13Z</time>
      </trkpt>
      <trkpt lat="43.18924" lon="5.59124">
        <ele>109</ele>
        <time>2019-11-20T15:12:19Z</time>
      </trkpt>
      <trkpt lat="43.1892" lon="5.59128">
        <ele>107</ele>
        <time>2019-11-20T15:12:23Z</time>
      </trkpt>
      <trkpt lat="43.18916" lon="5.59132">
        <ele>106</ele>
        <time>2019-11-20T15:12:27Z</time>
      </trkpt>
      <trkpt lat="43.18913" lon="5.59137">
        <ele>104</ele>
        <time>2019-11-20T15:12:31Z</time>
      </trkpt>
      <trkpt lat="43.18911" lon="5.59146">
        <ele>104</ele>
        <time>2019-11-20T15:12:37Z</time>
      </trkpt>
      <trkpt lat="43.18909" lon="5.59153">
        <ele>103</ele>
        <time>2019-11-20T15:12:41Z</time>
      </trkpt>
      <trkpt lat="43.18905" lon="5.59159">
        <ele>105</ele>
        <time>2019-11-20T15:12:45Z</time>
      </trkpt>
      <trkpt lat="43.18902" lon="5.59164">
        <ele>107</ele>
        <time>2019-11-20T15:12:49Z</time>
      </trkpt>
      <trkpt lat="43.18896" lon="5.59169">
        <ele>107</ele>
        <time>2019-11-20T15:12:53Z</time>
      </trkpt>
      <trkpt lat="43.18892" lon="5.59173">
        <ele>105</ele>
        <time>2019-11-20T15:12:57Z</time>
      </trkpt>
      <trkpt lat="43.18887" lon="5.59178">
        <ele>106</ele>
        <time>2019-11-20T15:13:01Z</time>
      </trkpt>
      <trkpt lat="43.18883" lon="5.59183">
        <ele>106</ele>
        <time>2019-11-20T15:13:05Z</time>
      </trkpt>
      <trkpt lat="43.1888" lon="5.59187">
        <ele>104</ele>
        <time>2019-11-20T15:13:09Z</time>
      </trkpt>
      <trkpt lat="43.18875" lon="5.59192">
        <ele>105</ele>
        <time>2019-11-20T15:13:15Z</time>
      </trkpt>
      <trkpt lat="43.18871" lon="5.59198">
        <ele>107</ele>
        <time>2019-11-20T15:13:19Z</time>
      </trkpt>
      <trkpt lat="43.18867" lon="5.59203">
        <ele>108</ele>
        <time>2019-11-20T15:13:23Z</time>
      </trkpt>
      <trkpt lat="43.18864" lon="5.59207">
        <ele>108</ele>
        <time>2019-11-20T15:13:27Z</time>
      </trkpt>
      <trkpt lat="43.18859" lon="5.59211">
        <ele>109</ele>
        <time>2019-11-20T15:13:31Z</time>
      </trkpt>
      <trkpt lat="43.18855" lon="5.59215">
        <ele>111</ele>
        <time>2019-11-20T15:13:35Z</time>
      </trkpt>
      <trkpt lat="43.18849" lon="5.59218">
        <ele>109</ele>
        <time>2019-11-20T15:13:41Z</time>
      </trkpt>
      <trkpt lat="43.18844" lon="5.59221">
        <ele>107</ele>
        <time>2019-11-20T15:13:49Z</time>
      </trkpt>
      <trkpt lat="43.18838" lon="5.59223">
        <ele>105</ele>
        <time>2019-11-20T15:13:53Z</time>
      </trkpt>
      <trkpt lat="43.18832" lon="5.59225">
        <ele>106</ele>
        <time>2019-11-20T15:13:57Z</time>
      </trkpt>
      <trkpt lat="43.18827" lon="5.59226">
        <ele>101</ele>
        <time>2019-11-20T15:14:01Z</time>
      </trkpt>
      <trkpt lat="43.18822" lon="5.59232">
        <ele>103</ele>
        <time>2019-11-20T15:14:05Z</time>
      </trkpt>
      <trkpt lat="43.18817" lon="5.59235">
        <ele>106</ele>
        <time>2019-11-20T15:14:09Z</time>
      </trkpt>
      <trkpt lat="43.18813" lon="5.59239">
        <ele>104</ele>
        <time>2019-11-20T15:14:13Z</time>
      </trkpt>
      <trkpt lat="43.18808" lon="5.5924">
        <ele>102</ele>
        <time>2019-11-20T15:14:17Z</time>
      </trkpt>
      <trkpt lat="43.18803" lon="5.59241">
        <ele>104</ele>
        <time>2019-11-20T15:14:21Z</time>
      </trkpt>
      <trkpt lat="43.18797" lon="5.59243">
        <ele>104</ele>
        <time>2019-11-20T15:14:27Z</time>
      </trkpt>
      <trkpt lat="43.18791" lon="5.59246">
        <ele>103</ele>
        <time>2019-11-20T15:14:33Z</time>
      </trkpt>
      <trkpt lat="43.18786" lon="5.5925">
        <ele>105</ele>
        <time>2019-11-20T15:14:39Z</time>
      </trkpt>
      <trkpt lat="43.18781" lon="5.59253">
        <ele>106</ele>
        <time>2019-11-20T15:14:43Z</time>
      </trkpt>
      <trkpt lat="43.18776" lon="5.59256">
        <ele>104</ele>
        <time>2019-11-20T15:14:47Z</time>
      </trkpt>
      <trkpt lat="43.18769" lon="5.59258">
        <ele>101</ele>
        <time>2019-11-20T15:14:51Z</time>
      </trkpt>
      <trkpt lat="43.18764" lon="5.59262">
        <ele>101</ele>
        <time>2019-11-20T15:14:55Z</time>
      </trkpt>
      <trkpt lat="43.1876" lon="5.59268">
        <ele>99</ele>
        <time>2019-11-20T15:15:01Z</time>
      </trkpt>
      <trkpt lat="43.18755" lon="5.59272">
        <ele>99</ele>
        <time>2019-11-20T15:15:07Z</time>
      </trkpt>
      <trkpt lat="43.1875" lon="5.59279">
        <ele>96</ele>
        <time>2019-11-20T15:15:13Z</time>
      </trkpt>
      <trkpt lat="43.18747" lon="5.59286">
        <ele>95</ele>
        <time>2019-11-20T15:15:17Z</time>
      </trkpt>
      <trkpt lat="43.18745" lon="5.59292">
        <ele>93</ele>
        <time>2019-11-20T15:15:21Z</time>
      </trkpt>
      <trkpt lat="43.18743" lon="5.59299">
        <ele>91</ele>
        <time>2019-11-20T15:15:25Z</time>
      </trkpt>
      <trkpt lat="43.18742" lon="5.59305">
        <ele>92</ele>
        <time>2019-11-20T15:15:29Z</time>
      </trkpt>
      <trkpt lat="43.1874" lon="5.59312">
        <ele>94</ele>
        <time>2019-11-20T15:15:33Z</time>
      </trkpt>
      <trkpt lat="43.18737" lon="5.59319">
        <ele>96</ele>
        <time>2019-11-20T15:15:37Z</time>
      </trkpt>
      <trkpt lat="43.18734" lon="5.59324">
        <ele>98</ele>
        <time>2019-11-20T15:15:41Z</time>
      </trkpt>
      <trkpt lat="43.1873" lon="5.59329">
        <ele>99</ele>
        <time>2019-11-20T15:15:45Z</time>
      </trkpt>
      <trkpt lat="43.18726" lon="5.59336">
        <ele>100</ele>
        <time>2019-11-20T15:15:49Z</time>
      </trkpt>
      <trkpt lat="43.18723" lon="5.59341">
        <ele>100</ele>
        <time>2019-11-20T15:15:53Z</time>
      </trkpt>
      <trkpt lat="43.18718" lon="5.59345">
        <ele>101</ele>
        <time>2019-11-20T15:15:57Z</time>
      </trkpt>
      <trkpt lat="43.18713" lon="5.59348">
        <ele>102</ele>
        <time>2019-11-20T15:16:01Z</time>
      </trkpt>
      <trkpt lat="43.18709" lon="5.59351">
        <ele>103</ele>
        <time>2019-11-20T15:16:05Z</time>
      </trkpt>
      <trkpt lat="43.18704" lon="5.59355">
        <ele>103</ele>
        <time>2019-11-20T15:16:09Z</time>
      </trkpt>
      <trkpt lat="43.187" lon="5.59358">
        <ele>103</ele>
        <time>2019-11-20T15:16:13Z</time>
      </trkpt>
      <trkpt lat="43.18694" lon="5.59363">
        <ele>104</ele>
        <time>2019-11-20T15:16:19Z</time>
      </trkpt>
      <trkpt lat="43.18688" lon="5.59365">
        <ele>103</ele>
        <time>2019-11-20T15:16:25Z</time>
      </trkpt>
      <trkpt lat="43.18683" lon="5.59369">
        <ele>102</ele>
        <time>2019-11-20T15:16:29Z</time>
      </trkpt>
      <trkpt lat="43.1868" lon="5.59373">
        <ele>101</ele>
        <time>2019-11-20T15:16:33Z</time>
      </trkpt>
      <trkpt lat="43.18675" lon="5.59378">
        <ele>101</ele>
        <time>2019-11-20T15:16:39Z</time>
      </trkpt>
      <trkpt lat="43.18672" lon="5.59383">
        <ele>103</ele>
        <time>2019-11-20T15:16:43Z</time>
      </trkpt>
      <trkpt lat="43.18669" lon="5.59388">
        <ele>102</ele>
        <time>2019-11-20T15:16:47Z</time>
      </trkpt>
      <trkpt lat="43.18668" lon="5.59396">
        <ele>100</ele>
        <time>2019-11-20T15:16:53Z</time>
      </trkpt>
      <trkpt lat="43.18667" lon="5.59403">
        <ele>99</ele>
        <time>2019-11-20T15:16:59Z</time>
      </trkpt>
      <trkpt lat="43.18665" lon="5.59412">
        <ele>95</ele>
        <time>2019-11-20T15:17:05Z</time>
      </trkpt>
      <trkpt lat="43.18665" lon="5.5942">
        <ele>95</ele>
        <time>2019-11-20T15:17:09Z</time>
      </trkpt>
      <trkpt lat="43.18665" lon="5.59427">
        <ele>94</ele>
        <time>2019-11-20T15:17:13Z</time>
      </trkpt>
      <trkpt lat="43.18666" lon="5.59434">
        <ele>95</ele>
        <time>2019-11-20T15:17:17Z</time>
      </trkpt>
      <trkpt lat="43.18667" lon="5.59442">
        <ele>95</ele>
        <time>2019-11-20T15:17:21Z</time>
      </trkpt>
      <trkpt lat="43.18669" lon="5.59449">
        <ele>95</ele>
        <time>2019-11-20T15:17:25Z</time>
      </trkpt>
      <trkpt lat="43.18668" lon="5.59457">
        <ele>95</ele>
        <time>2019-11-20T15:17:29Z</time>
      </trkpt>
      <trkpt lat="43.18667" lon="5.59464">
        <ele>96</ele>
        <time>2019-11-20T15:17:33Z</time>
      </trkpt>
      <trkpt lat="43.18665" lon="5.5947">
        <ele>96</ele>
        <time>2019-11-20T15:17:37Z</time>
      </trkpt>
      <trkpt lat="43.18662" lon="5.59475">
        <ele>95</ele>
        <time>2019-11-20T15:17:41Z</time>
      </trkpt>
      <trkpt lat="43.18658" lon="5.59479">
        <ele>94</ele>
        <time>2019-11-20T15:17:45Z</time>
      </trkpt>
      <trkpt lat="43.18653" lon="5.59485">
        <ele>95</ele>
        <time>2019-11-20T15:17:49Z</time>
      </trkpt>
      <trkpt lat="43.18648" lon="5.59488">
        <ele>96</ele>
        <time>2019-11-20T15:17:53Z</time>
      </trkpt>
      <trkpt lat="43.18641" lon="5.5949">
        <ele>98</ele>
        <time>2019-11-20T15:17:57Z</time>
      </trkpt>
      <trkpt lat="43.18637" lon="5.59492">
        <ele>96</ele>
        <time>2019-11-20T15:18:01Z</time>
      </trkpt>
      <trkpt lat="43.18632" lon="5.59498">
        <ele>94</ele>
        <time>2019-11-20T15:18:07Z</time>
      </trkpt>
      <trkpt lat="43.18629" lon="5.59502">
        <ele>94</ele>
        <time>2019-11-20T15:18:11Z</time>
      </trkpt>
      <trkpt lat="43.18625" lon="5.59506">
        <ele>95</ele>
        <time>2019-11-20T15:18:15Z</time>
      </trkpt>
      <trkpt lat="43.1862" lon="5.59508">
        <ele>94</ele>
        <time>2019-11-20T15:18:19Z</time>
      </trkpt>
      <trkpt lat="43.18616" lon="5.59511">
        <ele>94</ele>
        <time>2019-11-20T15:18:23Z</time>
      </trkpt>
      <trkpt lat="43.18611" lon="5.59513">
        <ele>94</ele>
        <time>2019-11-20T15:18:27Z</time>
      </trkpt>
      <trkpt lat="43.18606" lon="5.59516">
        <ele>95</ele>
        <time>2019-11-20T15:18:33Z</time>
      </trkpt>
      <trkpt lat="43.18601" lon="5.59519">
        <ele>93</ele>
        <time>2019-11-20T15:18:39Z</time>
      </trkpt>
      <trkpt lat="43.18596" lon="5.59522">
        <ele>92</ele>
        <time>2019-11-20T15:18:45Z</time>
      </trkpt>
      <trkpt lat="43.18591" lon="5.59525">
        <ele>92</ele>
        <time>2019-11-20T15:18:49Z</time>
      </trkpt>
      <trkpt lat="43.18586" lon="5.59528">
        <ele>92</ele>
        <time>2019-11-20T15:18:53Z</time>
      </trkpt>
      <trkpt lat="43.18581" lon="5.59533">
        <ele>94</ele>
        <time>2019-11-20T15:18:59Z</time>
      </trkpt>
      <trkpt lat="43.18576" lon="5.59535">
        <ele>92</ele>
        <time>2019-11-20T15:19:03Z</time>
      </trkpt>
      <trkpt lat="43.18572" lon="5.59537">
        <ele>92</ele>
        <time>2019-11-20T15:19:07Z</time>
      </trkpt>
      <trkpt lat="43.18567" lon="5.5954">
        <ele>92</ele>
        <time>2019-11-20T15:19:11Z</time>
      </trkpt>
      <trkpt lat="43.18562" lon="5.59541">
        <ele>92</ele>
        <time>2019-11-20T15:19:15Z</time>
      </trkpt>
      <trkpt lat="43.18557" lon="5.59544">
        <ele>91</ele>
        <time>2019-11-20T15:19:19Z</time>
      </trkpt>
      <trkpt lat="43.18552" lon="5.59546">
        <ele>90</ele>
        <time>2019-11-20T15:19:23Z</time>
      </trkpt>
      <trkpt lat="43.18548" lon="5.5955">
        <ele>90</ele>
        <time>2019-11-20T15:19:27Z</time>
      </trkpt>
      <trkpt lat="43.18543" lon="5.59555">
        <ele>90</ele>
        <time>2019-11-20T15:19:33Z</time>
      </trkpt>
      <trkpt lat="43.18539" lon="5.59558">
        <ele>91</ele>
        <time>2019-11-20T15:19:37Z</time>
      </trkpt>
      <trkpt lat="43.18535" lon="5.59562">
        <ele>92</ele>
        <time>2019-11-20T15:19:41Z</time>
      </trkpt>
      <trkpt lat="43.1853" lon="5.59566">
        <ele>91</ele>
        <time>2019-11-20T15:19:47Z</time>
      </trkpt>
      <trkpt lat="43.18525" lon="5.59571">
        <ele>92</ele>
        <time>2019-11-20T15:19:53Z</time>
      </trkpt>
      <trkpt lat="43.1852" lon="5.59573">
        <ele>92</ele>
        <time>2019-11-20T15:19:57Z</time>
      </trkpt>
      <trkpt lat="43.18514" lon="5.59577">
        <ele>90</ele>
        <time>2019-11-20T15:20:03Z</time>
      </trkpt>
      <trkpt lat="43.18511" lon="5.59582">
        <ele>92</ele>
        <time>2019-11-20T15:20:07Z</time>
      </trkpt>
      <trkpt lat="43.18509" lon="5.59589">
        <ele>93</ele>
        <time>2019-11-20T15:20:11Z</time>
      </trkpt>
      <trkpt lat="43.18506" lon="5.59595">
        <ele>91</ele>
        <time>2019-11-20T15:20:17Z</time>
      </trkpt>
      <trkpt lat="43.18502" lon="5.59602">
        <ele>92</ele>
        <time>2019-11-20T15:20:23Z</time>
      </trkpt>
      <trkpt lat="43.18497" lon="5.59607">
        <ele>92</ele>
        <time>2019-11-20T15:20:29Z</time>
      </trkpt>
      <trkpt lat="43.18492" lon="5.59612">
        <ele>92</ele>
        <time>2019-11-20T15:20:35Z</time>
      </trkpt>
      <trkpt lat="43.18487" lon="5.59616">
        <ele>89</ele>
        <time>2019-11-20T15:20:41Z</time>
      </trkpt>
      <trkpt lat="43.18483" lon="5.59623">
        <ele>91</ele>
        <time>2019-11-20T15:20:47Z</time>
      </trkpt>
      <trkpt lat="43.1848" lon="5.5963">
        <ele>90</ele>
        <time>2019-11-20T15:20:53Z</time>
      </trkpt>
      <trkpt lat="43.18476" lon="5.59636">
        <ele>91</ele>
        <time>2019-11-20T15:20:59Z</time>
      </trkpt>
      <trkpt lat="43.18472" lon="5.5964">
        <ele>91</ele>
        <time>2019-11-20T15:21:05Z</time>
      </trkpt>
      <trkpt lat="43.18466" lon="5.59643">
        <ele>93</ele>
        <time>2019-11-20T15:21:11Z</time>
      </trkpt>
      <trkpt lat="43.1846" lon="5.59649">
        <ele>96</ele>
        <time>2019-11-20T15:21:17Z</time>
      </trkpt>
      <trkpt lat="43.18456" lon="5.59653">
        <ele>98</ele>
        <time>2019-11-20T15:21:21Z</time>
      </trkpt>
      <trkpt lat="43.18451" lon="5.59657">
        <ele>100</ele>
        <time>2019-11-20T15:21:25Z</time>
      </trkpt>
      <trkpt lat="43.18445" lon="5.59661">
        <ele>99</ele>
        <time>2019-11-20T15:21:31Z</time>
      </trkpt>
      <trkpt lat="43.18439" lon="5.59665">
        <ele>99</ele>
        <time>2019-11-20T15:21:37Z</time>
      </trkpt>
      <trkpt lat="43.18433" lon="5.59668">
        <ele>101</ele>
        <time>2019-11-20T15:21:43Z</time>
      </trkpt>
      <trkpt lat="43.18428" lon="5.59672">
        <ele>101</ele>
        <time>2019-11-20T15:21:49Z</time>
      </trkpt>
      <trkpt lat="43.18423" lon="5.59674">
        <ele>98</ele>
        <time>2019-11-20T15:21:57Z</time>
      </trkpt>
      <trkpt lat="43.18418" lon="5.59679">
        <ele>98</ele>
        <time>2019-11-20T15:22:03Z</time>
      </trkpt>
      <trkpt lat="43.18415" lon="5.59684">
        <ele>95</ele>
        <time>2019-11-20T15:22:09Z</time>
      </trkpt>
      <trkpt lat="43.18412" lon="5.59692">
        <ele>96</ele>
        <time>2019-11-20T15:22:15Z</time>
      </trkpt>
      <trkpt lat="43.18411" lon="5.59701">
        <ele>96</ele>
        <time>2019-11-20T15:22:21Z</time>
      </trkpt>
      <trkpt lat="43.1841" lon="5.59707">
        <ele>96</ele>
        <time>2019-11-20T15:22:25Z</time>
      </trkpt>
      <trkpt lat="43.18409" lon="5.59713">
        <ele>98</ele>
        <time>2019-11-20T15:22:29Z</time>
      </trkpt>
      <trkpt lat="43.18407" lon="5.5972">
        <ele>98</ele>
        <time>2019-11-20T15:22:33Z</time>
      </trkpt>
      <trkpt lat="43.18407" lon="5.59727">
        <ele>100</ele>
        <time>2019-11-20T15:22:39Z</time>
      </trkpt>
      <trkpt lat="43.18409" lon="5.59735">
        <ele>99</ele>
        <time>2019-11-20T15:22:45Z</time>
      </trkpt>
      <trkpt lat="43.1841" lon="5.59741">
        <ele>99</ele>
        <time>2019-11-20T15:22:49Z</time>
      </trkpt>
      <trkpt lat="43.18408" lon="5.59749">
        <ele>98</ele>
        <time>2019-11-20T15:22:55Z</time>
      </trkpt>
      <trkpt lat="43.18405" lon="5.59755">
        <ele>100</ele>
        <time>2019-11-20T15:23:01Z</time>
      </trkpt>
      <trkpt lat="43.18401" lon="5.5976">
        <ele>101</ele>
        <time>2019-11-20T15:23:07Z</time>
      </trkpt>
      <trkpt lat="43.18395" lon="5.59762">
        <ele>101</ele>
        <time>2019-11-20T15:23:13Z</time>
      </trkpt>
      <trkpt lat="43.18389" lon="5.59762">
        <ele>101</ele>
        <time>2019-11-20T15:23:19Z</time>
      </trkpt>
      <trkpt lat="43.18384" lon="5.5976">
        <ele>101</ele>
        <time>2019-11-20T15:23:55Z</time>
      </trkpt>
      <trkpt lat="43.18378" lon="5.5976">
        <ele>103</ele>
        <time>2019-11-20T15:24:01Z</time>
      </trkpt>
      <trkpt lat="43.18372" lon="5.59759">
        <ele>106</ele>
        <time>2019-11-20T15:24:15Z</time>
      </trkpt>
      <trkpt lat="43.18366" lon="5.59756">
        <ele>106</ele>
        <time>2019-11-20T15:24:23Z</time>
      </trkpt>
      <trkpt lat="43.1836" lon="5.59754">
        <ele>104</ele>
        <time>2019-11-20T15:24:29Z</time>
      </trkpt>
      <trkpt lat="43.18354" lon="5.59752">
        <ele>105</ele>
        <time>2019-11-20T15:24:33Z</time>
      </trkpt>
      <trkpt lat="43.18349" lon="5.59751">
        <ele>106</ele>
        <time>2019-11-20T15:24:37Z</time>
      </trkpt>
      <trkpt lat="43.18344" lon="5.59751">
        <ele>106</ele>
        <time>2019-11-20T15:24:41Z</time>
      </trkpt>
      <trkpt lat="43.18339" lon="5.59755">
        <ele>104</ele>
        <time>2019-11-20T15:24:45Z</time>
      </trkpt>
      <trkpt lat="43.18333" lon="5.59758">
        <ele>103</ele>
        <time>2019-11-20T15:24:51Z</time>
      </trkpt>
      <trkpt lat="43.18328" lon="5.5976">
        <ele>104</ele>
        <time>2019-11-20T15:24:55Z</time>
      </trkpt>
      <trkpt lat="43.18324" lon="5.59763">
        <ele>104</ele>
        <time>2019-11-20T15:24:59Z</time>
      </trkpt>
      <trkpt lat="43.18319" lon="5.59766">
        <ele>104</ele>
        <time>2019-11-20T15:25:03Z</time>
      </trkpt>
      <trkpt lat="43.18315" lon="5.59773">
        <ele>103</ele>
        <time>2019-11-20T15:25:09Z</time>
      </trkpt>
      <trkpt lat="43.18312" lon="5.5978">
        <ele>102</ele>
        <time>2019-11-20T15:25:15Z</time>
      </trkpt>
      <trkpt lat="43.18309" lon="5.59787">
        <ele>101</ele>
        <time>2019-11-20T15:25:21Z</time>
      </trkpt>
      <trkpt lat="43.1831" lon="5.59795">
        <ele>100</ele>
        <time>2019-11-20T15:25:27Z</time>
      </trkpt>
      <trkpt lat="43.18313" lon="5.59802">
        <ele>99</ele>
        <time>2019-11-20T15:25:33Z</time>
      </trkpt>
    </trkseg>
  </trk>
</gpx>